<?xml version="1.0" encoding="UTF-8" standalone="no" ?>
<gpx xmlns="http://www.topografix.com/GPX/1/1" xmlns:xsi="http://www.w3.org/2001/XMLSchema-instance" xsi:schemaLocation="http://www.topografix.com/GPX/1/1 http://www.topografix.com/GPX/1/1/gpx.xsd" version="1.1" creator="VisuGPX - https://www.visugpx.com">
  <metadata>
    <name>Pierrefeu - Camargues</name>
  </metadata>
  <trk>
    <name><![CDATA[2021-07-11 Camargues]]></name>
    <trkseg>
      <trkpt lat="43.28626" lon="6.13216">
        <ele>193.1484375</ele>
        <time>2021-07-11T07:03:14Z</time>
      </trkpt>
      <trkpt lat="43.2863" lon="6.13212">
        <ele>193.5</ele>
        <time>2021-07-11T07:03:27Z</time>
      </trkpt>
      <trkpt lat="43.28627" lon="6.1321">
        <ele>193.50390625</ele>
        <time>2021-07-11T07:04:04Z</time>
      </trkpt>
      <trkpt lat="43.28628" lon="6.13206">
        <ele>193.640625</ele>
        <time>2021-07-11T07:04:49Z</time>
      </trkpt>
      <trkpt lat="43.28629" lon="6.13207">
        <ele>193.640625</ele>
        <time>2021-07-11T07:05:28Z</time>
      </trkpt>
      <trkpt lat="43.28626" lon="6.1321">
        <ele>193.46484375</ele>
        <time>2021-07-11T07:06:11Z</time>
      </trkpt>
      <trkpt lat="43.28629" lon="6.13212">
        <ele>193.44140625</ele>
        <time>2021-07-11T07:06:33Z</time>
      </trkpt>
      <trkpt lat="43.28628" lon="6.13214">
        <ele>193.28125</ele>
        <time>2021-07-11T07:06:41Z</time>
      </trkpt>
      <trkpt lat="43.28604" lon="6.13238">
        <ele>191.66796875</ele>
        <time>2021-07-11T07:06:51Z</time>
      </trkpt>
      <trkpt lat="43.28603" lon="6.13242">
        <ele>191.5078125</ele>
        <time>2021-07-11T07:06:52Z</time>
      </trkpt>
      <trkpt lat="43.28604" lon="6.13246">
        <ele>191.37109375</ele>
        <time>2021-07-11T07:06:53Z</time>
      </trkpt>
      <trkpt lat="43.28605" lon="6.1325">
        <ele>191.2890625</ele>
        <time>2021-07-11T07:06:54Z</time>
      </trkpt>
      <trkpt lat="43.28607" lon="6.13253">
        <ele>191.25</ele>
        <time>2021-07-11T07:06:55Z</time>
      </trkpt>
      <trkpt lat="43.28609" lon="6.13256">
        <ele>191.21484375</ele>
        <time>2021-07-11T07:06:56Z</time>
      </trkpt>
      <trkpt lat="43.28612" lon="6.1326">
        <ele>191.1640625</ele>
        <time>2021-07-11T07:06:57Z</time>
      </trkpt>
      <trkpt lat="43.28634" lon="6.1326">
        <ele>191.19140625</ele>
        <time>2021-07-11T07:07:05Z</time>
      </trkpt>
      <trkpt lat="43.28663" lon="6.13248">
        <ele>192.15625</ele>
        <time>2021-07-11T07:07:18Z</time>
      </trkpt>
      <trkpt lat="43.28693" lon="6.13242">
        <ele>192.640625</ele>
        <time>2021-07-11T07:07:30Z</time>
      </trkpt>
      <trkpt lat="43.28716" lon="6.13261">
        <ele>191.26953125</ele>
        <time>2021-07-11T07:07:39Z</time>
      </trkpt>
      <trkpt lat="43.28716" lon="6.1327">
        <ele>190.6640625</ele>
        <time>2021-07-11T07:07:42Z</time>
      </trkpt>
      <trkpt lat="43.28714" lon="6.13273">
        <ele>190.421875</ele>
        <time>2021-07-11T07:07:43Z</time>
      </trkpt>
      <trkpt lat="43.28712" lon="6.13277">
        <ele>190.16015625</ele>
        <time>2021-07-11T07:07:44Z</time>
      </trkpt>
      <trkpt lat="43.28678" lon="6.13329">
        <ele>187.703125</ele>
        <time>2021-07-11T07:07:55Z</time>
      </trkpt>
      <trkpt lat="43.28677" lon="6.13331">
        <ele>187.63671875</ele>
        <time>2021-07-11T07:07:56Z</time>
      </trkpt>
      <trkpt lat="43.28671" lon="6.1334">
        <ele>187.3203125</ele>
        <time>2021-07-11T07:08:03Z</time>
      </trkpt>
      <trkpt lat="43.2867" lon="6.13339">
        <ele>187.33203125</ele>
        <time>2021-07-11T07:08:04Z</time>
      </trkpt>
      <trkpt lat="43.28668" lon="6.13338">
        <ele>187.359375</ele>
        <time>2021-07-11T07:08:05Z</time>
      </trkpt>
      <trkpt lat="43.28666" lon="6.13338">
        <ele>187.3984375</ele>
        <time>2021-07-11T07:08:06Z</time>
      </trkpt>
      <trkpt lat="43.28663" lon="6.13337">
        <ele>187.41015625</ele>
        <time>2021-07-11T07:08:07Z</time>
      </trkpt>
      <trkpt lat="43.28661" lon="6.13339">
        <ele>187.34765625</ele>
        <time>2021-07-11T07:08:08Z</time>
      </trkpt>
      <trkpt lat="43.28659" lon="6.13343">
        <ele>187.1796875</ele>
        <time>2021-07-11T07:08:09Z</time>
      </trkpt>
      <trkpt lat="43.28658" lon="6.13349">
        <ele>186.9453125</ele>
        <time>2021-07-11T07:08:10Z</time>
      </trkpt>
      <trkpt lat="43.28655" lon="6.13355">
        <ele>186.52734375</ele>
        <time>2021-07-11T07:08:11Z</time>
      </trkpt>
      <trkpt lat="43.28651" lon="6.13361">
        <ele>186.12109375</ele>
        <time>2021-07-11T07:08:12Z</time>
      </trkpt>
      <trkpt lat="43.28647" lon="6.13367">
        <ele>185.69140625</ele>
        <time>2021-07-11T07:08:13Z</time>
      </trkpt>
      <trkpt lat="43.28644" lon="6.13372">
        <ele>185.27734375</ele>
        <time>2021-07-11T07:08:14Z</time>
      </trkpt>
      <trkpt lat="43.28641" lon="6.13377">
        <ele>184.9453125</ele>
        <time>2021-07-11T07:08:15Z</time>
      </trkpt>
      <trkpt lat="43.28591" lon="6.13448">
        <ele>180.5078125</ele>
        <time>2021-07-11T07:08:30Z</time>
      </trkpt>
      <trkpt lat="43.28577" lon="6.1347">
        <ele>180</ele>
        <time>2021-07-11T07:08:34Z</time>
      </trkpt>
      <trkpt lat="43.28572" lon="6.13474">
        <ele>180</ele>
        <time>2021-07-11T07:08:35Z</time>
      </trkpt>
      <trkpt lat="43.28568" lon="6.13478">
        <ele>180</ele>
        <time>2021-07-11T07:08:36Z</time>
      </trkpt>
      <trkpt lat="43.28563" lon="6.13481">
        <ele>180</ele>
        <time>2021-07-11T07:08:37Z</time>
      </trkpt>
      <trkpt lat="43.28558" lon="6.13483">
        <ele>180</ele>
        <time>2021-07-11T07:08:38Z</time>
      </trkpt>
      <trkpt lat="43.28553" lon="6.13487">
        <ele>180.00390625</ele>
        <time>2021-07-11T07:08:39Z</time>
      </trkpt>
      <trkpt lat="43.28549" lon="6.13492">
        <ele>179.8359375</ele>
        <time>2021-07-11T07:08:40Z</time>
      </trkpt>
      <trkpt lat="43.28547" lon="6.13499">
        <ele>179.59375</ele>
        <time>2021-07-11T07:08:41Z</time>
      </trkpt>
      <trkpt lat="43.28543" lon="6.13513">
        <ele>179.09375</ele>
        <time>2021-07-11T07:08:43Z</time>
      </trkpt>
      <trkpt lat="43.2854" lon="6.13519">
        <ele>178.8515625</ele>
        <time>2021-07-11T07:08:44Z</time>
      </trkpt>
      <trkpt lat="43.28537" lon="6.13525">
        <ele>178.6328125</ele>
        <time>2021-07-11T07:08:45Z</time>
      </trkpt>
      <trkpt lat="43.28501" lon="6.13575">
        <ele>176.82421875</ele>
        <time>2021-07-11T07:08:55Z</time>
      </trkpt>
      <trkpt lat="43.28496" lon="6.1358">
        <ele>176.6640625</ele>
        <time>2021-07-11T07:08:56Z</time>
      </trkpt>
      <trkpt lat="43.28493" lon="6.13585">
        <ele>176.484375</ele>
        <time>2021-07-11T07:08:57Z</time>
      </trkpt>
      <trkpt lat="43.28489" lon="6.13589">
        <ele>176.34765625</ele>
        <time>2021-07-11T07:08:58Z</time>
      </trkpt>
      <trkpt lat="43.28486" lon="6.13591">
        <ele>176.25</ele>
        <time>2021-07-11T07:08:59Z</time>
      </trkpt>
      <trkpt lat="43.28483" lon="6.13594">
        <ele>176.14453125</ele>
        <time>2021-07-11T07:09:00Z</time>
      </trkpt>
      <trkpt lat="43.28482" lon="6.13598">
        <ele>176.00390625</ele>
        <time>2021-07-11T07:09:01Z</time>
      </trkpt>
      <trkpt lat="43.2848" lon="6.13603">
        <ele>175.8515625</ele>
        <time>2021-07-11T07:09:02Z</time>
      </trkpt>
      <trkpt lat="43.28477" lon="6.13606">
        <ele>175.73828125</ele>
        <time>2021-07-11T07:09:03Z</time>
      </trkpt>
      <trkpt lat="43.28476" lon="6.13608">
        <ele>175.6640625</ele>
        <time>2021-07-11T07:09:04Z</time>
      </trkpt>
      <trkpt lat="43.28474" lon="6.13608">
        <ele>175.65625</ele>
        <time>2021-07-11T07:09:05Z</time>
      </trkpt>
      <trkpt lat="43.28472" lon="6.13606">
        <ele>175.7109375</ele>
        <time>2021-07-11T07:09:06Z</time>
      </trkpt>
      <trkpt lat="43.2847" lon="6.13604">
        <ele>175.78515625</ele>
        <time>2021-07-11T07:09:07Z</time>
      </trkpt>
      <trkpt lat="43.28469" lon="6.13602">
        <ele>175.8671875</ele>
        <time>2021-07-11T07:09:08Z</time>
      </trkpt>
      <trkpt lat="43.2847" lon="6.13599">
        <ele>175.9765625</ele>
        <time>2021-07-11T07:09:09Z</time>
      </trkpt>
      <trkpt lat="43.28479" lon="6.13568">
        <ele>177.0859375</ele>
        <time>2021-07-11T07:09:16Z</time>
      </trkpt>
      <trkpt lat="43.28477" lon="6.13565">
        <ele>177.21484375</ele>
        <time>2021-07-11T07:09:17Z</time>
      </trkpt>
      <trkpt lat="43.28475" lon="6.13561">
        <ele>177.3515625</ele>
        <time>2021-07-11T07:09:18Z</time>
      </trkpt>
      <trkpt lat="43.28471" lon="6.13556">
        <ele>177.5234375</ele>
        <time>2021-07-11T07:09:19Z</time>
      </trkpt>
      <trkpt lat="43.28468" lon="6.1355">
        <ele>177.73046875</ele>
        <time>2021-07-11T07:09:20Z</time>
      </trkpt>
      <trkpt lat="43.28465" lon="6.13544">
        <ele>177.94140625</ele>
        <time>2021-07-11T07:09:21Z</time>
      </trkpt>
      <trkpt lat="43.28462" lon="6.13539">
        <ele>178.08984375</ele>
        <time>2021-07-11T07:09:22Z</time>
      </trkpt>
      <trkpt lat="43.28444" lon="6.13501">
        <ele>178.3984375</ele>
        <time>2021-07-11T07:09:32Z</time>
      </trkpt>
      <trkpt lat="43.28424" lon="6.13463">
        <ele>179.078125</ele>
        <time>2021-07-11T07:09:44Z</time>
      </trkpt>
      <trkpt lat="43.28388" lon="6.13406">
        <ele>179.828125</ele>
        <time>2021-07-11T07:10:00Z</time>
      </trkpt>
      <trkpt lat="43.28341" lon="6.13343">
        <ele>179.4453125</ele>
        <time>2021-07-11T07:10:17Z</time>
      </trkpt>
      <trkpt lat="43.28295" lon="6.13272">
        <ele>178.9609375</ele>
        <time>2021-07-11T07:10:34Z</time>
      </trkpt>
      <trkpt lat="43.28288" lon="6.13263">
        <ele>178.69921875</ele>
        <time>2021-07-11T07:10:36Z</time>
      </trkpt>
      <trkpt lat="43.28285" lon="6.13259">
        <ele>178.5546875</ele>
        <time>2021-07-11T07:10:37Z</time>
      </trkpt>
      <trkpt lat="43.28281" lon="6.13256">
        <ele>178.41015625</ele>
        <time>2021-07-11T07:10:38Z</time>
      </trkpt>
      <trkpt lat="43.28277" lon="6.13254">
        <ele>178.2578125</ele>
        <time>2021-07-11T07:10:39Z</time>
      </trkpt>
      <trkpt lat="43.28272" lon="6.13253">
        <ele>178.05078125</ele>
        <time>2021-07-11T07:10:40Z</time>
      </trkpt>
      <trkpt lat="43.28267" lon="6.13254">
        <ele>177.7890625</ele>
        <time>2021-07-11T07:10:41Z</time>
      </trkpt>
      <trkpt lat="43.28263" lon="6.13256">
        <ele>177.53515625</ele>
        <time>2021-07-11T07:10:42Z</time>
      </trkpt>
      <trkpt lat="43.28258" lon="6.13259">
        <ele>177.28515625</ele>
        <time>2021-07-11T07:10:43Z</time>
      </trkpt>
      <trkpt lat="43.28253" lon="6.13262">
        <ele>177.0546875</ele>
        <time>2021-07-11T07:10:44Z</time>
      </trkpt>
      <trkpt lat="43.28181" lon="6.13295">
        <ele>171.94140625</ele>
        <time>2021-07-11T07:10:57Z</time>
      </trkpt>
      <trkpt lat="43.28147" lon="6.1331">
        <ele>171.62109375</ele>
        <time>2021-07-11T07:11:03Z</time>
      </trkpt>
      <trkpt lat="43.28134" lon="6.13319">
        <ele>171.7109375</ele>
        <time>2021-07-11T07:11:05Z</time>
      </trkpt>
      <trkpt lat="43.28127" lon="6.13325">
        <ele>171.515625</ele>
        <time>2021-07-11T07:11:06Z</time>
      </trkpt>
      <trkpt lat="43.28109" lon="6.1334">
        <ele>170.84765625</ele>
        <time>2021-07-11T07:11:09Z</time>
      </trkpt>
      <trkpt lat="43.28103" lon="6.13345">
        <ele>170.6484375</ele>
        <time>2021-07-11T07:11:10Z</time>
      </trkpt>
      <trkpt lat="43.28098" lon="6.1335">
        <ele>170.4765625</ele>
        <time>2021-07-11T07:11:11Z</time>
      </trkpt>
      <trkpt lat="43.28094" lon="6.13356">
        <ele>170.31640625</ele>
        <time>2021-07-11T07:11:12Z</time>
      </trkpt>
      <trkpt lat="43.2809" lon="6.13362">
        <ele>170.171875</ele>
        <time>2021-07-11T07:11:13Z</time>
      </trkpt>
      <trkpt lat="43.28086" lon="6.13368">
        <ele>170.04296875</ele>
        <time>2021-07-11T07:11:14Z</time>
      </trkpt>
      <trkpt lat="43.28083" lon="6.13375">
        <ele>169.84375</ele>
        <time>2021-07-11T07:11:15Z</time>
      </trkpt>
      <trkpt lat="43.28076" lon="6.13391">
        <ele>169.375</ele>
        <time>2021-07-11T07:11:17Z</time>
      </trkpt>
      <trkpt lat="43.28073" lon="6.13398">
        <ele>169.09375</ele>
        <time>2021-07-11T07:11:18Z</time>
      </trkpt>
      <trkpt lat="43.28068" lon="6.13404">
        <ele>168.77734375</ele>
        <time>2021-07-11T07:11:19Z</time>
      </trkpt>
      <trkpt lat="43.2803" lon="6.13469">
        <ele>164.9921875</ele>
        <time>2021-07-11T07:11:29Z</time>
      </trkpt>
      <trkpt lat="43.28026" lon="6.13475">
        <ele>164.74609375</ele>
        <time>2021-07-11T07:11:30Z</time>
      </trkpt>
      <trkpt lat="43.28022" lon="6.1348">
        <ele>164.4765625</ele>
        <time>2021-07-11T07:11:31Z</time>
      </trkpt>
      <trkpt lat="43.28018" lon="6.13485">
        <ele>164.18359375</ele>
        <time>2021-07-11T07:11:32Z</time>
      </trkpt>
      <trkpt lat="43.28014" lon="6.13489">
        <ele>163.91015625</ele>
        <time>2021-07-11T07:11:33Z</time>
      </trkpt>
      <trkpt lat="43.2801" lon="6.13493">
        <ele>163.703125</ele>
        <time>2021-07-11T07:11:34Z</time>
      </trkpt>
      <trkpt lat="43.28006" lon="6.13496">
        <ele>163.55859375</ele>
        <time>2021-07-11T07:11:35Z</time>
      </trkpt>
      <trkpt lat="43.2799" lon="6.13512">
        <ele>163.046875</ele>
        <time>2021-07-11T07:11:39Z</time>
      </trkpt>
      <trkpt lat="43.27987" lon="6.13516">
        <ele>162.92578125</ele>
        <time>2021-07-11T07:11:40Z</time>
      </trkpt>
      <trkpt lat="43.27984" lon="6.1352">
        <ele>162.73828125</ele>
        <time>2021-07-11T07:11:41Z</time>
      </trkpt>
      <trkpt lat="43.27979" lon="6.13529">
        <ele>162.36328125</ele>
        <time>2021-07-11T07:11:43Z</time>
      </trkpt>
      <trkpt lat="43.27976" lon="6.13534">
        <ele>162.11328125</ele>
        <time>2021-07-11T07:11:44Z</time>
      </trkpt>
      <trkpt lat="43.27972" lon="6.13538">
        <ele>161.984375</ele>
        <time>2021-07-11T07:11:45Z</time>
      </trkpt>
      <trkpt lat="43.27967" lon="6.13543">
        <ele>162</ele>
        <time>2021-07-11T07:11:46Z</time>
      </trkpt>
      <trkpt lat="43.27962" lon="6.13547">
        <ele>162.08203125</ele>
        <time>2021-07-11T07:11:47Z</time>
      </trkpt>
      <trkpt lat="43.27957" lon="6.13551">
        <ele>162.109375</ele>
        <time>2021-07-11T07:11:48Z</time>
      </trkpt>
      <trkpt lat="43.27951" lon="6.13554">
        <ele>162.07421875</ele>
        <time>2021-07-11T07:11:49Z</time>
      </trkpt>
      <trkpt lat="43.27945" lon="6.13557">
        <ele>161.96484375</ele>
        <time>2021-07-11T07:11:50Z</time>
      </trkpt>
      <trkpt lat="43.27873" lon="6.13603">
        <ele>158.83984375</ele>
        <time>2021-07-11T07:12:02Z</time>
      </trkpt>
      <trkpt lat="43.27782" lon="6.1366">
        <ele>152.3828125</ele>
        <time>2021-07-11T07:12:17Z</time>
      </trkpt>
      <trkpt lat="43.27776" lon="6.13663">
        <ele>152.19140625</ele>
        <time>2021-07-11T07:12:18Z</time>
      </trkpt>
      <trkpt lat="43.27771" lon="6.13664">
        <ele>152.0546875</ele>
        <time>2021-07-11T07:12:19Z</time>
      </trkpt>
      <trkpt lat="43.27766" lon="6.13665">
        <ele>151.890625</ele>
        <time>2021-07-11T07:12:20Z</time>
      </trkpt>
      <trkpt lat="43.2776" lon="6.13665">
        <ele>151.70703125</ele>
        <time>2021-07-11T07:12:21Z</time>
      </trkpt>
      <trkpt lat="43.27673" lon="6.13671">
        <ele>150</ele>
        <time>2021-07-11T07:12:37Z</time>
      </trkpt>
      <trkpt lat="43.27641" lon="6.13683">
        <ele>149.9921875</ele>
        <time>2021-07-11T07:12:45Z</time>
      </trkpt>
      <trkpt lat="43.27588" lon="6.1371">
        <ele>146.1875</ele>
        <time>2021-07-11T07:12:53Z</time>
      </trkpt>
      <trkpt lat="43.27582" lon="6.13715">
        <ele>145.73046875</ele>
        <time>2021-07-11T07:12:54Z</time>
      </trkpt>
      <trkpt lat="43.27576" lon="6.13721">
        <ele>145.2890625</ele>
        <time>2021-07-11T07:12:55Z</time>
      </trkpt>
      <trkpt lat="43.2757" lon="6.13727">
        <ele>144.859375</ele>
        <time>2021-07-11T07:12:56Z</time>
      </trkpt>
      <trkpt lat="43.27564" lon="6.13734">
        <ele>144.4453125</ele>
        <time>2021-07-11T07:12:57Z</time>
      </trkpt>
      <trkpt lat="43.27558" lon="6.13742">
        <ele>144.20703125</ele>
        <time>2021-07-11T07:12:58Z</time>
      </trkpt>
      <trkpt lat="43.2754" lon="6.13767">
        <ele>143.7421875</ele>
        <time>2021-07-11T07:13:02Z</time>
      </trkpt>
      <trkpt lat="43.27538" lon="6.13773">
        <ele>143.5859375</ele>
        <time>2021-07-11T07:13:03Z</time>
      </trkpt>
      <trkpt lat="43.27534" lon="6.13784">
        <ele>143.30859375</ele>
        <time>2021-07-11T07:13:05Z</time>
      </trkpt>
      <trkpt lat="43.27531" lon="6.13789">
        <ele>143.05078125</ele>
        <time>2021-07-11T07:13:06Z</time>
      </trkpt>
      <trkpt lat="43.27526" lon="6.13795">
        <ele>142.859375</ele>
        <time>2021-07-11T07:13:07Z</time>
      </trkpt>
      <trkpt lat="43.27521" lon="6.13801">
        <ele>142.6796875</ele>
        <time>2021-07-11T07:13:08Z</time>
      </trkpt>
      <trkpt lat="43.27516" lon="6.13808">
        <ele>142.4921875</ele>
        <time>2021-07-11T07:13:09Z</time>
      </trkpt>
      <trkpt lat="43.27485" lon="6.13844">
        <ele>142.21484375</ele>
        <time>2021-07-11T07:13:14Z</time>
      </trkpt>
      <trkpt lat="43.27477" lon="6.13849">
        <ele>142.1015625</ele>
        <time>2021-07-11T07:13:15Z</time>
      </trkpt>
      <trkpt lat="43.27469" lon="6.13854">
        <ele>141.8125</ele>
        <time>2021-07-11T07:13:16Z</time>
      </trkpt>
      <trkpt lat="43.27445" lon="6.13862">
        <ele>140.95703125</ele>
        <time>2021-07-11T07:13:19Z</time>
      </trkpt>
      <trkpt lat="43.27385" lon="6.13872">
        <ele>138.765625</ele>
        <time>2021-07-11T07:13:27Z</time>
      </trkpt>
      <trkpt lat="43.27379" lon="6.13875">
        <ele>138.56640625</ele>
        <time>2021-07-11T07:13:28Z</time>
      </trkpt>
      <trkpt lat="43.27363" lon="6.13886">
        <ele>137.61328125</ele>
        <time>2021-07-11T07:13:31Z</time>
      </trkpt>
      <trkpt lat="43.27268" lon="6.13954">
        <ele>133.1015625</ele>
        <time>2021-07-11T07:13:47Z</time>
      </trkpt>
      <trkpt lat="43.27219" lon="6.13984">
        <ele>131</ele>
        <time>2021-07-11T07:13:54Z</time>
      </trkpt>
      <trkpt lat="43.27212" lon="6.13986">
        <ele>131</ele>
        <time>2021-07-11T07:13:55Z</time>
      </trkpt>
      <trkpt lat="43.27205" lon="6.13988">
        <ele>131</ele>
        <time>2021-07-11T07:13:56Z</time>
      </trkpt>
      <trkpt lat="43.27198" lon="6.13987">
        <ele>131</ele>
        <time>2021-07-11T07:13:57Z</time>
      </trkpt>
      <trkpt lat="43.27191" lon="6.13985">
        <ele>130.80859375</ele>
        <time>2021-07-11T07:13:58Z</time>
      </trkpt>
      <trkpt lat="43.27185" lon="6.13982">
        <ele>130.56640625</ele>
        <time>2021-07-11T07:13:59Z</time>
      </trkpt>
      <trkpt lat="43.27178" lon="6.13977">
        <ele>130.3359375</ele>
        <time>2021-07-11T07:14:00Z</time>
      </trkpt>
      <trkpt lat="43.27173" lon="6.13972">
        <ele>130.125</ele>
        <time>2021-07-11T07:14:01Z</time>
      </trkpt>
      <trkpt lat="43.27167" lon="6.13966">
        <ele>130</ele>
        <time>2021-07-11T07:14:02Z</time>
      </trkpt>
      <trkpt lat="43.27162" lon="6.1396">
        <ele>130</ele>
        <time>2021-07-11T07:14:03Z</time>
      </trkpt>
      <trkpt lat="43.27156" lon="6.13955">
        <ele>130</ele>
        <time>2021-07-11T07:14:04Z</time>
      </trkpt>
      <trkpt lat="43.27151" lon="6.13951">
        <ele>130</ele>
        <time>2021-07-11T07:14:05Z</time>
      </trkpt>
      <trkpt lat="43.27145" lon="6.13949">
        <ele>130</ele>
        <time>2021-07-11T07:14:06Z</time>
      </trkpt>
      <trkpt lat="43.27139" lon="6.13948">
        <ele>130</ele>
        <time>2021-07-11T07:14:07Z</time>
      </trkpt>
      <trkpt lat="43.27133" lon="6.13948">
        <ele>130</ele>
        <time>2021-07-11T07:14:08Z</time>
      </trkpt>
      <trkpt lat="43.27079" lon="6.13954">
        <ele>128.74609375</ele>
        <time>2021-07-11T07:14:17Z</time>
      </trkpt>
      <trkpt lat="43.27073" lon="6.13952">
        <ele>128.5234375</ele>
        <time>2021-07-11T07:14:18Z</time>
      </trkpt>
      <trkpt lat="43.27066" lon="6.13949">
        <ele>128.296875</ele>
        <time>2021-07-11T07:14:19Z</time>
      </trkpt>
      <trkpt lat="43.2704" lon="6.13934">
        <ele>126.7265625</ele>
        <time>2021-07-11T07:14:23Z</time>
      </trkpt>
      <trkpt lat="43.27033" lon="6.13933">
        <ele>126.234375</ele>
        <time>2021-07-11T07:14:24Z</time>
      </trkpt>
      <trkpt lat="43.27027" lon="6.13933">
        <ele>125.8671875</ele>
        <time>2021-07-11T07:14:25Z</time>
      </trkpt>
      <trkpt lat="43.27001" lon="6.13933">
        <ele>124.93359375</ele>
        <time>2021-07-11T07:14:29Z</time>
      </trkpt>
      <trkpt lat="43.26994" lon="6.13935">
        <ele>124.69921875</ele>
        <time>2021-07-11T07:14:30Z</time>
      </trkpt>
      <trkpt lat="43.26988" lon="6.13938">
        <ele>124.48828125</ele>
        <time>2021-07-11T07:14:31Z</time>
      </trkpt>
      <trkpt lat="43.26949" lon="6.1397">
        <ele>122.16796875</ele>
        <time>2021-07-11T07:14:38Z</time>
      </trkpt>
      <trkpt lat="43.26938" lon="6.13979">
        <ele>121.67578125</ele>
        <time>2021-07-11T07:14:40Z</time>
      </trkpt>
      <trkpt lat="43.26932" lon="6.13982">
        <ele>121.4609375</ele>
        <time>2021-07-11T07:14:41Z</time>
      </trkpt>
      <trkpt lat="43.2692" lon="6.13989">
        <ele>121.015625</ele>
        <time>2021-07-11T07:14:43Z</time>
      </trkpt>
      <trkpt lat="43.26908" lon="6.13997">
        <ele>121</ele>
        <time>2021-07-11T07:14:45Z</time>
      </trkpt>
      <trkpt lat="43.26903" lon="6.14003">
        <ele>121</ele>
        <time>2021-07-11T07:14:46Z</time>
      </trkpt>
      <trkpt lat="43.26871" lon="6.14039">
        <ele>121</ele>
        <time>2021-07-11T07:14:53Z</time>
      </trkpt>
      <trkpt lat="43.2686" lon="6.14048">
        <ele>120.97265625</ele>
        <time>2021-07-11T07:14:55Z</time>
      </trkpt>
      <trkpt lat="43.26854" lon="6.14051">
        <ele>120.8828125</ele>
        <time>2021-07-11T07:14:56Z</time>
      </trkpt>
      <trkpt lat="43.26847" lon="6.14053">
        <ele>120.76953125</ele>
        <time>2021-07-11T07:14:57Z</time>
      </trkpt>
      <trkpt lat="43.26823" lon="6.14054">
        <ele>120.3125</ele>
        <time>2021-07-11T07:15:01Z</time>
      </trkpt>
      <trkpt lat="43.26817" lon="6.14052">
        <ele>120.203125</ele>
        <time>2021-07-11T07:15:02Z</time>
      </trkpt>
      <trkpt lat="43.26811" lon="6.1405">
        <ele>120.07421875</ele>
        <time>2021-07-11T07:15:03Z</time>
      </trkpt>
      <trkpt lat="43.26805" lon="6.14047">
        <ele>119.984375</ele>
        <time>2021-07-11T07:15:04Z</time>
      </trkpt>
      <trkpt lat="43.268" lon="6.14042">
        <ele>120</ele>
        <time>2021-07-11T07:15:05Z</time>
      </trkpt>
      <trkpt lat="43.26795" lon="6.14038">
        <ele>120</ele>
        <time>2021-07-11T07:15:06Z</time>
      </trkpt>
      <trkpt lat="43.26785" lon="6.14029">
        <ele>120</ele>
        <time>2021-07-11T07:15:08Z</time>
      </trkpt>
      <trkpt lat="43.2678" lon="6.14027">
        <ele>119.95703125</ele>
        <time>2021-07-11T07:15:09Z</time>
      </trkpt>
      <trkpt lat="43.26774" lon="6.14027">
        <ele>119.6640625</ele>
        <time>2021-07-11T07:15:10Z</time>
      </trkpt>
      <trkpt lat="43.26769" lon="6.14029">
        <ele>119.359375</ele>
        <time>2021-07-11T07:15:11Z</time>
      </trkpt>
      <trkpt lat="43.26764" lon="6.14032">
        <ele>119.02734375</ele>
        <time>2021-07-11T07:15:12Z</time>
      </trkpt>
      <trkpt lat="43.26759" lon="6.14036">
        <ele>118.6640625</ele>
        <time>2021-07-11T07:15:13Z</time>
      </trkpt>
      <trkpt lat="43.26755" lon="6.14039">
        <ele>118.265625</ele>
        <time>2021-07-11T07:15:14Z</time>
      </trkpt>
      <trkpt lat="43.2675" lon="6.14042">
        <ele>118.03125</ele>
        <time>2021-07-11T07:15:15Z</time>
      </trkpt>
      <trkpt lat="43.26744" lon="6.14043">
        <ele>118</ele>
        <time>2021-07-11T07:15:16Z</time>
      </trkpt>
      <trkpt lat="43.26705" lon="6.14049">
        <ele>117.27734375</ele>
        <time>2021-07-11T07:15:23Z</time>
      </trkpt>
      <trkpt lat="43.26688" lon="6.14045">
        <ele>116.671875</ele>
        <time>2021-07-11T07:15:26Z</time>
      </trkpt>
      <trkpt lat="43.26639" lon="6.14026">
        <ele>115.8359375</ele>
        <time>2021-07-11T07:15:35Z</time>
      </trkpt>
      <trkpt lat="43.26634" lon="6.14025">
        <ele>115.453125</ele>
        <time>2021-07-11T07:15:36Z</time>
      </trkpt>
      <trkpt lat="43.26629" lon="6.14027">
        <ele>115.078125</ele>
        <time>2021-07-11T07:15:37Z</time>
      </trkpt>
      <trkpt lat="43.26624" lon="6.14029">
        <ele>114.71875</ele>
        <time>2021-07-11T07:15:38Z</time>
      </trkpt>
      <trkpt lat="43.26619" lon="6.14032">
        <ele>114.359375</ele>
        <time>2021-07-11T07:15:39Z</time>
      </trkpt>
      <trkpt lat="43.26546" lon="6.14074">
        <ele>111.55859375</ele>
        <time>2021-07-11T07:15:53Z</time>
      </trkpt>
      <trkpt lat="43.2646" lon="6.14133">
        <ele>110.12890625</ele>
        <time>2021-07-11T07:16:09Z</time>
      </trkpt>
      <trkpt lat="43.26457" lon="6.14138">
        <ele>110.15625</ele>
        <time>2021-07-11T07:16:10Z</time>
      </trkpt>
      <trkpt lat="43.26454" lon="6.14142">
        <ele>110.15234375</ele>
        <time>2021-07-11T07:16:11Z</time>
      </trkpt>
      <trkpt lat="43.26453" lon="6.14145">
        <ele>110.140625</ele>
        <time>2021-07-11T07:16:12Z</time>
      </trkpt>
      <trkpt lat="43.26451" lon="6.14148">
        <ele>110.12109375</ele>
        <time>2021-07-11T07:16:13Z</time>
      </trkpt>
      <trkpt lat="43.2645" lon="6.14151">
        <ele>110.08984375</ele>
        <time>2021-07-11T07:16:14Z</time>
      </trkpt>
      <trkpt lat="43.26443" lon="6.14158">
        <ele>110.13671875</ele>
        <time>2021-07-11T07:16:18Z</time>
      </trkpt>
      <trkpt lat="43.26441" lon="6.14157">
        <ele>110.09375</ele>
        <time>2021-07-11T07:16:19Z</time>
      </trkpt>
      <trkpt lat="43.26439" lon="6.14155">
        <ele>110.02734375</ele>
        <time>2021-07-11T07:16:20Z</time>
      </trkpt>
      <trkpt lat="43.26437" lon="6.14152">
        <ele>110</ele>
        <time>2021-07-11T07:16:21Z</time>
      </trkpt>
      <trkpt lat="43.26437" lon="6.14148">
        <ele>110</ele>
        <time>2021-07-11T07:16:22Z</time>
      </trkpt>
      <trkpt lat="43.26437" lon="6.14144">
        <ele>110</ele>
        <time>2021-07-11T07:16:23Z</time>
      </trkpt>
      <trkpt lat="43.26436" lon="6.1414">
        <ele>110</ele>
        <time>2021-07-11T07:16:24Z</time>
      </trkpt>
      <trkpt lat="43.26435" lon="6.14137">
        <ele>110</ele>
        <time>2021-07-11T07:16:25Z</time>
      </trkpt>
      <trkpt lat="43.26434" lon="6.14134">
        <ele>110</ele>
        <time>2021-07-11T07:16:26Z</time>
      </trkpt>
      <trkpt lat="43.26419" lon="6.14089">
        <ele>110</ele>
        <time>2021-07-11T07:16:40Z</time>
      </trkpt>
      <trkpt lat="43.26398" lon="6.14014">
        <ele>110</ele>
        <time>2021-07-11T07:16:59Z</time>
      </trkpt>
      <trkpt lat="43.26368" lon="6.13913">
        <ele>110.16015625</ele>
        <time>2021-07-11T07:17:19Z</time>
      </trkpt>
      <trkpt lat="43.26346" lon="6.13839">
        <ele>110</ele>
        <time>2021-07-11T07:17:34Z</time>
      </trkpt>
      <trkpt lat="43.26323" lon="6.13763">
        <ele>109</ele>
        <time>2021-07-11T07:17:49Z</time>
      </trkpt>
      <trkpt lat="43.26288" lon="6.13657">
        <ele>109.73046875</ele>
        <time>2021-07-11T07:18:09Z</time>
      </trkpt>
      <trkpt lat="43.26266" lon="6.13589">
        <ele>109.35546875</ele>
        <time>2021-07-11T07:18:22Z</time>
      </trkpt>
      <trkpt lat="43.26256" lon="6.1355">
        <ele>109</ele>
        <time>2021-07-11T07:18:28Z</time>
      </trkpt>
      <trkpt lat="43.26257" lon="6.13543">
        <ele>109</ele>
        <time>2021-07-11T07:18:29Z</time>
      </trkpt>
      <trkpt lat="43.26257" lon="6.13536">
        <ele>109</ele>
        <time>2021-07-11T07:18:30Z</time>
      </trkpt>
      <trkpt lat="43.26258" lon="6.1353">
        <ele>109</ele>
        <time>2021-07-11T07:18:31Z</time>
      </trkpt>
      <trkpt lat="43.26259" lon="6.13524">
        <ele>109</ele>
        <time>2021-07-11T07:18:32Z</time>
      </trkpt>
      <trkpt lat="43.26259" lon="6.13517">
        <ele>109</ele>
        <time>2021-07-11T07:18:33Z</time>
      </trkpt>
      <trkpt lat="43.26259" lon="6.13511">
        <ele>109</ele>
        <time>2021-07-11T07:18:34Z</time>
      </trkpt>
      <trkpt lat="43.26252" lon="6.13426">
        <ele>110</ele>
        <time>2021-07-11T07:18:50Z</time>
      </trkpt>
      <trkpt lat="43.26217" lon="6.13323">
        <ele>109.72265625</ele>
        <time>2021-07-11T07:19:09Z</time>
      </trkpt>
      <trkpt lat="43.26213" lon="6.13312">
        <ele>109.39453125</ele>
        <time>2021-07-11T07:19:11Z</time>
      </trkpt>
      <trkpt lat="43.26199" lon="6.13273">
        <ele>108.27734375</ele>
        <time>2021-07-11T07:19:20Z</time>
      </trkpt>
      <trkpt lat="43.26202" lon="6.13256">
        <ele>108</ele>
        <time>2021-07-11T07:19:23Z</time>
      </trkpt>
      <trkpt lat="43.26204" lon="6.13225">
        <ele>108</ele>
        <time>2021-07-11T07:19:28Z</time>
      </trkpt>
      <trkpt lat="43.26207" lon="6.13206">
        <ele>107.91015625</ele>
        <time>2021-07-11T07:19:31Z</time>
      </trkpt>
      <trkpt lat="43.26207" lon="6.13194">
        <ele>107.6328125</ele>
        <time>2021-07-11T07:19:33Z</time>
      </trkpt>
      <trkpt lat="43.26207" lon="6.13189">
        <ele>107.5078125</ele>
        <time>2021-07-11T07:19:34Z</time>
      </trkpt>
      <trkpt lat="43.26205" lon="6.13115">
        <ele>107</ele>
        <time>2021-07-11T07:19:48Z</time>
      </trkpt>
      <trkpt lat="43.26195" lon="6.13055">
        <ele>106.37109375</ele>
        <time>2021-07-11T07:20:01Z</time>
      </trkpt>
      <trkpt lat="43.26186" lon="6.13001">
        <ele>105.796875</ele>
        <time>2021-07-11T07:20:12Z</time>
      </trkpt>
      <trkpt lat="43.26159" lon="6.12896">
        <ele>104.4375</ele>
        <time>2021-07-11T07:20:28Z</time>
      </trkpt>
      <trkpt lat="43.26123" lon="6.1279">
        <ele>104</ele>
        <time>2021-07-11T07:20:44Z</time>
      </trkpt>
      <trkpt lat="43.26084" lon="6.12682">
        <ele>103.921875</ele>
        <time>2021-07-11T07:21:01Z</time>
      </trkpt>
      <trkpt lat="43.26082" lon="6.12677">
        <ele>103.85546875</ele>
        <time>2021-07-11T07:21:02Z</time>
      </trkpt>
      <trkpt lat="43.26048" lon="6.12594">
        <ele>103</ele>
        <time>2021-07-11T07:21:16Z</time>
      </trkpt>
      <trkpt lat="43.26025" lon="6.12535">
        <ele>102.79296875</ele>
        <time>2021-07-11T07:21:27Z</time>
      </trkpt>
      <trkpt lat="43.26015" lon="6.12529">
        <ele>102.42578125</ele>
        <time>2021-07-11T07:21:30Z</time>
      </trkpt>
      <trkpt lat="43.26011" lon="6.12529">
        <ele>102.28125</ele>
        <time>2021-07-11T07:21:31Z</time>
      </trkpt>
      <trkpt lat="43.26007" lon="6.1253">
        <ele>102.125</ele>
        <time>2021-07-11T07:21:32Z</time>
      </trkpt>
      <trkpt lat="43.26002" lon="6.12532">
        <ele>102</ele>
        <time>2021-07-11T07:21:33Z</time>
      </trkpt>
      <trkpt lat="43.25997" lon="6.12533">
        <ele>102</ele>
        <time>2021-07-11T07:21:34Z</time>
      </trkpt>
      <trkpt lat="43.25992" lon="6.12535">
        <ele>102</ele>
        <time>2021-07-11T07:21:35Z</time>
      </trkpt>
      <trkpt lat="43.25969" lon="6.12544">
        <ele>101.78515625</ele>
        <time>2021-07-11T07:21:40Z</time>
      </trkpt>
      <trkpt lat="43.25876" lon="6.1257">
        <ele>99.42578125</ele>
        <time>2021-07-11T07:22:00Z</time>
      </trkpt>
      <trkpt lat="43.25823" lon="6.12568">
        <ele>98.5234375</ele>
        <time>2021-07-11T07:22:08Z</time>
      </trkpt>
      <trkpt lat="43.25779" lon="6.12563">
        <ele>96.9140625</ele>
        <time>2021-07-11T07:22:13Z</time>
      </trkpt>
      <trkpt lat="43.25758" lon="6.12562">
        <ele>96.1875</ele>
        <time>2021-07-11T07:22:15Z</time>
      </trkpt>
      <trkpt lat="43.25748" lon="6.12564">
        <ele>95.82421875</ele>
        <time>2021-07-11T07:22:16Z</time>
      </trkpt>
      <trkpt lat="43.25739" lon="6.12568">
        <ele>95.484375</ele>
        <time>2021-07-11T07:22:17Z</time>
      </trkpt>
      <trkpt lat="43.2573" lon="6.12574">
        <ele>95.1640625</ele>
        <time>2021-07-11T07:22:18Z</time>
      </trkpt>
      <trkpt lat="43.25722" lon="6.12581">
        <ele>94.8671875</ele>
        <time>2021-07-11T07:22:19Z</time>
      </trkpt>
      <trkpt lat="43.25715" lon="6.12589">
        <ele>94.60546875</ele>
        <time>2021-07-11T07:22:20Z</time>
      </trkpt>
      <trkpt lat="43.25708" lon="6.12599">
        <ele>94.38671875</ele>
        <time>2021-07-11T07:22:21Z</time>
      </trkpt>
      <trkpt lat="43.25703" lon="6.12608">
        <ele>94.44140625</ele>
        <time>2021-07-11T07:22:22Z</time>
      </trkpt>
      <trkpt lat="43.25694" lon="6.12626">
        <ele>94.85546875</ele>
        <time>2021-07-11T07:22:24Z</time>
      </trkpt>
      <trkpt lat="43.25692" lon="6.12636">
        <ele>94.8515625</ele>
        <time>2021-07-11T07:22:25Z</time>
      </trkpt>
      <trkpt lat="43.25684" lon="6.12675">
        <ele>95.37109375</ele>
        <time>2021-07-11T07:22:29Z</time>
      </trkpt>
      <trkpt lat="43.25681" lon="6.12684">
        <ele>95.5</ele>
        <time>2021-07-11T07:22:30Z</time>
      </trkpt>
      <trkpt lat="43.25677" lon="6.12692">
        <ele>95.9296875</ele>
        <time>2021-07-11T07:22:31Z</time>
      </trkpt>
      <trkpt lat="43.25672" lon="6.12698">
        <ele>96.203125</ele>
        <time>2021-07-11T07:22:32Z</time>
      </trkpt>
      <trkpt lat="43.25667" lon="6.12702">
        <ele>96.34765625</ele>
        <time>2021-07-11T07:22:33Z</time>
      </trkpt>
      <trkpt lat="43.25661" lon="6.12706">
        <ele>96.40234375</ele>
        <time>2021-07-11T07:22:34Z</time>
      </trkpt>
      <trkpt lat="43.25584" lon="6.12747">
        <ele>96.2578125</ele>
        <time>2021-07-11T07:22:48Z</time>
      </trkpt>
      <trkpt lat="43.25484" lon="6.12806">
        <ele>95.390625</ele>
        <time>2021-07-11T07:23:06Z</time>
      </trkpt>
      <trkpt lat="43.25439" lon="6.12859">
        <ele>96.265625</ele>
        <time>2021-07-11T07:23:17Z</time>
      </trkpt>
      <trkpt lat="43.25436" lon="6.12865">
        <ele>96.51171875</ele>
        <time>2021-07-11T07:23:18Z</time>
      </trkpt>
      <trkpt lat="43.25434" lon="6.12872">
        <ele>96.7578125</ele>
        <time>2021-07-11T07:23:19Z</time>
      </trkpt>
      <trkpt lat="43.25422" lon="6.12921">
        <ele>97.79296875</ele>
        <time>2021-07-11T07:23:26Z</time>
      </trkpt>
      <trkpt lat="43.25421" lon="6.12928">
        <ele>97.89453125</ele>
        <time>2021-07-11T07:23:27Z</time>
      </trkpt>
      <trkpt lat="43.25416" lon="6.12967">
        <ele>98.6171875</ele>
        <time>2021-07-11T07:23:33Z</time>
      </trkpt>
      <trkpt lat="43.25415" lon="6.12973">
        <ele>98.546875</ele>
        <time>2021-07-11T07:23:34Z</time>
      </trkpt>
      <trkpt lat="43.25413" lon="6.12979">
        <ele>98.4296875</ele>
        <time>2021-07-11T07:23:35Z</time>
      </trkpt>
      <trkpt lat="43.25411" lon="6.12985">
        <ele>98.296875</ele>
        <time>2021-07-11T07:23:36Z</time>
      </trkpt>
      <trkpt lat="43.25408" lon="6.1299">
        <ele>98.17578125</ele>
        <time>2021-07-11T07:23:37Z</time>
      </trkpt>
      <trkpt lat="43.25405" lon="6.12996">
        <ele>98.00390625</ele>
        <time>2021-07-11T07:23:38Z</time>
      </trkpt>
      <trkpt lat="43.25401" lon="6.13001">
        <ele>97.75390625</ele>
        <time>2021-07-11T07:23:39Z</time>
      </trkpt>
      <trkpt lat="43.25334" lon="6.131">
        <ele>92.78125</ele>
        <time>2021-07-11T07:23:54Z</time>
      </trkpt>
      <trkpt lat="43.25328" lon="6.13105">
        <ele>92.359375</ele>
        <time>2021-07-11T07:23:55Z</time>
      </trkpt>
      <trkpt lat="43.25321" lon="6.13109">
        <ele>91.89453125</ele>
        <time>2021-07-11T07:23:56Z</time>
      </trkpt>
      <trkpt lat="43.25271" lon="6.1313">
        <ele>88.62890625</ele>
        <time>2021-07-11T07:24:03Z</time>
      </trkpt>
      <trkpt lat="43.25256" lon="6.13136">
        <ele>88.07421875</ele>
        <time>2021-07-11T07:24:05Z</time>
      </trkpt>
      <trkpt lat="43.25226" lon="6.13149">
        <ele>86.79296875</ele>
        <time>2021-07-11T07:24:09Z</time>
      </trkpt>
      <trkpt lat="43.25187" lon="6.13165">
        <ele>84.5859375</ele>
        <time>2021-07-11T07:24:14Z</time>
      </trkpt>
      <trkpt lat="43.25179" lon="6.13167">
        <ele>84.30078125</ele>
        <time>2021-07-11T07:24:15Z</time>
      </trkpt>
      <trkpt lat="43.25171" lon="6.13169">
        <ele>84.01171875</ele>
        <time>2021-07-11T07:24:16Z</time>
      </trkpt>
      <trkpt lat="43.25162" lon="6.1317">
        <ele>83.71484375</ele>
        <time>2021-07-11T07:24:17Z</time>
      </trkpt>
      <trkpt lat="43.25154" lon="6.1317">
        <ele>83.41796875</ele>
        <time>2021-07-11T07:24:18Z</time>
      </trkpt>
      <trkpt lat="43.25067" lon="6.13153">
        <ele>80.23828125</ele>
        <time>2021-07-11T07:24:29Z</time>
      </trkpt>
      <trkpt lat="43.25044" lon="6.13145">
        <ele>79.125</ele>
        <time>2021-07-11T07:24:32Z</time>
      </trkpt>
      <trkpt lat="43.25037" lon="6.1314">
        <ele>78.71484375</ele>
        <time>2021-07-11T07:24:33Z</time>
      </trkpt>
      <trkpt lat="43.25032" lon="6.13133">
        <ele>78.27734375</ele>
        <time>2021-07-11T07:24:34Z</time>
      </trkpt>
      <trkpt lat="43.2503" lon="6.13124">
        <ele>77.8515625</ele>
        <time>2021-07-11T07:24:35Z</time>
      </trkpt>
      <trkpt lat="43.2503" lon="6.13114">
        <ele>77.49609375</ele>
        <time>2021-07-11T07:24:36Z</time>
      </trkpt>
      <trkpt lat="43.25031" lon="6.13104">
        <ele>77.16796875</ele>
        <time>2021-07-11T07:24:37Z</time>
      </trkpt>
      <trkpt lat="43.25031" lon="6.13095">
        <ele>76.98828125</ele>
        <time>2021-07-11T07:24:38Z</time>
      </trkpt>
      <trkpt lat="43.25032" lon="6.13085">
        <ele>77.0078125</ele>
        <time>2021-07-11T07:24:39Z</time>
      </trkpt>
      <trkpt lat="43.25032" lon="6.13076">
        <ele>77.015625</ele>
        <time>2021-07-11T07:24:40Z</time>
      </trkpt>
      <trkpt lat="43.25034" lon="6.12999">
        <ele>76.72265625</ele>
        <time>2021-07-11T07:24:49Z</time>
      </trkpt>
      <trkpt lat="43.25033" lon="6.12992">
        <ele>76.94140625</ele>
        <time>2021-07-11T07:24:50Z</time>
      </trkpt>
      <trkpt lat="43.25031" lon="6.12984">
        <ele>76.99609375</ele>
        <time>2021-07-11T07:24:51Z</time>
      </trkpt>
      <trkpt lat="43.25028" lon="6.12978">
        <ele>76.8671875</ele>
        <time>2021-07-11T07:24:52Z</time>
      </trkpt>
      <trkpt lat="43.25023" lon="6.12974">
        <ele>76.69140625</ele>
        <time>2021-07-11T07:24:53Z</time>
      </trkpt>
      <trkpt lat="43.25017" lon="6.12975">
        <ele>76.49609375</ele>
        <time>2021-07-11T07:24:54Z</time>
      </trkpt>
      <trkpt lat="43.25012" lon="6.12978">
        <ele>76.3125</ele>
        <time>2021-07-11T07:24:55Z</time>
      </trkpt>
      <trkpt lat="43.25008" lon="6.12983">
        <ele>76.171875</ele>
        <time>2021-07-11T07:24:56Z</time>
      </trkpt>
      <trkpt lat="43.25005" lon="6.12987">
        <ele>76.03125</ele>
        <time>2021-07-11T07:24:57Z</time>
      </trkpt>
      <trkpt lat="43.25001" lon="6.12992">
        <ele>75.84765625</ele>
        <time>2021-07-11T07:24:58Z</time>
      </trkpt>
      <trkpt lat="43.24997" lon="6.12997">
        <ele>75.734375</ele>
        <time>2021-07-11T07:24:59Z</time>
      </trkpt>
      <trkpt lat="43.24993" lon="6.13002">
        <ele>75.6796875</ele>
        <time>2021-07-11T07:25:00Z</time>
      </trkpt>
      <trkpt lat="43.24984" lon="6.13011">
        <ele>75.75</ele>
        <time>2021-07-11T07:25:02Z</time>
      </trkpt>
      <trkpt lat="43.24899" lon="6.13081">
        <ele>74.140625</ele>
        <time>2021-07-11T07:25:18Z</time>
      </trkpt>
      <trkpt lat="43.24809" lon="6.13122">
        <ele>73</ele>
        <time>2021-07-11T07:25:34Z</time>
      </trkpt>
      <trkpt lat="43.2477" lon="6.13117">
        <ele>73</ele>
        <time>2021-07-11T07:25:42Z</time>
      </trkpt>
      <trkpt lat="43.24765" lon="6.13117">
        <ele>73</ele>
        <time>2021-07-11T07:25:43Z</time>
      </trkpt>
      <trkpt lat="43.24761" lon="6.13118">
        <ele>73</ele>
        <time>2021-07-11T07:25:44Z</time>
      </trkpt>
      <trkpt lat="43.24757" lon="6.1312">
        <ele>73</ele>
        <time>2021-07-11T07:25:45Z</time>
      </trkpt>
      <trkpt lat="43.24753" lon="6.13124">
        <ele>73</ele>
        <time>2021-07-11T07:25:46Z</time>
      </trkpt>
      <trkpt lat="43.2475" lon="6.1313">
        <ele>72.984375</ele>
        <time>2021-07-11T07:25:47Z</time>
      </trkpt>
      <trkpt lat="43.24748" lon="6.13136">
        <ele>72.921875</ele>
        <time>2021-07-11T07:25:48Z</time>
      </trkpt>
      <trkpt lat="43.24746" lon="6.13142">
        <ele>72.83203125</ele>
        <time>2021-07-11T07:25:49Z</time>
      </trkpt>
      <trkpt lat="43.24744" lon="6.13149">
        <ele>72.7109375</ele>
        <time>2021-07-11T07:25:50Z</time>
      </trkpt>
      <trkpt lat="43.24708" lon="6.1331">
        <ele>72.203125</ele>
        <time>2021-07-11T07:26:11Z</time>
      </trkpt>
      <trkpt lat="43.24675" lon="6.13433">
        <ele>70.30859375</ele>
        <time>2021-07-11T07:26:26Z</time>
      </trkpt>
      <trkpt lat="43.24632" lon="6.13596">
        <ele>69.54296875</ele>
        <time>2021-07-11T07:26:48Z</time>
      </trkpt>
      <trkpt lat="43.24617" lon="6.13641">
        <ele>69.0859375</ele>
        <time>2021-07-11T07:26:55Z</time>
      </trkpt>
      <trkpt lat="43.24599" lon="6.13711">
        <ele>68.421875</ele>
        <time>2021-07-11T07:27:05Z</time>
      </trkpt>
      <trkpt lat="43.24574" lon="6.13807">
        <ele>68</ele>
        <time>2021-07-11T07:27:18Z</time>
      </trkpt>
      <trkpt lat="43.24543" lon="6.13921">
        <ele>67.421875</ele>
        <time>2021-07-11T07:27:34Z</time>
      </trkpt>
      <trkpt lat="43.2454" lon="6.13942">
        <ele>67.29296875</ele>
        <time>2021-07-11T07:27:37Z</time>
      </trkpt>
      <trkpt lat="43.24538" lon="6.13949">
        <ele>67.21875</ele>
        <time>2021-07-11T07:27:38Z</time>
      </trkpt>
      <trkpt lat="43.24535" lon="6.13956">
        <ele>67.12109375</ele>
        <time>2021-07-11T07:27:39Z</time>
      </trkpt>
      <trkpt lat="43.24532" lon="6.13962">
        <ele>67.0078125</ele>
        <time>2021-07-11T07:27:40Z</time>
      </trkpt>
      <trkpt lat="43.24529" lon="6.13968">
        <ele>67</ele>
        <time>2021-07-11T07:27:41Z</time>
      </trkpt>
      <trkpt lat="43.24511" lon="6.13996">
        <ele>67</ele>
        <time>2021-07-11T07:27:46Z</time>
      </trkpt>
      <trkpt lat="43.24506" lon="6.13999">
        <ele>67</ele>
        <time>2021-07-11T07:27:47Z</time>
      </trkpt>
      <trkpt lat="43.24501" lon="6.14001">
        <ele>67</ele>
        <time>2021-07-11T07:27:48Z</time>
      </trkpt>
      <trkpt lat="43.24495" lon="6.14001">
        <ele>67</ele>
        <time>2021-07-11T07:27:49Z</time>
      </trkpt>
      <trkpt lat="43.24465" lon="6.13979">
        <ele>66.32421875</ele>
        <time>2021-07-11T07:27:55Z</time>
      </trkpt>
      <trkpt lat="43.24418" lon="6.13946">
        <ele>65</ele>
        <time>2021-07-11T07:28:05Z</time>
      </trkpt>
      <trkpt lat="43.24322" lon="6.13907">
        <ele>64.453125</ele>
        <time>2021-07-11T07:28:22Z</time>
      </trkpt>
      <trkpt lat="43.24245" lon="6.13866">
        <ele>64</ele>
        <time>2021-07-11T07:28:36Z</time>
      </trkpt>
      <trkpt lat="43.2423" lon="6.13843">
        <ele>64</ele>
        <time>2021-07-11T07:28:40Z</time>
      </trkpt>
      <trkpt lat="43.24199" lon="6.1381">
        <ele>63.015625</ele>
        <time>2021-07-11T07:28:47Z</time>
      </trkpt>
      <trkpt lat="43.24088" lon="6.1377">
        <ele>63</ele>
        <time>2021-07-11T07:29:06Z</time>
      </trkpt>
      <trkpt lat="43.24056" lon="6.13753">
        <ele>62</ele>
        <time>2021-07-11T07:29:12Z</time>
      </trkpt>
      <trkpt lat="43.24041" lon="6.13742">
        <ele>62</ele>
        <time>2021-07-11T07:29:15Z</time>
      </trkpt>
      <trkpt lat="43.24037" lon="6.13737">
        <ele>62</ele>
        <time>2021-07-11T07:29:16Z</time>
      </trkpt>
      <trkpt lat="43.24033" lon="6.1373">
        <ele>62</ele>
        <time>2021-07-11T07:29:17Z</time>
      </trkpt>
      <trkpt lat="43.2403" lon="6.13724">
        <ele>62</ele>
        <time>2021-07-11T07:29:18Z</time>
      </trkpt>
      <trkpt lat="43.24028" lon="6.13716">
        <ele>62</ele>
        <time>2021-07-11T07:29:19Z</time>
      </trkpt>
      <trkpt lat="43.24026" lon="6.13708">
        <ele>62</ele>
        <time>2021-07-11T07:29:20Z</time>
      </trkpt>
      <trkpt lat="43.24025" lon="6.137">
        <ele>62</ele>
        <time>2021-07-11T07:29:21Z</time>
      </trkpt>
      <trkpt lat="43.24005" lon="6.13606">
        <ele>62.7265625</ele>
        <time>2021-07-11T07:29:34Z</time>
      </trkpt>
      <trkpt lat="43.24002" lon="6.13601">
        <ele>62.8515625</ele>
        <time>2021-07-11T07:29:35Z</time>
      </trkpt>
      <trkpt lat="43.23999" lon="6.13597">
        <ele>62.8125</ele>
        <time>2021-07-11T07:29:36Z</time>
      </trkpt>
      <trkpt lat="43.23995" lon="6.13598">
        <ele>62.67578125</ele>
        <time>2021-07-11T07:29:37Z</time>
      </trkpt>
      <trkpt lat="43.23991" lon="6.13601">
        <ele>62.4921875</ele>
        <time>2021-07-11T07:29:38Z</time>
      </trkpt>
      <trkpt lat="43.23988" lon="6.13605">
        <ele>62.3046875</ele>
        <time>2021-07-11T07:29:39Z</time>
      </trkpt>
      <trkpt lat="43.23906" lon="6.13671">
        <ele>61.17578125</ele>
        <time>2021-07-11T07:29:56Z</time>
      </trkpt>
      <trkpt lat="43.23811" lon="6.13745">
        <ele>60</ele>
        <time>2021-07-11T07:30:15Z</time>
      </trkpt>
      <trkpt lat="43.23731" lon="6.13784">
        <ele>59.16015625</ele>
        <time>2021-07-11T07:30:30Z</time>
      </trkpt>
      <trkpt lat="43.23681" lon="6.13818">
        <ele>59</ele>
        <time>2021-07-11T07:30:42Z</time>
      </trkpt>
      <trkpt lat="43.23679" lon="6.13833">
        <ele>59</ele>
        <time>2021-07-11T07:30:45Z</time>
      </trkpt>
      <trkpt lat="43.2368" lon="6.13839">
        <ele>59</ele>
        <time>2021-07-11T07:30:46Z</time>
      </trkpt>
      <trkpt lat="43.23681" lon="6.13845">
        <ele>59</ele>
        <time>2021-07-11T07:30:47Z</time>
      </trkpt>
      <trkpt lat="43.23704" lon="6.13945">
        <ele>60</ele>
        <time>2021-07-11T07:31:01Z</time>
      </trkpt>
      <trkpt lat="43.23721" lon="6.14079">
        <ele>60.80078125</ele>
        <time>2021-07-11T07:31:20Z</time>
      </trkpt>
      <trkpt lat="43.23731" lon="6.14152">
        <ele>61.16015625</ele>
        <time>2021-07-11T07:31:31Z</time>
      </trkpt>
      <trkpt lat="43.23747" lon="6.14282">
        <ele>61</ele>
        <time>2021-07-11T07:31:50Z</time>
      </trkpt>
      <trkpt lat="43.23751" lon="6.14406">
        <ele>62</ele>
        <time>2021-07-11T07:32:08Z</time>
      </trkpt>
      <trkpt lat="43.23759" lon="6.14546">
        <ele>62</ele>
        <time>2021-07-11T07:32:27Z</time>
      </trkpt>
      <trkpt lat="43.23753" lon="6.14681">
        <ele>61</ele>
        <time>2021-07-11T07:32:45Z</time>
      </trkpt>
      <trkpt lat="43.23736" lon="6.14827">
        <ele>60</ele>
        <time>2021-07-11T07:33:03Z</time>
      </trkpt>
      <trkpt lat="43.23748" lon="6.14935">
        <ele>60</ele>
        <time>2021-07-11T07:33:18Z</time>
      </trkpt>
      <trkpt lat="43.23754" lon="6.1496">
        <ele>60</ele>
        <time>2021-07-11T07:33:22Z</time>
      </trkpt>
      <trkpt lat="43.23754" lon="6.14973">
        <ele>59.9921875</ele>
        <time>2021-07-11T07:33:25Z</time>
      </trkpt>
      <trkpt lat="43.23752" lon="6.14975">
        <ele>59.94140625</ele>
        <time>2021-07-11T07:33:26Z</time>
      </trkpt>
      <trkpt lat="43.23749" lon="6.14975">
        <ele>59.875</ele>
        <time>2021-07-11T07:33:27Z</time>
      </trkpt>
      <trkpt lat="43.23745" lon="6.14973">
        <ele>59.83203125</ele>
        <time>2021-07-11T07:33:28Z</time>
      </trkpt>
      <trkpt lat="43.23742" lon="6.1497">
        <ele>59.80859375</ele>
        <time>2021-07-11T07:33:29Z</time>
      </trkpt>
      <trkpt lat="43.23738" lon="6.14968">
        <ele>59.796875</ele>
        <time>2021-07-11T07:33:30Z</time>
      </trkpt>
      <trkpt lat="43.23734" lon="6.14967">
        <ele>59.77734375</ele>
        <time>2021-07-11T07:33:31Z</time>
      </trkpt>
      <trkpt lat="43.2373" lon="6.14967">
        <ele>59.75</ele>
        <time>2021-07-11T07:33:32Z</time>
      </trkpt>
      <trkpt lat="43.23725" lon="6.14967">
        <ele>59.71875</ele>
        <time>2021-07-11T07:33:33Z</time>
      </trkpt>
      <trkpt lat="43.23721" lon="6.14969">
        <ele>59.71875</ele>
        <time>2021-07-11T07:33:34Z</time>
      </trkpt>
      <trkpt lat="43.23716" lon="6.14972">
        <ele>59.71484375</ele>
        <time>2021-07-11T07:33:35Z</time>
      </trkpt>
      <trkpt lat="43.23712" lon="6.14975">
        <ele>59.73046875</ele>
        <time>2021-07-11T07:33:36Z</time>
      </trkpt>
      <trkpt lat="43.23708" lon="6.14979">
        <ele>59.7578125</ele>
        <time>2021-07-11T07:33:37Z</time>
      </trkpt>
      <trkpt lat="43.23705" lon="6.14983">
        <ele>59.8125</ele>
        <time>2021-07-11T07:33:38Z</time>
      </trkpt>
      <trkpt lat="43.23702" lon="6.14988">
        <ele>59.8984375</ele>
        <time>2021-07-11T07:33:39Z</time>
      </trkpt>
      <trkpt lat="43.23699" lon="6.14993">
        <ele>60.00390625</ele>
        <time>2021-07-11T07:33:40Z</time>
      </trkpt>
      <trkpt lat="43.23675" lon="6.15025">
        <ele>60.8515625</ele>
        <time>2021-07-11T07:33:46Z</time>
      </trkpt>
      <trkpt lat="43.2367" lon="6.15029">
        <ele>61.0390625</ele>
        <time>2021-07-11T07:33:47Z</time>
      </trkpt>
      <trkpt lat="43.23665" lon="6.15032">
        <ele>61.23828125</ele>
        <time>2021-07-11T07:33:48Z</time>
      </trkpt>
      <trkpt lat="43.23659" lon="6.15034">
        <ele>61.44921875</ele>
        <time>2021-07-11T07:33:49Z</time>
      </trkpt>
      <trkpt lat="43.23653" lon="6.15035">
        <ele>61.66015625</ele>
        <time>2021-07-11T07:33:50Z</time>
      </trkpt>
      <trkpt lat="43.23647" lon="6.15036">
        <ele>61.875</ele>
        <time>2021-07-11T07:33:51Z</time>
      </trkpt>
      <trkpt lat="43.23641" lon="6.15036">
        <ele>62.0859375</ele>
        <time>2021-07-11T07:33:52Z</time>
      </trkpt>
      <trkpt lat="43.23635" lon="6.15034">
        <ele>62.30078125</ele>
        <time>2021-07-11T07:33:53Z</time>
      </trkpt>
      <trkpt lat="43.23505" lon="6.15009">
        <ele>63</ele>
        <time>2021-07-11T07:34:15Z</time>
      </trkpt>
      <trkpt lat="43.23403" lon="6.14987">
        <ele>63.66796875</ele>
        <time>2021-07-11T07:34:33Z</time>
      </trkpt>
      <trkpt lat="43.23397" lon="6.14987">
        <ele>63.859375</ele>
        <time>2021-07-11T07:34:34Z</time>
      </trkpt>
      <trkpt lat="43.23392" lon="6.14987">
        <ele>64.046875</ele>
        <time>2021-07-11T07:34:35Z</time>
      </trkpt>
      <trkpt lat="43.23387" lon="6.14986">
        <ele>64.23046875</ele>
        <time>2021-07-11T07:34:36Z</time>
      </trkpt>
      <trkpt lat="43.23382" lon="6.14985">
        <ele>64.41015625</ele>
        <time>2021-07-11T07:34:37Z</time>
      </trkpt>
      <trkpt lat="43.23316" lon="6.14971">
        <ele>65.7890625</ele>
        <time>2021-07-11T07:34:50Z</time>
      </trkpt>
      <trkpt lat="43.23252" lon="6.14959">
        <ele>68.22265625</ele>
        <time>2021-07-11T07:35:03Z</time>
      </trkpt>
      <trkpt lat="43.23229" lon="6.14955">
        <ele>69.70703125</ele>
        <time>2021-07-11T07:35:08Z</time>
      </trkpt>
      <trkpt lat="43.23152" lon="6.14946">
        <ele>73.08203125</ele>
        <time>2021-07-11T07:35:25Z</time>
      </trkpt>
      <trkpt lat="43.23139" lon="6.1495">
        <ele>74.19140625</ele>
        <time>2021-07-11T07:35:28Z</time>
      </trkpt>
      <trkpt lat="43.23135" lon="6.1495">
        <ele>74.63671875</ele>
        <time>2021-07-11T07:35:29Z</time>
      </trkpt>
      <trkpt lat="43.23131" lon="6.14948">
        <ele>75.01953125</ele>
        <time>2021-07-11T07:35:30Z</time>
      </trkpt>
      <trkpt lat="43.23122" lon="6.14942">
        <ele>75.7265625</ele>
        <time>2021-07-11T07:35:32Z</time>
      </trkpt>
      <trkpt lat="43.23118" lon="6.1494">
        <ele>76.125</ele>
        <time>2021-07-11T07:35:33Z</time>
      </trkpt>
      <trkpt lat="43.23113" lon="6.14938">
        <ele>76.4453125</ele>
        <time>2021-07-11T07:35:34Z</time>
      </trkpt>
      <trkpt lat="43.23109" lon="6.14935">
        <ele>76.609375</ele>
        <time>2021-07-11T07:35:35Z</time>
      </trkpt>
      <trkpt lat="43.23106" lon="6.1493">
        <ele>76.66796875</ele>
        <time>2021-07-11T07:35:36Z</time>
      </trkpt>
      <trkpt lat="43.23103" lon="6.14925">
        <ele>76.71484375</ele>
        <time>2021-07-11T07:35:37Z</time>
      </trkpt>
      <trkpt lat="43.231" lon="6.1492">
        <ele>76.79296875</ele>
        <time>2021-07-11T07:35:38Z</time>
      </trkpt>
      <trkpt lat="43.23096" lon="6.14915">
        <ele>76.875</ele>
        <time>2021-07-11T07:35:39Z</time>
      </trkpt>
      <trkpt lat="43.23093" lon="6.1491">
        <ele>76.921875</ele>
        <time>2021-07-11T07:35:40Z</time>
      </trkpt>
      <trkpt lat="43.2309" lon="6.14905">
        <ele>76.9375</ele>
        <time>2021-07-11T07:35:41Z</time>
      </trkpt>
      <trkpt lat="43.2307" lon="6.14861">
        <ele>76.6015625</ele>
        <time>2021-07-11T07:35:49Z</time>
      </trkpt>
      <trkpt lat="43.23039" lon="6.14784">
        <ele>77.515625</ele>
        <time>2021-07-11T07:36:03Z</time>
      </trkpt>
      <trkpt lat="43.23032" lon="6.14769">
        <ele>78.33984375</ele>
        <time>2021-07-11T07:36:06Z</time>
      </trkpt>
      <trkpt lat="43.2303" lon="6.14764">
        <ele>78.62890625</ele>
        <time>2021-07-11T07:36:07Z</time>
      </trkpt>
      <trkpt lat="43.23026" lon="6.14753">
        <ele>78.94921875</ele>
        <time>2021-07-11T07:36:09Z</time>
      </trkpt>
      <trkpt lat="43.22998" lon="6.14683">
        <ele>79.8125</ele>
        <time>2021-07-11T07:36:22Z</time>
      </trkpt>
      <trkpt lat="43.22992" lon="6.14668">
        <ele>79.8125</ele>
        <time>2021-07-11T07:36:25Z</time>
      </trkpt>
      <trkpt lat="43.2299" lon="6.14663">
        <ele>79.7734375</ele>
        <time>2021-07-11T07:36:26Z</time>
      </trkpt>
      <trkpt lat="43.2297" lon="6.14622">
        <ele>81.1015625</ele>
        <time>2021-07-11T07:36:34Z</time>
      </trkpt>
      <trkpt lat="43.22967" lon="6.14617">
        <ele>81.50390625</ele>
        <time>2021-07-11T07:36:35Z</time>
      </trkpt>
      <trkpt lat="43.22948" lon="6.14591">
        <ele>83.71484375</ele>
        <time>2021-07-11T07:36:41Z</time>
      </trkpt>
      <trkpt lat="43.2292" lon="6.14552">
        <ele>86.734375</ele>
        <time>2021-07-11T07:36:50Z</time>
      </trkpt>
      <trkpt lat="43.22917" lon="6.14548">
        <ele>86.93359375</ele>
        <time>2021-07-11T07:36:51Z</time>
      </trkpt>
      <trkpt lat="43.22914" lon="6.14543">
        <ele>86.83203125</ele>
        <time>2021-07-11T07:36:52Z</time>
      </trkpt>
      <trkpt lat="43.22911" lon="6.14539">
        <ele>86.98046875</ele>
        <time>2021-07-11T07:36:53Z</time>
      </trkpt>
      <trkpt lat="43.22908" lon="6.14535">
        <ele>87.18359375</ele>
        <time>2021-07-11T07:36:54Z</time>
      </trkpt>
      <trkpt lat="43.22906" lon="6.1453">
        <ele>87.21484375</ele>
        <time>2021-07-11T07:36:55Z</time>
      </trkpt>
      <trkpt lat="43.22903" lon="6.14525">
        <ele>87.1171875</ele>
        <time>2021-07-11T07:36:56Z</time>
      </trkpt>
      <trkpt lat="43.22887" lon="6.14491">
        <ele>86.9609375</ele>
        <time>2021-07-11T07:37:03Z</time>
      </trkpt>
      <trkpt lat="43.22884" lon="6.14486">
        <ele>86.93359375</ele>
        <time>2021-07-11T07:37:04Z</time>
      </trkpt>
      <trkpt lat="43.22882" lon="6.14481">
        <ele>87.25</ele>
        <time>2021-07-11T07:37:05Z</time>
      </trkpt>
      <trkpt lat="43.22877" lon="6.1447">
        <ele>87.6640625</ele>
        <time>2021-07-11T07:37:07Z</time>
      </trkpt>
      <trkpt lat="43.22849" lon="6.14387">
        <ele>85.28515625</ele>
        <time>2021-07-11T07:37:21Z</time>
      </trkpt>
      <trkpt lat="43.2283" lon="6.14359">
        <ele>88.2265625</ele>
        <time>2021-07-11T07:37:27Z</time>
      </trkpt>
      <trkpt lat="43.22826" lon="6.14356">
        <ele>89.30859375</ele>
        <time>2021-07-11T07:37:28Z</time>
      </trkpt>
      <trkpt lat="43.2281" lon="6.14345">
        <ele>93.4375</ele>
        <time>2021-07-11T07:37:31Z</time>
      </trkpt>
      <trkpt lat="43.22732" lon="6.14307">
        <ele>101.515625</ele>
        <time>2021-07-11T07:37:44Z</time>
      </trkpt>
      <trkpt lat="43.22727" lon="6.14305">
        <ele>101.86328125</ele>
        <time>2021-07-11T07:37:45Z</time>
      </trkpt>
      <trkpt lat="43.22723" lon="6.14304">
        <ele>101.58203125</ele>
        <time>2021-07-11T07:37:46Z</time>
      </trkpt>
      <trkpt lat="43.22721" lon="6.14305">
        <ele>101.4921875</ele>
        <time>2021-07-11T07:37:47Z</time>
      </trkpt>
      <trkpt lat="43.2272" lon="6.14307">
        <ele>101.51171875</ele>
        <time>2021-07-11T07:37:48Z</time>
      </trkpt>
      <trkpt lat="43.22719" lon="6.14309">
        <ele>101.53125</ele>
        <time>2021-07-11T07:37:49Z</time>
      </trkpt>
      <trkpt lat="43.22718" lon="6.14312">
        <ele>101.62109375</ele>
        <time>2021-07-11T07:37:51Z</time>
      </trkpt>
      <trkpt lat="43.22719" lon="6.14314">
        <ele>101.81640625</ele>
        <time>2021-07-11T07:37:52Z</time>
      </trkpt>
      <trkpt lat="43.22722" lon="6.14315">
        <ele>102.1015625</ele>
        <time>2021-07-11T07:37:53Z</time>
      </trkpt>
      <trkpt lat="43.22724" lon="6.14317">
        <ele>102.4453125</ele>
        <time>2021-07-11T07:37:54Z</time>
      </trkpt>
      <trkpt lat="43.22727" lon="6.14318">
        <ele>102.8203125</ele>
        <time>2021-07-11T07:37:55Z</time>
      </trkpt>
      <trkpt lat="43.22731" lon="6.14325">
        <ele>103.24609375</ele>
        <time>2021-07-11T07:37:58Z</time>
      </trkpt>
      <trkpt lat="43.2273" lon="6.14328">
        <ele>103.7421875</ele>
        <time>2021-07-11T07:37:59Z</time>
      </trkpt>
      <trkpt lat="43.22727" lon="6.14345">
        <ele>105.546875</ele>
        <time>2021-07-11T07:38:10Z</time>
      </trkpt>
      <trkpt lat="43.22715" lon="6.14373">
        <ele>105.30859375</ele>
        <time>2021-07-11T07:38:19Z</time>
      </trkpt>
      <trkpt lat="43.22707" lon="6.14411">
        <ele>102.640625</ele>
        <time>2021-07-11T07:38:25Z</time>
      </trkpt>
      <trkpt lat="43.22708" lon="6.14418">
        <ele>102.5234375</ele>
        <time>2021-07-11T07:38:26Z</time>
      </trkpt>
      <trkpt lat="43.2271" lon="6.14424">
        <ele>102.68359375</ele>
        <time>2021-07-11T07:38:27Z</time>
      </trkpt>
      <trkpt lat="43.22713" lon="6.14432">
        <ele>102.921875</ele>
        <time>2021-07-11T07:38:28Z</time>
      </trkpt>
      <trkpt lat="43.22716" lon="6.14438">
        <ele>103.17578125</ele>
        <time>2021-07-11T07:38:29Z</time>
      </trkpt>
      <trkpt lat="43.22721" lon="6.1445">
        <ele>103.4296875</ele>
        <time>2021-07-11T07:38:32Z</time>
      </trkpt>
      <trkpt lat="43.22719" lon="6.14461">
        <ele>102.30859375</ele>
        <time>2021-07-11T07:38:40Z</time>
      </trkpt>
      <trkpt lat="43.22717" lon="6.14461">
        <ele>101.94140625</ele>
        <time>2021-07-11T07:38:41Z</time>
      </trkpt>
      <trkpt lat="43.22714" lon="6.14462">
        <ele>101.484375</ele>
        <time>2021-07-11T07:38:42Z</time>
      </trkpt>
      <trkpt lat="43.22714" lon="6.14465">
        <ele>101.21875</ele>
        <time>2021-07-11T07:38:44Z</time>
      </trkpt>
      <trkpt lat="43.22715" lon="6.14465">
        <ele>101.515625</ele>
        <time>2021-07-11T07:38:45Z</time>
      </trkpt>
      <trkpt lat="43.22718" lon="6.14463">
        <ele>102</ele>
        <time>2021-07-11T07:38:46Z</time>
      </trkpt>
      <trkpt lat="43.2272" lon="6.14461">
        <ele>102.5234375</ele>
        <time>2021-07-11T07:38:47Z</time>
      </trkpt>
      <trkpt lat="43.22721" lon="6.14458">
        <ele>102.9921875</ele>
        <time>2021-07-11T07:38:48Z</time>
      </trkpt>
      <trkpt lat="43.22722" lon="6.14455">
        <ele>103.41015625</ele>
        <time>2021-07-11T07:38:49Z</time>
      </trkpt>
      <trkpt lat="43.22722" lon="6.14451">
        <ele>103.5859375</ele>
        <time>2021-07-11T07:38:50Z</time>
      </trkpt>
      <trkpt lat="43.22721" lon="6.14447">
        <ele>103.56640625</ele>
        <time>2021-07-11T07:38:51Z</time>
      </trkpt>
      <trkpt lat="43.22719" lon="6.14442">
        <ele>103.5078125</ele>
        <time>2021-07-11T07:38:52Z</time>
      </trkpt>
      <trkpt lat="43.22715" lon="6.14434">
        <ele>103.28515625</ele>
        <time>2021-07-11T07:38:54Z</time>
      </trkpt>
      <trkpt lat="43.22713" lon="6.14393">
        <ele>104.6171875</ele>
        <time>2021-07-11T07:39:04Z</time>
      </trkpt>
      <trkpt lat="43.22718" lon="6.14369">
        <ele>105.62109375</ele>
        <time>2021-07-11T07:39:08Z</time>
      </trkpt>
      <trkpt lat="43.22723" lon="6.14354">
        <ele>105.58984375</ele>
        <time>2021-07-11T07:39:11Z</time>
      </trkpt>
      <trkpt lat="43.22725" lon="6.14352">
        <ele>105.94921875</ele>
        <time>2021-07-11T07:39:12Z</time>
      </trkpt>
      <trkpt lat="43.22727" lon="6.14353">
        <ele>106.390625</ele>
        <time>2021-07-11T07:39:13Z</time>
      </trkpt>
      <trkpt lat="43.22732" lon="6.14362">
        <ele>106.984375</ele>
        <time>2021-07-11T07:39:16Z</time>
      </trkpt>
      <trkpt lat="43.22732" lon="6.14364">
        <ele>107.21875</ele>
        <time>2021-07-11T07:39:17Z</time>
      </trkpt>
      <trkpt lat="43.22738" lon="6.14387">
        <ele>108.53515625</ele>
        <time>2021-07-11T07:39:25Z</time>
      </trkpt>
      <trkpt lat="43.22742" lon="6.14395">
        <ele>108.890625</ele>
        <time>2021-07-11T07:39:28Z</time>
      </trkpt>
      <trkpt lat="43.22755" lon="6.14411">
        <ele>110.21875</ele>
        <time>2021-07-11T07:39:35Z</time>
      </trkpt>
      <trkpt lat="43.22763" lon="6.14423">
        <ele>111.20703125</ele>
        <time>2021-07-11T07:39:40Z</time>
      </trkpt>
      <trkpt lat="43.22802" lon="6.14452">
        <ele>111.1328125</ele>
        <time>2021-07-11T07:39:53Z</time>
      </trkpt>
      <trkpt lat="43.22828" lon="6.14486">
        <ele>110.15234375</ele>
        <time>2021-07-11T07:40:04Z</time>
      </trkpt>
      <trkpt lat="43.22841" lon="6.14541">
        <ele>116.04296875</ele>
        <time>2021-07-11T07:40:16Z</time>
      </trkpt>
      <trkpt lat="43.22859" lon="6.14602">
        <ele>122.078125</ele>
        <time>2021-07-11T07:40:30Z</time>
      </trkpt>
      <trkpt lat="43.22877" lon="6.1463">
        <ele>121.84375</ele>
        <time>2021-07-11T07:40:38Z</time>
      </trkpt>
      <trkpt lat="43.22884" lon="6.14649">
        <ele>122.078125</ele>
        <time>2021-07-11T07:40:43Z</time>
      </trkpt>
      <trkpt lat="43.22893" lon="6.14689">
        <ele>123.7890625</ele>
        <time>2021-07-11T07:40:53Z</time>
      </trkpt>
      <trkpt lat="43.22897" lon="6.14735">
        <ele>126.1875</ele>
        <time>2021-07-11T07:41:04Z</time>
      </trkpt>
      <trkpt lat="43.22898" lon="6.14787">
        <ele>129.43359375</ele>
        <time>2021-07-11T07:41:17Z</time>
      </trkpt>
      <trkpt lat="43.22898" lon="6.14842">
        <ele>129.95703125</ele>
        <time>2021-07-11T07:41:29Z</time>
      </trkpt>
      <trkpt lat="43.22898" lon="6.14852">
        <ele>129.69140625</ele>
        <time>2021-07-11T07:41:31Z</time>
      </trkpt>
      <trkpt lat="43.22884" lon="6.1491">
        <ele>130.4453125</ele>
        <time>2021-07-11T07:41:43Z</time>
      </trkpt>
      <trkpt lat="43.22869" lon="6.14977">
        <ele>128.79296875</ele>
        <time>2021-07-11T07:41:56Z</time>
      </trkpt>
      <trkpt lat="43.22866" lon="6.14983">
        <ele>129.265625</ele>
        <time>2021-07-11T07:41:57Z</time>
      </trkpt>
      <trkpt lat="43.22849" lon="6.15022">
        <ele>132.30859375</ele>
        <time>2021-07-11T07:42:03Z</time>
      </trkpt>
      <trkpt lat="43.22848" lon="6.1503">
        <ele>132.25</ele>
        <time>2021-07-11T07:42:04Z</time>
      </trkpt>
      <trkpt lat="43.22848" lon="6.15039">
        <ele>131.96875</ele>
        <time>2021-07-11T07:42:05Z</time>
      </trkpt>
      <trkpt lat="43.22854" lon="6.15157">
        <ele>132.8515625</ele>
        <time>2021-07-11T07:42:20Z</time>
      </trkpt>
      <trkpt lat="43.22859" lon="6.15203">
        <ele>129.63671875</ele>
        <time>2021-07-11T07:42:26Z</time>
      </trkpt>
      <trkpt lat="43.22859" lon="6.15243">
        <ele>125.09375</ele>
        <time>2021-07-11T07:42:30Z</time>
      </trkpt>
      <trkpt lat="43.22859" lon="6.15253">
        <ele>123.6484375</ele>
        <time>2021-07-11T07:42:31Z</time>
      </trkpt>
      <trkpt lat="43.22859" lon="6.15262">
        <ele>122.29296875</ele>
        <time>2021-07-11T07:42:32Z</time>
      </trkpt>
      <trkpt lat="43.22859" lon="6.15272">
        <ele>120.98046875</ele>
        <time>2021-07-11T07:42:33Z</time>
      </trkpt>
      <trkpt lat="43.22857" lon="6.15293">
        <ele>118.15625</ele>
        <time>2021-07-11T07:42:35Z</time>
      </trkpt>
      <trkpt lat="43.22858" lon="6.15305">
        <ele>116.82421875</ele>
        <time>2021-07-11T07:42:36Z</time>
      </trkpt>
      <trkpt lat="43.22862" lon="6.15346">
        <ele>115.0078125</ele>
        <time>2021-07-11T07:42:39Z</time>
      </trkpt>
      <trkpt lat="43.22865" lon="6.15391">
        <ele>116.828125</ele>
        <time>2021-07-11T07:42:42Z</time>
      </trkpt>
      <trkpt lat="43.22862" lon="6.15427">
        <ele>116.265625</ele>
        <time>2021-07-11T07:42:45Z</time>
      </trkpt>
      <trkpt lat="43.22859" lon="6.15438">
        <ele>115.38671875</ele>
        <time>2021-07-11T07:42:46Z</time>
      </trkpt>
      <trkpt lat="43.22849" lon="6.15473">
        <ele>111.90234375</ele>
        <time>2021-07-11T07:42:49Z</time>
      </trkpt>
      <trkpt lat="43.22844" lon="6.15486">
        <ele>110.48828125</ele>
        <time>2021-07-11T07:42:50Z</time>
      </trkpt>
      <trkpt lat="43.22834" lon="6.1551">
        <ele>108.84375</ele>
        <time>2021-07-11T07:42:52Z</time>
      </trkpt>
      <trkpt lat="43.22831" lon="6.15522">
        <ele>107.71875</ele>
        <time>2021-07-11T07:42:53Z</time>
      </trkpt>
      <trkpt lat="43.22829" lon="6.15534">
        <ele>106.6484375</ele>
        <time>2021-07-11T07:42:54Z</time>
      </trkpt>
      <trkpt lat="43.22829" lon="6.15545">
        <ele>105.78125</ele>
        <time>2021-07-11T07:42:55Z</time>
      </trkpt>
      <trkpt lat="43.22831" lon="6.15556">
        <ele>105.12890625</ele>
        <time>2021-07-11T07:42:56Z</time>
      </trkpt>
      <trkpt lat="43.22834" lon="6.15565">
        <ele>104.43359375</ele>
        <time>2021-07-11T07:42:57Z</time>
      </trkpt>
      <trkpt lat="43.22838" lon="6.15574">
        <ele>104.36328125</ele>
        <time>2021-07-11T07:42:58Z</time>
      </trkpt>
      <trkpt lat="43.22842" lon="6.15582">
        <ele>104.63671875</ele>
        <time>2021-07-11T07:42:59Z</time>
      </trkpt>
      <trkpt lat="43.22849" lon="6.15597">
        <ele>105.2421875</ele>
        <time>2021-07-11T07:43:01Z</time>
      </trkpt>
      <trkpt lat="43.22852" lon="6.15604">
        <ele>105.671875</ele>
        <time>2021-07-11T07:43:02Z</time>
      </trkpt>
      <trkpt lat="43.22855" lon="6.1561">
        <ele>106.14453125</ele>
        <time>2021-07-11T07:43:03Z</time>
      </trkpt>
      <trkpt lat="43.22857" lon="6.15616">
        <ele>106.62890625</ele>
        <time>2021-07-11T07:43:04Z</time>
      </trkpt>
      <trkpt lat="43.22859" lon="6.15621">
        <ele>107.12109375</ele>
        <time>2021-07-11T07:43:05Z</time>
      </trkpt>
      <trkpt lat="43.2286" lon="6.15626">
        <ele>107.640625</ele>
        <time>2021-07-11T07:43:06Z</time>
      </trkpt>
      <trkpt lat="43.2286" lon="6.15631">
        <ele>108.26171875</ele>
        <time>2021-07-11T07:43:07Z</time>
      </trkpt>
      <trkpt lat="43.2286" lon="6.15636">
        <ele>108.87109375</ele>
        <time>2021-07-11T07:43:08Z</time>
      </trkpt>
      <trkpt lat="43.2286" lon="6.1564">
        <ele>109.44140625</ele>
        <time>2021-07-11T07:43:09Z</time>
      </trkpt>
      <trkpt lat="43.22861" lon="6.15644">
        <ele>109.9453125</ele>
        <time>2021-07-11T07:43:10Z</time>
      </trkpt>
      <trkpt lat="43.22859" lon="6.15681">
        <ele>115.08203125</ele>
        <time>2021-07-11T07:43:20Z</time>
      </trkpt>
      <trkpt lat="43.22859" lon="6.15685">
        <ele>115.6015625</ele>
        <time>2021-07-11T07:43:21Z</time>
      </trkpt>
      <trkpt lat="43.22859" lon="6.15712">
        <ele>119.03515625</ele>
        <time>2021-07-11T07:43:29Z</time>
      </trkpt>
      <trkpt lat="43.22859" lon="6.15733">
        <ele>120.734375</ele>
        <time>2021-07-11T07:43:35Z</time>
      </trkpt>
      <trkpt lat="43.2286" lon="6.15754">
        <ele>121.99609375</ele>
        <time>2021-07-11T07:43:41Z</time>
      </trkpt>
      <trkpt lat="43.22861" lon="6.15759">
        <ele>122.3828125</ele>
        <time>2021-07-11T07:43:43Z</time>
      </trkpt>
      <trkpt lat="43.22871" lon="6.15799">
        <ele>123.80859375</ele>
        <time>2021-07-11T07:43:53Z</time>
      </trkpt>
      <trkpt lat="43.22887" lon="6.15852">
        <ele>124.140625</ele>
        <time>2021-07-11T07:44:05Z</time>
      </trkpt>
      <trkpt lat="43.22888" lon="6.1591">
        <ele>125.828125</ele>
        <time>2021-07-11T07:44:19Z</time>
      </trkpt>
      <trkpt lat="43.22887" lon="6.15975">
        <ele>127.1171875</ele>
        <time>2021-07-11T07:44:33Z</time>
      </trkpt>
      <trkpt lat="43.22886" lon="6.16044">
        <ele>129.921875</ele>
        <time>2021-07-11T07:44:49Z</time>
      </trkpt>
      <trkpt lat="43.22888" lon="6.1608">
        <ele>132.08984375</ele>
        <time>2021-07-11T07:44:59Z</time>
      </trkpt>
      <trkpt lat="43.22889" lon="6.16108">
        <ele>133.90625</ele>
        <time>2021-07-11T07:45:08Z</time>
      </trkpt>
      <trkpt lat="43.2288" lon="6.16159">
        <ele>140.734375</ele>
        <time>2021-07-11T07:45:22Z</time>
      </trkpt>
      <trkpt lat="43.2288" lon="6.16195">
        <ele>144.19921875</ele>
        <time>2021-07-11T07:45:32Z</time>
      </trkpt>
      <trkpt lat="43.22877" lon="6.16218">
        <ele>146.03125</ele>
        <time>2021-07-11T07:45:38Z</time>
      </trkpt>
      <trkpt lat="43.22886" lon="6.16261">
        <ele>145.3515625</ele>
        <time>2021-07-11T07:45:48Z</time>
      </trkpt>
      <trkpt lat="43.22889" lon="6.16267">
        <ele>144.80078125</ele>
        <time>2021-07-11T07:45:50Z</time>
      </trkpt>
      <trkpt lat="43.2289" lon="6.1627">
        <ele>144.68359375</ele>
        <time>2021-07-11T07:45:51Z</time>
      </trkpt>
      <trkpt lat="43.22889" lon="6.16273">
        <ele>144.7890625</ele>
        <time>2021-07-11T07:45:52Z</time>
      </trkpt>
      <trkpt lat="43.22888" lon="6.16276">
        <ele>144.921875</ele>
        <time>2021-07-11T07:45:53Z</time>
      </trkpt>
      <trkpt lat="43.22888" lon="6.16281">
        <ele>144.91796875</ele>
        <time>2021-07-11T07:45:54Z</time>
      </trkpt>
      <trkpt lat="43.22889" lon="6.16285">
        <ele>144.75390625</ele>
        <time>2021-07-11T07:45:55Z</time>
      </trkpt>
      <trkpt lat="43.2289" lon="6.1629">
        <ele>144.52734375</ele>
        <time>2021-07-11T07:45:56Z</time>
      </trkpt>
      <trkpt lat="43.22892" lon="6.16294">
        <ele>144.25390625</ele>
        <time>2021-07-11T07:45:57Z</time>
      </trkpt>
      <trkpt lat="43.22897" lon="6.16305">
        <ele>143.265625</ele>
        <time>2021-07-11T07:45:59Z</time>
      </trkpt>
      <trkpt lat="43.22899" lon="6.16312">
        <ele>142.9140625</ele>
        <time>2021-07-11T07:46:00Z</time>
      </trkpt>
      <trkpt lat="43.229" lon="6.16319">
        <ele>142.75</ele>
        <time>2021-07-11T07:46:01Z</time>
      </trkpt>
      <trkpt lat="43.22899" lon="6.16381">
        <ele>140.80859375</ele>
        <time>2021-07-11T07:46:12Z</time>
      </trkpt>
      <trkpt lat="43.22894" lon="6.16436">
        <ele>139.48828125</ele>
        <time>2021-07-11T07:46:24Z</time>
      </trkpt>
      <trkpt lat="43.22884" lon="6.16471">
        <ele>140.2890625</ele>
        <time>2021-07-11T07:46:31Z</time>
      </trkpt>
      <trkpt lat="43.22881" lon="6.16479">
        <ele>141.06640625</ele>
        <time>2021-07-11T07:46:32Z</time>
      </trkpt>
      <trkpt lat="43.22879" lon="6.16489">
        <ele>141.81640625</ele>
        <time>2021-07-11T07:46:33Z</time>
      </trkpt>
      <trkpt lat="43.22875" lon="6.16515">
        <ele>144.3046875</ele>
        <time>2021-07-11T07:46:36Z</time>
      </trkpt>
      <trkpt lat="43.22872" lon="6.16521">
        <ele>145.46484375</ele>
        <time>2021-07-11T07:46:37Z</time>
      </trkpt>
      <trkpt lat="43.22869" lon="6.16525">
        <ele>146.53125</ele>
        <time>2021-07-11T07:46:38Z</time>
      </trkpt>
      <trkpt lat="43.22866" lon="6.16528">
        <ele>147.515625</ele>
        <time>2021-07-11T07:46:39Z</time>
      </trkpt>
      <trkpt lat="43.22863" lon="6.1653">
        <ele>147.75390625</ele>
        <time>2021-07-11T07:46:40Z</time>
      </trkpt>
      <trkpt lat="43.2286" lon="6.16532">
        <ele>147.9140625</ele>
        <time>2021-07-11T07:46:41Z</time>
      </trkpt>
      <trkpt lat="43.22834" lon="6.16554">
        <ele>150.58984375</ele>
        <time>2021-07-11T07:46:51Z</time>
      </trkpt>
      <trkpt lat="43.22832" lon="6.16556">
        <ele>150.87890625</ele>
        <time>2021-07-11T07:46:52Z</time>
      </trkpt>
      <trkpt lat="43.22814" lon="6.16589">
        <ele>155.64453125</ele>
        <time>2021-07-11T07:47:04Z</time>
      </trkpt>
      <trkpt lat="43.22799" lon="6.16624">
        <ele>160.609375</ele>
        <time>2021-07-11T07:47:16Z</time>
      </trkpt>
      <trkpt lat="43.22788" lon="6.16644">
        <ele>163.00390625</ele>
        <time>2021-07-11T07:47:24Z</time>
      </trkpt>
      <trkpt lat="43.22776" lon="6.1668">
        <ele>165.53515625</ele>
        <time>2021-07-11T07:47:38Z</time>
      </trkpt>
      <trkpt lat="43.22767" lon="6.16725">
        <ele>167.48828125</ele>
        <time>2021-07-11T07:47:52Z</time>
      </trkpt>
      <trkpt lat="43.22756" lon="6.16771">
        <ele>167.11328125</ele>
        <time>2021-07-11T07:48:06Z</time>
      </trkpt>
      <trkpt lat="43.22746" lon="6.1683">
        <ele>165.1015625</ele>
        <time>2021-07-11T07:48:19Z</time>
      </trkpt>
      <trkpt lat="43.22745" lon="6.16875">
        <ele>159.53125</ele>
        <time>2021-07-11T07:48:31Z</time>
      </trkpt>
      <trkpt lat="43.22773" lon="6.16889">
        <ele>157.8125</ele>
        <time>2021-07-11T07:48:41Z</time>
      </trkpt>
      <trkpt lat="43.228" lon="6.16902">
        <ele>154.14453125</ele>
        <time>2021-07-11T07:48:50Z</time>
      </trkpt>
      <trkpt lat="43.22804" lon="6.16907">
        <ele>153.14453125</ele>
        <time>2021-07-11T07:48:51Z</time>
      </trkpt>
      <trkpt lat="43.22807" lon="6.16913">
        <ele>152.10546875</ele>
        <time>2021-07-11T07:48:52Z</time>
      </trkpt>
      <trkpt lat="43.22823" lon="6.16945">
        <ele>146.0234375</ele>
        <time>2021-07-11T07:48:56Z</time>
      </trkpt>
      <trkpt lat="43.22827" lon="6.16955">
        <ele>144.29296875</ele>
        <time>2021-07-11T07:48:57Z</time>
      </trkpt>
      <trkpt lat="43.2283" lon="6.16965">
        <ele>142.83203125</ele>
        <time>2021-07-11T07:48:58Z</time>
      </trkpt>
      <trkpt lat="43.22833" lon="6.16987">
        <ele>140.08203125</ele>
        <time>2021-07-11T07:49:00Z</time>
      </trkpt>
      <trkpt lat="43.22833" lon="6.16999">
        <ele>139.1875</ele>
        <time>2021-07-11T07:49:01Z</time>
      </trkpt>
      <trkpt lat="43.22831" lon="6.17024">
        <ele>137.71484375</ele>
        <time>2021-07-11T07:49:03Z</time>
      </trkpt>
      <trkpt lat="43.22831" lon="6.1707">
        <ele>134.55078125</ele>
        <time>2021-07-11T07:49:07Z</time>
      </trkpt>
      <trkpt lat="43.22829" lon="6.17091">
        <ele>133.29296875</ele>
        <time>2021-07-11T07:49:09Z</time>
      </trkpt>
      <trkpt lat="43.22828" lon="6.17101">
        <ele>132.9921875</ele>
        <time>2021-07-11T07:49:10Z</time>
      </trkpt>
      <trkpt lat="43.22825" lon="6.1711">
        <ele>132.8515625</ele>
        <time>2021-07-11T07:49:11Z</time>
      </trkpt>
      <trkpt lat="43.22817" lon="6.17146">
        <ele>132.41015625</ele>
        <time>2021-07-11T07:49:19Z</time>
      </trkpt>
      <trkpt lat="43.22816" lon="6.17148">
        <ele>132.66796875</ele>
        <time>2021-07-11T07:49:20Z</time>
      </trkpt>
      <trkpt lat="43.22814" lon="6.17152">
        <ele>133.01953125</ele>
        <time>2021-07-11T07:49:21Z</time>
      </trkpt>
      <trkpt lat="43.22812" lon="6.17156">
        <ele>133.16015625</ele>
        <time>2021-07-11T07:49:22Z</time>
      </trkpt>
      <trkpt lat="43.22812" lon="6.1716">
        <ele>133.01953125</ele>
        <time>2021-07-11T07:49:23Z</time>
      </trkpt>
      <trkpt lat="43.22812" lon="6.17164">
        <ele>132.6640625</ele>
        <time>2021-07-11T07:49:24Z</time>
      </trkpt>
      <trkpt lat="43.22812" lon="6.17167">
        <ele>132.390625</ele>
        <time>2021-07-11T07:49:25Z</time>
      </trkpt>
      <trkpt lat="43.22811" lon="6.1717">
        <ele>132.49609375</ele>
        <time>2021-07-11T07:49:26Z</time>
      </trkpt>
      <trkpt lat="43.22809" lon="6.17173">
        <ele>132.72265625</ele>
        <time>2021-07-11T07:49:27Z</time>
      </trkpt>
      <trkpt lat="43.22807" lon="6.17178">
        <ele>132.81640625</ele>
        <time>2021-07-11T07:49:28Z</time>
      </trkpt>
      <trkpt lat="43.22806" lon="6.17184">
        <ele>132.73828125</ele>
        <time>2021-07-11T07:49:29Z</time>
      </trkpt>
      <trkpt lat="43.228" lon="6.17203">
        <ele>133.22265625</ele>
        <time>2021-07-11T07:49:32Z</time>
      </trkpt>
      <trkpt lat="43.22799" lon="6.17209">
        <ele>133.18359375</ele>
        <time>2021-07-11T07:49:33Z</time>
      </trkpt>
      <trkpt lat="43.22797" lon="6.17215">
        <ele>133.25390625</ele>
        <time>2021-07-11T07:49:34Z</time>
      </trkpt>
      <trkpt lat="43.22796" lon="6.17221">
        <ele>133.4296875</ele>
        <time>2021-07-11T07:49:35Z</time>
      </trkpt>
      <trkpt lat="43.22795" lon="6.17227">
        <ele>133.35546875</ele>
        <time>2021-07-11T07:49:36Z</time>
      </trkpt>
      <trkpt lat="43.22794" lon="6.17233">
        <ele>133.1015625</ele>
        <time>2021-07-11T07:49:37Z</time>
      </trkpt>
      <trkpt lat="43.22786" lon="6.17255">
        <ele>135.0234375</ele>
        <time>2021-07-11T07:49:47Z</time>
      </trkpt>
      <trkpt lat="43.22785" lon="6.17258">
        <ele>135.3515625</ele>
        <time>2021-07-11T07:49:54Z</time>
      </trkpt>
      <trkpt lat="43.22784" lon="6.1726">
        <ele>135.80078125</ele>
        <time>2021-07-11T07:49:55Z</time>
      </trkpt>
      <trkpt lat="43.22782" lon="6.17262">
        <ele>136.0859375</ele>
        <time>2021-07-11T07:49:56Z</time>
      </trkpt>
      <trkpt lat="43.22781" lon="6.17264">
        <ele>136.140625</ele>
        <time>2021-07-11T07:49:57Z</time>
      </trkpt>
      <trkpt lat="43.22779" lon="6.17266">
        <ele>136.203125</ele>
        <time>2021-07-11T07:49:58Z</time>
      </trkpt>
      <trkpt lat="43.22753" lon="6.17307">
        <ele>138.57421875</ele>
        <time>2021-07-11T07:50:11Z</time>
      </trkpt>
      <trkpt lat="43.22732" lon="6.17332">
        <ele>138.42578125</ele>
        <time>2021-07-11T07:50:20Z</time>
      </trkpt>
      <trkpt lat="43.22727" lon="6.17344">
        <ele>137.32421875</ele>
        <time>2021-07-11T07:50:32Z</time>
      </trkpt>
      <trkpt lat="43.22725" lon="6.17346">
        <ele>136.921875</ele>
        <time>2021-07-11T07:50:37Z</time>
      </trkpt>
      <trkpt lat="43.2271" lon="6.17371">
        <ele>131.29296875</ele>
        <time>2021-07-11T07:50:44Z</time>
      </trkpt>
      <trkpt lat="43.22705" lon="6.17372">
        <ele>130.69921875</ele>
        <time>2021-07-11T07:50:46Z</time>
      </trkpt>
      <trkpt lat="43.22702" lon="6.17372">
        <ele>130.4765625</ele>
        <time>2021-07-11T07:50:47Z</time>
      </trkpt>
      <trkpt lat="43.227" lon="6.17374">
        <ele>129.98046875</ele>
        <time>2021-07-11T07:50:48Z</time>
      </trkpt>
      <trkpt lat="43.22697" lon="6.17376">
        <ele>129.41015625</ele>
        <time>2021-07-11T07:50:49Z</time>
      </trkpt>
      <trkpt lat="43.22688" lon="6.1738">
        <ele>128.2890625</ele>
        <time>2021-07-11T07:50:52Z</time>
      </trkpt>
      <trkpt lat="43.22685" lon="6.17381">
        <ele>128.11328125</ele>
        <time>2021-07-11T07:50:53Z</time>
      </trkpt>
      <trkpt lat="43.22683" lon="6.17382">
        <ele>127.75390625</ele>
        <time>2021-07-11T07:50:54Z</time>
      </trkpt>
      <trkpt lat="43.22677" lon="6.17398">
        <ele>124.7265625</ele>
        <time>2021-07-11T07:50:58Z</time>
      </trkpt>
      <trkpt lat="43.22675" lon="6.17403">
        <ele>123.72265625</ele>
        <time>2021-07-11T07:50:59Z</time>
      </trkpt>
      <trkpt lat="43.22672" lon="6.17409">
        <ele>122.95703125</ele>
        <time>2021-07-11T07:51:00Z</time>
      </trkpt>
      <trkpt lat="43.22652" lon="6.17429">
        <ele>124.91796875</ele>
        <time>2021-07-11T07:51:09Z</time>
      </trkpt>
      <trkpt lat="43.22653" lon="6.17431">
        <ele>124.78125</ele>
        <time>2021-07-11T07:51:10Z</time>
      </trkpt>
      <trkpt lat="43.22654" lon="6.17433">
        <ele>124.41796875</ele>
        <time>2021-07-11T07:51:11Z</time>
      </trkpt>
      <trkpt lat="43.22658" lon="6.17434">
        <ele>123.41015625</ele>
        <time>2021-07-11T07:51:14Z</time>
      </trkpt>
      <trkpt lat="43.22659" lon="6.17433">
        <ele>123.09765625</ele>
        <time>2021-07-11T07:51:15Z</time>
      </trkpt>
      <trkpt lat="43.2266" lon="6.17431">
        <ele>122.92578125</ele>
        <time>2021-07-11T07:51:16Z</time>
      </trkpt>
      <trkpt lat="43.2266" lon="6.17429">
        <ele>123</ele>
        <time>2021-07-11T07:51:17Z</time>
      </trkpt>
      <trkpt lat="43.22658" lon="6.17426">
        <ele>123.58984375</ele>
        <time>2021-07-11T07:51:26Z</time>
      </trkpt>
      <trkpt lat="43.22657" lon="6.17425">
        <ele>123.88671875</ele>
        <time>2021-07-11T07:51:27Z</time>
      </trkpt>
      <trkpt lat="43.22656" lon="6.17425">
        <ele>124.234375</ele>
        <time>2021-07-11T07:51:28Z</time>
      </trkpt>
      <trkpt lat="43.22654" lon="6.17426">
        <ele>124.578125</ele>
        <time>2021-07-11T07:51:29Z</time>
      </trkpt>
      <trkpt lat="43.22653" lon="6.17427">
        <ele>124.8046875</ele>
        <time>2021-07-11T07:51:30Z</time>
      </trkpt>
      <trkpt lat="43.22652" lon="6.17429">
        <ele>124.9453125</ele>
        <time>2021-07-11T07:51:31Z</time>
      </trkpt>
      <trkpt lat="43.22651" lon="6.17429">
        <ele>125.12890625</ele>
        <time>2021-07-11T07:51:45Z</time>
      </trkpt>
      <trkpt lat="43.22649" lon="6.17428">
        <ele>125.73046875</ele>
        <time>2021-07-11T07:52:14Z</time>
      </trkpt>
      <trkpt lat="43.2265" lon="6.17432">
        <ele>125.62109375</ele>
        <time>2021-07-11T07:52:44Z</time>
      </trkpt>
      <trkpt lat="43.22648" lon="6.17431">
        <ele>125.91015625</ele>
        <time>2021-07-11T07:53:05Z</time>
      </trkpt>
      <trkpt lat="43.2265" lon="6.17427">
        <ele>125.47265625</ele>
        <time>2021-07-11T07:53:09Z</time>
      </trkpt>
      <trkpt lat="43.22652" lon="6.17427">
        <ele>125.0078125</ele>
        <time>2021-07-11T07:53:10Z</time>
      </trkpt>
      <trkpt lat="43.22654" lon="6.17427">
        <ele>124.4765625</ele>
        <time>2021-07-11T07:53:11Z</time>
      </trkpt>
      <trkpt lat="43.22656" lon="6.17429">
        <ele>123.93359375</ele>
        <time>2021-07-11T07:53:12Z</time>
      </trkpt>
      <trkpt lat="43.22657" lon="6.1743">
        <ele>123.578125</ele>
        <time>2021-07-11T07:53:13Z</time>
      </trkpt>
      <trkpt lat="43.22658" lon="6.17433">
        <ele>123.25</ele>
        <time>2021-07-11T07:53:14Z</time>
      </trkpt>
      <trkpt lat="43.22659" lon="6.17435">
        <ele>123.0390625</ele>
        <time>2021-07-11T07:53:15Z</time>
      </trkpt>
      <trkpt lat="43.22658" lon="6.17437">
        <ele>123.10546875</ele>
        <time>2021-07-11T07:53:16Z</time>
      </trkpt>
      <trkpt lat="43.22657" lon="6.17438">
        <ele>123.33203125</ele>
        <time>2021-07-11T07:53:17Z</time>
      </trkpt>
      <trkpt lat="43.22656" lon="6.1744">
        <ele>123.72265625</ele>
        <time>2021-07-11T07:53:18Z</time>
      </trkpt>
      <trkpt lat="43.22655" lon="6.1744">
        <ele>124.1484375</ele>
        <time>2021-07-11T07:53:19Z</time>
      </trkpt>
      <trkpt lat="43.22653" lon="6.17442">
        <ele>124.59375</ele>
        <time>2021-07-11T07:53:20Z</time>
      </trkpt>
      <trkpt lat="43.22652" lon="6.17443">
        <ele>124.9921875</ele>
        <time>2021-07-11T07:53:21Z</time>
      </trkpt>
      <trkpt lat="43.22651" lon="6.17445">
        <ele>125.234375</ele>
        <time>2021-07-11T07:53:22Z</time>
      </trkpt>
      <trkpt lat="43.2265" lon="6.17447">
        <ele>125.5234375</ele>
        <time>2021-07-11T07:53:23Z</time>
      </trkpt>
      <trkpt lat="43.22649" lon="6.17448">
        <ele>125.80859375</ele>
        <time>2021-07-11T07:53:24Z</time>
      </trkpt>
      <trkpt lat="43.22649" lon="6.1745">
        <ele>126.0546875</ele>
        <time>2021-07-11T07:53:25Z</time>
      </trkpt>
      <trkpt lat="43.22648" lon="6.17475">
        <ele>127.78125</ele>
        <time>2021-07-11T07:53:37Z</time>
      </trkpt>
      <trkpt lat="43.22649" lon="6.17513">
        <ele>130.12890625</ele>
        <time>2021-07-11T07:53:49Z</time>
      </trkpt>
      <trkpt lat="43.22656" lon="6.17561">
        <ele>127.515625</ele>
        <time>2021-07-11T07:54:02Z</time>
      </trkpt>
      <trkpt lat="43.22642" lon="6.17605">
        <ele>129.29296875</ele>
        <time>2021-07-11T07:54:15Z</time>
      </trkpt>
      <trkpt lat="43.22622" lon="6.17645">
        <ele>133.2578125</ele>
        <time>2021-07-11T07:54:28Z</time>
      </trkpt>
      <trkpt lat="43.22605" lon="6.17669">
        <ele>140.78515625</ele>
        <time>2021-07-11T07:54:38Z</time>
      </trkpt>
      <trkpt lat="43.2261" lon="6.17719">
        <ele>143.53515625</ele>
        <time>2021-07-11T07:54:51Z</time>
      </trkpt>
      <trkpt lat="43.22616" lon="6.17773">
        <ele>144.74609375</ele>
        <time>2021-07-11T07:55:06Z</time>
      </trkpt>
      <trkpt lat="43.22618" lon="6.17818">
        <ele>147.76953125</ele>
        <time>2021-07-11T07:55:19Z</time>
      </trkpt>
      <trkpt lat="43.22618" lon="6.17838">
        <ele>145.75390625</ele>
        <time>2021-07-11T07:55:26Z</time>
      </trkpt>
      <trkpt lat="43.22616" lon="6.17839">
        <ele>145.8046875</ele>
        <time>2021-07-11T07:55:27Z</time>
      </trkpt>
      <trkpt lat="43.22614" lon="6.17838">
        <ele>145.9609375</ele>
        <time>2021-07-11T07:55:28Z</time>
      </trkpt>
      <trkpt lat="43.22612" lon="6.17837">
        <ele>146.15234375</ele>
        <time>2021-07-11T07:55:29Z</time>
      </trkpt>
      <trkpt lat="43.2261" lon="6.17836">
        <ele>146.40234375</ele>
        <time>2021-07-11T07:55:30Z</time>
      </trkpt>
      <trkpt lat="43.22608" lon="6.17834">
        <ele>146.72265625</ele>
        <time>2021-07-11T07:55:31Z</time>
      </trkpt>
      <trkpt lat="43.22567" lon="6.17794">
        <ele>149.9296875</ele>
        <time>2021-07-11T07:55:44Z</time>
      </trkpt>
      <trkpt lat="43.22564" lon="6.17792">
        <ele>149.9453125</ele>
        <time>2021-07-11T07:55:45Z</time>
      </trkpt>
      <trkpt lat="43.2256" lon="6.17791">
        <ele>149.98828125</ele>
        <time>2021-07-11T07:55:46Z</time>
      </trkpt>
      <trkpt lat="43.22557" lon="6.17789">
        <ele>150.2890625</ele>
        <time>2021-07-11T07:55:47Z</time>
      </trkpt>
      <trkpt lat="43.22554" lon="6.17788">
        <ele>150.5703125</ele>
        <time>2021-07-11T07:55:48Z</time>
      </trkpt>
      <trkpt lat="43.22552" lon="6.17787">
        <ele>150.80078125</ele>
        <time>2021-07-11T07:55:49Z</time>
      </trkpt>
      <trkpt lat="43.2255" lon="6.17786">
        <ele>151.03125</ele>
        <time>2021-07-11T07:55:50Z</time>
      </trkpt>
      <trkpt lat="43.22516" lon="6.17786">
        <ele>153.0625</ele>
        <time>2021-07-11T07:56:02Z</time>
      </trkpt>
      <trkpt lat="43.22497" lon="6.1782">
        <ele>149.4375</ele>
        <time>2021-07-11T07:56:12Z</time>
      </trkpt>
      <trkpt lat="43.22465" lon="6.17873">
        <ele>147.1328125</ele>
        <time>2021-07-11T07:56:27Z</time>
      </trkpt>
      <trkpt lat="43.22446" lon="6.17915">
        <ele>150.9453125</ele>
        <time>2021-07-11T07:56:38Z</time>
      </trkpt>
      <trkpt lat="43.22447" lon="6.17939">
        <ele>150.4921875</ele>
        <time>2021-07-11T07:56:43Z</time>
      </trkpt>
      <trkpt lat="43.2245" lon="6.17945">
        <ele>149.640625</ele>
        <time>2021-07-11T07:56:44Z</time>
      </trkpt>
      <trkpt lat="43.22464" lon="6.17967">
        <ele>145.30859375</ele>
        <time>2021-07-11T07:56:48Z</time>
      </trkpt>
      <trkpt lat="43.22473" lon="6.17987">
        <ele>142.84765625</ele>
        <time>2021-07-11T07:56:51Z</time>
      </trkpt>
      <trkpt lat="43.22474" lon="6.17994">
        <ele>143.05078125</ele>
        <time>2021-07-11T07:56:52Z</time>
      </trkpt>
      <trkpt lat="43.22473" lon="6.18001">
        <ele>143.63671875</ele>
        <time>2021-07-11T07:56:53Z</time>
      </trkpt>
      <trkpt lat="43.22472" lon="6.18007">
        <ele>144.3515625</ele>
        <time>2021-07-11T07:56:54Z</time>
      </trkpt>
      <trkpt lat="43.22471" lon="6.18013">
        <ele>145.21875</ele>
        <time>2021-07-11T07:56:55Z</time>
      </trkpt>
      <trkpt lat="43.22469" lon="6.18018">
        <ele>146.25390625</ele>
        <time>2021-07-11T07:56:56Z</time>
      </trkpt>
      <trkpt lat="43.22467" lon="6.18022">
        <ele>147.359375</ele>
        <time>2021-07-11T07:56:57Z</time>
      </trkpt>
      <trkpt lat="43.22465" lon="6.18027">
        <ele>148.546875</ele>
        <time>2021-07-11T07:56:58Z</time>
      </trkpt>
      <trkpt lat="43.22455" lon="6.1806">
        <ele>155.57421875</ele>
        <time>2021-07-11T07:57:06Z</time>
      </trkpt>
      <trkpt lat="43.22456" lon="6.18064">
        <ele>155.6328125</ele>
        <time>2021-07-11T07:57:07Z</time>
      </trkpt>
      <trkpt lat="43.22458" lon="6.18067">
        <ele>155.40625</ele>
        <time>2021-07-11T07:57:08Z</time>
      </trkpt>
      <trkpt lat="43.22461" lon="6.18069">
        <ele>154.8984375</ele>
        <time>2021-07-11T07:57:09Z</time>
      </trkpt>
      <trkpt lat="43.22465" lon="6.18072">
        <ele>154.171875</ele>
        <time>2021-07-11T07:57:10Z</time>
      </trkpt>
      <trkpt lat="43.22469" lon="6.18074">
        <ele>153.3125</ele>
        <time>2021-07-11T07:57:11Z</time>
      </trkpt>
      <trkpt lat="43.22499" lon="6.18113">
        <ele>146.70703125</ele>
        <time>2021-07-11T07:57:22Z</time>
      </trkpt>
      <trkpt lat="43.22493" lon="6.18158">
        <ele>149.53515625</ele>
        <time>2021-07-11T07:57:32Z</time>
      </trkpt>
      <trkpt lat="43.22477" lon="6.18183">
        <ele>156.7421875</ele>
        <time>2021-07-11T07:57:39Z</time>
      </trkpt>
      <trkpt lat="43.22478" lon="6.18187">
        <ele>157.0703125</ele>
        <time>2021-07-11T07:57:40Z</time>
      </trkpt>
      <trkpt lat="43.2248" lon="6.1819">
        <ele>157.06640625</ele>
        <time>2021-07-11T07:57:41Z</time>
      </trkpt>
      <trkpt lat="43.22482" lon="6.18193">
        <ele>156.7578125</ele>
        <time>2021-07-11T07:57:42Z</time>
      </trkpt>
      <trkpt lat="43.22485" lon="6.18197">
        <ele>156.40625</ele>
        <time>2021-07-11T07:57:43Z</time>
      </trkpt>
      <trkpt lat="43.22523" lon="6.18244">
        <ele>156.1875</ele>
        <time>2021-07-11T07:57:56Z</time>
      </trkpt>
      <trkpt lat="43.22527" lon="6.18247">
        <ele>155.890625</ele>
        <time>2021-07-11T07:57:57Z</time>
      </trkpt>
      <trkpt lat="43.2257" lon="6.18288">
        <ele>152.953125</ele>
        <time>2021-07-11T07:58:10Z</time>
      </trkpt>
      <trkpt lat="43.22572" lon="6.18293">
        <ele>152.44140625</ele>
        <time>2021-07-11T07:58:11Z</time>
      </trkpt>
      <trkpt lat="43.22573" lon="6.18298">
        <ele>151.6171875</ele>
        <time>2021-07-11T07:58:12Z</time>
      </trkpt>
      <trkpt lat="43.22573" lon="6.18304">
        <ele>150.96484375</ele>
        <time>2021-07-11T07:58:13Z</time>
      </trkpt>
      <trkpt lat="43.22572" lon="6.18309">
        <ele>150.4375</ele>
        <time>2021-07-11T07:58:14Z</time>
      </trkpt>
      <trkpt lat="43.22571" lon="6.18314">
        <ele>150.0078125</ele>
        <time>2021-07-11T07:58:15Z</time>
      </trkpt>
      <trkpt lat="43.22569" lon="6.18319">
        <ele>149.6484375</ele>
        <time>2021-07-11T07:58:16Z</time>
      </trkpt>
      <trkpt lat="43.22566" lon="6.18324">
        <ele>149.1796875</ele>
        <time>2021-07-11T07:58:17Z</time>
      </trkpt>
      <trkpt lat="43.22563" lon="6.18328">
        <ele>148.76953125</ele>
        <time>2021-07-11T07:58:18Z</time>
      </trkpt>
      <trkpt lat="43.2256" lon="6.18333">
        <ele>148.40625</ele>
        <time>2021-07-11T07:58:19Z</time>
      </trkpt>
      <trkpt lat="43.22554" lon="6.1834">
        <ele>147.98046875</ele>
        <time>2021-07-11T07:58:21Z</time>
      </trkpt>
      <trkpt lat="43.22507" lon="6.18376">
        <ele>152.19140625</ele>
        <time>2021-07-11T07:58:33Z</time>
      </trkpt>
      <trkpt lat="43.22504" lon="6.18381">
        <ele>152.3984375</ele>
        <time>2021-07-11T07:58:34Z</time>
      </trkpt>
      <trkpt lat="43.22501" lon="6.18386">
        <ele>152.2421875</ele>
        <time>2021-07-11T07:58:35Z</time>
      </trkpt>
      <trkpt lat="43.22501" lon="6.18392">
        <ele>151.6484375</ele>
        <time>2021-07-11T07:58:36Z</time>
      </trkpt>
      <trkpt lat="43.22501" lon="6.18397">
        <ele>150.79296875</ele>
        <time>2021-07-11T07:58:37Z</time>
      </trkpt>
      <trkpt lat="43.22501" lon="6.18403">
        <ele>149.95703125</ele>
        <time>2021-07-11T07:58:38Z</time>
      </trkpt>
      <trkpt lat="43.22501" lon="6.18409">
        <ele>149.328125</ele>
        <time>2021-07-11T07:58:39Z</time>
      </trkpt>
      <trkpt lat="43.22499" lon="6.18426">
        <ele>147.8046875</ele>
        <time>2021-07-11T07:58:42Z</time>
      </trkpt>
      <trkpt lat="43.22498" lon="6.18432">
        <ele>147.47265625</ele>
        <time>2021-07-11T07:58:43Z</time>
      </trkpt>
      <trkpt lat="43.22495" lon="6.18437">
        <ele>147.24609375</ele>
        <time>2021-07-11T07:58:44Z</time>
      </trkpt>
      <trkpt lat="43.22493" lon="6.18441">
        <ele>147.1796875</ele>
        <time>2021-07-11T07:58:45Z</time>
      </trkpt>
      <trkpt lat="43.2249" lon="6.18445">
        <ele>147.30078125</ele>
        <time>2021-07-11T07:58:46Z</time>
      </trkpt>
      <trkpt lat="43.22487" lon="6.18448">
        <ele>147.40625</ele>
        <time>2021-07-11T07:58:47Z</time>
      </trkpt>
      <trkpt lat="43.22483" lon="6.18451">
        <ele>147.64453125</ele>
        <time>2021-07-11T07:58:48Z</time>
      </trkpt>
      <trkpt lat="43.2248" lon="6.18454">
        <ele>148.0703125</ele>
        <time>2021-07-11T07:58:49Z</time>
      </trkpt>
      <trkpt lat="43.22475" lon="6.18456">
        <ele>148.50390625</ele>
        <time>2021-07-11T07:58:50Z</time>
      </trkpt>
      <trkpt lat="43.22471" lon="6.18457">
        <ele>148.90234375</ele>
        <time>2021-07-11T07:58:51Z</time>
      </trkpt>
      <trkpt lat="43.22467" lon="6.18458">
        <ele>149.4140625</ele>
        <time>2021-07-11T07:58:52Z</time>
      </trkpt>
      <trkpt lat="43.22463" lon="6.18459">
        <ele>150.03515625</ele>
        <time>2021-07-11T07:58:53Z</time>
      </trkpt>
      <trkpt lat="43.22458" lon="6.18459">
        <ele>150.734375</ele>
        <time>2021-07-11T07:58:54Z</time>
      </trkpt>
      <trkpt lat="43.22404" lon="6.18464">
        <ele>156.1953125</ele>
        <time>2021-07-11T07:59:08Z</time>
      </trkpt>
      <trkpt lat="43.22376" lon="6.18457">
        <ele>161.609375</ele>
        <time>2021-07-11T07:59:16Z</time>
      </trkpt>
      <trkpt lat="43.22373" lon="6.1846">
        <ele>161.40625</ele>
        <time>2021-07-11T07:59:17Z</time>
      </trkpt>
      <trkpt lat="43.22372" lon="6.18465">
        <ele>160.86328125</ele>
        <time>2021-07-11T07:59:18Z</time>
      </trkpt>
      <trkpt lat="43.22362" lon="6.18504">
        <ele>162.58203125</ele>
        <time>2021-07-11T07:59:26Z</time>
      </trkpt>
      <trkpt lat="43.22365" lon="6.18508">
        <ele>162.16796875</ele>
        <time>2021-07-11T07:59:27Z</time>
      </trkpt>
      <trkpt lat="43.22368" lon="6.18512">
        <ele>161.58984375</ele>
        <time>2021-07-11T07:59:28Z</time>
      </trkpt>
      <trkpt lat="43.22372" lon="6.18514">
        <ele>161.1640625</ele>
        <time>2021-07-11T07:59:29Z</time>
      </trkpt>
      <trkpt lat="43.22376" lon="6.18518">
        <ele>160.79296875</ele>
        <time>2021-07-11T07:59:30Z</time>
      </trkpt>
      <trkpt lat="43.22379" lon="6.18522">
        <ele>160.63671875</ele>
        <time>2021-07-11T07:59:31Z</time>
      </trkpt>
      <trkpt lat="43.22383" lon="6.18526">
        <ele>160.6171875</ele>
        <time>2021-07-11T07:59:32Z</time>
      </trkpt>
      <trkpt lat="43.22433" lon="6.18585">
        <ele>159.87109375</ele>
        <time>2021-07-11T07:59:46Z</time>
      </trkpt>
      <trkpt lat="43.22468" lon="6.18624">
        <ele>159.0859375</ele>
        <time>2021-07-11T07:59:55Z</time>
      </trkpt>
      <trkpt lat="43.225" lon="6.1868">
        <ele>158.21875</ele>
        <time>2021-07-11T08:00:08Z</time>
      </trkpt>
      <trkpt lat="43.22501" lon="6.18699">
        <ele>152.5234375</ele>
        <time>2021-07-11T08:00:12Z</time>
      </trkpt>
      <trkpt lat="43.22499" lon="6.18703">
        <ele>151.5234375</ele>
        <time>2021-07-11T08:00:13Z</time>
      </trkpt>
      <trkpt lat="43.22495" lon="6.18707">
        <ele>150.9453125</ele>
        <time>2021-07-11T08:00:14Z</time>
      </trkpt>
      <trkpt lat="43.22492" lon="6.1871">
        <ele>150.65234375</ele>
        <time>2021-07-11T08:00:15Z</time>
      </trkpt>
      <trkpt lat="43.22488" lon="6.18712">
        <ele>150.39453125</ele>
        <time>2021-07-11T08:00:16Z</time>
      </trkpt>
      <trkpt lat="43.22433" lon="6.1874">
        <ele>150.640625</ele>
        <time>2021-07-11T08:00:31Z</time>
      </trkpt>
      <trkpt lat="43.22407" lon="6.18744">
        <ele>152.96875</ele>
        <time>2021-07-11T08:00:37Z</time>
      </trkpt>
      <trkpt lat="43.22361" lon="6.18739">
        <ele>159.96875</ele>
        <time>2021-07-11T08:00:48Z</time>
      </trkpt>
      <trkpt lat="43.22358" lon="6.18743">
        <ele>160.41015625</ele>
        <time>2021-07-11T08:00:49Z</time>
      </trkpt>
      <trkpt lat="43.22358" lon="6.18749">
        <ele>160.5078125</ele>
        <time>2021-07-11T08:00:50Z</time>
      </trkpt>
      <trkpt lat="43.22359" lon="6.18755">
        <ele>160.20703125</ele>
        <time>2021-07-11T08:00:51Z</time>
      </trkpt>
      <trkpt lat="43.2236" lon="6.1876">
        <ele>159.8046875</ele>
        <time>2021-07-11T08:00:52Z</time>
      </trkpt>
      <trkpt lat="43.22361" lon="6.18765">
        <ele>159.70703125</ele>
        <time>2021-07-11T08:00:53Z</time>
      </trkpt>
      <trkpt lat="43.22364" lon="6.1877">
        <ele>159.3046875</ele>
        <time>2021-07-11T08:00:54Z</time>
      </trkpt>
      <trkpt lat="43.22368" lon="6.18776">
        <ele>158.56640625</ele>
        <time>2021-07-11T08:00:55Z</time>
      </trkpt>
      <trkpt lat="43.22387" lon="6.18807">
        <ele>154.80078125</ele>
        <time>2021-07-11T08:01:00Z</time>
      </trkpt>
      <trkpt lat="43.22389" lon="6.18814">
        <ele>154.47265625</ele>
        <time>2021-07-11T08:01:01Z</time>
      </trkpt>
      <trkpt lat="43.22395" lon="6.1883">
        <ele>155.671875</ele>
        <time>2021-07-11T08:01:03Z</time>
      </trkpt>
      <trkpt lat="43.22399" lon="6.18838">
        <ele>156.6328125</ele>
        <time>2021-07-11T08:01:04Z</time>
      </trkpt>
      <trkpt lat="43.22403" lon="6.18844">
        <ele>157.125</ele>
        <time>2021-07-11T08:01:05Z</time>
      </trkpt>
      <trkpt lat="43.22444" lon="6.18878">
        <ele>158.140625</ele>
        <time>2021-07-11T08:01:13Z</time>
      </trkpt>
      <trkpt lat="43.22449" lon="6.18881">
        <ele>157.91796875</ele>
        <time>2021-07-11T08:01:14Z</time>
      </trkpt>
      <trkpt lat="43.22512" lon="6.18934">
        <ele>149.9765625</ele>
        <time>2021-07-11T08:01:29Z</time>
      </trkpt>
      <trkpt lat="43.22528" lon="6.18959">
        <ele>146.6015625</ele>
        <time>2021-07-11T08:01:34Z</time>
      </trkpt>
      <trkpt lat="43.22532" lon="6.18971">
        <ele>145.84375</ele>
        <time>2021-07-11T08:01:36Z</time>
      </trkpt>
      <trkpt lat="43.22533" lon="6.18978">
        <ele>145.79296875</ele>
        <time>2021-07-11T08:01:37Z</time>
      </trkpt>
      <trkpt lat="43.22533" lon="6.18984">
        <ele>145.890625</ele>
        <time>2021-07-11T08:01:38Z</time>
      </trkpt>
      <trkpt lat="43.22533" lon="6.19011">
        <ele>145.03125</ele>
        <time>2021-07-11T08:01:42Z</time>
      </trkpt>
      <trkpt lat="43.22532" lon="6.19017">
        <ele>144.69140625</ele>
        <time>2021-07-11T08:01:43Z</time>
      </trkpt>
      <trkpt lat="43.2253" lon="6.19022">
        <ele>144.4375</ele>
        <time>2021-07-11T08:01:44Z</time>
      </trkpt>
      <trkpt lat="43.22528" lon="6.19027">
        <ele>144.26953125</ele>
        <time>2021-07-11T08:01:45Z</time>
      </trkpt>
      <trkpt lat="43.22526" lon="6.19031">
        <ele>144.20703125</ele>
        <time>2021-07-11T08:01:46Z</time>
      </trkpt>
      <trkpt lat="43.22523" lon="6.19036">
        <ele>144.23828125</ele>
        <time>2021-07-11T08:01:47Z</time>
      </trkpt>
      <trkpt lat="43.2252" lon="6.19039">
        <ele>144.34765625</ele>
        <time>2021-07-11T08:01:48Z</time>
      </trkpt>
      <trkpt lat="43.22516" lon="6.19043">
        <ele>144.34765625</ele>
        <time>2021-07-11T08:01:49Z</time>
      </trkpt>
      <trkpt lat="43.22513" lon="6.19046">
        <ele>144.41015625</ele>
        <time>2021-07-11T08:01:50Z</time>
      </trkpt>
      <trkpt lat="43.22509" lon="6.19048">
        <ele>144.44140625</ele>
        <time>2021-07-11T08:01:51Z</time>
      </trkpt>
      <trkpt lat="43.22505" lon="6.19051">
        <ele>144.4375</ele>
        <time>2021-07-11T08:01:52Z</time>
      </trkpt>
      <trkpt lat="43.22501" lon="6.19053">
        <ele>144.29296875</ele>
        <time>2021-07-11T08:01:53Z</time>
      </trkpt>
      <trkpt lat="43.22496" lon="6.19055">
        <ele>144.26171875</ele>
        <time>2021-07-11T08:01:54Z</time>
      </trkpt>
      <trkpt lat="43.22441" lon="6.19056">
        <ele>145.4453125</ele>
        <time>2021-07-11T08:02:05Z</time>
      </trkpt>
      <trkpt lat="43.22432" lon="6.19058">
        <ele>145.3984375</ele>
        <time>2021-07-11T08:02:07Z</time>
      </trkpt>
      <trkpt lat="43.22366" lon="6.19048">
        <ele>152.9375</ele>
        <time>2021-07-11T08:02:21Z</time>
      </trkpt>
      <trkpt lat="43.22357" lon="6.19046">
        <ele>154.28125</ele>
        <time>2021-07-11T08:02:23Z</time>
      </trkpt>
      <trkpt lat="43.22334" lon="6.19046">
        <ele>157.54296875</ele>
        <time>2021-07-11T08:02:30Z</time>
      </trkpt>
      <trkpt lat="43.22334" lon="6.1905">
        <ele>157.53515625</ele>
        <time>2021-07-11T08:02:31Z</time>
      </trkpt>
      <trkpt lat="43.22335" lon="6.19054">
        <ele>157.21875</ele>
        <time>2021-07-11T08:02:32Z</time>
      </trkpt>
      <trkpt lat="43.22337" lon="6.19058">
        <ele>156.70703125</ele>
        <time>2021-07-11T08:02:33Z</time>
      </trkpt>
      <trkpt lat="43.22339" lon="6.19062">
        <ele>156.03125</ele>
        <time>2021-07-11T08:02:34Z</time>
      </trkpt>
      <trkpt lat="43.22381" lon="6.19121">
        <ele>144.87890625</ele>
        <time>2021-07-11T08:02:48Z</time>
      </trkpt>
      <trkpt lat="43.22386" lon="6.19131">
        <ele>143.171875</ele>
        <time>2021-07-11T08:02:50Z</time>
      </trkpt>
      <trkpt lat="43.22397" lon="6.19158">
        <ele>141.55859375</ele>
        <time>2021-07-11T08:02:55Z</time>
      </trkpt>
      <trkpt lat="43.22398" lon="6.19164">
        <ele>142.53515625</ele>
        <time>2021-07-11T08:02:56Z</time>
      </trkpt>
      <trkpt lat="43.22397" lon="6.1917">
        <ele>143.8125</ele>
        <time>2021-07-11T08:02:57Z</time>
      </trkpt>
      <trkpt lat="43.22396" lon="6.19176">
        <ele>145.22265625</ele>
        <time>2021-07-11T08:02:58Z</time>
      </trkpt>
      <trkpt lat="43.22393" lon="6.19181">
        <ele>146.7734375</ele>
        <time>2021-07-11T08:02:59Z</time>
      </trkpt>
      <trkpt lat="43.22389" lon="6.19185">
        <ele>148.26953125</ele>
        <time>2021-07-11T08:03:00Z</time>
      </trkpt>
      <trkpt lat="43.22385" lon="6.1919">
        <ele>149.6796875</ele>
        <time>2021-07-11T08:03:01Z</time>
      </trkpt>
      <trkpt lat="43.22377" lon="6.19198">
        <ele>152.359375</ele>
        <time>2021-07-11T08:03:03Z</time>
      </trkpt>
      <trkpt lat="43.22373" lon="6.19202">
        <ele>153.55078125</ele>
        <time>2021-07-11T08:03:04Z</time>
      </trkpt>
      <trkpt lat="43.22369" lon="6.19206">
        <ele>154.58984375</ele>
        <time>2021-07-11T08:03:05Z</time>
      </trkpt>
      <trkpt lat="43.22366" lon="6.1921">
        <ele>155.90234375</ele>
        <time>2021-07-11T08:03:06Z</time>
      </trkpt>
      <trkpt lat="43.22365" lon="6.19215">
        <ele>157.23046875</ele>
        <time>2021-07-11T08:03:07Z</time>
      </trkpt>
      <trkpt lat="43.22365" lon="6.19221">
        <ele>158.3984375</ele>
        <time>2021-07-11T08:03:08Z</time>
      </trkpt>
      <trkpt lat="43.22367" lon="6.19226">
        <ele>159.11328125</ele>
        <time>2021-07-11T08:03:09Z</time>
      </trkpt>
      <trkpt lat="43.22371" lon="6.19228">
        <ele>159.3515625</ele>
        <time>2021-07-11T08:03:10Z</time>
      </trkpt>
      <trkpt lat="43.22374" lon="6.19229">
        <ele>159.10546875</ele>
        <time>2021-07-11T08:03:11Z</time>
      </trkpt>
      <trkpt lat="43.22379" lon="6.19229">
        <ele>158.66015625</ele>
        <time>2021-07-11T08:03:12Z</time>
      </trkpt>
      <trkpt lat="43.22383" lon="6.1923">
        <ele>158.19140625</ele>
        <time>2021-07-11T08:03:13Z</time>
      </trkpt>
      <trkpt lat="43.22397" lon="6.19232">
        <ele>157.04296875</ele>
        <time>2021-07-11T08:03:16Z</time>
      </trkpt>
      <trkpt lat="43.22402" lon="6.19233">
        <ele>156.5</ele>
        <time>2021-07-11T08:03:17Z</time>
      </trkpt>
      <trkpt lat="43.22406" lon="6.19233">
        <ele>155.61328125</ele>
        <time>2021-07-11T08:03:18Z</time>
      </trkpt>
      <trkpt lat="43.22412" lon="6.19232">
        <ele>154.46484375</ele>
        <time>2021-07-11T08:03:19Z</time>
      </trkpt>
      <trkpt lat="43.22417" lon="6.19232">
        <ele>153.48046875</ele>
        <time>2021-07-11T08:03:20Z</time>
      </trkpt>
      <trkpt lat="43.22423" lon="6.19233">
        <ele>152.6796875</ele>
        <time>2021-07-11T08:03:21Z</time>
      </trkpt>
      <trkpt lat="43.22428" lon="6.19234">
        <ele>151.91015625</ele>
        <time>2021-07-11T08:03:22Z</time>
      </trkpt>
      <trkpt lat="43.22484" lon="6.19254">
        <ele>142.00390625</ele>
        <time>2021-07-11T08:03:33Z</time>
      </trkpt>
      <trkpt lat="43.22488" lon="6.19259">
        <ele>141.4375</ele>
        <time>2021-07-11T08:03:34Z</time>
      </trkpt>
      <trkpt lat="43.22492" lon="6.19264">
        <ele>140.984375</ele>
        <time>2021-07-11T08:03:35Z</time>
      </trkpt>
      <trkpt lat="43.22495" lon="6.1927">
        <ele>140.6015625</ele>
        <time>2021-07-11T08:03:36Z</time>
      </trkpt>
      <trkpt lat="43.22497" lon="6.19277">
        <ele>140.41015625</ele>
        <time>2021-07-11T08:03:37Z</time>
      </trkpt>
      <trkpt lat="43.22498" lon="6.19284">
        <ele>140.4609375</ele>
        <time>2021-07-11T08:03:38Z</time>
      </trkpt>
      <trkpt lat="43.22498" lon="6.1929">
        <ele>140.66015625</ele>
        <time>2021-07-11T08:03:39Z</time>
      </trkpt>
      <trkpt lat="43.22497" lon="6.19297">
        <ele>140.92578125</ele>
        <time>2021-07-11T08:03:40Z</time>
      </trkpt>
      <trkpt lat="43.22495" lon="6.19302">
        <ele>141.26953125</ele>
        <time>2021-07-11T08:03:41Z</time>
      </trkpt>
      <trkpt lat="43.22494" lon="6.19307">
        <ele>141.58984375</ele>
        <time>2021-07-11T08:03:42Z</time>
      </trkpt>
      <trkpt lat="43.22466" lon="6.19355">
        <ele>147.796875</ele>
        <time>2021-07-11T08:03:55Z</time>
      </trkpt>
      <trkpt lat="43.22447" lon="6.19385">
        <ele>155.62109375</ele>
        <time>2021-07-11T08:04:04Z</time>
      </trkpt>
      <trkpt lat="43.22445" lon="6.19387">
        <ele>156.48828125</ele>
        <time>2021-07-11T08:04:05Z</time>
      </trkpt>
      <trkpt lat="43.22443" lon="6.1939">
        <ele>157.28125</ele>
        <time>2021-07-11T08:04:06Z</time>
      </trkpt>
      <trkpt lat="43.22433" lon="6.19414">
        <ele>164.15234375</ele>
        <time>2021-07-11T08:04:13Z</time>
      </trkpt>
      <trkpt lat="43.22434" lon="6.19419">
        <ele>165.375</ele>
        <time>2021-07-11T08:04:14Z</time>
      </trkpt>
      <trkpt lat="43.22436" lon="6.19423">
        <ele>165.94921875</ele>
        <time>2021-07-11T08:04:15Z</time>
      </trkpt>
      <trkpt lat="43.22439" lon="6.19424">
        <ele>165.90625</ele>
        <time>2021-07-11T08:04:16Z</time>
      </trkpt>
      <trkpt lat="43.22443" lon="6.19423">
        <ele>165.4453125</ele>
        <time>2021-07-11T08:04:17Z</time>
      </trkpt>
      <trkpt lat="43.22445" lon="6.19422">
        <ele>164.66796875</ele>
        <time>2021-07-11T08:04:18Z</time>
      </trkpt>
      <trkpt lat="43.22448" lon="6.1942">
        <ele>163.86328125</ele>
        <time>2021-07-11T08:04:19Z</time>
      </trkpt>
      <trkpt lat="43.2245" lon="6.19419">
        <ele>163.24609375</ele>
        <time>2021-07-11T08:04:20Z</time>
      </trkpt>
      <trkpt lat="43.22452" lon="6.19418">
        <ele>162.921875</ele>
        <time>2021-07-11T08:04:21Z</time>
      </trkpt>
      <trkpt lat="43.22454" lon="6.19418">
        <ele>162.6484375</ele>
        <time>2021-07-11T08:04:22Z</time>
      </trkpt>
      <trkpt lat="43.22457" lon="6.19417">
        <ele>162.234375</ele>
        <time>2021-07-11T08:04:23Z</time>
      </trkpt>
      <trkpt lat="43.22459" lon="6.19416">
        <ele>161.68359375</ele>
        <time>2021-07-11T08:04:24Z</time>
      </trkpt>
      <trkpt lat="43.22499" lon="6.19422">
        <ele>159.1796875</ele>
        <time>2021-07-11T08:04:36Z</time>
      </trkpt>
      <trkpt lat="43.22534" lon="6.19464">
        <ele>163.50390625</ele>
        <time>2021-07-11T08:04:49Z</time>
      </trkpt>
      <trkpt lat="43.22561" lon="6.19517">
        <ele>177.3984375</ele>
        <time>2021-07-11T08:05:03Z</time>
      </trkpt>
      <trkpt lat="43.22565" lon="6.19517">
        <ele>177.7421875</ele>
        <time>2021-07-11T08:05:04Z</time>
      </trkpt>
      <trkpt lat="43.22569" lon="6.19515">
        <ele>177.8203125</ele>
        <time>2021-07-11T08:05:05Z</time>
      </trkpt>
      <trkpt lat="43.22584" lon="6.19498">
        <ele>176.3359375</ele>
        <time>2021-07-11T08:05:10Z</time>
      </trkpt>
      <trkpt lat="43.22586" lon="6.19493">
        <ele>175.6015625</ele>
        <time>2021-07-11T08:05:11Z</time>
      </trkpt>
      <trkpt lat="43.22588" lon="6.19488">
        <ele>174.8203125</ele>
        <time>2021-07-11T08:05:12Z</time>
      </trkpt>
      <trkpt lat="43.22618" lon="6.19437">
        <ele>171.82421875</ele>
        <time>2021-07-11T08:05:24Z</time>
      </trkpt>
      <trkpt lat="43.2262" lon="6.19432">
        <ele>171.34765625</ele>
        <time>2021-07-11T08:05:25Z</time>
      </trkpt>
      <trkpt lat="43.22622" lon="6.19427">
        <ele>170.8984375</ele>
        <time>2021-07-11T08:05:26Z</time>
      </trkpt>
      <trkpt lat="43.22623" lon="6.19422">
        <ele>170.52734375</ele>
        <time>2021-07-11T08:05:27Z</time>
      </trkpt>
      <trkpt lat="43.22624" lon="6.19416">
        <ele>170.0078125</ele>
        <time>2021-07-11T08:05:28Z</time>
      </trkpt>
      <trkpt lat="43.22624" lon="6.19411">
        <ele>169.4375</ele>
        <time>2021-07-11T08:05:29Z</time>
      </trkpt>
      <trkpt lat="43.22625" lon="6.19406">
        <ele>168.92578125</ele>
        <time>2021-07-11T08:05:30Z</time>
      </trkpt>
      <trkpt lat="43.2263" lon="6.19379">
        <ele>166.65234375</ele>
        <time>2021-07-11T08:05:35Z</time>
      </trkpt>
      <trkpt lat="43.22631" lon="6.19373">
        <ele>166.19921875</ele>
        <time>2021-07-11T08:05:36Z</time>
      </trkpt>
      <trkpt lat="43.22632" lon="6.19367">
        <ele>165.75</ele>
        <time>2021-07-11T08:05:37Z</time>
      </trkpt>
      <trkpt lat="43.22634" lon="6.19362">
        <ele>165.37109375</ele>
        <time>2021-07-11T08:05:38Z</time>
      </trkpt>
      <trkpt lat="43.22635" lon="6.19357">
        <ele>165.01953125</ele>
        <time>2021-07-11T08:05:39Z</time>
      </trkpt>
      <trkpt lat="43.22653" lon="6.19307">
        <ele>159.5234375</ele>
        <time>2021-07-11T08:05:49Z</time>
      </trkpt>
      <trkpt lat="43.22657" lon="6.19302">
        <ele>158.8828125</ele>
        <time>2021-07-11T08:05:50Z</time>
      </trkpt>
      <trkpt lat="43.2267" lon="6.19287">
        <ele>156.640625</ele>
        <time>2021-07-11T08:05:53Z</time>
      </trkpt>
      <trkpt lat="43.2268" lon="6.19277">
        <ele>153.34375</ele>
        <time>2021-07-11T08:05:55Z</time>
      </trkpt>
      <trkpt lat="43.22686" lon="6.19274">
        <ele>151.67578125</ele>
        <time>2021-07-11T08:05:56Z</time>
      </trkpt>
      <trkpt lat="43.22692" lon="6.19272">
        <ele>150.11328125</ele>
        <time>2021-07-11T08:05:57Z</time>
      </trkpt>
      <trkpt lat="43.22699" lon="6.19271">
        <ele>148.82421875</ele>
        <time>2021-07-11T08:05:58Z</time>
      </trkpt>
      <trkpt lat="43.22706" lon="6.19273">
        <ele>147.25390625</ele>
        <time>2021-07-11T08:05:59Z</time>
      </trkpt>
      <trkpt lat="43.22712" lon="6.19275">
        <ele>146.0390625</ele>
        <time>2021-07-11T08:06:00Z</time>
      </trkpt>
      <trkpt lat="43.22718" lon="6.19279">
        <ele>145</ele>
        <time>2021-07-11T08:06:01Z</time>
      </trkpt>
      <trkpt lat="43.22724" lon="6.19285">
        <ele>144.17578125</ele>
        <time>2021-07-11T08:06:02Z</time>
      </trkpt>
      <trkpt lat="43.2273" lon="6.19291">
        <ele>143.26953125</ele>
        <time>2021-07-11T08:06:03Z</time>
      </trkpt>
      <trkpt lat="43.22735" lon="6.19299">
        <ele>142.11328125</ele>
        <time>2021-07-11T08:06:04Z</time>
      </trkpt>
      <trkpt lat="43.2274" lon="6.19306">
        <ele>140.828125</ele>
        <time>2021-07-11T08:06:05Z</time>
      </trkpt>
      <trkpt lat="43.22751" lon="6.19323">
        <ele>138.078125</ele>
        <time>2021-07-11T08:06:07Z</time>
      </trkpt>
      <trkpt lat="43.22755" lon="6.19332">
        <ele>137.0546875</ele>
        <time>2021-07-11T08:06:08Z</time>
      </trkpt>
      <trkpt lat="43.22759" lon="6.19342">
        <ele>136.3671875</ele>
        <time>2021-07-11T08:06:09Z</time>
      </trkpt>
      <trkpt lat="43.22766" lon="6.19363">
        <ele>135.0390625</ele>
        <time>2021-07-11T08:06:11Z</time>
      </trkpt>
      <trkpt lat="43.2278" lon="6.19424">
        <ele>133.73046875</ele>
        <time>2021-07-11T08:06:16Z</time>
      </trkpt>
      <trkpt lat="43.22784" lon="6.19436">
        <ele>133.1875</ele>
        <time>2021-07-11T08:06:17Z</time>
      </trkpt>
      <trkpt lat="43.22789" lon="6.19447">
        <ele>132.57421875</ele>
        <time>2021-07-11T08:06:18Z</time>
      </trkpt>
      <trkpt lat="43.22793" lon="6.19458">
        <ele>131.8828125</ele>
        <time>2021-07-11T08:06:19Z</time>
      </trkpt>
      <trkpt lat="43.22812" lon="6.19503">
        <ele>127.33203125</ele>
        <time>2021-07-11T08:06:23Z</time>
      </trkpt>
      <trkpt lat="43.2282" lon="6.19524">
        <ele>124.578125</ele>
        <time>2021-07-11T08:06:25Z</time>
      </trkpt>
      <trkpt lat="43.22833" lon="6.19555">
        <ele>120.6953125</ele>
        <time>2021-07-11T08:06:28Z</time>
      </trkpt>
      <trkpt lat="43.22843" lon="6.1959">
        <ele>117.35546875</ele>
        <time>2021-07-11T08:06:31Z</time>
      </trkpt>
      <trkpt lat="43.22848" lon="6.19611">
        <ele>115.7578125</ele>
        <time>2021-07-11T08:06:33Z</time>
      </trkpt>
      <trkpt lat="43.22849" lon="6.19621">
        <ele>115.6015625</ele>
        <time>2021-07-11T08:06:34Z</time>
      </trkpt>
      <trkpt lat="43.2285" lon="6.19642">
        <ele>114.41015625</ele>
        <time>2021-07-11T08:06:36Z</time>
      </trkpt>
      <trkpt lat="43.22856" lon="6.19675">
        <ele>111.58203125</ele>
        <time>2021-07-11T08:06:39Z</time>
      </trkpt>
      <trkpt lat="43.22857" lon="6.19688">
        <ele>111.13671875</ele>
        <time>2021-07-11T08:06:40Z</time>
      </trkpt>
      <trkpt lat="43.22858" lon="6.19714">
        <ele>110.515625</ele>
        <time>2021-07-11T08:06:42Z</time>
      </trkpt>
      <trkpt lat="43.22862" lon="6.19751">
        <ele>108.921875</ele>
        <time>2021-07-11T08:06:45Z</time>
      </trkpt>
      <trkpt lat="43.22861" lon="6.19762">
        <ele>108.68359375</ele>
        <time>2021-07-11T08:06:46Z</time>
      </trkpt>
      <trkpt lat="43.22859" lon="6.19771">
        <ele>108.58203125</ele>
        <time>2021-07-11T08:06:47Z</time>
      </trkpt>
      <trkpt lat="43.22854" lon="6.1979">
        <ele>108.203125</ele>
        <time>2021-07-11T08:06:49Z</time>
      </trkpt>
      <trkpt lat="43.22843" lon="6.19828">
        <ele>107.16015625</ele>
        <time>2021-07-11T08:06:53Z</time>
      </trkpt>
      <trkpt lat="43.22838" lon="6.19836">
        <ele>107.29296875</ele>
        <time>2021-07-11T08:06:54Z</time>
      </trkpt>
      <trkpt lat="43.22833" lon="6.19843">
        <ele>107.78125</ele>
        <time>2021-07-11T08:06:55Z</time>
      </trkpt>
      <trkpt lat="43.22824" lon="6.19856">
        <ele>108.61328125</ele>
        <time>2021-07-11T08:06:57Z</time>
      </trkpt>
      <trkpt lat="43.22821" lon="6.19862">
        <ele>108.73046875</ele>
        <time>2021-07-11T08:06:58Z</time>
      </trkpt>
      <trkpt lat="43.22815" lon="6.19874">
        <ele>108.6015625</ele>
        <time>2021-07-11T08:07:00Z</time>
      </trkpt>
      <trkpt lat="43.22798" lon="6.19915">
        <ele>108.46484375</ele>
        <time>2021-07-11T08:07:11Z</time>
      </trkpt>
      <trkpt lat="43.22774" lon="6.19936">
        <ele>110.1640625</ele>
        <time>2021-07-11T08:07:25Z</time>
      </trkpt>
      <trkpt lat="43.22746" lon="6.19942">
        <ele>112.6640625</ele>
        <time>2021-07-11T08:07:37Z</time>
      </trkpt>
      <trkpt lat="43.2273" lon="6.19946">
        <ele>113.8359375</ele>
        <time>2021-07-11T08:07:44Z</time>
      </trkpt>
      <trkpt lat="43.22729" lon="6.19949">
        <ele>113.9140625</ele>
        <time>2021-07-11T08:07:45Z</time>
      </trkpt>
      <trkpt lat="43.22728" lon="6.19952">
        <ele>113.94140625</ele>
        <time>2021-07-11T08:07:46Z</time>
      </trkpt>
      <trkpt lat="43.22728" lon="6.19955">
        <ele>113.91796875</ele>
        <time>2021-07-11T08:07:47Z</time>
      </trkpt>
      <trkpt lat="43.2273" lon="6.19959">
        <ele>114.1796875</ele>
        <time>2021-07-11T08:07:48Z</time>
      </trkpt>
      <trkpt lat="43.22731" lon="6.19963">
        <ele>114.48046875</ele>
        <time>2021-07-11T08:07:49Z</time>
      </trkpt>
      <trkpt lat="43.22738" lon="6.19979">
        <ele>115.49609375</ele>
        <time>2021-07-11T08:07:52Z</time>
      </trkpt>
      <trkpt lat="43.22741" lon="6.19984">
        <ele>115.5703125</ele>
        <time>2021-07-11T08:07:53Z</time>
      </trkpt>
      <trkpt lat="43.22744" lon="6.19987">
        <ele>115.44921875</ele>
        <time>2021-07-11T08:07:54Z</time>
      </trkpt>
      <trkpt lat="43.22748" lon="6.19989">
        <ele>115.21875</ele>
        <time>2021-07-11T08:07:55Z</time>
      </trkpt>
      <trkpt lat="43.22751" lon="6.1999">
        <ele>114.93359375</ele>
        <time>2021-07-11T08:07:56Z</time>
      </trkpt>
      <trkpt lat="43.22754" lon="6.19991">
        <ele>114.6328125</ele>
        <time>2021-07-11T08:07:57Z</time>
      </trkpt>
      <trkpt lat="43.22787" lon="6.20009">
        <ele>112.57421875</ele>
        <time>2021-07-11T08:08:09Z</time>
      </trkpt>
      <trkpt lat="43.22797" lon="6.20063">
        <ele>113.8125</ele>
        <time>2021-07-11T08:08:23Z</time>
      </trkpt>
      <trkpt lat="43.22765" lon="6.20107">
        <ele>117.76171875</ele>
        <time>2021-07-11T08:08:36Z</time>
      </trkpt>
      <trkpt lat="43.22731" lon="6.20132">
        <ele>121.05859375</ele>
        <time>2021-07-11T08:08:47Z</time>
      </trkpt>
      <trkpt lat="43.22722" lon="6.20141">
        <ele>122.26953125</ele>
        <time>2021-07-11T08:08:50Z</time>
      </trkpt>
      <trkpt lat="43.2272" lon="6.20145">
        <ele>122.59765625</ele>
        <time>2021-07-11T08:08:51Z</time>
      </trkpt>
      <trkpt lat="43.22721" lon="6.2015">
        <ele>122.69921875</ele>
        <time>2021-07-11T08:08:52Z</time>
      </trkpt>
      <trkpt lat="43.22724" lon="6.20154">
        <ele>122.62890625</ele>
        <time>2021-07-11T08:08:53Z</time>
      </trkpt>
      <trkpt lat="43.22726" lon="6.20158">
        <ele>122.47265625</ele>
        <time>2021-07-11T08:08:54Z</time>
      </trkpt>
      <trkpt lat="43.22756" lon="6.20189">
        <ele>121.30859375</ele>
        <time>2021-07-11T08:09:05Z</time>
      </trkpt>
      <trkpt lat="43.22772" lon="6.2023">
        <ele>120.1328125</ele>
        <time>2021-07-11T08:09:16Z</time>
      </trkpt>
      <trkpt lat="43.22773" lon="6.20238">
        <ele>120.2421875</ele>
        <time>2021-07-11T08:09:19Z</time>
      </trkpt>
      <trkpt lat="43.22774" lon="6.2023">
        <ele>120.0078125</ele>
        <time>2021-07-11T08:09:23Z</time>
      </trkpt>
      <trkpt lat="43.22773" lon="6.20227">
        <ele>120.05859375</ele>
        <time>2021-07-11T08:09:24Z</time>
      </trkpt>
      <trkpt lat="43.22773" lon="6.20224">
        <ele>120.0234375</ele>
        <time>2021-07-11T08:09:25Z</time>
      </trkpt>
      <trkpt lat="43.22774" lon="6.2022">
        <ele>119.9296875</ele>
        <time>2021-07-11T08:09:26Z</time>
      </trkpt>
      <trkpt lat="43.22775" lon="6.20217">
        <ele>119.79296875</ele>
        <time>2021-07-11T08:09:27Z</time>
      </trkpt>
      <trkpt lat="43.22777" lon="6.20214">
        <ele>119.62890625</ele>
        <time>2021-07-11T08:09:28Z</time>
      </trkpt>
      <trkpt lat="43.22779" lon="6.20212">
        <ele>119.453125</ele>
        <time>2021-07-11T08:09:29Z</time>
      </trkpt>
      <trkpt lat="43.22781" lon="6.2021">
        <ele>119.2421875</ele>
        <time>2021-07-11T08:09:30Z</time>
      </trkpt>
      <trkpt lat="43.22783" lon="6.20209">
        <ele>119.01953125</ele>
        <time>2021-07-11T08:09:31Z</time>
      </trkpt>
      <trkpt lat="43.22785" lon="6.2021">
        <ele>118.9375</ele>
        <time>2021-07-11T08:09:32Z</time>
      </trkpt>
      <trkpt lat="43.22786" lon="6.20211">
        <ele>118.875</ele>
        <time>2021-07-11T08:09:33Z</time>
      </trkpt>
      <trkpt lat="43.22789" lon="6.20212">
        <ele>118.79296875</ele>
        <time>2021-07-11T08:09:34Z</time>
      </trkpt>
      <trkpt lat="43.22792" lon="6.20213">
        <ele>118.68359375</ele>
        <time>2021-07-11T08:09:35Z</time>
      </trkpt>
      <trkpt lat="43.22796" lon="6.20214">
        <ele>118.5390625</ele>
        <time>2021-07-11T08:09:36Z</time>
      </trkpt>
      <trkpt lat="43.228" lon="6.20214">
        <ele>118.36328125</ele>
        <time>2021-07-11T08:09:37Z</time>
      </trkpt>
      <trkpt lat="43.22812" lon="6.20213">
        <ele>117.8359375</ele>
        <time>2021-07-11T08:09:39Z</time>
      </trkpt>
      <trkpt lat="43.22818" lon="6.20212">
        <ele>117.16015625</ele>
        <time>2021-07-11T08:09:40Z</time>
      </trkpt>
      <trkpt lat="43.22825" lon="6.20209">
        <ele>116.4609375</ele>
        <time>2021-07-11T08:09:41Z</time>
      </trkpt>
      <trkpt lat="43.22865" lon="6.2019">
        <ele>112.58203125</ele>
        <time>2021-07-11T08:09:47Z</time>
      </trkpt>
      <trkpt lat="43.22871" lon="6.20189">
        <ele>112.00390625</ele>
        <time>2021-07-11T08:09:48Z</time>
      </trkpt>
      <trkpt lat="43.22877" lon="6.20189">
        <ele>111.4375</ele>
        <time>2021-07-11T08:09:49Z</time>
      </trkpt>
      <trkpt lat="43.22884" lon="6.2019">
        <ele>110.86328125</ele>
        <time>2021-07-11T08:09:50Z</time>
      </trkpt>
      <trkpt lat="43.22891" lon="6.20192">
        <ele>110.23828125</ele>
        <time>2021-07-11T08:09:51Z</time>
      </trkpt>
      <trkpt lat="43.22904" lon="6.20197">
        <ele>108.859375</ele>
        <time>2021-07-11T08:09:53Z</time>
      </trkpt>
      <trkpt lat="43.2291" lon="6.20199">
        <ele>108.22265625</ele>
        <time>2021-07-11T08:09:54Z</time>
      </trkpt>
      <trkpt lat="43.22932" lon="6.20207">
        <ele>105.921875</ele>
        <time>2021-07-11T08:09:58Z</time>
      </trkpt>
      <trkpt lat="43.2294" lon="6.20211">
        <ele>105.02734375</ele>
        <time>2021-07-11T08:10:00Z</time>
      </trkpt>
      <trkpt lat="43.22944" lon="6.20215">
        <ele>104.57421875</ele>
        <time>2021-07-11T08:10:01Z</time>
      </trkpt>
      <trkpt lat="43.22947" lon="6.2022">
        <ele>104.23046875</ele>
        <time>2021-07-11T08:10:02Z</time>
      </trkpt>
      <trkpt lat="43.22948" lon="6.20225">
        <ele>104.1015625</ele>
        <time>2021-07-11T08:10:03Z</time>
      </trkpt>
      <trkpt lat="43.22948" lon="6.20229">
        <ele>104.13671875</ele>
        <time>2021-07-11T08:10:04Z</time>
      </trkpt>
      <trkpt lat="43.22948" lon="6.20233">
        <ele>104.140625</ele>
        <time>2021-07-11T08:10:05Z</time>
      </trkpt>
      <trkpt lat="43.22949" lon="6.20237">
        <ele>104.3046875</ele>
        <time>2021-07-11T08:10:06Z</time>
      </trkpt>
      <trkpt lat="43.22951" lon="6.2024">
        <ele>104.375</ele>
        <time>2021-07-11T08:10:07Z</time>
      </trkpt>
      <trkpt lat="43.22953" lon="6.20245">
        <ele>104.5078125</ele>
        <time>2021-07-11T08:10:08Z</time>
      </trkpt>
      <trkpt lat="43.22954" lon="6.2025">
        <ele>104.7265625</ele>
        <time>2021-07-11T08:10:09Z</time>
      </trkpt>
      <trkpt lat="43.22956" lon="6.20255">
        <ele>104.87890625</ele>
        <time>2021-07-11T08:10:10Z</time>
      </trkpt>
      <trkpt lat="43.22958" lon="6.20258">
        <ele>104.890625</ele>
        <time>2021-07-11T08:10:11Z</time>
      </trkpt>
      <trkpt lat="43.2296" lon="6.20261">
        <ele>104.84765625</ele>
        <time>2021-07-11T08:10:12Z</time>
      </trkpt>
      <trkpt lat="43.22961" lon="6.20263">
        <ele>104.8671875</ele>
        <time>2021-07-11T08:10:25Z</time>
      </trkpt>
      <trkpt lat="43.22965" lon="6.20267">
        <ele>104.64453125</ele>
        <time>2021-07-11T08:10:32Z</time>
      </trkpt>
      <trkpt lat="43.22972" lon="6.2027">
        <ele>103.8828125</ele>
        <time>2021-07-11T08:10:34Z</time>
      </trkpt>
      <trkpt lat="43.22977" lon="6.20273">
        <ele>103.421875</ele>
        <time>2021-07-11T08:10:35Z</time>
      </trkpt>
      <trkpt lat="43.22982" lon="6.20277">
        <ele>103.12890625</ele>
        <time>2021-07-11T08:10:36Z</time>
      </trkpt>
      <trkpt lat="43.23002" lon="6.20297">
        <ele>101.6640625</ele>
        <time>2021-07-11T08:10:40Z</time>
      </trkpt>
      <trkpt lat="43.23011" lon="6.20305">
        <ele>101.015625</ele>
        <time>2021-07-11T08:10:42Z</time>
      </trkpt>
      <trkpt lat="43.23025" lon="6.20315">
        <ele>99.8046875</ele>
        <time>2021-07-11T08:10:46Z</time>
      </trkpt>
      <trkpt lat="43.23029" lon="6.20315">
        <ele>99.390625</ele>
        <time>2021-07-11T08:10:47Z</time>
      </trkpt>
      <trkpt lat="43.23033" lon="6.20314">
        <ele>99</ele>
        <time>2021-07-11T08:10:48Z</time>
      </trkpt>
      <trkpt lat="43.23065" lon="6.20314">
        <ele>97.59765625</ele>
        <time>2021-07-11T08:10:55Z</time>
      </trkpt>
      <trkpt lat="43.2307" lon="6.20317">
        <ele>97.30078125</ele>
        <time>2021-07-11T08:10:56Z</time>
      </trkpt>
      <trkpt lat="43.23075" lon="6.20322">
        <ele>97.08203125</ele>
        <time>2021-07-11T08:10:57Z</time>
      </trkpt>
      <trkpt lat="43.23078" lon="6.20328">
        <ele>96.98046875</ele>
        <time>2021-07-11T08:10:58Z</time>
      </trkpt>
      <trkpt lat="43.23083" lon="6.20333">
        <ele>96.890625</ele>
        <time>2021-07-11T08:10:59Z</time>
      </trkpt>
      <trkpt lat="43.23087" lon="6.20338">
        <ele>96.859375</ele>
        <time>2021-07-11T08:11:00Z</time>
      </trkpt>
      <trkpt lat="43.2309" lon="6.20344">
        <ele>96.91796875</ele>
        <time>2021-07-11T08:11:01Z</time>
      </trkpt>
      <trkpt lat="43.23096" lon="6.20352">
        <ele>96.7265625</ele>
        <time>2021-07-11T08:11:08Z</time>
      </trkpt>
      <trkpt lat="43.23095" lon="6.20352">
        <ele>96.73828125</ele>
        <time>2021-07-11T08:11:10Z</time>
      </trkpt>
      <trkpt lat="43.23093" lon="6.20351">
        <ele>96.83203125</ele>
        <time>2021-07-11T08:11:21Z</time>
      </trkpt>
      <trkpt lat="43.23093" lon="6.20356">
        <ele>96.81640625</ele>
        <time>2021-07-11T08:11:28Z</time>
      </trkpt>
      <trkpt lat="43.23094" lon="6.20358">
        <ele>96.78515625</ele>
        <time>2021-07-11T08:11:29Z</time>
      </trkpt>
      <trkpt lat="43.23096" lon="6.20359">
        <ele>96.7265625</ele>
        <time>2021-07-11T08:11:30Z</time>
      </trkpt>
      <trkpt lat="43.23098" lon="6.20362">
        <ele>96.640625</ele>
        <time>2021-07-11T08:11:31Z</time>
      </trkpt>
      <trkpt lat="43.23101" lon="6.20365">
        <ele>96.54296875</ele>
        <time>2021-07-11T08:11:32Z</time>
      </trkpt>
      <trkpt lat="43.23104" lon="6.20369">
        <ele>96.4375</ele>
        <time>2021-07-11T08:11:33Z</time>
      </trkpt>
      <trkpt lat="43.23106" lon="6.2037">
        <ele>96.37109375</ele>
        <time>2021-07-11T08:11:34Z</time>
      </trkpt>
      <trkpt lat="43.23107" lon="6.20369">
        <ele>96.3125</ele>
        <time>2021-07-11T08:11:35Z</time>
      </trkpt>
      <trkpt lat="43.23109" lon="6.20368">
        <ele>96.25</ele>
        <time>2021-07-11T08:11:36Z</time>
      </trkpt>
      <trkpt lat="43.23114" lon="6.20368">
        <ele>96.0859375</ele>
        <time>2021-07-11T08:11:44Z</time>
      </trkpt>
      <trkpt lat="43.23117" lon="6.20368">
        <ele>95.96484375</ele>
        <time>2021-07-11T08:12:04Z</time>
      </trkpt>
      <trkpt lat="43.23122" lon="6.20369">
        <ele>95.78125</ele>
        <time>2021-07-11T08:12:19Z</time>
      </trkpt>
      <trkpt lat="43.23125" lon="6.2037">
        <ele>95.6796875</ele>
        <time>2021-07-11T08:12:22Z</time>
      </trkpt>
      <trkpt lat="43.23127" lon="6.20369">
        <ele>95.60546875</ele>
        <time>2021-07-11T08:12:23Z</time>
      </trkpt>
      <trkpt lat="43.23129" lon="6.2037">
        <ele>95.5234375</ele>
        <time>2021-07-11T08:12:24Z</time>
      </trkpt>
      <trkpt lat="43.23158" lon="6.20389">
        <ele>95.07421875</ele>
        <time>2021-07-11T08:12:35Z</time>
      </trkpt>
      <trkpt lat="43.23163" lon="6.2039">
        <ele>94.96484375</ele>
        <time>2021-07-11T08:12:36Z</time>
      </trkpt>
      <trkpt lat="43.23167" lon="6.20391">
        <ele>94.86328125</ele>
        <time>2021-07-11T08:12:37Z</time>
      </trkpt>
      <trkpt lat="43.23171" lon="6.20394">
        <ele>94.79296875</ele>
        <time>2021-07-11T08:12:38Z</time>
      </trkpt>
      <trkpt lat="43.23175" lon="6.20398">
        <ele>94.828125</ele>
        <time>2021-07-11T08:12:39Z</time>
      </trkpt>
      <trkpt lat="43.23176" lon="6.20404">
        <ele>94.83203125</ele>
        <time>2021-07-11T08:12:40Z</time>
      </trkpt>
      <trkpt lat="43.23177" lon="6.2041">
        <ele>94.7890625</ele>
        <time>2021-07-11T08:12:41Z</time>
      </trkpt>
      <trkpt lat="43.23179" lon="6.20415">
        <ele>94.73046875</ele>
        <time>2021-07-11T08:12:42Z</time>
      </trkpt>
      <trkpt lat="43.2318" lon="6.20422">
        <ele>94.6796875</ele>
        <time>2021-07-11T08:12:43Z</time>
      </trkpt>
      <trkpt lat="43.23182" lon="6.20429">
        <ele>94.64453125</ele>
        <time>2021-07-11T08:12:44Z</time>
      </trkpt>
      <trkpt lat="43.23185" lon="6.20435">
        <ele>94.65234375</ele>
        <time>2021-07-11T08:12:45Z</time>
      </trkpt>
      <trkpt lat="43.23188" lon="6.20441">
        <ele>94.58984375</ele>
        <time>2021-07-11T08:12:46Z</time>
      </trkpt>
      <trkpt lat="43.23192" lon="6.20446">
        <ele>94.44921875</ele>
        <time>2021-07-11T08:12:47Z</time>
      </trkpt>
      <trkpt lat="43.23196" lon="6.20452">
        <ele>94.23046875</ele>
        <time>2021-07-11T08:12:48Z</time>
      </trkpt>
      <trkpt lat="43.232" lon="6.20458">
        <ele>93.9921875</ele>
        <time>2021-07-11T08:12:49Z</time>
      </trkpt>
      <trkpt lat="43.23205" lon="6.20473">
        <ele>93.77734375</ele>
        <time>2021-07-11T08:12:51Z</time>
      </trkpt>
      <trkpt lat="43.23208" lon="6.20481">
        <ele>93.6875</ele>
        <time>2021-07-11T08:12:52Z</time>
      </trkpt>
      <trkpt lat="43.23224" lon="6.20522">
        <ele>94.09765625</ele>
        <time>2021-07-11T08:12:58Z</time>
      </trkpt>
      <trkpt lat="43.23229" lon="6.20532">
        <ele>93.921875</ele>
        <time>2021-07-11T08:13:01Z</time>
      </trkpt>
      <trkpt lat="43.23231" lon="6.20534">
        <ele>93.86328125</ele>
        <time>2021-07-11T08:13:02Z</time>
      </trkpt>
      <trkpt lat="43.23233" lon="6.20536">
        <ele>93.80078125</ele>
        <time>2021-07-11T08:13:03Z</time>
      </trkpt>
      <trkpt lat="43.23235" lon="6.20538">
        <ele>93.73046875</ele>
        <time>2021-07-11T08:13:04Z</time>
      </trkpt>
      <trkpt lat="43.23236" lon="6.2054">
        <ele>93.75390625</ele>
        <time>2021-07-11T08:13:05Z</time>
      </trkpt>
      <trkpt lat="43.23238" lon="6.20543">
        <ele>93.796875</ele>
        <time>2021-07-11T08:13:06Z</time>
      </trkpt>
      <trkpt lat="43.23242" lon="6.20544">
        <ele>93.78125</ele>
        <time>2021-07-11T08:13:07Z</time>
      </trkpt>
      <trkpt lat="43.23245" lon="6.20545">
        <ele>93.7578125</ele>
        <time>2021-07-11T08:13:08Z</time>
      </trkpt>
      <trkpt lat="43.23249" lon="6.20546">
        <ele>93.71875</ele>
        <time>2021-07-11T08:13:09Z</time>
      </trkpt>
      <trkpt lat="43.23252" lon="6.20546">
        <ele>93.640625</ele>
        <time>2021-07-11T08:13:10Z</time>
      </trkpt>
      <trkpt lat="43.23258" lon="6.20549">
        <ele>93.58203125</ele>
        <time>2021-07-11T08:13:12Z</time>
      </trkpt>
      <trkpt lat="43.23259" lon="6.20551">
        <ele>93.66015625</ele>
        <time>2021-07-11T08:13:13Z</time>
      </trkpt>
      <trkpt lat="43.23259" lon="6.20554">
        <ele>93.84765625</ele>
        <time>2021-07-11T08:13:14Z</time>
      </trkpt>
      <trkpt lat="43.23259" lon="6.20557">
        <ele>94.03515625</ele>
        <time>2021-07-11T08:13:15Z</time>
      </trkpt>
      <trkpt lat="43.23258" lon="6.20559">
        <ele>94.25</ele>
        <time>2021-07-11T08:13:16Z</time>
      </trkpt>
      <trkpt lat="43.23257" lon="6.20561">
        <ele>94.453125</ele>
        <time>2021-07-11T08:13:17Z</time>
      </trkpt>
      <trkpt lat="43.23255" lon="6.20562">
        <ele>94.66015625</ele>
        <time>2021-07-11T08:13:18Z</time>
      </trkpt>
      <trkpt lat="43.23254" lon="6.20563">
        <ele>94.7734375</ele>
        <time>2021-07-11T08:13:19Z</time>
      </trkpt>
      <trkpt lat="43.23234" lon="6.20588">
        <ele>96.38671875</ele>
        <time>2021-07-11T08:13:29Z</time>
      </trkpt>
      <trkpt lat="43.23217" lon="6.20634">
        <ele>98.453125</ele>
        <time>2021-07-11T08:13:41Z</time>
      </trkpt>
      <trkpt lat="43.23215" lon="6.20651">
        <ele>99.078125</ele>
        <time>2021-07-11T08:13:45Z</time>
      </trkpt>
      <trkpt lat="43.23217" lon="6.20655">
        <ele>99.25390625</ele>
        <time>2021-07-11T08:13:46Z</time>
      </trkpt>
      <trkpt lat="43.23219" lon="6.20657">
        <ele>99.34765625</ele>
        <time>2021-07-11T08:13:47Z</time>
      </trkpt>
      <trkpt lat="43.23222" lon="6.20658">
        <ele>99.37890625</ele>
        <time>2021-07-11T08:13:48Z</time>
      </trkpt>
      <trkpt lat="43.23225" lon="6.20659">
        <ele>99.375</ele>
        <time>2021-07-11T08:13:49Z</time>
      </trkpt>
      <trkpt lat="43.23228" lon="6.2066">
        <ele>99.34765625</ele>
        <time>2021-07-11T08:13:50Z</time>
      </trkpt>
      <trkpt lat="43.23252" lon="6.2067">
        <ele>98.85546875</ele>
        <time>2021-07-11T08:13:57Z</time>
      </trkpt>
      <trkpt lat="43.23256" lon="6.20673">
        <ele>98.7890625</ele>
        <time>2021-07-11T08:13:58Z</time>
      </trkpt>
      <trkpt lat="43.23271" lon="6.20682">
        <ele>98.60546875</ele>
        <time>2021-07-11T08:14:01Z</time>
      </trkpt>
      <trkpt lat="43.23274" lon="6.20687">
        <ele>98.65234375</ele>
        <time>2021-07-11T08:14:02Z</time>
      </trkpt>
      <trkpt lat="43.23276" lon="6.20693">
        <ele>98.8125</ele>
        <time>2021-07-11T08:14:03Z</time>
      </trkpt>
      <trkpt lat="43.2328" lon="6.20711">
        <ele>99.125</ele>
        <time>2021-07-11T08:14:07Z</time>
      </trkpt>
      <trkpt lat="43.23281" lon="6.20712">
        <ele>99.0546875</ele>
        <time>2021-07-11T08:14:08Z</time>
      </trkpt>
      <trkpt lat="43.23283" lon="6.20714">
        <ele>98.91796875</ele>
        <time>2021-07-11T08:14:09Z</time>
      </trkpt>
      <trkpt lat="43.23285" lon="6.20717">
        <ele>98.6953125</ele>
        <time>2021-07-11T08:14:10Z</time>
      </trkpt>
      <trkpt lat="43.23287" lon="6.20721">
        <ele>98.4921875</ele>
        <time>2021-07-11T08:14:11Z</time>
      </trkpt>
      <trkpt lat="43.23289" lon="6.20725">
        <ele>98.2734375</ele>
        <time>2021-07-11T08:14:12Z</time>
      </trkpt>
      <trkpt lat="43.23292" lon="6.20729">
        <ele>98.0234375</ele>
        <time>2021-07-11T08:14:13Z</time>
      </trkpt>
      <trkpt lat="43.23314" lon="6.20771">
        <ele>96.01171875</ele>
        <time>2021-07-11T08:14:20Z</time>
      </trkpt>
      <trkpt lat="43.23315" lon="6.20777">
        <ele>96.125</ele>
        <time>2021-07-11T08:14:21Z</time>
      </trkpt>
      <trkpt lat="43.23314" lon="6.20783">
        <ele>96.359375</ele>
        <time>2021-07-11T08:14:22Z</time>
      </trkpt>
      <trkpt lat="43.23313" lon="6.20788">
        <ele>96.7421875</ele>
        <time>2021-07-11T08:14:23Z</time>
      </trkpt>
      <trkpt lat="43.2331" lon="6.20793">
        <ele>97.21875</ele>
        <time>2021-07-11T08:14:24Z</time>
      </trkpt>
      <trkpt lat="43.23306" lon="6.20798">
        <ele>97.65234375</ele>
        <time>2021-07-11T08:14:25Z</time>
      </trkpt>
      <trkpt lat="43.23302" lon="6.20802">
        <ele>98.109375</ele>
        <time>2021-07-11T08:14:26Z</time>
      </trkpt>
      <trkpt lat="43.23298" lon="6.20807">
        <ele>98.57421875</ele>
        <time>2021-07-11T08:14:27Z</time>
      </trkpt>
      <trkpt lat="43.23293" lon="6.20811">
        <ele>99.06640625</ele>
        <time>2021-07-11T08:14:28Z</time>
      </trkpt>
      <trkpt lat="43.2329" lon="6.20817">
        <ele>99.5078125</ele>
        <time>2021-07-11T08:14:29Z</time>
      </trkpt>
      <trkpt lat="43.23288" lon="6.20822">
        <ele>99.796875</ele>
        <time>2021-07-11T08:14:30Z</time>
      </trkpt>
      <trkpt lat="43.23289" lon="6.20826">
        <ele>99.8828125</ele>
        <time>2021-07-11T08:14:31Z</time>
      </trkpt>
      <trkpt lat="43.23292" lon="6.2083">
        <ele>99.796875</ele>
        <time>2021-07-11T08:14:32Z</time>
      </trkpt>
      <trkpt lat="43.23295" lon="6.20832">
        <ele>99.65234375</ele>
        <time>2021-07-11T08:14:33Z</time>
      </trkpt>
      <trkpt lat="43.23298" lon="6.20835">
        <ele>99.5546875</ele>
        <time>2021-07-11T08:14:34Z</time>
      </trkpt>
      <trkpt lat="43.233" lon="6.20838">
        <ele>99.53515625</ele>
        <time>2021-07-11T08:14:35Z</time>
      </trkpt>
      <trkpt lat="43.23302" lon="6.20842">
        <ele>99.5234375</ele>
        <time>2021-07-11T08:14:36Z</time>
      </trkpt>
      <trkpt lat="43.23306" lon="6.20851">
        <ele>99.5078125</ele>
        <time>2021-07-11T08:14:39Z</time>
      </trkpt>
      <trkpt lat="43.23332" lon="6.20882">
        <ele>97.98828125</ele>
        <time>2021-07-11T08:14:51Z</time>
      </trkpt>
      <trkpt lat="43.2334" lon="6.20904">
        <ele>97.71484375</ele>
        <time>2021-07-11T08:14:56Z</time>
      </trkpt>
      <trkpt lat="43.23329" lon="6.20949">
        <ele>98.24609375</ele>
        <time>2021-07-11T08:15:05Z</time>
      </trkpt>
      <trkpt lat="43.23326" lon="6.20952">
        <ele>98.37109375</ele>
        <time>2021-07-11T08:15:06Z</time>
      </trkpt>
      <trkpt lat="43.23315" lon="6.20978">
        <ele>99.4375</ele>
        <time>2021-07-11T08:15:12Z</time>
      </trkpt>
      <trkpt lat="43.23316" lon="6.20983">
        <ele>99.34765625</ele>
        <time>2021-07-11T08:15:13Z</time>
      </trkpt>
      <trkpt lat="43.23319" lon="6.20987">
        <ele>98.81640625</ele>
        <time>2021-07-11T08:15:14Z</time>
      </trkpt>
      <trkpt lat="43.23322" lon="6.2099">
        <ele>98.1875</ele>
        <time>2021-07-11T08:15:15Z</time>
      </trkpt>
      <trkpt lat="43.23326" lon="6.20994">
        <ele>97.4765625</ele>
        <time>2021-07-11T08:15:16Z</time>
      </trkpt>
      <trkpt lat="43.23332" lon="6.20996">
        <ele>96.69140625</ele>
        <time>2021-07-11T08:15:17Z</time>
      </trkpt>
      <trkpt lat="43.23338" lon="6.20999">
        <ele>95.85546875</ele>
        <time>2021-07-11T08:15:18Z</time>
      </trkpt>
      <trkpt lat="43.23353" lon="6.21006">
        <ele>94.16015625</ele>
        <time>2021-07-11T08:15:21Z</time>
      </trkpt>
      <trkpt lat="43.23357" lon="6.21009">
        <ele>93.71875</ele>
        <time>2021-07-11T08:15:22Z</time>
      </trkpt>
      <trkpt lat="43.2336" lon="6.21011">
        <ele>93.40234375</ele>
        <time>2021-07-11T08:15:23Z</time>
      </trkpt>
      <trkpt lat="43.23362" lon="6.21012">
        <ele>93.21875</ele>
        <time>2021-07-11T08:15:24Z</time>
      </trkpt>
      <trkpt lat="43.23364" lon="6.21012">
        <ele>93.109375</ele>
        <time>2021-07-11T08:15:25Z</time>
      </trkpt>
      <trkpt lat="43.23365" lon="6.21011">
        <ele>93.01953125</ele>
        <time>2021-07-11T08:15:26Z</time>
      </trkpt>
      <trkpt lat="43.23367" lon="6.21012">
        <ele>92.84765625</ele>
        <time>2021-07-11T08:15:27Z</time>
      </trkpt>
      <trkpt lat="43.2337" lon="6.21013">
        <ele>92.6015625</ele>
        <time>2021-07-11T08:15:28Z</time>
      </trkpt>
      <trkpt lat="43.23372" lon="6.21015">
        <ele>92.3828125</ele>
        <time>2021-07-11T08:15:29Z</time>
      </trkpt>
      <trkpt lat="43.23373" lon="6.21017">
        <ele>92.23828125</ele>
        <time>2021-07-11T08:15:30Z</time>
      </trkpt>
      <trkpt lat="43.23374" lon="6.2102">
        <ele>92.05078125</ele>
        <time>2021-07-11T08:15:44Z</time>
      </trkpt>
      <trkpt lat="43.23377" lon="6.21021">
        <ele>91.7734375</ele>
        <time>2021-07-11T08:16:03Z</time>
      </trkpt>
      <trkpt lat="43.23379" lon="6.21021">
        <ele>91.703125</ele>
        <time>2021-07-11T08:16:04Z</time>
      </trkpt>
      <trkpt lat="43.2338" lon="6.21019">
        <ele>91.66015625</ele>
        <time>2021-07-11T08:16:05Z</time>
      </trkpt>
      <trkpt lat="43.23381" lon="6.21016">
        <ele>91.6953125</ele>
        <time>2021-07-11T08:16:06Z</time>
      </trkpt>
      <trkpt lat="43.23381" lon="6.21014">
        <ele>91.83203125</ele>
        <time>2021-07-11T08:16:07Z</time>
      </trkpt>
      <trkpt lat="43.2338" lon="6.21011">
        <ele>91.9921875</ele>
        <time>2021-07-11T08:16:08Z</time>
      </trkpt>
      <trkpt lat="43.23378" lon="6.21009">
        <ele>92.125</ele>
        <time>2021-07-11T08:16:09Z</time>
      </trkpt>
      <trkpt lat="43.23377" lon="6.21008">
        <ele>92.2421875</ele>
        <time>2021-07-11T08:16:10Z</time>
      </trkpt>
      <trkpt lat="43.23376" lon="6.21007">
        <ele>92.33984375</ele>
        <time>2021-07-11T08:16:11Z</time>
      </trkpt>
      <trkpt lat="43.23374" lon="6.21009">
        <ele>92.43359375</ele>
        <time>2021-07-11T08:16:14Z</time>
      </trkpt>
      <trkpt lat="43.23376" lon="6.21015">
        <ele>92.09765625</ele>
        <time>2021-07-11T08:16:26Z</time>
      </trkpt>
      <trkpt lat="43.23377" lon="6.21017">
        <ele>91.98828125</ele>
        <time>2021-07-11T08:16:44Z</time>
      </trkpt>
      <trkpt lat="43.23377" lon="6.21016">
        <ele>91.94921875</ele>
        <time>2021-07-11T08:17:13Z</time>
      </trkpt>
      <trkpt lat="43.23376" lon="6.21016">
        <ele>92.06640625</ele>
        <time>2021-07-11T08:17:52Z</time>
      </trkpt>
      <trkpt lat="43.23373" lon="6.21021">
        <ele>92.109375</ele>
        <time>2021-07-11T08:18:35Z</time>
      </trkpt>
      <trkpt lat="43.23377" lon="6.21016">
        <ele>91.9609375</ele>
        <time>2021-07-11T08:19:20Z</time>
      </trkpt>
      <trkpt lat="43.23379" lon="6.2101">
        <ele>92.0390625</ele>
        <time>2021-07-11T08:19:54Z</time>
      </trkpt>
      <trkpt lat="43.23374" lon="6.21016">
        <ele>92.21875</ele>
        <time>2021-07-11T08:20:31Z</time>
      </trkpt>
      <trkpt lat="43.23373" lon="6.21018">
        <ele>92.19921875</ele>
        <time>2021-07-11T08:21:25Z</time>
      </trkpt>
      <trkpt lat="43.23373" lon="6.21017">
        <ele>92.265625</ele>
        <time>2021-07-11T08:22:05Z</time>
      </trkpt>
      <trkpt lat="43.23372" lon="6.21019">
        <ele>92.2421875</ele>
        <time>2021-07-11T08:22:47Z</time>
      </trkpt>
      <trkpt lat="43.23371" lon="6.21021">
        <ele>92.2421875</ele>
        <time>2021-07-11T08:23:29Z</time>
      </trkpt>
      <trkpt lat="43.2337" lon="6.21022">
        <ele>92.28515625</ele>
        <time>2021-07-11T08:24:06Z</time>
      </trkpt>
      <trkpt lat="43.23374" lon="6.21021">
        <ele>92.00390625</ele>
        <time>2021-07-11T08:24:51Z</time>
      </trkpt>
      <trkpt lat="43.23372" lon="6.2102">
        <ele>92.19140625</ele>
        <time>2021-07-11T08:25:31Z</time>
      </trkpt>
      <trkpt lat="43.23377" lon="6.21016">
        <ele>91.97265625</ele>
        <time>2021-07-11T08:25:46Z</time>
      </trkpt>
      <trkpt lat="43.23379" lon="6.21016">
        <ele>91.83203125</ele>
        <time>2021-07-11T08:26:04Z</time>
      </trkpt>
      <trkpt lat="43.23377" lon="6.21016">
        <ele>92.01171875</ele>
        <time>2021-07-11T08:26:41Z</time>
      </trkpt>
      <trkpt lat="43.2338" lon="6.21015">
        <ele>91.8359375</ele>
        <time>2021-07-11T08:27:08Z</time>
      </trkpt>
      <trkpt lat="43.23381" lon="6.21016">
        <ele>91.7265625</ele>
        <time>2021-07-11T08:27:17Z</time>
      </trkpt>
      <trkpt lat="43.23382" lon="6.21016">
        <ele>91.609375</ele>
        <time>2021-07-11T08:27:18Z</time>
      </trkpt>
      <trkpt lat="43.23384" lon="6.21017">
        <ele>91.46484375</ele>
        <time>2021-07-11T08:27:19Z</time>
      </trkpt>
      <trkpt lat="43.23385" lon="6.21019">
        <ele>91.3359375</ele>
        <time>2021-07-11T08:27:20Z</time>
      </trkpt>
      <trkpt lat="43.23386" lon="6.21023">
        <ele>91.07421875</ele>
        <time>2021-07-11T08:27:27Z</time>
      </trkpt>
      <trkpt lat="43.23392" lon="6.21031">
        <ele>90.35546875</ele>
        <time>2021-07-11T08:27:31Z</time>
      </trkpt>
      <trkpt lat="43.23393" lon="6.21034">
        <ele>90.19921875</ele>
        <time>2021-07-11T08:27:32Z</time>
      </trkpt>
      <trkpt lat="43.23394" lon="6.21036">
        <ele>90.05859375</ele>
        <time>2021-07-11T08:27:33Z</time>
      </trkpt>
      <trkpt lat="43.23403" lon="6.2103">
        <ele>89.86328125</ele>
        <time>2021-07-11T08:27:40Z</time>
      </trkpt>
      <trkpt lat="43.23404" lon="6.21026">
        <ele>89.91015625</ele>
        <time>2021-07-11T08:27:45Z</time>
      </trkpt>
      <trkpt lat="43.23404" lon="6.21023">
        <ele>89.984375</ele>
        <time>2021-07-11T08:27:47Z</time>
      </trkpt>
      <trkpt lat="43.23403" lon="6.21013">
        <ele>90.29296875</ele>
        <time>2021-07-11T08:27:51Z</time>
      </trkpt>
      <trkpt lat="43.23402" lon="6.2101">
        <ele>90.42578125</ele>
        <time>2021-07-11T08:27:52Z</time>
      </trkpt>
      <trkpt lat="43.23401" lon="6.21006">
        <ele>90.48828125</ele>
        <time>2021-07-11T08:27:53Z</time>
      </trkpt>
      <trkpt lat="43.23395" lon="6.20974">
        <ele>90.875</ele>
        <time>2021-07-11T08:28:02Z</time>
      </trkpt>
      <trkpt lat="43.23397" lon="6.20972">
        <ele>90.76953125</ele>
        <time>2021-07-11T08:28:03Z</time>
      </trkpt>
      <trkpt lat="43.23399" lon="6.20972">
        <ele>90.609375</ele>
        <time>2021-07-11T08:28:04Z</time>
      </trkpt>
      <trkpt lat="43.23401" lon="6.20974">
        <ele>90.4609375</ele>
        <time>2021-07-11T08:28:05Z</time>
      </trkpt>
      <trkpt lat="43.23402" lon="6.20977">
        <ele>90.38671875</ele>
        <time>2021-07-11T08:28:06Z</time>
      </trkpt>
      <trkpt lat="43.23402" lon="6.20981">
        <ele>90.359375</ele>
        <time>2021-07-11T08:28:07Z</time>
      </trkpt>
      <trkpt lat="43.23403" lon="6.20985">
        <ele>90.3125</ele>
        <time>2021-07-11T08:28:08Z</time>
      </trkpt>
      <trkpt lat="43.23404" lon="6.20988">
        <ele>90.24609375</ele>
        <time>2021-07-11T08:28:09Z</time>
      </trkpt>
      <trkpt lat="43.23405" lon="6.20992">
        <ele>90.19140625</ele>
        <time>2021-07-11T08:28:10Z</time>
      </trkpt>
      <trkpt lat="43.23405" lon="6.20996">
        <ele>90.140625</ele>
        <time>2021-07-11T08:28:11Z</time>
      </trkpt>
      <trkpt lat="43.23406" lon="6.21">
        <ele>90.09375</ele>
        <time>2021-07-11T08:28:12Z</time>
      </trkpt>
      <trkpt lat="43.23412" lon="6.21025">
        <ele>89.49609375</ele>
        <time>2021-07-11T08:28:18Z</time>
      </trkpt>
      <trkpt lat="43.23429" lon="6.21124">
        <ele>89.734375</ele>
        <time>2021-07-11T08:28:30Z</time>
      </trkpt>
      <trkpt lat="43.23434" lon="6.21198">
        <ele>89.96484375</ele>
        <time>2021-07-11T08:28:42Z</time>
      </trkpt>
      <trkpt lat="43.23432" lon="6.212">
        <ele>90.140625</ele>
        <time>2021-07-11T08:28:43Z</time>
      </trkpt>
      <trkpt lat="43.2343" lon="6.21201">
        <ele>90.3046875</ele>
        <time>2021-07-11T08:28:44Z</time>
      </trkpt>
      <trkpt lat="43.23428" lon="6.21201">
        <ele>90.40625</ele>
        <time>2021-07-11T08:28:54Z</time>
      </trkpt>
      <trkpt lat="43.23432" lon="6.21204">
        <ele>90.19921875</ele>
        <time>2021-07-11T08:29:01Z</time>
      </trkpt>
      <trkpt lat="43.23433" lon="6.21206">
        <ele>90.13671875</ele>
        <time>2021-07-11T08:29:02Z</time>
      </trkpt>
      <trkpt lat="43.23435" lon="6.21208">
        <ele>90.04296875</ele>
        <time>2021-07-11T08:29:03Z</time>
      </trkpt>
      <trkpt lat="43.23436" lon="6.21211">
        <ele>89.96484375</ele>
        <time>2021-07-11T08:29:04Z</time>
      </trkpt>
      <trkpt lat="43.23437" lon="6.21214">
        <ele>89.90234375</ele>
        <time>2021-07-11T08:29:05Z</time>
      </trkpt>
      <trkpt lat="43.23438" lon="6.21267">
        <ele>90.375</ele>
        <time>2021-07-11T08:29:15Z</time>
      </trkpt>
      <trkpt lat="43.23437" lon="6.21287">
        <ele>90.87109375</ele>
        <time>2021-07-11T08:29:18Z</time>
      </trkpt>
      <trkpt lat="43.23443" lon="6.21401">
        <ele>93.01953125</ele>
        <time>2021-07-11T08:29:32Z</time>
      </trkpt>
      <trkpt lat="43.23445" lon="6.21409">
        <ele>93.6015625</ele>
        <time>2021-07-11T08:29:33Z</time>
      </trkpt>
      <trkpt lat="43.23448" lon="6.21418">
        <ele>94.14453125</ele>
        <time>2021-07-11T08:29:34Z</time>
      </trkpt>
      <trkpt lat="43.23452" lon="6.21427">
        <ele>94.609375</ele>
        <time>2021-07-11T08:29:35Z</time>
      </trkpt>
      <trkpt lat="43.23455" lon="6.21435">
        <ele>94.640625</ele>
        <time>2021-07-11T08:29:36Z</time>
      </trkpt>
      <trkpt lat="43.2346" lon="6.21442">
        <ele>94.59765625</ele>
        <time>2021-07-11T08:29:37Z</time>
      </trkpt>
      <trkpt lat="43.23464" lon="6.2145">
        <ele>94.4453125</ele>
        <time>2021-07-11T08:29:38Z</time>
      </trkpt>
      <trkpt lat="43.2347" lon="6.21457">
        <ele>94.26171875</ele>
        <time>2021-07-11T08:29:39Z</time>
      </trkpt>
      <trkpt lat="43.23475" lon="6.21463">
        <ele>94.1875</ele>
        <time>2021-07-11T08:29:40Z</time>
      </trkpt>
      <trkpt lat="43.23534" lon="6.21553">
        <ele>95.5078125</ele>
        <time>2021-07-11T08:29:53Z</time>
      </trkpt>
      <trkpt lat="43.23591" lon="6.21691">
        <ele>94.90625</ele>
        <time>2021-07-11T08:30:12Z</time>
      </trkpt>
      <trkpt lat="43.23637" lon="6.21825">
        <ele>92.2421875</ele>
        <time>2021-07-11T08:30:31Z</time>
      </trkpt>
      <trkpt lat="43.23654" lon="6.21908">
        <ele>95.33984375</ele>
        <time>2021-07-11T08:30:43Z</time>
      </trkpt>
      <trkpt lat="43.23653" lon="6.21944">
        <ele>96.87109375</ele>
        <time>2021-07-11T08:30:48Z</time>
      </trkpt>
      <trkpt lat="43.23648" lon="6.21973">
        <ele>97.82421875</ele>
        <time>2021-07-11T08:30:52Z</time>
      </trkpt>
      <trkpt lat="43.23605" lon="6.2207">
        <ele>98.79296875</ele>
        <time>2021-07-11T08:31:08Z</time>
      </trkpt>
      <trkpt lat="43.23588" lon="6.22106">
        <ele>99.96484375</ele>
        <time>2021-07-11T08:31:14Z</time>
      </trkpt>
      <trkpt lat="43.23555" lon="6.2223">
        <ele>104.31640625</ele>
        <time>2021-07-11T08:31:32Z</time>
      </trkpt>
      <trkpt lat="43.23532" lon="6.22333">
        <ele>103.33984375</ele>
        <time>2021-07-11T08:31:47Z</time>
      </trkpt>
      <trkpt lat="43.23522" lon="6.22394">
        <ele>101.75390625</ele>
        <time>2021-07-11T08:31:57Z</time>
      </trkpt>
      <trkpt lat="43.23524" lon="6.22399">
        <ele>101.703125</ele>
        <time>2021-07-11T08:31:58Z</time>
      </trkpt>
      <trkpt lat="43.23527" lon="6.22404">
        <ele>101.96875</ele>
        <time>2021-07-11T08:31:59Z</time>
      </trkpt>
      <trkpt lat="43.2353" lon="6.22407">
        <ele>102.23828125</ele>
        <time>2021-07-11T08:32:00Z</time>
      </trkpt>
      <trkpt lat="43.23534" lon="6.2241">
        <ele>102.54296875</ele>
        <time>2021-07-11T08:32:01Z</time>
      </trkpt>
      <trkpt lat="43.23538" lon="6.22413">
        <ele>102.84765625</ele>
        <time>2021-07-11T08:32:02Z</time>
      </trkpt>
      <trkpt lat="43.23542" lon="6.22415">
        <ele>103.109375</ele>
        <time>2021-07-11T08:32:03Z</time>
      </trkpt>
      <trkpt lat="43.23589" lon="6.22429">
        <ele>105.05859375</ele>
        <time>2021-07-11T08:32:17Z</time>
      </trkpt>
      <trkpt lat="43.236" lon="6.22433">
        <ele>105.79296875</ele>
        <time>2021-07-11T08:32:21Z</time>
      </trkpt>
      <trkpt lat="43.23643" lon="6.22441">
        <ele>109.3984375</ele>
        <time>2021-07-11T08:32:36Z</time>
      </trkpt>
      <trkpt lat="43.23679" lon="6.22426">
        <ele>112.5546875</ele>
        <time>2021-07-11T08:32:48Z</time>
      </trkpt>
      <trkpt lat="43.23693" lon="6.22422">
        <ele>113.62890625</ele>
        <time>2021-07-11T08:32:53Z</time>
      </trkpt>
      <trkpt lat="43.23696" lon="6.22424">
        <ele>113.828125</ele>
        <time>2021-07-11T08:32:54Z</time>
      </trkpt>
      <trkpt lat="43.23741" lon="6.22448">
        <ele>116.02734375</ele>
        <time>2021-07-11T08:33:09Z</time>
      </trkpt>
      <trkpt lat="43.23789" lon="6.22469">
        <ele>119.515625</ele>
        <time>2021-07-11T08:33:23Z</time>
      </trkpt>
      <trkpt lat="43.2382" lon="6.22494">
        <ele>122.7109375</ele>
        <time>2021-07-11T08:33:34Z</time>
      </trkpt>
      <trkpt lat="43.23844" lon="6.22528">
        <ele>125.62890625</ele>
        <time>2021-07-11T08:33:45Z</time>
      </trkpt>
      <trkpt lat="43.23871" lon="6.22549">
        <ele>128.63671875</ele>
        <time>2021-07-11T08:33:56Z</time>
      </trkpt>
      <trkpt lat="43.23894" lon="6.22549">
        <ele>131.15234375</ele>
        <time>2021-07-11T08:34:04Z</time>
      </trkpt>
      <trkpt lat="43.23921" lon="6.22528">
        <ele>135.30078125</ele>
        <time>2021-07-11T08:34:16Z</time>
      </trkpt>
      <trkpt lat="43.23942" lon="6.22514">
        <ele>139.05859375</ele>
        <time>2021-07-11T08:34:26Z</time>
      </trkpt>
      <trkpt lat="43.2397" lon="6.225">
        <ele>144.26953125</ele>
        <time>2021-07-11T08:34:39Z</time>
      </trkpt>
      <trkpt lat="43.2399" lon="6.22505">
        <ele>148.80078125</ele>
        <time>2021-07-11T08:34:48Z</time>
      </trkpt>
      <trkpt lat="43.23991" lon="6.22508">
        <ele>149.046875</ele>
        <time>2021-07-11T08:34:49Z</time>
      </trkpt>
      <trkpt lat="43.23991" lon="6.22512">
        <ele>149.09765625</ele>
        <time>2021-07-11T08:34:50Z</time>
      </trkpt>
      <trkpt lat="43.2399" lon="6.22515">
        <ele>149.07421875</ele>
        <time>2021-07-11T08:34:51Z</time>
      </trkpt>
      <trkpt lat="43.2399" lon="6.22518">
        <ele>149.17578125</ele>
        <time>2021-07-11T08:34:52Z</time>
      </trkpt>
      <trkpt lat="43.23991" lon="6.22521">
        <ele>149.50390625</ele>
        <time>2021-07-11T08:34:53Z</time>
      </trkpt>
      <trkpt lat="43.23992" lon="6.22524">
        <ele>149.9140625</ele>
        <time>2021-07-11T08:34:54Z</time>
      </trkpt>
      <trkpt lat="43.23994" lon="6.22526">
        <ele>150.33203125</ele>
        <time>2021-07-11T08:34:55Z</time>
      </trkpt>
      <trkpt lat="43.23995" lon="6.22529">
        <ele>150.71875</ele>
        <time>2021-07-11T08:34:56Z</time>
      </trkpt>
      <trkpt lat="43.23996" lon="6.22531">
        <ele>151.01171875</ele>
        <time>2021-07-11T08:34:57Z</time>
      </trkpt>
      <trkpt lat="43.23996" lon="6.22535">
        <ele>151.19921875</ele>
        <time>2021-07-11T08:34:58Z</time>
      </trkpt>
      <trkpt lat="43.23997" lon="6.22538">
        <ele>151.39453125</ele>
        <time>2021-07-11T08:34:59Z</time>
      </trkpt>
      <trkpt lat="43.23997" lon="6.22541">
        <ele>151.54296875</ele>
        <time>2021-07-11T08:35:00Z</time>
      </trkpt>
      <trkpt lat="43.23997" lon="6.22545">
        <ele>151.71875</ele>
        <time>2021-07-11T08:35:01Z</time>
      </trkpt>
      <trkpt lat="43.24004" lon="6.22573">
        <ele>153.66015625</ele>
        <time>2021-07-11T08:35:11Z</time>
      </trkpt>
      <trkpt lat="43.24017" lon="6.22606">
        <ele>154.09765625</ele>
        <time>2021-07-11T08:35:24Z</time>
      </trkpt>
      <trkpt lat="43.2404" lon="6.22641">
        <ele>152.12109375</ele>
        <time>2021-07-11T08:35:39Z</time>
      </trkpt>
      <trkpt lat="43.24077" lon="6.2265">
        <ele>151.98046875</ele>
        <time>2021-07-11T08:35:55Z</time>
      </trkpt>
      <trkpt lat="43.24105" lon="6.22644">
        <ele>153.0703125</ele>
        <time>2021-07-11T08:36:07Z</time>
      </trkpt>
      <trkpt lat="43.24135" lon="6.22628">
        <ele>157.74609375</ele>
        <time>2021-07-11T08:36:21Z</time>
      </trkpt>
      <trkpt lat="43.24143" lon="6.22617">
        <ele>161.03515625</ele>
        <time>2021-07-11T08:36:26Z</time>
      </trkpt>
      <trkpt lat="43.24142" lon="6.22611">
        <ele>162.7890625</ele>
        <time>2021-07-11T08:36:28Z</time>
      </trkpt>
      <trkpt lat="43.2414" lon="6.22609">
        <ele>163.3046875</ele>
        <time>2021-07-11T08:36:29Z</time>
      </trkpt>
      <trkpt lat="43.24138" lon="6.22608">
        <ele>163.48046875</ele>
        <time>2021-07-11T08:36:30Z</time>
      </trkpt>
      <trkpt lat="43.24136" lon="6.22608">
        <ele>163.234375</ele>
        <time>2021-07-11T08:36:31Z</time>
      </trkpt>
      <trkpt lat="43.24134" lon="6.2261">
        <ele>162.83203125</ele>
        <time>2021-07-11T08:36:32Z</time>
      </trkpt>
      <trkpt lat="43.24132" lon="6.2261">
        <ele>162.5625</ele>
        <time>2021-07-11T08:36:33Z</time>
      </trkpt>
      <trkpt lat="43.24129" lon="6.22611">
        <ele>162.40625</ele>
        <time>2021-07-11T08:36:34Z</time>
      </trkpt>
      <trkpt lat="43.24127" lon="6.22611">
        <ele>162.34375</ele>
        <time>2021-07-11T08:36:35Z</time>
      </trkpt>
      <trkpt lat="43.24095" lon="6.2259">
        <ele>166.16796875</ele>
        <time>2021-07-11T08:36:49Z</time>
      </trkpt>
      <trkpt lat="43.24097" lon="6.22553">
        <ele>173.12890625</ele>
        <time>2021-07-11T08:36:59Z</time>
      </trkpt>
      <trkpt lat="43.24099" lon="6.22548">
        <ele>174.29296875</ele>
        <time>2021-07-11T08:37:01Z</time>
      </trkpt>
      <trkpt lat="43.24111" lon="6.22509">
        <ele>182.0234375</ele>
        <time>2021-07-11T08:37:15Z</time>
      </trkpt>
      <trkpt lat="43.24124" lon="6.22473">
        <ele>186.7265625</ele>
        <time>2021-07-11T08:37:29Z</time>
      </trkpt>
      <trkpt lat="43.24133" lon="6.22454">
        <ele>189.96484375</ele>
        <time>2021-07-11T08:37:39Z</time>
      </trkpt>
      <trkpt lat="43.24133" lon="6.22453">
        <ele>190.2109375</ele>
        <time>2021-07-11T08:37:40Z</time>
      </trkpt>
      <trkpt lat="43.24134" lon="6.22451">
        <ele>190.51953125</ele>
        <time>2021-07-11T08:37:41Z</time>
      </trkpt>
      <trkpt lat="43.24135" lon="6.2245">
        <ele>190.76171875</ele>
        <time>2021-07-11T08:37:42Z</time>
      </trkpt>
      <trkpt lat="43.24135" lon="6.22449">
        <ele>190.8984375</ele>
        <time>2021-07-11T08:37:43Z</time>
      </trkpt>
      <trkpt lat="43.24136" lon="6.22447">
        <ele>191.04296875</ele>
        <time>2021-07-11T08:37:44Z</time>
      </trkpt>
      <trkpt lat="43.24136" lon="6.22446">
        <ele>191.2890625</ele>
        <time>2021-07-11T08:37:45Z</time>
      </trkpt>
      <trkpt lat="43.24137" lon="6.22444">
        <ele>191.46875</ele>
        <time>2021-07-11T08:37:46Z</time>
      </trkpt>
      <trkpt lat="43.24137" lon="6.22442">
        <ele>191.62890625</ele>
        <time>2021-07-11T08:37:47Z</time>
      </trkpt>
      <trkpt lat="43.24137" lon="6.2244">
        <ele>191.78125</ele>
        <time>2021-07-11T08:37:48Z</time>
      </trkpt>
      <trkpt lat="43.24138" lon="6.22438">
        <ele>191.90234375</ele>
        <time>2021-07-11T08:37:49Z</time>
      </trkpt>
      <trkpt lat="43.24125" lon="6.22408">
        <ele>189.56640625</ele>
        <time>2021-07-11T08:38:03Z</time>
      </trkpt>
      <trkpt lat="43.24107" lon="6.22371">
        <ele>188.44921875</ele>
        <time>2021-07-11T08:38:17Z</time>
      </trkpt>
      <trkpt lat="43.24109" lon="6.22321">
        <ele>194.0078125</ele>
        <time>2021-07-11T08:38:32Z</time>
      </trkpt>
      <trkpt lat="43.24116" lon="6.22284">
        <ele>198.5078125</ele>
        <time>2021-07-11T08:38:45Z</time>
      </trkpt>
      <trkpt lat="43.24127" lon="6.22247">
        <ele>203.578125</ele>
        <time>2021-07-11T08:38:57Z</time>
      </trkpt>
      <trkpt lat="43.24128" lon="6.22244">
        <ele>203.9296875</ele>
        <time>2021-07-11T08:38:58Z</time>
      </trkpt>
      <trkpt lat="43.24129" lon="6.22243">
        <ele>204.4609375</ele>
        <time>2021-07-11T08:38:59Z</time>
      </trkpt>
      <trkpt lat="43.24131" lon="6.22244">
        <ele>205.15234375</ele>
        <time>2021-07-11T08:39:00Z</time>
      </trkpt>
      <trkpt lat="43.24132" lon="6.22245">
        <ele>205.76171875</ele>
        <time>2021-07-11T08:39:01Z</time>
      </trkpt>
      <trkpt lat="43.24133" lon="6.22248">
        <ele>206.08203125</ele>
        <time>2021-07-11T08:39:02Z</time>
      </trkpt>
      <trkpt lat="43.24133" lon="6.2225">
        <ele>206.109375</ele>
        <time>2021-07-11T08:39:03Z</time>
      </trkpt>
      <trkpt lat="43.24133" lon="6.22253">
        <ele>205.9296875</ele>
        <time>2021-07-11T08:39:04Z</time>
      </trkpt>
      <trkpt lat="43.24132" lon="6.22256">
        <ele>205.7109375</ele>
        <time>2021-07-11T08:39:05Z</time>
      </trkpt>
      <trkpt lat="43.24132" lon="6.22259">
        <ele>205.48828125</ele>
        <time>2021-07-11T08:39:06Z</time>
      </trkpt>
      <trkpt lat="43.24131" lon="6.223">
        <ele>203.41015625</ele>
        <time>2021-07-11T08:39:19Z</time>
      </trkpt>
      <trkpt lat="43.24147" lon="6.2235">
        <ele>203.69140625</ele>
        <time>2021-07-11T08:39:34Z</time>
      </trkpt>
      <trkpt lat="43.24178" lon="6.22393">
        <ele>208.828125</ele>
        <time>2021-07-11T08:39:49Z</time>
      </trkpt>
      <trkpt lat="43.24183" lon="6.22399">
        <ele>209.359375</ele>
        <time>2021-07-11T08:39:51Z</time>
      </trkpt>
      <trkpt lat="43.24201" lon="6.22449">
        <ele>206.296875</ele>
        <time>2021-07-11T08:40:05Z</time>
      </trkpt>
      <trkpt lat="43.24233" lon="6.22483">
        <ele>201.2890625</ele>
        <time>2021-07-11T08:40:18Z</time>
      </trkpt>
      <trkpt lat="43.24272" lon="6.22483">
        <ele>202.6796875</ele>
        <time>2021-07-11T08:40:31Z</time>
      </trkpt>
      <trkpt lat="43.24319" lon="6.22473">
        <ele>210.04296875</ele>
        <time>2021-07-11T08:40:48Z</time>
      </trkpt>
      <trkpt lat="43.2436" lon="6.22485">
        <ele>211.3203125</ele>
        <time>2021-07-11T08:41:02Z</time>
      </trkpt>
      <trkpt lat="43.24404" lon="6.2249">
        <ele>213.21875</ele>
        <time>2021-07-11T08:41:18Z</time>
      </trkpt>
      <trkpt lat="43.24434" lon="6.22488">
        <ele>215.4609375</ele>
        <time>2021-07-11T08:41:29Z</time>
      </trkpt>
      <trkpt lat="43.24471" lon="6.22486">
        <ele>217.35546875</ele>
        <time>2021-07-11T08:41:43Z</time>
      </trkpt>
      <trkpt lat="43.24507" lon="6.22483">
        <ele>219.66796875</ele>
        <time>2021-07-11T08:41:57Z</time>
      </trkpt>
      <trkpt lat="43.24547" lon="6.22469">
        <ele>221.41015625</ele>
        <time>2021-07-11T08:42:12Z</time>
      </trkpt>
      <trkpt lat="43.24575" lon="6.22451">
        <ele>223.79296875</ele>
        <time>2021-07-11T08:42:24Z</time>
      </trkpt>
      <trkpt lat="43.24577" lon="6.22449">
        <ele>224.04296875</ele>
        <time>2021-07-11T08:42:25Z</time>
      </trkpt>
      <trkpt lat="43.24601" lon="6.22425">
        <ele>228.375</ele>
        <time>2021-07-11T08:42:37Z</time>
      </trkpt>
      <trkpt lat="43.2464" lon="6.22407">
        <ele>231.3671875</ele>
        <time>2021-07-11T08:42:52Z</time>
      </trkpt>
      <trkpt lat="43.24675" lon="6.22389">
        <ele>234.8984375</ele>
        <time>2021-07-11T08:43:06Z</time>
      </trkpt>
      <trkpt lat="43.24706" lon="6.22373">
        <ele>239.68359375</ele>
        <time>2021-07-11T08:43:17Z</time>
      </trkpt>
      <trkpt lat="43.24734" lon="6.22364">
        <ele>243.9609375</ele>
        <time>2021-07-11T08:43:27Z</time>
      </trkpt>
      <trkpt lat="43.24773" lon="6.22346">
        <ele>255.98828125</ele>
        <time>2021-07-11T08:43:41Z</time>
      </trkpt>
      <trkpt lat="43.24797" lon="6.22356">
        <ele>262.90234375</ele>
        <time>2021-07-11T08:43:52Z</time>
      </trkpt>
      <trkpt lat="43.24811" lon="6.22383">
        <ele>265.69921875</ele>
        <time>2021-07-11T08:44:01Z</time>
      </trkpt>
      <trkpt lat="43.2483" lon="6.22422">
        <ele>270.4375</ele>
        <time>2021-07-11T08:44:14Z</time>
      </trkpt>
      <trkpt lat="43.2485" lon="6.22459">
        <ele>276.234375</ele>
        <time>2021-07-11T08:44:27Z</time>
      </trkpt>
      <trkpt lat="43.24861" lon="6.22499">
        <ele>280.0390625</ele>
        <time>2021-07-11T08:44:39Z</time>
      </trkpt>
      <trkpt lat="43.24865" lon="6.2254">
        <ele>277.71484375</ele>
        <time>2021-07-11T08:44:49Z</time>
      </trkpt>
      <trkpt lat="43.24885" lon="6.22579">
        <ele>275.69921875</ele>
        <time>2021-07-11T08:45:00Z</time>
      </trkpt>
      <trkpt lat="43.24922" lon="6.22607">
        <ele>279.421875</ele>
        <time>2021-07-11T08:45:14Z</time>
      </trkpt>
      <trkpt lat="43.24949" lon="6.22622">
        <ele>283.0546875</ele>
        <time>2021-07-11T08:45:24Z</time>
      </trkpt>
      <trkpt lat="43.24979" lon="6.22641">
        <ele>291.26953125</ele>
        <time>2021-07-11T08:45:36Z</time>
      </trkpt>
      <trkpt lat="43.25006" lon="6.2266">
        <ele>300.87109375</ele>
        <time>2021-07-11T08:45:47Z</time>
      </trkpt>
      <trkpt lat="43.25012" lon="6.22697">
        <ele>302.59375</ele>
        <time>2021-07-11T08:45:57Z</time>
      </trkpt>
      <trkpt lat="43.25021" lon="6.22744">
        <ele>303.98828125</ele>
        <time>2021-07-11T08:46:09Z</time>
      </trkpt>
      <trkpt lat="43.25032" lon="6.22773">
        <ele>306.203125</ele>
        <time>2021-07-11T08:46:17Z</time>
      </trkpt>
      <trkpt lat="43.25046" lon="6.22807">
        <ele>306.67578125</ele>
        <time>2021-07-11T08:46:26Z</time>
      </trkpt>
      <trkpt lat="43.25055" lon="6.22836">
        <ele>306.10546875</ele>
        <time>2021-07-11T08:46:31Z</time>
      </trkpt>
      <trkpt lat="43.25056" lon="6.22841">
        <ele>305.9140625</ele>
        <time>2021-07-11T08:46:32Z</time>
      </trkpt>
      <trkpt lat="43.25063" lon="6.22872">
        <ele>304.28125</ele>
        <time>2021-07-11T08:46:39Z</time>
      </trkpt>
      <trkpt lat="43.25065" lon="6.2289">
        <ele>302.92578125</ele>
        <time>2021-07-11T08:46:45Z</time>
      </trkpt>
      <trkpt lat="43.25067" lon="6.22892">
        <ele>302.515625</ele>
        <time>2021-07-11T08:46:46Z</time>
      </trkpt>
      <trkpt lat="43.25068" lon="6.22893">
        <ele>302.046875</ele>
        <time>2021-07-11T08:46:47Z</time>
      </trkpt>
      <trkpt lat="43.2507" lon="6.22893">
        <ele>301.625</ele>
        <time>2021-07-11T08:46:48Z</time>
      </trkpt>
      <trkpt lat="43.25072" lon="6.22892">
        <ele>301.26171875</ele>
        <time>2021-07-11T08:46:49Z</time>
      </trkpt>
      <trkpt lat="43.25073" lon="6.22891">
        <ele>300.98046875</ele>
        <time>2021-07-11T08:46:50Z</time>
      </trkpt>
      <trkpt lat="43.25074" lon="6.2289">
        <ele>300.765625</ele>
        <time>2021-07-11T08:46:51Z</time>
      </trkpt>
      <trkpt lat="43.25077" lon="6.22886">
        <ele>300.6171875</ele>
        <time>2021-07-11T08:47:03Z</time>
      </trkpt>
      <trkpt lat="43.25074" lon="6.2289">
        <ele>301.00390625</ele>
        <time>2021-07-11T08:47:32Z</time>
      </trkpt>
      <trkpt lat="43.25074" lon="6.22885">
        <ele>301.234375</ele>
        <time>2021-07-11T08:48:10Z</time>
      </trkpt>
      <trkpt lat="43.25075" lon="6.22886">
        <ele>301.04296875</ele>
        <time>2021-07-11T08:48:57Z</time>
      </trkpt>
      <trkpt lat="43.25074" lon="6.22887">
        <ele>301.08984375</ele>
        <time>2021-07-11T08:49:52Z</time>
      </trkpt>
      <trkpt lat="43.25069" lon="6.22877">
        <ele>302.8203125</ele>
        <time>2021-07-11T08:50:42Z</time>
      </trkpt>
      <trkpt lat="43.25071" lon="6.22885">
        <ele>301.87109375</ele>
        <time>2021-07-11T08:51:37Z</time>
      </trkpt>
      <trkpt lat="43.25073" lon="6.22885">
        <ele>301.53125</ele>
        <time>2021-07-11T08:52:23Z</time>
      </trkpt>
      <trkpt lat="43.25071" lon="6.22885">
        <ele>301.890625</ele>
        <time>2021-07-11T08:53:05Z</time>
      </trkpt>
      <trkpt lat="43.25075" lon="6.2289">
        <ele>300.75390625</ele>
        <time>2021-07-11T08:53:47Z</time>
      </trkpt>
      <trkpt lat="43.25074" lon="6.22885">
        <ele>301.26171875</ele>
        <time>2021-07-11T08:54:32Z</time>
      </trkpt>
      <trkpt lat="43.25072" lon="6.22885">
        <ele>301.6015625</ele>
        <time>2021-07-11T08:55:10Z</time>
      </trkpt>
      <trkpt lat="43.25073" lon="6.22887">
        <ele>301.25390625</ele>
        <time>2021-07-11T08:55:58Z</time>
      </trkpt>
      <trkpt lat="43.25075" lon="6.22887">
        <ele>300.875</ele>
        <time>2021-07-11T08:56:49Z</time>
      </trkpt>
      <trkpt lat="43.25074" lon="6.22884">
        <ele>301.3125</ele>
        <time>2021-07-11T08:57:29Z</time>
      </trkpt>
      <trkpt lat="43.25075" lon="6.22888">
        <ele>300.84765625</ele>
        <time>2021-07-11T08:57:59Z</time>
      </trkpt>
      <trkpt lat="43.25078" lon="6.22887">
        <ele>300.24609375</ele>
        <time>2021-07-11T08:58:14Z</time>
      </trkpt>
      <trkpt lat="43.25082" lon="6.22886">
        <ele>299.453125</ele>
        <time>2021-07-11T08:58:31Z</time>
      </trkpt>
      <trkpt lat="43.25096" lon="6.22868">
        <ele>298.30078125</ele>
        <time>2021-07-11T08:58:39Z</time>
      </trkpt>
      <trkpt lat="43.25121" lon="6.22857">
        <ele>294.2578125</ele>
        <time>2021-07-11T08:58:47Z</time>
      </trkpt>
      <trkpt lat="43.25132" lon="6.22846">
        <ele>293.83984375</ele>
        <time>2021-07-11T08:58:50Z</time>
      </trkpt>
      <trkpt lat="43.25162" lon="6.22819">
        <ele>292.4921875</ele>
        <time>2021-07-11T08:59:00Z</time>
      </trkpt>
      <trkpt lat="43.25181" lon="6.22802">
        <ele>290.2734375</ele>
        <time>2021-07-11T08:59:06Z</time>
      </trkpt>
      <trkpt lat="43.25185" lon="6.22798">
        <ele>289.87109375</ele>
        <time>2021-07-11T08:59:07Z</time>
      </trkpt>
      <trkpt lat="43.25205" lon="6.22777">
        <ele>287.78125</ele>
        <time>2021-07-11T08:59:12Z</time>
      </trkpt>
      <trkpt lat="43.25228" lon="6.22743">
        <ele>289.97265625</ele>
        <time>2021-07-11T08:59:18Z</time>
      </trkpt>
      <trkpt lat="43.25233" lon="6.22742">
        <ele>289.9765625</ele>
        <time>2021-07-11T08:59:19Z</time>
      </trkpt>
      <trkpt lat="43.25237" lon="6.22743">
        <ele>289.27734375</ele>
        <time>2021-07-11T08:59:20Z</time>
      </trkpt>
      <trkpt lat="43.2524" lon="6.22743">
        <ele>288.77734375</ele>
        <time>2021-07-11T08:59:21Z</time>
      </trkpt>
      <trkpt lat="43.25244" lon="6.22742">
        <ele>288.625</ele>
        <time>2021-07-11T08:59:22Z</time>
      </trkpt>
      <trkpt lat="43.25248" lon="6.22741">
        <ele>288.4609375</ele>
        <time>2021-07-11T08:59:23Z</time>
      </trkpt>
      <trkpt lat="43.25252" lon="6.22741">
        <ele>288.1015625</ele>
        <time>2021-07-11T08:59:24Z</time>
      </trkpt>
      <trkpt lat="43.25295" lon="6.22743">
        <ele>284.234375</ele>
        <time>2021-07-11T08:59:33Z</time>
      </trkpt>
      <trkpt lat="43.25303" lon="6.22738">
        <ele>283.875</ele>
        <time>2021-07-11T08:59:35Z</time>
      </trkpt>
      <trkpt lat="43.25306" lon="6.22734">
        <ele>283.98828125</ele>
        <time>2021-07-11T08:59:36Z</time>
      </trkpt>
      <trkpt lat="43.2531" lon="6.2273">
        <ele>283.953125</ele>
        <time>2021-07-11T08:59:37Z</time>
      </trkpt>
      <trkpt lat="43.25313" lon="6.22724">
        <ele>283.44921875</ele>
        <time>2021-07-11T08:59:38Z</time>
      </trkpt>
      <trkpt lat="43.25315" lon="6.22719">
        <ele>283.21875</ele>
        <time>2021-07-11T08:59:39Z</time>
      </trkpt>
      <trkpt lat="43.25317" lon="6.22713">
        <ele>283.2109375</ele>
        <time>2021-07-11T08:59:40Z</time>
      </trkpt>
      <trkpt lat="43.2532" lon="6.22701">
        <ele>282.88671875</ele>
        <time>2021-07-11T08:59:42Z</time>
      </trkpt>
      <trkpt lat="43.25334" lon="6.22623">
        <ele>278.13671875</ele>
        <time>2021-07-11T08:59:51Z</time>
      </trkpt>
      <trkpt lat="43.25335" lon="6.22614">
        <ele>277.72265625</ele>
        <time>2021-07-11T08:59:52Z</time>
      </trkpt>
      <trkpt lat="43.25334" lon="6.22605">
        <ele>277.60546875</ele>
        <time>2021-07-11T08:59:53Z</time>
      </trkpt>
      <trkpt lat="43.2533" lon="6.22575">
        <ele>278.45703125</ele>
        <time>2021-07-11T08:59:59Z</time>
      </trkpt>
      <trkpt lat="43.25328" lon="6.22569">
        <ele>278.8984375</ele>
        <time>2021-07-11T09:00:00Z</time>
      </trkpt>
      <trkpt lat="43.25314" lon="6.22541">
        <ele>282.22265625</ele>
        <time>2021-07-11T09:00:05Z</time>
      </trkpt>
      <trkpt lat="43.25311" lon="6.22538">
        <ele>283.29296875</ele>
        <time>2021-07-11T09:00:06Z</time>
      </trkpt>
      <trkpt lat="43.25296" lon="6.2252">
        <ele>285.19921875</ele>
        <time>2021-07-11T09:00:14Z</time>
      </trkpt>
      <trkpt lat="43.25297" lon="6.22518">
        <ele>284.14453125</ele>
        <time>2021-07-11T09:00:41Z</time>
      </trkpt>
      <trkpt lat="43.25296" lon="6.22517">
        <ele>284.64453125</ele>
        <time>2021-07-11T09:00:51Z</time>
      </trkpt>
      <trkpt lat="43.25295" lon="6.22516">
        <ele>284.69921875</ele>
        <time>2021-07-11T09:00:52Z</time>
      </trkpt>
      <trkpt lat="43.25293" lon="6.22515">
        <ele>284.93359375</ele>
        <time>2021-07-11T09:00:53Z</time>
      </trkpt>
      <trkpt lat="43.25279" lon="6.22505">
        <ele>287.3203125</ele>
        <time>2021-07-11T09:00:58Z</time>
      </trkpt>
      <trkpt lat="43.25271" lon="6.22499">
        <ele>287.59765625</ele>
        <time>2021-07-11T09:01:00Z</time>
      </trkpt>
      <trkpt lat="43.25267" lon="6.22493">
        <ele>287.32421875</ele>
        <time>2021-07-11T09:01:02Z</time>
      </trkpt>
      <trkpt lat="43.25265" lon="6.22489">
        <ele>286.66015625</ele>
        <time>2021-07-11T09:01:03Z</time>
      </trkpt>
      <trkpt lat="43.25265" lon="6.22485">
        <ele>285.7265625</ele>
        <time>2021-07-11T09:01:04Z</time>
      </trkpt>
      <trkpt lat="43.25266" lon="6.22482">
        <ele>284.65234375</ele>
        <time>2021-07-11T09:01:05Z</time>
      </trkpt>
      <trkpt lat="43.25266" lon="6.22478">
        <ele>283.5546875</ele>
        <time>2021-07-11T09:01:06Z</time>
      </trkpt>
      <trkpt lat="43.25267" lon="6.22475">
        <ele>282.32421875</ele>
        <time>2021-07-11T09:01:07Z</time>
      </trkpt>
      <trkpt lat="43.25269" lon="6.22471">
        <ele>280.7109375</ele>
        <time>2021-07-11T09:01:08Z</time>
      </trkpt>
      <trkpt lat="43.2527" lon="6.22466">
        <ele>279.01171875</ele>
        <time>2021-07-11T09:01:09Z</time>
      </trkpt>
      <trkpt lat="43.25271" lon="6.22461">
        <ele>277.3203125</ele>
        <time>2021-07-11T09:01:10Z</time>
      </trkpt>
      <trkpt lat="43.25272" lon="6.22456">
        <ele>275.51171875</ele>
        <time>2021-07-11T09:01:11Z</time>
      </trkpt>
      <trkpt lat="43.25273" lon="6.2245">
        <ele>273.984375</ele>
        <time>2021-07-11T09:01:12Z</time>
      </trkpt>
      <trkpt lat="43.25274" lon="6.22445">
        <ele>272.796875</ele>
        <time>2021-07-11T09:01:13Z</time>
      </trkpt>
      <trkpt lat="43.25278" lon="6.22388">
        <ele>264.9609375</ele>
        <time>2021-07-11T09:01:23Z</time>
      </trkpt>
      <trkpt lat="43.25279" lon="6.22382">
        <ele>264.5703125</ele>
        <time>2021-07-11T09:01:24Z</time>
      </trkpt>
      <trkpt lat="43.25281" lon="6.22353">
        <ele>263.98828125</ele>
        <time>2021-07-11T09:01:29Z</time>
      </trkpt>
      <trkpt lat="43.2528" lon="6.22347">
        <ele>264.484375</ele>
        <time>2021-07-11T09:01:30Z</time>
      </trkpt>
      <trkpt lat="43.2528" lon="6.22341">
        <ele>264.85546875</ele>
        <time>2021-07-11T09:01:31Z</time>
      </trkpt>
      <trkpt lat="43.25281" lon="6.22336">
        <ele>264.70703125</ele>
        <time>2021-07-11T09:01:32Z</time>
      </trkpt>
      <trkpt lat="43.25282" lon="6.22332">
        <ele>264.32421875</ele>
        <time>2021-07-11T09:01:33Z</time>
      </trkpt>
      <trkpt lat="43.25284" lon="6.22327">
        <ele>263.95703125</ele>
        <time>2021-07-11T09:01:34Z</time>
      </trkpt>
      <trkpt lat="43.25286" lon="6.22322">
        <ele>263.33984375</ele>
        <time>2021-07-11T09:01:35Z</time>
      </trkpt>
      <trkpt lat="43.25288" lon="6.22317">
        <ele>262.828125</ele>
        <time>2021-07-11T09:01:36Z</time>
      </trkpt>
      <trkpt lat="43.25292" lon="6.22301">
        <ele>261.64453125</ele>
        <time>2021-07-11T09:01:39Z</time>
      </trkpt>
      <trkpt lat="43.25292" lon="6.22294">
        <ele>261.73046875</ele>
        <time>2021-07-11T09:01:40Z</time>
      </trkpt>
      <trkpt lat="43.25292" lon="6.22287">
        <ele>262.08203125</ele>
        <time>2021-07-11T09:01:41Z</time>
      </trkpt>
      <trkpt lat="43.25291" lon="6.22278">
        <ele>262.46484375</ele>
        <time>2021-07-11T09:01:42Z</time>
      </trkpt>
      <trkpt lat="43.2529" lon="6.2227">
        <ele>262.99609375</ele>
        <time>2021-07-11T09:01:43Z</time>
      </trkpt>
      <trkpt lat="43.25289" lon="6.22263">
        <ele>263.70703125</ele>
        <time>2021-07-11T09:01:44Z</time>
      </trkpt>
      <trkpt lat="43.25287" lon="6.22257">
        <ele>264.6484375</ele>
        <time>2021-07-11T09:01:45Z</time>
      </trkpt>
      <trkpt lat="43.25284" lon="6.22253">
        <ele>265.9453125</ele>
        <time>2021-07-11T09:01:46Z</time>
      </trkpt>
      <trkpt lat="43.25281" lon="6.22251">
        <ele>267.1796875</ele>
        <time>2021-07-11T09:01:47Z</time>
      </trkpt>
      <trkpt lat="43.25277" lon="6.2225">
        <ele>268.3046875</ele>
        <time>2021-07-11T09:01:48Z</time>
      </trkpt>
      <trkpt lat="43.25272" lon="6.22251">
        <ele>269.69921875</ele>
        <time>2021-07-11T09:01:49Z</time>
      </trkpt>
      <trkpt lat="43.25267" lon="6.22252">
        <ele>271.12890625</ele>
        <time>2021-07-11T09:01:50Z</time>
      </trkpt>
      <trkpt lat="43.25258" lon="6.22254">
        <ele>274.0546875</ele>
        <time>2021-07-11T09:01:52Z</time>
      </trkpt>
      <trkpt lat="43.25252" lon="6.22252">
        <ele>275.68359375</ele>
        <time>2021-07-11T09:01:53Z</time>
      </trkpt>
      <trkpt lat="43.25245" lon="6.2225">
        <ele>277.140625</ele>
        <time>2021-07-11T09:01:54Z</time>
      </trkpt>
      <trkpt lat="43.25239" lon="6.2225">
        <ele>278.6015625</ele>
        <time>2021-07-11T09:01:55Z</time>
      </trkpt>
      <trkpt lat="43.25233" lon="6.2225">
        <ele>280.08203125</ele>
        <time>2021-07-11T09:01:56Z</time>
      </trkpt>
      <trkpt lat="43.25227" lon="6.22249">
        <ele>281.30859375</ele>
        <time>2021-07-11T09:01:57Z</time>
      </trkpt>
      <trkpt lat="43.25222" lon="6.22247">
        <ele>281.5234375</ele>
        <time>2021-07-11T09:01:58Z</time>
      </trkpt>
      <trkpt lat="43.25217" lon="6.22246">
        <ele>281.68359375</ele>
        <time>2021-07-11T09:01:59Z</time>
      </trkpt>
      <trkpt lat="43.25212" lon="6.22246">
        <ele>281.9140625</ele>
        <time>2021-07-11T09:02:00Z</time>
      </trkpt>
      <trkpt lat="43.25207" lon="6.22246">
        <ele>282.2421875</ele>
        <time>2021-07-11T09:02:01Z</time>
      </trkpt>
      <trkpt lat="43.25203" lon="6.22246">
        <ele>282.796875</ele>
        <time>2021-07-11T09:02:02Z</time>
      </trkpt>
      <trkpt lat="43.25199" lon="6.22246">
        <ele>283.02734375</ele>
        <time>2021-07-11T09:02:03Z</time>
      </trkpt>
      <trkpt lat="43.25196" lon="6.22243">
        <ele>282.56640625</ele>
        <time>2021-07-11T09:02:04Z</time>
      </trkpt>
      <trkpt lat="43.25193" lon="6.22241">
        <ele>282.17578125</ele>
        <time>2021-07-11T09:02:05Z</time>
      </trkpt>
      <trkpt lat="43.2519" lon="6.22239">
        <ele>281.99609375</ele>
        <time>2021-07-11T09:02:06Z</time>
      </trkpt>
      <trkpt lat="43.25186" lon="6.22237">
        <ele>281.6875</ele>
        <time>2021-07-11T09:02:07Z</time>
      </trkpt>
      <trkpt lat="43.25183" lon="6.22233">
        <ele>281.03515625</ele>
        <time>2021-07-11T09:02:08Z</time>
      </trkpt>
      <trkpt lat="43.2518" lon="6.22229">
        <ele>280.01171875</ele>
        <time>2021-07-11T09:02:09Z</time>
      </trkpt>
      <trkpt lat="43.25178" lon="6.22224">
        <ele>278.7421875</ele>
        <time>2021-07-11T09:02:10Z</time>
      </trkpt>
      <trkpt lat="43.25175" lon="6.2222">
        <ele>277.5546875</ele>
        <time>2021-07-11T09:02:11Z</time>
      </trkpt>
      <trkpt lat="43.25172" lon="6.22214">
        <ele>276.03125</ele>
        <time>2021-07-11T09:02:12Z</time>
      </trkpt>
      <trkpt lat="43.25169" lon="6.22207">
        <ele>274.1484375</ele>
        <time>2021-07-11T09:02:13Z</time>
      </trkpt>
      <trkpt lat="43.25167" lon="6.22201">
        <ele>272.6171875</ele>
        <time>2021-07-11T09:02:14Z</time>
      </trkpt>
      <trkpt lat="43.25164" lon="6.22196">
        <ele>271.59765625</ele>
        <time>2021-07-11T09:02:15Z</time>
      </trkpt>
      <trkpt lat="43.25161" lon="6.22191">
        <ele>270.9296875</ele>
        <time>2021-07-11T09:02:16Z</time>
      </trkpt>
      <trkpt lat="43.25159" lon="6.22187">
        <ele>270.35546875</ele>
        <time>2021-07-11T09:02:17Z</time>
      </trkpt>
      <trkpt lat="43.25157" lon="6.22183">
        <ele>269.5390625</ele>
        <time>2021-07-11T09:02:18Z</time>
      </trkpt>
      <trkpt lat="43.25156" lon="6.22177">
        <ele>268.41796875</ele>
        <time>2021-07-11T09:02:19Z</time>
      </trkpt>
      <trkpt lat="43.25155" lon="6.22172">
        <ele>267.42578125</ele>
        <time>2021-07-11T09:02:20Z</time>
      </trkpt>
      <trkpt lat="43.25154" lon="6.22168">
        <ele>266.59375</ele>
        <time>2021-07-11T09:02:21Z</time>
      </trkpt>
      <trkpt lat="43.25149" lon="6.22115">
        <ele>258.3125</ele>
        <time>2021-07-11T09:02:29Z</time>
      </trkpt>
      <trkpt lat="43.25147" lon="6.22103">
        <ele>257.62109375</ele>
        <time>2021-07-11T09:02:31Z</time>
      </trkpt>
      <trkpt lat="43.25146" lon="6.22097">
        <ele>257.1875</ele>
        <time>2021-07-11T09:02:32Z</time>
      </trkpt>
      <trkpt lat="43.25142" lon="6.22086">
        <ele>257.40234375</ele>
        <time>2021-07-11T09:02:34Z</time>
      </trkpt>
      <trkpt lat="43.25138" lon="6.22073">
        <ele>258.01171875</ele>
        <time>2021-07-11T09:02:36Z</time>
      </trkpt>
      <trkpt lat="43.2513" lon="6.22035">
        <ele>257.70703125</ele>
        <time>2021-07-11T09:02:44Z</time>
      </trkpt>
      <trkpt lat="43.2513" lon="6.22031">
        <ele>257.23828125</ele>
        <time>2021-07-11T09:02:45Z</time>
      </trkpt>
      <trkpt lat="43.2513" lon="6.22027">
        <ele>256.65625</ele>
        <time>2021-07-11T09:02:46Z</time>
      </trkpt>
      <trkpt lat="43.25131" lon="6.22023">
        <ele>255.9765625</ele>
        <time>2021-07-11T09:02:47Z</time>
      </trkpt>
      <trkpt lat="43.25131" lon="6.22019">
        <ele>255.609375</ele>
        <time>2021-07-11T09:02:48Z</time>
      </trkpt>
      <trkpt lat="43.25132" lon="6.22016">
        <ele>254.83203125</ele>
        <time>2021-07-11T09:02:59Z</time>
      </trkpt>
      <trkpt lat="43.25132" lon="6.22012">
        <ele>254.64453125</ele>
        <time>2021-07-11T09:03:30Z</time>
      </trkpt>
      <trkpt lat="43.25132" lon="6.22002">
        <ele>253.7890625</ele>
        <time>2021-07-11T09:03:52Z</time>
      </trkpt>
      <trkpt lat="43.25131" lon="6.21999">
        <ele>253.92578125</ele>
        <time>2021-07-11T09:03:53Z</time>
      </trkpt>
      <trkpt lat="43.25132" lon="6.21996">
        <ele>253.15625</ele>
        <time>2021-07-11T09:03:54Z</time>
      </trkpt>
      <trkpt lat="43.25134" lon="6.21994">
        <ele>252.203125</ele>
        <time>2021-07-11T09:03:55Z</time>
      </trkpt>
      <trkpt lat="43.25135" lon="6.21991">
        <ele>251.66796875</ele>
        <time>2021-07-11T09:03:56Z</time>
      </trkpt>
      <trkpt lat="43.25134" lon="6.21988">
        <ele>251.58203125</ele>
        <time>2021-07-11T09:03:57Z</time>
      </trkpt>
      <trkpt lat="43.25133" lon="6.21983">
        <ele>251.7890625</ele>
        <time>2021-07-11T09:03:58Z</time>
      </trkpt>
      <trkpt lat="43.25133" lon="6.21979">
        <ele>251.70703125</ele>
        <time>2021-07-11T09:03:59Z</time>
      </trkpt>
      <trkpt lat="43.25134" lon="6.21975">
        <ele>251.1328125</ele>
        <time>2021-07-11T09:04:00Z</time>
      </trkpt>
      <trkpt lat="43.25148" lon="6.21908">
        <ele>247.6015625</ele>
        <time>2021-07-11T09:04:11Z</time>
      </trkpt>
      <trkpt lat="43.25156" lon="6.21867">
        <ele>246.33203125</ele>
        <time>2021-07-11T09:04:19Z</time>
      </trkpt>
      <trkpt lat="43.25156" lon="6.21861">
        <ele>246.6171875</ele>
        <time>2021-07-11T09:04:20Z</time>
      </trkpt>
      <trkpt lat="43.25156" lon="6.21848">
        <ele>247.37890625</ele>
        <time>2021-07-11T09:04:22Z</time>
      </trkpt>
      <trkpt lat="43.25155" lon="6.21841">
        <ele>247.91796875</ele>
        <time>2021-07-11T09:04:23Z</time>
      </trkpt>
      <trkpt lat="43.25152" lon="6.21828">
        <ele>248.6953125</ele>
        <time>2021-07-11T09:04:25Z</time>
      </trkpt>
      <trkpt lat="43.25147" lon="6.21813">
        <ele>249.94140625</ele>
        <time>2021-07-11T09:04:27Z</time>
      </trkpt>
      <trkpt lat="43.25145" lon="6.21806">
        <ele>250.4375</ele>
        <time>2021-07-11T09:04:28Z</time>
      </trkpt>
      <trkpt lat="43.25134" lon="6.21761">
        <ele>249.19921875</ele>
        <time>2021-07-11T09:04:33Z</time>
      </trkpt>
      <trkpt lat="43.25132" lon="6.21752">
        <ele>249.17578125</ele>
        <time>2021-07-11T09:04:34Z</time>
      </trkpt>
      <trkpt lat="43.25129" lon="6.21745">
        <ele>249.35546875</ele>
        <time>2021-07-11T09:04:35Z</time>
      </trkpt>
      <trkpt lat="43.25127" lon="6.21738">
        <ele>249.74609375</ele>
        <time>2021-07-11T09:04:36Z</time>
      </trkpt>
      <trkpt lat="43.25123" lon="6.21734">
        <ele>250.4765625</ele>
        <time>2021-07-11T09:04:37Z</time>
      </trkpt>
      <trkpt lat="43.25119" lon="6.21732">
        <ele>251.54296875</ele>
        <time>2021-07-11T09:04:38Z</time>
      </trkpt>
      <trkpt lat="43.25115" lon="6.21731">
        <ele>252.796875</ele>
        <time>2021-07-11T09:04:39Z</time>
      </trkpt>
      <trkpt lat="43.25111" lon="6.21733">
        <ele>253.98046875</ele>
        <time>2021-07-11T09:04:40Z</time>
      </trkpt>
      <trkpt lat="43.25107" lon="6.21735">
        <ele>255.31640625</ele>
        <time>2021-07-11T09:04:41Z</time>
      </trkpt>
      <trkpt lat="43.25104" lon="6.21739">
        <ele>256.7421875</ele>
        <time>2021-07-11T09:04:42Z</time>
      </trkpt>
      <trkpt lat="43.25101" lon="6.21743">
        <ele>258.29296875</ele>
        <time>2021-07-11T09:04:43Z</time>
      </trkpt>
      <trkpt lat="43.25097" lon="6.21747">
        <ele>259.91015625</ele>
        <time>2021-07-11T09:04:44Z</time>
      </trkpt>
      <trkpt lat="43.25093" lon="6.21749">
        <ele>261.53515625</ele>
        <time>2021-07-11T09:04:45Z</time>
      </trkpt>
      <trkpt lat="43.2509" lon="6.2175">
        <ele>263.02734375</ele>
        <time>2021-07-11T09:04:46Z</time>
      </trkpt>
      <trkpt lat="43.25086" lon="6.21751">
        <ele>264.10546875</ele>
        <time>2021-07-11T09:04:47Z</time>
      </trkpt>
      <trkpt lat="43.25082" lon="6.2175">
        <ele>264.42578125</ele>
        <time>2021-07-11T09:04:48Z</time>
      </trkpt>
      <trkpt lat="43.2508" lon="6.2175">
        <ele>264.63671875</ele>
        <time>2021-07-11T09:04:49Z</time>
      </trkpt>
      <trkpt lat="43.25078" lon="6.2175">
        <ele>264.79296875</ele>
        <time>2021-07-11T09:04:50Z</time>
      </trkpt>
      <trkpt lat="43.25076" lon="6.2175">
        <ele>264.8515625</ele>
        <time>2021-07-11T09:04:51Z</time>
      </trkpt>
      <trkpt lat="43.25075" lon="6.21749">
        <ele>264.859375</ele>
        <time>2021-07-11T09:04:52Z</time>
      </trkpt>
      <trkpt lat="43.25067" lon="6.21746">
        <ele>264.82421875</ele>
        <time>2021-07-11T09:05:02Z</time>
      </trkpt>
      <trkpt lat="43.2506" lon="6.21745">
        <ele>265.1640625</ele>
        <time>2021-07-11T09:05:31Z</time>
      </trkpt>
      <trkpt lat="43.25052" lon="6.21741">
        <ele>264.5</ele>
        <time>2021-07-11T09:05:35Z</time>
      </trkpt>
      <trkpt lat="43.2504" lon="6.21736">
        <ele>263.64453125</ele>
        <time>2021-07-11T09:05:40Z</time>
      </trkpt>
      <trkpt lat="43.25038" lon="6.21736">
        <ele>263.65625</ele>
        <time>2021-07-11T09:05:41Z</time>
      </trkpt>
      <trkpt lat="43.25037" lon="6.21734">
        <ele>263.21875</ele>
        <time>2021-07-11T09:05:42Z</time>
      </trkpt>
      <trkpt lat="43.25035" lon="6.21733">
        <ele>262.8046875</ele>
        <time>2021-07-11T09:05:43Z</time>
      </trkpt>
      <trkpt lat="43.25033" lon="6.21732">
        <ele>262.671875</ele>
        <time>2021-07-11T09:05:44Z</time>
      </trkpt>
      <trkpt lat="43.25031" lon="6.21732">
        <ele>262.8828125</ele>
        <time>2021-07-11T09:05:45Z</time>
      </trkpt>
      <trkpt lat="43.25028" lon="6.21732">
        <ele>263.0859375</ele>
        <time>2021-07-11T09:05:46Z</time>
      </trkpt>
      <trkpt lat="43.25026" lon="6.21731">
        <ele>263.04296875</ele>
        <time>2021-07-11T09:05:47Z</time>
      </trkpt>
      <trkpt lat="43.25023" lon="6.2173">
        <ele>262.875</ele>
        <time>2021-07-11T09:05:48Z</time>
      </trkpt>
      <trkpt lat="43.25019" lon="6.21728">
        <ele>262.5859375</ele>
        <time>2021-07-11T09:05:49Z</time>
      </trkpt>
      <trkpt lat="43.25015" lon="6.21725">
        <ele>261.9765625</ele>
        <time>2021-07-11T09:05:50Z</time>
      </trkpt>
      <trkpt lat="43.25011" lon="6.21722">
        <ele>260.97265625</ele>
        <time>2021-07-11T09:05:51Z</time>
      </trkpt>
      <trkpt lat="43.25009" lon="6.21717">
        <ele>259.484375</ele>
        <time>2021-07-11T09:05:52Z</time>
      </trkpt>
      <trkpt lat="43.25008" lon="6.21711">
        <ele>257.8203125</ele>
        <time>2021-07-11T09:05:53Z</time>
      </trkpt>
      <trkpt lat="43.25006" lon="6.21706">
        <ele>256.3359375</ele>
        <time>2021-07-11T09:05:54Z</time>
      </trkpt>
      <trkpt lat="43.25004" lon="6.21701">
        <ele>255</ele>
        <time>2021-07-11T09:05:55Z</time>
      </trkpt>
      <trkpt lat="43.25002" lon="6.21696">
        <ele>253.8671875</ele>
        <time>2021-07-11T09:05:56Z</time>
      </trkpt>
      <trkpt lat="43.25" lon="6.2169">
        <ele>252.703125</ele>
        <time>2021-07-11T09:05:57Z</time>
      </trkpt>
      <trkpt lat="43.24997" lon="6.21685">
        <ele>251.91796875</ele>
        <time>2021-07-11T09:05:58Z</time>
      </trkpt>
      <trkpt lat="43.24994" lon="6.21681">
        <ele>251.46875</ele>
        <time>2021-07-11T09:05:59Z</time>
      </trkpt>
      <trkpt lat="43.24992" lon="6.21677">
        <ele>251.09765625</ele>
        <time>2021-07-11T09:06:00Z</time>
      </trkpt>
      <trkpt lat="43.2499" lon="6.21673">
        <ele>250.55078125</ele>
        <time>2021-07-11T09:06:01Z</time>
      </trkpt>
      <trkpt lat="43.2499" lon="6.21669">
        <ele>249.8671875</ele>
        <time>2021-07-11T09:06:02Z</time>
      </trkpt>
      <trkpt lat="43.24989" lon="6.21666">
        <ele>249.32421875</ele>
        <time>2021-07-11T09:06:03Z</time>
      </trkpt>
      <trkpt lat="43.24987" lon="6.21662">
        <ele>248.81640625</ele>
        <time>2021-07-11T09:06:04Z</time>
      </trkpt>
      <trkpt lat="43.24986" lon="6.21658">
        <ele>248.140625</ele>
        <time>2021-07-11T09:06:05Z</time>
      </trkpt>
      <trkpt lat="43.24977" lon="6.21631">
        <ele>245.48828125</ele>
        <time>2021-07-11T09:06:11Z</time>
      </trkpt>
      <trkpt lat="43.24974" lon="6.21627">
        <ele>245.73828125</ele>
        <time>2021-07-11T09:06:12Z</time>
      </trkpt>
      <trkpt lat="43.24971" lon="6.21622">
        <ele>245.6484375</ele>
        <time>2021-07-11T09:06:13Z</time>
      </trkpt>
      <trkpt lat="43.24933" lon="6.21567">
        <ele>246.78125</ele>
        <time>2021-07-11T09:06:25Z</time>
      </trkpt>
      <trkpt lat="43.24929" lon="6.21562">
        <ele>247.3984375</ele>
        <time>2021-07-11T09:06:26Z</time>
      </trkpt>
      <trkpt lat="43.24925" lon="6.2156">
        <ele>248.35546875</ele>
        <time>2021-07-11T09:06:27Z</time>
      </trkpt>
      <trkpt lat="43.2492" lon="6.21557">
        <ele>250.046875</ele>
        <time>2021-07-11T09:06:29Z</time>
      </trkpt>
      <trkpt lat="43.24918" lon="6.21553">
        <ele>250.1015625</ele>
        <time>2021-07-11T09:06:30Z</time>
      </trkpt>
      <trkpt lat="43.24917" lon="6.21548">
        <ele>249.78515625</ele>
        <time>2021-07-11T09:06:31Z</time>
      </trkpt>
      <trkpt lat="43.24917" lon="6.21542">
        <ele>249.07421875</ele>
        <time>2021-07-11T09:06:32Z</time>
      </trkpt>
      <trkpt lat="43.24917" lon="6.21537">
        <ele>248.16796875</ele>
        <time>2021-07-11T09:06:33Z</time>
      </trkpt>
      <trkpt lat="43.24918" lon="6.21532">
        <ele>247.33203125</ele>
        <time>2021-07-11T09:06:34Z</time>
      </trkpt>
      <trkpt lat="43.24919" lon="6.21527">
        <ele>246.31640625</ele>
        <time>2021-07-11T09:06:35Z</time>
      </trkpt>
      <trkpt lat="43.24921" lon="6.21522">
        <ele>245.03515625</ele>
        <time>2021-07-11T09:06:36Z</time>
      </trkpt>
      <trkpt lat="43.24924" lon="6.21517">
        <ele>243.5</ele>
        <time>2021-07-11T09:06:37Z</time>
      </trkpt>
      <trkpt lat="43.24929" lon="6.21508">
        <ele>240.63671875</ele>
        <time>2021-07-11T09:06:39Z</time>
      </trkpt>
      <trkpt lat="43.24933" lon="6.21505">
        <ele>239.4140625</ele>
        <time>2021-07-11T09:06:40Z</time>
      </trkpt>
      <trkpt lat="43.24946" lon="6.21489">
        <ele>234.5703125</ele>
        <time>2021-07-11T09:06:44Z</time>
      </trkpt>
      <trkpt lat="43.24969" lon="6.21453">
        <ele>230.640625</ele>
        <time>2021-07-11T09:06:51Z</time>
      </trkpt>
      <trkpt lat="43.24971" lon="6.21447">
        <ele>231.34375</ele>
        <time>2021-07-11T09:06:52Z</time>
      </trkpt>
      <trkpt lat="43.24973" lon="6.2144">
        <ele>232.28515625</ele>
        <time>2021-07-11T09:06:53Z</time>
      </trkpt>
      <trkpt lat="43.24974" lon="6.21433">
        <ele>233.546875</ele>
        <time>2021-07-11T09:06:54Z</time>
      </trkpt>
      <trkpt lat="43.24973" lon="6.21426">
        <ele>234.8828125</ele>
        <time>2021-07-11T09:06:55Z</time>
      </trkpt>
      <trkpt lat="43.24972" lon="6.21419">
        <ele>235.2578125</ele>
        <time>2021-07-11T09:06:56Z</time>
      </trkpt>
      <trkpt lat="43.2497" lon="6.21412">
        <ele>235.87109375</ele>
        <time>2021-07-11T09:06:57Z</time>
      </trkpt>
      <trkpt lat="43.24968" lon="6.21406">
        <ele>236.703125</ele>
        <time>2021-07-11T09:06:58Z</time>
      </trkpt>
      <trkpt lat="43.24964" lon="6.21401">
        <ele>237.75</ele>
        <time>2021-07-11T09:06:59Z</time>
      </trkpt>
      <trkpt lat="43.2496" lon="6.21396">
        <ele>238.80859375</ele>
        <time>2021-07-11T09:07:00Z</time>
      </trkpt>
      <trkpt lat="43.24956" lon="6.2139">
        <ele>239.7578125</ele>
        <time>2021-07-11T09:07:01Z</time>
      </trkpt>
      <trkpt lat="43.24951" lon="6.21385">
        <ele>240.66796875</ele>
        <time>2021-07-11T09:07:02Z</time>
      </trkpt>
      <trkpt lat="43.24933" lon="6.21367">
        <ele>244.08203125</ele>
        <time>2021-07-11T09:07:06Z</time>
      </trkpt>
      <trkpt lat="43.24931" lon="6.21362">
        <ele>243.76953125</ele>
        <time>2021-07-11T09:07:07Z</time>
      </trkpt>
      <trkpt lat="43.24929" lon="6.2135">
        <ele>242.37890625</ele>
        <time>2021-07-11T09:07:09Z</time>
      </trkpt>
      <trkpt lat="43.24927" lon="6.21331">
        <ele>240.18359375</ele>
        <time>2021-07-11T09:07:12Z</time>
      </trkpt>
      <trkpt lat="43.24925" lon="6.21325">
        <ele>240.2265625</ele>
        <time>2021-07-11T09:07:13Z</time>
      </trkpt>
      <trkpt lat="43.24923" lon="6.21319">
        <ele>240.25</ele>
        <time>2021-07-11T09:07:14Z</time>
      </trkpt>
      <trkpt lat="43.24923" lon="6.21313">
        <ele>239.8515625</ele>
        <time>2021-07-11T09:07:15Z</time>
      </trkpt>
      <trkpt lat="43.24924" lon="6.21307">
        <ele>239.09375</ele>
        <time>2021-07-11T09:07:16Z</time>
      </trkpt>
      <trkpt lat="43.24925" lon="6.21302">
        <ele>238.27734375</ele>
        <time>2021-07-11T09:07:17Z</time>
      </trkpt>
      <trkpt lat="43.24926" lon="6.21297">
        <ele>237.5390625</ele>
        <time>2021-07-11T09:07:18Z</time>
      </trkpt>
      <trkpt lat="43.24927" lon="6.21292">
        <ele>236.75390625</ele>
        <time>2021-07-11T09:07:19Z</time>
      </trkpt>
      <trkpt lat="43.24929" lon="6.21289">
        <ele>235.7578125</ele>
        <time>2021-07-11T09:07:20Z</time>
      </trkpt>
      <trkpt lat="43.24931" lon="6.21286">
        <ele>234.83984375</ele>
        <time>2021-07-11T09:07:21Z</time>
      </trkpt>
      <trkpt lat="43.24934" lon="6.21283">
        <ele>233.87109375</ele>
        <time>2021-07-11T09:07:22Z</time>
      </trkpt>
      <trkpt lat="43.2494" lon="6.21275">
        <ele>231.65625</ele>
        <time>2021-07-11T09:07:24Z</time>
      </trkpt>
      <trkpt lat="43.24945" lon="6.21268">
        <ele>229.9296875</ele>
        <time>2021-07-11T09:07:30Z</time>
      </trkpt>
      <trkpt lat="43.2495" lon="6.21266">
        <ele>228.3984375</ele>
        <time>2021-07-11T09:07:53Z</time>
      </trkpt>
      <trkpt lat="43.2495" lon="6.21267">
        <ele>228.29296875</ele>
        <time>2021-07-11T09:08:25Z</time>
      </trkpt>
      <trkpt lat="43.24952" lon="6.21266">
        <ele>227.57421875</ele>
        <time>2021-07-11T09:08:58Z</time>
      </trkpt>
      <trkpt lat="43.24954" lon="6.21265">
        <ele>227.19921875</ele>
        <time>2021-07-11T09:09:16Z</time>
      </trkpt>
      <trkpt lat="43.24955" lon="6.21263">
        <ele>226.953125</ele>
        <time>2021-07-11T09:09:17Z</time>
      </trkpt>
      <trkpt lat="43.24956" lon="6.2126">
        <ele>226.77734375</ele>
        <time>2021-07-11T09:09:18Z</time>
      </trkpt>
      <trkpt lat="43.24957" lon="6.21256">
        <ele>226.96875</ele>
        <time>2021-07-11T09:09:19Z</time>
      </trkpt>
      <trkpt lat="43.24958" lon="6.2125">
        <ele>227.3125</ele>
        <time>2021-07-11T09:09:20Z</time>
      </trkpt>
      <trkpt lat="43.24959" lon="6.21244">
        <ele>227.71875</ele>
        <time>2021-07-11T09:09:21Z</time>
      </trkpt>
      <trkpt lat="43.24959" lon="6.21238">
        <ele>228.27734375</ele>
        <time>2021-07-11T09:09:22Z</time>
      </trkpt>
      <trkpt lat="43.24959" lon="6.21225">
        <ele>228.953125</ele>
        <time>2021-07-11T09:09:24Z</time>
      </trkpt>
      <trkpt lat="43.24955" lon="6.21212">
        <ele>229.94140625</ele>
        <time>2021-07-11T09:09:26Z</time>
      </trkpt>
      <trkpt lat="43.24953" lon="6.21205">
        <ele>230.6328125</ele>
        <time>2021-07-11T09:09:27Z</time>
      </trkpt>
      <trkpt lat="43.2495" lon="6.21198">
        <ele>231.22265625</ele>
        <time>2021-07-11T09:09:28Z</time>
      </trkpt>
      <trkpt lat="43.24947" lon="6.21192">
        <ele>232.0859375</ele>
        <time>2021-07-11T09:09:29Z</time>
      </trkpt>
      <trkpt lat="43.24943" lon="6.21186">
        <ele>233.19921875</ele>
        <time>2021-07-11T09:09:30Z</time>
      </trkpt>
      <trkpt lat="43.2494" lon="6.2118">
        <ele>234.18359375</ele>
        <time>2021-07-11T09:09:31Z</time>
      </trkpt>
      <trkpt lat="43.24938" lon="6.21174">
        <ele>234.93359375</ele>
        <time>2021-07-11T09:09:32Z</time>
      </trkpt>
      <trkpt lat="43.24934" lon="6.21162">
        <ele>235.7109375</ele>
        <time>2021-07-11T09:09:35Z</time>
      </trkpt>
      <trkpt lat="43.24936" lon="6.21154">
        <ele>234.1640625</ele>
        <time>2021-07-11T09:09:37Z</time>
      </trkpt>
      <trkpt lat="43.24958" lon="6.21126">
        <ele>225.50390625</ele>
        <time>2021-07-11T09:09:43Z</time>
      </trkpt>
      <trkpt lat="43.24972" lon="6.21109">
        <ele>222.1484375</ele>
        <time>2021-07-11T09:09:46Z</time>
      </trkpt>
      <trkpt lat="43.2498" lon="6.21095">
        <ele>221.484375</ele>
        <time>2021-07-11T09:09:48Z</time>
      </trkpt>
      <trkpt lat="43.24998" lon="6.21057">
        <ele>224.359375</ele>
        <time>2021-07-11T09:09:53Z</time>
      </trkpt>
      <trkpt lat="43.24999" lon="6.2104">
        <ele>228.31640625</ele>
        <time>2021-07-11T09:09:56Z</time>
      </trkpt>
      <trkpt lat="43.24997" lon="6.21036">
        <ele>229.0546875</ele>
        <time>2021-07-11T09:09:57Z</time>
      </trkpt>
      <trkpt lat="43.24994" lon="6.21034">
        <ele>229.625</ele>
        <time>2021-07-11T09:09:58Z</time>
      </trkpt>
      <trkpt lat="43.24985" lon="6.2103">
        <ele>230.83203125</ele>
        <time>2021-07-11T09:10:00Z</time>
      </trkpt>
      <trkpt lat="43.24926" lon="6.20999">
        <ele>234.17578125</ele>
        <time>2021-07-11T09:10:11Z</time>
      </trkpt>
      <trkpt lat="43.24922" lon="6.20996">
        <ele>233.96484375</ele>
        <time>2021-07-11T09:10:12Z</time>
      </trkpt>
      <trkpt lat="43.24905" lon="6.20979">
        <ele>232.16796875</ele>
        <time>2021-07-11T09:10:16Z</time>
      </trkpt>
      <trkpt lat="43.249" lon="6.20974">
        <ele>231.27734375</ele>
        <time>2021-07-11T09:10:17Z</time>
      </trkpt>
      <trkpt lat="43.24886" lon="6.2096">
        <ele>230.00390625</ele>
        <time>2021-07-11T09:10:20Z</time>
      </trkpt>
      <trkpt lat="43.24884" lon="6.20955">
        <ele>229.2734375</ele>
        <time>2021-07-11T09:10:21Z</time>
      </trkpt>
      <trkpt lat="43.24874" lon="6.20921">
        <ele>223.82421875</ele>
        <time>2021-07-11T09:10:27Z</time>
      </trkpt>
      <trkpt lat="43.2487" lon="6.20914">
        <ele>223.421875</ele>
        <time>2021-07-11T09:10:28Z</time>
      </trkpt>
      <trkpt lat="43.24867" lon="6.20908">
        <ele>223.35546875</ele>
        <time>2021-07-11T09:10:29Z</time>
      </trkpt>
      <trkpt lat="43.24863" lon="6.20904">
        <ele>223.42578125</ele>
        <time>2021-07-11T09:10:30Z</time>
      </trkpt>
      <trkpt lat="43.24858" lon="6.209">
        <ele>223.703125</ele>
        <time>2021-07-11T09:10:31Z</time>
      </trkpt>
      <trkpt lat="43.24852" lon="6.20897">
        <ele>224.15234375</ele>
        <time>2021-07-11T09:10:32Z</time>
      </trkpt>
      <trkpt lat="43.24847" lon="6.20895">
        <ele>224.796875</ele>
        <time>2021-07-11T09:10:33Z</time>
      </trkpt>
      <trkpt lat="43.24841" lon="6.20893">
        <ele>225.67578125</ele>
        <time>2021-07-11T09:10:34Z</time>
      </trkpt>
      <trkpt lat="43.24835" lon="6.20892">
        <ele>226.6015625</ele>
        <time>2021-07-11T09:10:35Z</time>
      </trkpt>
      <trkpt lat="43.24829" lon="6.2089">
        <ele>227.421875</ele>
        <time>2021-07-11T09:10:36Z</time>
      </trkpt>
      <trkpt lat="43.24815" lon="6.20887">
        <ele>229.23046875</ele>
        <time>2021-07-11T09:10:39Z</time>
      </trkpt>
      <trkpt lat="43.24811" lon="6.20883">
        <ele>229.05859375</ele>
        <time>2021-07-11T09:10:41Z</time>
      </trkpt>
      <trkpt lat="43.24809" lon="6.20881">
        <ele>228.55859375</ele>
        <time>2021-07-11T09:10:42Z</time>
      </trkpt>
      <trkpt lat="43.24808" lon="6.20878">
        <ele>228.109375</ele>
        <time>2021-07-11T09:10:43Z</time>
      </trkpt>
      <trkpt lat="43.24807" lon="6.20876">
        <ele>227.65625</ele>
        <time>2021-07-11T09:10:44Z</time>
      </trkpt>
      <trkpt lat="43.24805" lon="6.20873">
        <ele>227.32421875</ele>
        <time>2021-07-11T09:10:45Z</time>
      </trkpt>
      <trkpt lat="43.24803" lon="6.2087">
        <ele>226.89453125</ele>
        <time>2021-07-11T09:10:46Z</time>
      </trkpt>
      <trkpt lat="43.248" lon="6.20866">
        <ele>226.421875</ele>
        <time>2021-07-11T09:10:47Z</time>
      </trkpt>
      <trkpt lat="43.24792" lon="6.20858">
        <ele>226.33984375</ele>
        <time>2021-07-11T09:10:50Z</time>
      </trkpt>
      <trkpt lat="43.24791" lon="6.20854">
        <ele>225.625</ele>
        <time>2021-07-11T09:10:51Z</time>
      </trkpt>
      <trkpt lat="43.24791" lon="6.20851">
        <ele>224.58203125</ele>
        <time>2021-07-11T09:10:52Z</time>
      </trkpt>
      <trkpt lat="43.24792" lon="6.20848">
        <ele>223.65625</ele>
        <time>2021-07-11T09:10:53Z</time>
      </trkpt>
      <trkpt lat="43.24793" lon="6.20846">
        <ele>222.82421875</ele>
        <time>2021-07-11T09:10:54Z</time>
      </trkpt>
      <trkpt lat="43.24793" lon="6.20844">
        <ele>222.35546875</ele>
        <time>2021-07-11T09:11:05Z</time>
      </trkpt>
      <trkpt lat="43.24793" lon="6.20843">
        <ele>222.203125</ele>
        <time>2021-07-11T09:11:29Z</time>
      </trkpt>
      <trkpt lat="43.24794" lon="6.20843">
        <ele>221.78125</ele>
        <time>2021-07-11T09:11:33Z</time>
      </trkpt>
      <trkpt lat="43.24794" lon="6.20841">
        <ele>221.18359375</ele>
        <time>2021-07-11T09:11:34Z</time>
      </trkpt>
      <trkpt lat="43.24795" lon="6.20838">
        <ele>220.27734375</ele>
        <time>2021-07-11T09:11:35Z</time>
      </trkpt>
      <trkpt lat="43.24796" lon="6.20835">
        <ele>219.21484375</ele>
        <time>2021-07-11T09:11:36Z</time>
      </trkpt>
      <trkpt lat="43.24797" lon="6.20831">
        <ele>217.9921875</ele>
        <time>2021-07-11T09:11:37Z</time>
      </trkpt>
      <trkpt lat="43.24805" lon="6.20805">
        <ele>209.875</ele>
        <time>2021-07-11T09:11:42Z</time>
      </trkpt>
      <trkpt lat="43.24815" lon="6.20763">
        <ele>204.7890625</ele>
        <time>2021-07-11T09:11:47Z</time>
      </trkpt>
      <trkpt lat="43.24818" lon="6.20746">
        <ele>205.046875</ele>
        <time>2021-07-11T09:11:49Z</time>
      </trkpt>
      <trkpt lat="43.24819" lon="6.20738">
        <ele>205.40625</ele>
        <time>2021-07-11T09:11:50Z</time>
      </trkpt>
      <trkpt lat="43.2482" lon="6.2073">
        <ele>205.51171875</ele>
        <time>2021-07-11T09:11:51Z</time>
      </trkpt>
      <trkpt lat="43.24823" lon="6.20708">
        <ele>204.890625</ele>
        <time>2021-07-11T09:11:54Z</time>
      </trkpt>
      <trkpt lat="43.24823" lon="6.20701">
        <ele>205.12109375</ele>
        <time>2021-07-11T09:11:55Z</time>
      </trkpt>
      <trkpt lat="43.24823" lon="6.20695">
        <ele>205.48046875</ele>
        <time>2021-07-11T09:11:56Z</time>
      </trkpt>
      <trkpt lat="43.24822" lon="6.20692">
        <ele>206.0546875</ele>
        <time>2021-07-11T09:11:57Z</time>
      </trkpt>
      <trkpt lat="43.2482" lon="6.2069">
        <ele>206.8671875</ele>
        <time>2021-07-11T09:11:58Z</time>
      </trkpt>
      <trkpt lat="43.24818" lon="6.20689">
        <ele>207.48046875</ele>
        <time>2021-07-11T09:11:59Z</time>
      </trkpt>
      <trkpt lat="43.24819" lon="6.20689">
        <ele>207.43359375</ele>
        <time>2021-07-11T09:12:16Z</time>
      </trkpt>
      <trkpt lat="43.24819" lon="6.20689">
        <ele>207.23828125</ele>
        <time>2021-07-11T09:12:47Z</time>
      </trkpt>
      <trkpt lat="43.24814" lon="6.20687">
        <ele>209.1953125</ele>
        <time>2021-07-11T09:12:57Z</time>
      </trkpt>
      <trkpt lat="43.24813" lon="6.20686">
        <ele>209.75390625</ele>
        <time>2021-07-11T09:13:05Z</time>
      </trkpt>
      <trkpt lat="43.24811" lon="6.20685">
        <ele>210.37890625</ele>
        <time>2021-07-11T09:13:06Z</time>
      </trkpt>
      <trkpt lat="43.24798" lon="6.20682">
        <ele>213.3671875</ele>
        <time>2021-07-11T09:13:10Z</time>
      </trkpt>
      <trkpt lat="43.24753" lon="6.20662">
        <ele>216.72265625</ele>
        <time>2021-07-11T09:13:18Z</time>
      </trkpt>
      <trkpt lat="43.24747" lon="6.2066">
        <ele>216.5703125</ele>
        <time>2021-07-11T09:13:19Z</time>
      </trkpt>
      <trkpt lat="43.24731" lon="6.20653">
        <ele>215.7578125</ele>
        <time>2021-07-11T09:13:22Z</time>
      </trkpt>
      <trkpt lat="43.24727" lon="6.20651">
        <ele>215.4296875</ele>
        <time>2021-07-11T09:13:23Z</time>
      </trkpt>
      <trkpt lat="43.24713" lon="6.20643">
        <ele>214.5078125</ele>
        <time>2021-07-11T09:13:28Z</time>
      </trkpt>
      <trkpt lat="43.24713" lon="6.20642">
        <ele>214.00390625</ele>
        <time>2021-07-11T09:13:30Z</time>
      </trkpt>
      <trkpt lat="43.24714" lon="6.20639">
        <ele>213.05859375</ele>
        <time>2021-07-11T09:13:32Z</time>
      </trkpt>
      <trkpt lat="43.24714" lon="6.20637">
        <ele>212.3046875</ele>
        <time>2021-07-11T09:13:33Z</time>
      </trkpt>
      <trkpt lat="43.24714" lon="6.20633">
        <ele>211.18359375</ele>
        <time>2021-07-11T09:13:34Z</time>
      </trkpt>
      <trkpt lat="43.24714" lon="6.20628">
        <ele>209.75</ele>
        <time>2021-07-11T09:13:35Z</time>
      </trkpt>
      <trkpt lat="43.24714" lon="6.20623">
        <ele>208.08203125</ele>
        <time>2021-07-11T09:13:36Z</time>
      </trkpt>
      <trkpt lat="43.24714" lon="6.20617">
        <ele>206.67578125</ele>
        <time>2021-07-11T09:13:37Z</time>
      </trkpt>
      <trkpt lat="43.24714" lon="6.20557">
        <ele>194.6875</ele>
        <time>2021-07-11T09:13:45Z</time>
      </trkpt>
      <trkpt lat="43.24714" lon="6.20548">
        <ele>193.67578125</ele>
        <time>2021-07-11T09:13:46Z</time>
      </trkpt>
      <trkpt lat="43.24714" lon="6.20533">
        <ele>191.9453125</ele>
        <time>2021-07-11T09:13:48Z</time>
      </trkpt>
      <trkpt lat="43.24713" lon="6.20513">
        <ele>190.41796875</ele>
        <time>2021-07-11T09:13:51Z</time>
      </trkpt>
      <trkpt lat="43.24713" lon="6.20507">
        <ele>189.92578125</ele>
        <time>2021-07-11T09:13:52Z</time>
      </trkpt>
      <trkpt lat="43.24713" lon="6.20501">
        <ele>189.66796875</ele>
        <time>2021-07-11T09:13:53Z</time>
      </trkpt>
      <trkpt lat="43.24712" lon="6.20495">
        <ele>189.5859375</ele>
        <time>2021-07-11T09:13:54Z</time>
      </trkpt>
      <trkpt lat="43.2471" lon="6.20488">
        <ele>189.7109375</ele>
        <time>2021-07-11T09:13:55Z</time>
      </trkpt>
      <trkpt lat="43.24708" lon="6.20482">
        <ele>190.015625</ele>
        <time>2021-07-11T09:13:56Z</time>
      </trkpt>
      <trkpt lat="43.24706" lon="6.20477">
        <ele>190.28515625</ele>
        <time>2021-07-11T09:13:57Z</time>
      </trkpt>
      <trkpt lat="43.24703" lon="6.20473">
        <ele>190.86328125</ele>
        <time>2021-07-11T09:13:58Z</time>
      </trkpt>
      <trkpt lat="43.247" lon="6.2047">
        <ele>191.59765625</ele>
        <time>2021-07-11T09:13:59Z</time>
      </trkpt>
      <trkpt lat="43.24697" lon="6.20467">
        <ele>192.1953125</ele>
        <time>2021-07-11T09:14:00Z</time>
      </trkpt>
      <trkpt lat="43.24686" lon="6.20454">
        <ele>193.84765625</ele>
        <time>2021-07-11T09:14:03Z</time>
      </trkpt>
      <trkpt lat="43.24678" lon="6.20445">
        <ele>194.6171875</ele>
        <time>2021-07-11T09:14:05Z</time>
      </trkpt>
      <trkpt lat="43.2466" lon="6.20418">
        <ele>193.69140625</ele>
        <time>2021-07-11T09:14:10Z</time>
      </trkpt>
      <trkpt lat="43.24649" lon="6.20398">
        <ele>192.0546875</ele>
        <time>2021-07-11T09:14:13Z</time>
      </trkpt>
      <trkpt lat="43.24642" lon="6.20386">
        <ele>191.828125</ele>
        <time>2021-07-11T09:14:15Z</time>
      </trkpt>
      <trkpt lat="43.24635" lon="6.20372">
        <ele>191.12109375</ele>
        <time>2021-07-11T09:14:17Z</time>
      </trkpt>
      <trkpt lat="43.24617" lon="6.20347">
        <ele>191.7421875</ele>
        <time>2021-07-11T09:14:21Z</time>
      </trkpt>
      <trkpt lat="43.24588" lon="6.20326">
        <ele>192.2890625</ele>
        <time>2021-07-11T09:14:27Z</time>
      </trkpt>
      <trkpt lat="43.24583" lon="6.20326">
        <ele>192.74609375</ele>
        <time>2021-07-11T09:14:28Z</time>
      </trkpt>
      <trkpt lat="43.24559" lon="6.20328">
        <ele>195.21484375</ele>
        <time>2021-07-11T09:14:37Z</time>
      </trkpt>
      <trkpt lat="43.24563" lon="6.20327">
        <ele>194.7734375</ele>
        <time>2021-07-11T09:14:49Z</time>
      </trkpt>
      <trkpt lat="43.24563" lon="6.20327">
        <ele>194.79296875</ele>
        <time>2021-07-11T09:15:06Z</time>
      </trkpt>
      <trkpt lat="43.24561" lon="6.20327">
        <ele>195.06640625</ele>
        <time>2021-07-11T09:15:20Z</time>
      </trkpt>
      <trkpt lat="43.2456" lon="6.20328">
        <ele>195.2109375</ele>
        <time>2021-07-11T09:15:57Z</time>
      </trkpt>
      <trkpt lat="43.2456" lon="6.20328">
        <ele>195.1875</ele>
        <time>2021-07-11T09:16:27Z</time>
      </trkpt>
      <trkpt lat="43.2456" lon="6.20328">
        <ele>195.23046875</ele>
        <time>2021-07-11T09:16:46Z</time>
      </trkpt>
      <trkpt lat="43.24544" lon="6.20323">
        <ele>194.59375</ele>
        <time>2021-07-11T09:16:51Z</time>
      </trkpt>
      <trkpt lat="43.24541" lon="6.20319">
        <ele>194.20703125</ele>
        <time>2021-07-11T09:16:52Z</time>
      </trkpt>
      <trkpt lat="43.24539" lon="6.20314">
        <ele>193.80859375</ele>
        <time>2021-07-11T09:16:53Z</time>
      </trkpt>
      <trkpt lat="43.24528" lon="6.20284">
        <ele>192.69921875</ele>
        <time>2021-07-11T09:16:59Z</time>
      </trkpt>
      <trkpt lat="43.24517" lon="6.20263">
        <ele>192.0390625</ele>
        <time>2021-07-11T09:17:05Z</time>
      </trkpt>
      <trkpt lat="43.24507" lon="6.20237">
        <ele>192.671875</ele>
        <time>2021-07-11T09:17:10Z</time>
      </trkpt>
      <trkpt lat="43.245" lon="6.2021">
        <ele>193.9375</ele>
        <time>2021-07-11T09:17:14Z</time>
      </trkpt>
      <trkpt lat="43.24486" lon="6.20172">
        <ele>196.4921875</ele>
        <time>2021-07-11T09:17:20Z</time>
      </trkpt>
      <trkpt lat="43.24478" lon="6.20136">
        <ele>198.31640625</ele>
        <time>2021-07-11T09:17:25Z</time>
      </trkpt>
      <trkpt lat="43.24478" lon="6.20129">
        <ele>198.60546875</ele>
        <time>2021-07-11T09:17:26Z</time>
      </trkpt>
      <trkpt lat="43.24477" lon="6.20115">
        <ele>199.1328125</ele>
        <time>2021-07-11T09:17:28Z</time>
      </trkpt>
      <trkpt lat="43.24477" lon="6.20108">
        <ele>199.4765625</ele>
        <time>2021-07-11T09:17:29Z</time>
      </trkpt>
      <trkpt lat="43.24476" lon="6.201">
        <ele>199.79296875</ele>
        <time>2021-07-11T09:17:30Z</time>
      </trkpt>
      <trkpt lat="43.24476" lon="6.20064">
        <ele>196.78515625</ele>
        <time>2021-07-11T09:17:34Z</time>
      </trkpt>
      <trkpt lat="43.24474" lon="6.20055">
        <ele>195.92578125</ele>
        <time>2021-07-11T09:17:35Z</time>
      </trkpt>
      <trkpt lat="43.24471" lon="6.20046">
        <ele>195.04296875</ele>
        <time>2021-07-11T09:17:36Z</time>
      </trkpt>
      <trkpt lat="43.24467" lon="6.20039">
        <ele>194.32421875</ele>
        <time>2021-07-11T09:17:37Z</time>
      </trkpt>
      <trkpt lat="43.24463" lon="6.20032">
        <ele>194.0234375</ele>
        <time>2021-07-11T09:17:38Z</time>
      </trkpt>
      <trkpt lat="43.24458" lon="6.20026">
        <ele>193.84375</ele>
        <time>2021-07-11T09:17:39Z</time>
      </trkpt>
      <trkpt lat="43.24454" lon="6.20022">
        <ele>193.765625</ele>
        <time>2021-07-11T09:17:40Z</time>
      </trkpt>
      <trkpt lat="43.2445" lon="6.20018">
        <ele>193.765625</ele>
        <time>2021-07-11T09:17:41Z</time>
      </trkpt>
      <trkpt lat="43.24441" lon="6.20012">
        <ele>193.1953125</ele>
        <time>2021-07-11T09:17:48Z</time>
      </trkpt>
      <trkpt lat="43.24434" lon="6.20002">
        <ele>193.40625</ele>
        <time>2021-07-11T09:18:00Z</time>
      </trkpt>
      <trkpt lat="43.24418" lon="6.19981">
        <ele>194.7890625</ele>
        <time>2021-07-11T09:18:08Z</time>
      </trkpt>
      <trkpt lat="43.24417" lon="6.19977">
        <ele>195.109375</ele>
        <time>2021-07-11T09:18:09Z</time>
      </trkpt>
      <trkpt lat="43.24416" lon="6.19975">
        <ele>195.16015625</ele>
        <time>2021-07-11T09:18:10Z</time>
      </trkpt>
      <trkpt lat="43.24414" lon="6.19973">
        <ele>195.08203125</ele>
        <time>2021-07-11T09:18:11Z</time>
      </trkpt>
      <trkpt lat="43.24411" lon="6.1997">
        <ele>195.203125</ele>
        <time>2021-07-11T09:18:12Z</time>
      </trkpt>
      <trkpt lat="43.24409" lon="6.19966">
        <ele>195.49609375</ele>
        <time>2021-07-11T09:18:13Z</time>
      </trkpt>
      <trkpt lat="43.24408" lon="6.19962">
        <ele>195.9375</ele>
        <time>2021-07-11T09:18:14Z</time>
      </trkpt>
      <trkpt lat="43.24406" lon="6.19959">
        <ele>196.23046875</ele>
        <time>2021-07-11T09:18:15Z</time>
      </trkpt>
      <trkpt lat="43.24404" lon="6.19958">
        <ele>196.18359375</ele>
        <time>2021-07-11T09:18:16Z</time>
      </trkpt>
      <trkpt lat="43.24401" lon="6.19955">
        <ele>196.26171875</ele>
        <time>2021-07-11T09:18:17Z</time>
      </trkpt>
      <trkpt lat="43.24399" lon="6.19953">
        <ele>196.39453125</ele>
        <time>2021-07-11T09:18:18Z</time>
      </trkpt>
      <trkpt lat="43.24396" lon="6.1995">
        <ele>196.42578125</ele>
        <time>2021-07-11T09:18:19Z</time>
      </trkpt>
      <trkpt lat="43.24393" lon="6.19948">
        <ele>196.40625</ele>
        <time>2021-07-11T09:18:20Z</time>
      </trkpt>
      <trkpt lat="43.24372" lon="6.19916">
        <ele>197.578125</ele>
        <time>2021-07-11T09:18:30Z</time>
      </trkpt>
      <trkpt lat="43.2437" lon="6.19914">
        <ele>197.40234375</ele>
        <time>2021-07-11T09:18:31Z</time>
      </trkpt>
      <trkpt lat="43.24368" lon="6.19912">
        <ele>197.3359375</ele>
        <time>2021-07-11T09:18:32Z</time>
      </trkpt>
      <trkpt lat="43.24367" lon="6.1991">
        <ele>197.5546875</ele>
        <time>2021-07-11T09:18:33Z</time>
      </trkpt>
      <trkpt lat="43.24366" lon="6.19907">
        <ele>197.921875</ele>
        <time>2021-07-11T09:18:34Z</time>
      </trkpt>
      <trkpt lat="43.24365" lon="6.19905">
        <ele>198.1484375</ele>
        <time>2021-07-11T09:18:35Z</time>
      </trkpt>
      <trkpt lat="43.24363" lon="6.19902">
        <ele>198.0859375</ele>
        <time>2021-07-11T09:18:36Z</time>
      </trkpt>
      <trkpt lat="43.24361" lon="6.199">
        <ele>197.9921875</ele>
        <time>2021-07-11T09:18:37Z</time>
      </trkpt>
      <trkpt lat="43.24359" lon="6.19897">
        <ele>197.9375</ele>
        <time>2021-07-11T09:18:38Z</time>
      </trkpt>
      <trkpt lat="43.24356" lon="6.19895">
        <ele>197.7109375</ele>
        <time>2021-07-11T09:18:39Z</time>
      </trkpt>
      <trkpt lat="43.24354" lon="6.19892">
        <ele>197.71875</ele>
        <time>2021-07-11T09:18:40Z</time>
      </trkpt>
      <trkpt lat="43.24351" lon="6.19889">
        <ele>197.6953125</ele>
        <time>2021-07-11T09:18:41Z</time>
      </trkpt>
      <trkpt lat="43.24348" lon="6.19887">
        <ele>197.34375</ele>
        <time>2021-07-11T09:18:42Z</time>
      </trkpt>
      <trkpt lat="43.24345" lon="6.19885">
        <ele>196.953125</ele>
        <time>2021-07-11T09:18:43Z</time>
      </trkpt>
      <trkpt lat="43.24341" lon="6.19883">
        <ele>196.609375</ele>
        <time>2021-07-11T09:18:44Z</time>
      </trkpt>
      <trkpt lat="43.24338" lon="6.19882">
        <ele>196.0625</ele>
        <time>2021-07-11T09:18:45Z</time>
      </trkpt>
      <trkpt lat="43.24325" lon="6.19877">
        <ele>194.3359375</ele>
        <time>2021-07-11T09:18:48Z</time>
      </trkpt>
      <trkpt lat="43.24321" lon="6.19875">
        <ele>193.9921875</ele>
        <time>2021-07-11T09:18:49Z</time>
      </trkpt>
      <trkpt lat="43.24318" lon="6.19872">
        <ele>193.8359375</ele>
        <time>2021-07-11T09:18:50Z</time>
      </trkpt>
      <trkpt lat="43.24315" lon="6.19868">
        <ele>194</ele>
        <time>2021-07-11T09:18:51Z</time>
      </trkpt>
      <trkpt lat="43.24313" lon="6.19865">
        <ele>194.21484375</ele>
        <time>2021-07-11T09:18:52Z</time>
      </trkpt>
      <trkpt lat="43.24311" lon="6.19863">
        <ele>194.33984375</ele>
        <time>2021-07-11T09:18:53Z</time>
      </trkpt>
      <trkpt lat="43.24309" lon="6.19861">
        <ele>194.32421875</ele>
        <time>2021-07-11T09:18:54Z</time>
      </trkpt>
      <trkpt lat="43.24306" lon="6.19858">
        <ele>194.3359375</ele>
        <time>2021-07-11T09:18:55Z</time>
      </trkpt>
      <trkpt lat="43.24303" lon="6.19856">
        <ele>194.44140625</ele>
        <time>2021-07-11T09:18:56Z</time>
      </trkpt>
      <trkpt lat="43.24301" lon="6.19853">
        <ele>194.55859375</ele>
        <time>2021-07-11T09:18:57Z</time>
      </trkpt>
      <trkpt lat="43.24299" lon="6.19851">
        <ele>194.6796875</ele>
        <time>2021-07-11T09:18:58Z</time>
      </trkpt>
      <trkpt lat="43.24297" lon="6.19849">
        <ele>194.83203125</ele>
        <time>2021-07-11T09:18:59Z</time>
      </trkpt>
      <trkpt lat="43.24295" lon="6.19846">
        <ele>195.0859375</ele>
        <time>2021-07-11T09:19:00Z</time>
      </trkpt>
      <trkpt lat="43.24279" lon="6.19831">
        <ele>195.41015625</ele>
        <time>2021-07-11T09:19:05Z</time>
      </trkpt>
      <trkpt lat="43.24254" lon="6.1981">
        <ele>195.50390625</ele>
        <time>2021-07-11T09:19:13Z</time>
      </trkpt>
      <trkpt lat="43.24241" lon="6.1979">
        <ele>197.44140625</ele>
        <time>2021-07-11T09:19:23Z</time>
      </trkpt>
      <trkpt lat="43.24237" lon="6.19786">
        <ele>197.44921875</ele>
        <time>2021-07-11T09:19:35Z</time>
      </trkpt>
      <trkpt lat="43.24236" lon="6.19784">
        <ele>197.53515625</ele>
        <time>2021-07-11T09:20:10Z</time>
      </trkpt>
      <trkpt lat="43.24234" lon="6.19786">
        <ele>196.8984375</ele>
        <time>2021-07-11T09:20:41Z</time>
      </trkpt>
      <trkpt lat="43.24238" lon="6.19789">
        <ele>197.11328125</ele>
        <time>2021-07-11T09:20:47Z</time>
      </trkpt>
      <trkpt lat="43.24244" lon="6.19795">
        <ele>196.95703125</ele>
        <time>2021-07-11T09:20:51Z</time>
      </trkpt>
      <trkpt lat="43.24277" lon="6.1983">
        <ele>195.24609375</ele>
        <time>2021-07-11T09:21:04Z</time>
      </trkpt>
      <trkpt lat="43.24314" lon="6.19866">
        <ele>194.2734375</ele>
        <time>2021-07-11T09:21:16Z</time>
      </trkpt>
      <trkpt lat="43.24324" lon="6.19876">
        <ele>194.37890625</ele>
        <time>2021-07-11T09:21:21Z</time>
      </trkpt>
      <trkpt lat="43.24324" lon="6.19875">
        <ele>194.54296875</ele>
        <time>2021-07-11T09:21:33Z</time>
      </trkpt>
      <trkpt lat="43.24321" lon="6.19873">
        <ele>194.28125</ele>
        <time>2021-07-11T09:21:38Z</time>
      </trkpt>
      <trkpt lat="43.2432" lon="6.19872">
        <ele>194.1484375</ele>
        <time>2021-07-11T09:21:39Z</time>
      </trkpt>
      <trkpt lat="43.24318" lon="6.19871">
        <ele>194.09765625</ele>
        <time>2021-07-11T09:21:40Z</time>
      </trkpt>
      <trkpt lat="43.24316" lon="6.19868">
        <ele>194.22265625</ele>
        <time>2021-07-11T09:21:41Z</time>
      </trkpt>
      <trkpt lat="43.24314" lon="6.19865">
        <ele>194.484375</ele>
        <time>2021-07-11T09:21:42Z</time>
      </trkpt>
      <trkpt lat="43.24306" lon="6.19858">
        <ele>194.46484375</ele>
        <time>2021-07-11T09:21:45Z</time>
      </trkpt>
      <trkpt lat="43.24279" lon="6.19831">
        <ele>195.52734375</ele>
        <time>2021-07-11T09:21:54Z</time>
      </trkpt>
      <trkpt lat="43.24264" lon="6.19821">
        <ele>194.9765625</ele>
        <time>2021-07-11T09:21:58Z</time>
      </trkpt>
      <trkpt lat="43.24261" lon="6.19818">
        <ele>195.00390625</ele>
        <time>2021-07-11T09:21:59Z</time>
      </trkpt>
      <trkpt lat="43.24235" lon="6.19785">
        <ele>197.2265625</ele>
        <time>2021-07-11T09:22:08Z</time>
      </trkpt>
      <trkpt lat="43.24208" lon="6.19756">
        <ele>197.421875</ele>
        <time>2021-07-11T09:22:14Z</time>
      </trkpt>
      <trkpt lat="43.24203" lon="6.19749">
        <ele>197.60546875</ele>
        <time>2021-07-11T09:22:15Z</time>
      </trkpt>
      <trkpt lat="43.242" lon="6.19742">
        <ele>197.984375</ele>
        <time>2021-07-11T09:22:16Z</time>
      </trkpt>
      <trkpt lat="43.24188" lon="6.19715">
        <ele>199.01171875</ele>
        <time>2021-07-11T09:22:20Z</time>
      </trkpt>
      <trkpt lat="43.24186" lon="6.19709">
        <ele>199.265625</ele>
        <time>2021-07-11T09:22:21Z</time>
      </trkpt>
      <trkpt lat="43.24183" lon="6.19705">
        <ele>199.28125</ele>
        <time>2021-07-11T09:22:22Z</time>
      </trkpt>
      <trkpt lat="43.2418" lon="6.19701">
        <ele>199.125</ele>
        <time>2021-07-11T09:22:23Z</time>
      </trkpt>
      <trkpt lat="43.24178" lon="6.19697">
        <ele>198.94140625</ele>
        <time>2021-07-11T09:22:24Z</time>
      </trkpt>
      <trkpt lat="43.24174" lon="6.19687">
        <ele>198.86328125</ele>
        <time>2021-07-11T09:22:26Z</time>
      </trkpt>
      <trkpt lat="43.24171" lon="6.19642">
        <ele>201.39453125</ele>
        <time>2021-07-11T09:22:36Z</time>
      </trkpt>
      <trkpt lat="43.24172" lon="6.19595">
        <ele>202.16015625</ele>
        <time>2021-07-11T09:22:46Z</time>
      </trkpt>
      <trkpt lat="43.24171" lon="6.1959">
        <ele>201.875</ele>
        <time>2021-07-11T09:22:47Z</time>
      </trkpt>
      <trkpt lat="43.24174" lon="6.19555">
        <ele>201.26171875</ele>
        <time>2021-07-11T09:22:52Z</time>
      </trkpt>
      <trkpt lat="43.24179" lon="6.1953">
        <ele>200.84765625</ele>
        <time>2021-07-11T09:22:55Z</time>
      </trkpt>
      <trkpt lat="43.24185" lon="6.19505">
        <ele>199.87890625</ele>
        <time>2021-07-11T09:22:58Z</time>
      </trkpt>
      <trkpt lat="43.24191" lon="6.19481">
        <ele>198.328125</ele>
        <time>2021-07-11T09:23:01Z</time>
      </trkpt>
      <trkpt lat="43.24199" lon="6.19445">
        <ele>195.8125</ele>
        <time>2021-07-11T09:23:06Z</time>
      </trkpt>
      <trkpt lat="43.24211" lon="6.19409">
        <ele>191.5859375</ele>
        <time>2021-07-11T09:23:12Z</time>
      </trkpt>
      <trkpt lat="43.24216" lon="6.19388">
        <ele>188.59765625</ele>
        <time>2021-07-11T09:23:15Z</time>
      </trkpt>
      <trkpt lat="43.24218" lon="6.19372">
        <ele>186.20703125</ele>
        <time>2021-07-11T09:23:19Z</time>
      </trkpt>
      <trkpt lat="43.24219" lon="6.19367">
        <ele>185.59765625</ele>
        <time>2021-07-11T09:23:23Z</time>
      </trkpt>
      <trkpt lat="43.24225" lon="6.1934">
        <ele>181.40625</ele>
        <time>2021-07-11T09:23:27Z</time>
      </trkpt>
      <trkpt lat="43.24227" lon="6.19321">
        <ele>178.55078125</ele>
        <time>2021-07-11T09:23:29Z</time>
      </trkpt>
      <trkpt lat="43.24229" lon="6.19312">
        <ele>176.8515625</ele>
        <time>2021-07-11T09:23:30Z</time>
      </trkpt>
      <trkpt lat="43.24234" lon="6.19271">
        <ele>171.0703125</ele>
        <time>2021-07-11T09:23:35Z</time>
      </trkpt>
      <trkpt lat="43.24235" lon="6.19264">
        <ele>170.34765625</ele>
        <time>2021-07-11T09:23:36Z</time>
      </trkpt>
      <trkpt lat="43.24236" lon="6.19256">
        <ele>169.625</ele>
        <time>2021-07-11T09:23:37Z</time>
      </trkpt>
      <trkpt lat="43.24238" lon="6.19249">
        <ele>168.9375</ele>
        <time>2021-07-11T09:23:38Z</time>
      </trkpt>
      <trkpt lat="43.24238" lon="6.19241">
        <ele>168.37890625</ele>
        <time>2021-07-11T09:23:39Z</time>
      </trkpt>
      <trkpt lat="43.24238" lon="6.19232">
        <ele>167.984375</ele>
        <time>2021-07-11T09:23:40Z</time>
      </trkpt>
      <trkpt lat="43.24238" lon="6.19202">
        <ele>167.59765625</ele>
        <time>2021-07-11T09:23:43Z</time>
      </trkpt>
      <trkpt lat="43.24237" lon="6.19193">
        <ele>167.71484375</ele>
        <time>2021-07-11T09:23:44Z</time>
      </trkpt>
      <trkpt lat="43.24235" lon="6.19184">
        <ele>168.0859375</ele>
        <time>2021-07-11T09:23:45Z</time>
      </trkpt>
      <trkpt lat="43.24233" lon="6.19175">
        <ele>168.3515625</ele>
        <time>2021-07-11T09:23:46Z</time>
      </trkpt>
      <trkpt lat="43.24226" lon="6.19145">
        <ele>167.4296875</ele>
        <time>2021-07-11T09:23:49Z</time>
      </trkpt>
      <trkpt lat="43.24223" lon="6.19135">
        <ele>166.78515625</ele>
        <time>2021-07-11T09:23:50Z</time>
      </trkpt>
      <trkpt lat="43.24212" lon="6.19105">
        <ele>166.0859375</ele>
        <time>2021-07-11T09:23:53Z</time>
      </trkpt>
      <trkpt lat="43.24209" lon="6.19101">
        <ele>166.50390625</ele>
        <time>2021-07-11T09:23:54Z</time>
      </trkpt>
      <trkpt lat="43.24204" lon="6.19099">
        <ele>167.1484375</ele>
        <time>2021-07-11T09:23:55Z</time>
      </trkpt>
      <trkpt lat="43.242" lon="6.19097">
        <ele>167.76171875</ele>
        <time>2021-07-11T09:23:56Z</time>
      </trkpt>
      <trkpt lat="43.24197" lon="6.19094">
        <ele>167.83203125</ele>
        <time>2021-07-11T09:23:57Z</time>
      </trkpt>
      <trkpt lat="43.24195" lon="6.1909">
        <ele>167.47265625</ele>
        <time>2021-07-11T09:23:58Z</time>
      </trkpt>
      <trkpt lat="43.24194" lon="6.19085">
        <ele>167.14453125</ele>
        <time>2021-07-11T09:23:59Z</time>
      </trkpt>
      <trkpt lat="43.24191" lon="6.1908">
        <ele>166.80078125</ele>
        <time>2021-07-11T09:24:00Z</time>
      </trkpt>
      <trkpt lat="43.24189" lon="6.19075">
        <ele>166.4609375</ele>
        <time>2021-07-11T09:24:01Z</time>
      </trkpt>
      <trkpt lat="43.24187" lon="6.1907">
        <ele>166.19921875</ele>
        <time>2021-07-11T09:24:02Z</time>
      </trkpt>
      <trkpt lat="43.24185" lon="6.19065">
        <ele>166.0703125</ele>
        <time>2021-07-11T09:24:03Z</time>
      </trkpt>
      <trkpt lat="43.24183" lon="6.19063">
        <ele>165.94921875</ele>
        <time>2021-07-11T09:24:12Z</time>
      </trkpt>
      <trkpt lat="43.24182" lon="6.19064">
        <ele>165.84375</ele>
        <time>2021-07-11T09:24:17Z</time>
      </trkpt>
      <trkpt lat="43.24187" lon="6.19073">
        <ele>166.26953125</ele>
        <time>2021-07-11T09:24:22Z</time>
      </trkpt>
      <trkpt lat="43.24189" lon="6.19075">
        <ele>166.4453125</ele>
        <time>2021-07-11T09:24:23Z</time>
      </trkpt>
      <trkpt lat="43.2419" lon="6.19077">
        <ele>166.61328125</ele>
        <time>2021-07-11T09:24:24Z</time>
      </trkpt>
      <trkpt lat="43.2419" lon="6.1908">
        <ele>166.74609375</ele>
        <time>2021-07-11T09:24:25Z</time>
      </trkpt>
      <trkpt lat="43.24191" lon="6.19084">
        <ele>166.90625</ele>
        <time>2021-07-11T09:24:26Z</time>
      </trkpt>
      <trkpt lat="43.24192" lon="6.19087">
        <ele>167.1015625</ele>
        <time>2021-07-11T09:24:27Z</time>
      </trkpt>
      <trkpt lat="43.24194" lon="6.1909">
        <ele>167.3046875</ele>
        <time>2021-07-11T09:24:28Z</time>
      </trkpt>
      <trkpt lat="43.24195" lon="6.19093">
        <ele>167.51953125</ele>
        <time>2021-07-11T09:24:29Z</time>
      </trkpt>
      <trkpt lat="43.24196" lon="6.19097">
        <ele>167.77734375</ele>
        <time>2021-07-11T09:24:30Z</time>
      </trkpt>
      <trkpt lat="43.24198" lon="6.19099">
        <ele>168.07421875</ele>
        <time>2021-07-11T09:24:31Z</time>
      </trkpt>
      <trkpt lat="43.242" lon="6.19102">
        <ele>167.94921875</ele>
        <time>2021-07-11T09:24:32Z</time>
      </trkpt>
      <trkpt lat="43.24203" lon="6.19103">
        <ele>167.53125</ele>
        <time>2021-07-11T09:24:33Z</time>
      </trkpt>
      <trkpt lat="43.24211" lon="6.19096">
        <ele>165.8984375</ele>
        <time>2021-07-11T09:24:37Z</time>
      </trkpt>
      <trkpt lat="43.24211" lon="6.19093">
        <ele>165.68359375</ele>
        <time>2021-07-11T09:24:38Z</time>
      </trkpt>
      <trkpt lat="43.24211" lon="6.1909">
        <ele>165.55078125</ele>
        <time>2021-07-11T09:24:39Z</time>
      </trkpt>
      <trkpt lat="43.2421" lon="6.19087">
        <ele>165.46875</ele>
        <time>2021-07-11T09:24:40Z</time>
      </trkpt>
      <trkpt lat="43.2421" lon="6.19084">
        <ele>165.3984375</ele>
        <time>2021-07-11T09:24:41Z</time>
      </trkpt>
      <trkpt lat="43.24209" lon="6.19082">
        <ele>165.43359375</ele>
        <time>2021-07-11T09:24:42Z</time>
      </trkpt>
      <trkpt lat="43.24208" lon="6.1908">
        <ele>165.51953125</ele>
        <time>2021-07-11T09:24:43Z</time>
      </trkpt>
      <trkpt lat="43.24193" lon="6.19028">
        <ele>166.80859375</ele>
        <time>2021-07-11T09:24:57Z</time>
      </trkpt>
      <trkpt lat="43.24186" lon="6.18992">
        <ele>166.484375</ele>
        <time>2021-07-11T09:25:06Z</time>
      </trkpt>
      <trkpt lat="43.2418" lon="6.1897">
        <ele>166.6796875</ele>
        <time>2021-07-11T09:25:10Z</time>
      </trkpt>
      <trkpt lat="43.24178" lon="6.18966">
        <ele>166.9296875</ele>
        <time>2021-07-11T09:25:11Z</time>
      </trkpt>
      <trkpt lat="43.24175" lon="6.18961">
        <ele>167.29296875</ele>
        <time>2021-07-11T09:25:12Z</time>
      </trkpt>
      <trkpt lat="43.24173" lon="6.18957">
        <ele>167.734375</ele>
        <time>2021-07-11T09:25:13Z</time>
      </trkpt>
      <trkpt lat="43.2417" lon="6.18953">
        <ele>167.79296875</ele>
        <time>2021-07-11T09:25:14Z</time>
      </trkpt>
      <trkpt lat="43.24169" lon="6.18949">
        <ele>167.6171875</ele>
        <time>2021-07-11T09:25:15Z</time>
      </trkpt>
      <trkpt lat="43.24167" lon="6.18944">
        <ele>167.4453125</ele>
        <time>2021-07-11T09:25:16Z</time>
      </trkpt>
      <trkpt lat="43.24164" lon="6.18934">
        <ele>167.26171875</ele>
        <time>2021-07-11T09:25:18Z</time>
      </trkpt>
      <trkpt lat="43.24162" lon="6.18929">
        <ele>167.25</ele>
        <time>2021-07-11T09:25:19Z</time>
      </trkpt>
      <trkpt lat="43.24161" lon="6.18923">
        <ele>167.4140625</ele>
        <time>2021-07-11T09:25:20Z</time>
      </trkpt>
      <trkpt lat="43.24159" lon="6.18917">
        <ele>167.63671875</ele>
        <time>2021-07-11T09:25:21Z</time>
      </trkpt>
      <trkpt lat="43.24157" lon="6.18912">
        <ele>167.96875</ele>
        <time>2021-07-11T09:25:22Z</time>
      </trkpt>
      <trkpt lat="43.24155" lon="6.18907">
        <ele>168.3125</ele>
        <time>2021-07-11T09:25:23Z</time>
      </trkpt>
      <trkpt lat="43.24154" lon="6.18903">
        <ele>168.625</ele>
        <time>2021-07-11T09:25:24Z</time>
      </trkpt>
      <trkpt lat="43.24153" lon="6.18899">
        <ele>168.953125</ele>
        <time>2021-07-11T09:25:25Z</time>
      </trkpt>
      <trkpt lat="43.24148" lon="6.1885">
        <ele>170.734375</ele>
        <time>2021-07-11T09:25:36Z</time>
      </trkpt>
      <trkpt lat="43.24133" lon="6.18796">
        <ele>172.59765625</ele>
        <time>2021-07-11T09:25:48Z</time>
      </trkpt>
      <trkpt lat="43.24125" lon="6.18756">
        <ele>173.625</ele>
        <time>2021-07-11T09:25:59Z</time>
      </trkpt>
      <trkpt lat="43.2412" lon="6.18741">
        <ele>174.328125</ele>
        <time>2021-07-11T09:26:10Z</time>
      </trkpt>
      <trkpt lat="43.24113" lon="6.18714">
        <ele>174.4453125</ele>
        <time>2021-07-11T09:26:16Z</time>
      </trkpt>
      <trkpt lat="43.2411" lon="6.18708">
        <ele>174.41796875</ele>
        <time>2021-07-11T09:26:17Z</time>
      </trkpt>
      <trkpt lat="43.24108" lon="6.18701">
        <ele>174.33984375</ele>
        <time>2021-07-11T09:26:18Z</time>
      </trkpt>
      <trkpt lat="43.24107" lon="6.18694">
        <ele>174.1640625</ele>
        <time>2021-07-11T09:26:19Z</time>
      </trkpt>
      <trkpt lat="43.24106" lon="6.18686">
        <ele>173.97265625</ele>
        <time>2021-07-11T09:26:20Z</time>
      </trkpt>
      <trkpt lat="43.24105" lon="6.18679">
        <ele>173.765625</ele>
        <time>2021-07-11T09:26:21Z</time>
      </trkpt>
      <trkpt lat="43.24103" lon="6.18664">
        <ele>172.5078125</ele>
        <time>2021-07-11T09:26:23Z</time>
      </trkpt>
      <trkpt lat="43.24101" lon="6.18657">
        <ele>172.171875</ele>
        <time>2021-07-11T09:26:24Z</time>
      </trkpt>
      <trkpt lat="43.24097" lon="6.18651">
        <ele>172.0234375</ele>
        <time>2021-07-11T09:26:25Z</time>
      </trkpt>
      <trkpt lat="43.2409" lon="6.18638">
        <ele>171.66796875</ele>
        <time>2021-07-11T09:26:27Z</time>
      </trkpt>
      <trkpt lat="43.24088" lon="6.18631">
        <ele>171.421875</ele>
        <time>2021-07-11T09:26:28Z</time>
      </trkpt>
      <trkpt lat="43.24087" lon="6.18624">
        <ele>171.06640625</ele>
        <time>2021-07-11T09:26:29Z</time>
      </trkpt>
      <trkpt lat="43.24085" lon="6.18616">
        <ele>170.6484375</ele>
        <time>2021-07-11T09:26:30Z</time>
      </trkpt>
      <trkpt lat="43.24081" lon="6.18609">
        <ele>170.375</ele>
        <time>2021-07-11T09:26:31Z</time>
      </trkpt>
      <trkpt lat="43.24071" lon="6.18596">
        <ele>170.22265625</ele>
        <time>2021-07-11T09:26:33Z</time>
      </trkpt>
      <trkpt lat="43.24067" lon="6.18588">
        <ele>169.8984375</ele>
        <time>2021-07-11T09:26:34Z</time>
      </trkpt>
      <trkpt lat="43.24063" lon="6.18583">
        <ele>169.79296875</ele>
        <time>2021-07-11T09:26:35Z</time>
      </trkpt>
      <trkpt lat="43.24059" lon="6.18578">
        <ele>169.63671875</ele>
        <time>2021-07-11T09:26:36Z</time>
      </trkpt>
      <trkpt lat="43.24056" lon="6.18573">
        <ele>169.03125</ele>
        <time>2021-07-11T09:26:37Z</time>
      </trkpt>
      <trkpt lat="43.24053" lon="6.18567">
        <ele>168.42578125</ele>
        <time>2021-07-11T09:26:38Z</time>
      </trkpt>
      <trkpt lat="43.24049" lon="6.18561">
        <ele>167.63671875</ele>
        <time>2021-07-11T09:26:39Z</time>
      </trkpt>
      <trkpt lat="43.24045" lon="6.18555">
        <ele>166.859375</ele>
        <time>2021-07-11T09:26:40Z</time>
      </trkpt>
      <trkpt lat="43.24042" lon="6.18548">
        <ele>166.06640625</ele>
        <time>2021-07-11T09:26:41Z</time>
      </trkpt>
      <trkpt lat="43.24034" lon="6.18527">
        <ele>164.11328125</ele>
        <time>2021-07-11T09:26:44Z</time>
      </trkpt>
      <trkpt lat="43.24028" lon="6.1851">
        <ele>162.53515625</ele>
        <time>2021-07-11T09:26:47Z</time>
      </trkpt>
      <trkpt lat="43.24027" lon="6.18504">
        <ele>161.84765625</ele>
        <time>2021-07-11T09:26:48Z</time>
      </trkpt>
      <trkpt lat="43.2403" lon="6.18476">
        <ele>159.0078125</ele>
        <time>2021-07-11T09:26:57Z</time>
      </trkpt>
      <trkpt lat="43.24033" lon="6.18463">
        <ele>157.69921875</ele>
        <time>2021-07-11T09:27:10Z</time>
      </trkpt>
      <trkpt lat="43.24032" lon="6.18459">
        <ele>157.2734375</ele>
        <time>2021-07-11T09:27:11Z</time>
      </trkpt>
      <trkpt lat="43.24031" lon="6.18454">
        <ele>156.56640625</ele>
        <time>2021-07-11T09:27:12Z</time>
      </trkpt>
      <trkpt lat="43.2403" lon="6.18448">
        <ele>155.73046875</ele>
        <time>2021-07-11T09:27:13Z</time>
      </trkpt>
      <trkpt lat="43.24031" lon="6.18443">
        <ele>155.00390625</ele>
        <time>2021-07-11T09:27:14Z</time>
      </trkpt>
      <trkpt lat="43.24032" lon="6.18438">
        <ele>154.3203125</ele>
        <time>2021-07-11T09:27:15Z</time>
      </trkpt>
      <trkpt lat="43.24032" lon="6.18433">
        <ele>153.58984375</ele>
        <time>2021-07-11T09:27:16Z</time>
      </trkpt>
      <trkpt lat="43.2403" lon="6.18428">
        <ele>152.828125</ele>
        <time>2021-07-11T09:27:17Z</time>
      </trkpt>
      <trkpt lat="43.24028" lon="6.18422">
        <ele>152.01171875</ele>
        <time>2021-07-11T09:27:18Z</time>
      </trkpt>
      <trkpt lat="43.24025" lon="6.18416">
        <ele>151.29296875</ele>
        <time>2021-07-11T09:27:19Z</time>
      </trkpt>
      <trkpt lat="43.24022" lon="6.18411">
        <ele>150.73046875</ele>
        <time>2021-07-11T09:27:20Z</time>
      </trkpt>
      <trkpt lat="43.24019" lon="6.18406">
        <ele>150.1640625</ele>
        <time>2021-07-11T09:27:21Z</time>
      </trkpt>
      <trkpt lat="43.24017" lon="6.18401">
        <ele>149.53515625</ele>
        <time>2021-07-11T09:27:22Z</time>
      </trkpt>
      <trkpt lat="43.24015" lon="6.18395">
        <ele>148.76953125</ele>
        <time>2021-07-11T09:27:23Z</time>
      </trkpt>
      <trkpt lat="43.24012" lon="6.18384">
        <ele>147.34375</ele>
        <time>2021-07-11T09:27:25Z</time>
      </trkpt>
      <trkpt lat="43.24009" lon="6.18379">
        <ele>146.7265625</ele>
        <time>2021-07-11T09:27:26Z</time>
      </trkpt>
      <trkpt lat="43.24006" lon="6.18374">
        <ele>146.10546875</ele>
        <time>2021-07-11T09:27:27Z</time>
      </trkpt>
      <trkpt lat="43.24003" lon="6.1837">
        <ele>145.29296875</ele>
        <time>2021-07-11T09:27:28Z</time>
      </trkpt>
      <trkpt lat="43.24" lon="6.18366">
        <ele>144.2734375</ele>
        <time>2021-07-11T09:27:29Z</time>
      </trkpt>
      <trkpt lat="43.23996" lon="6.18362">
        <ele>143.21484375</ele>
        <time>2021-07-11T09:27:30Z</time>
      </trkpt>
      <trkpt lat="43.23978" lon="6.18344">
        <ele>138.89453125</ele>
        <time>2021-07-11T09:27:34Z</time>
      </trkpt>
      <trkpt lat="43.23975" lon="6.18338">
        <ele>137.7578125</ele>
        <time>2021-07-11T09:27:35Z</time>
      </trkpt>
      <trkpt lat="43.23973" lon="6.18331">
        <ele>136.59765625</ele>
        <time>2021-07-11T09:27:36Z</time>
      </trkpt>
      <trkpt lat="43.23965" lon="6.1831">
        <ele>133.08984375</ele>
        <time>2021-07-11T09:27:39Z</time>
      </trkpt>
      <trkpt lat="43.23963" lon="6.18303">
        <ele>131.91796875</ele>
        <time>2021-07-11T09:27:40Z</time>
      </trkpt>
      <trkpt lat="43.23963" lon="6.18296">
        <ele>130.87890625</ele>
        <time>2021-07-11T09:27:41Z</time>
      </trkpt>
      <trkpt lat="43.23962" lon="6.1829">
        <ele>129.96875</ele>
        <time>2021-07-11T09:27:42Z</time>
      </trkpt>
      <trkpt lat="43.23961" lon="6.18284">
        <ele>128.90625</ele>
        <time>2021-07-11T09:27:43Z</time>
      </trkpt>
      <trkpt lat="43.2396" lon="6.18277">
        <ele>127.84375</ele>
        <time>2021-07-11T09:27:44Z</time>
      </trkpt>
      <trkpt lat="43.23958" lon="6.1827">
        <ele>126.765625</ele>
        <time>2021-07-11T09:27:45Z</time>
      </trkpt>
      <trkpt lat="43.23957" lon="6.18263">
        <ele>125.75390625</ele>
        <time>2021-07-11T09:27:46Z</time>
      </trkpt>
      <trkpt lat="43.23955" lon="6.18256">
        <ele>124.80078125</ele>
        <time>2021-07-11T09:27:47Z</time>
      </trkpt>
      <trkpt lat="43.23954" lon="6.18251">
        <ele>124.07421875</ele>
        <time>2021-07-11T09:27:48Z</time>
      </trkpt>
      <trkpt lat="43.23954" lon="6.18246">
        <ele>123.35546875</ele>
        <time>2021-07-11T09:27:49Z</time>
      </trkpt>
      <trkpt lat="43.23954" lon="6.18241">
        <ele>122.5859375</ele>
        <time>2021-07-11T09:27:50Z</time>
      </trkpt>
      <trkpt lat="43.23954" lon="6.18237">
        <ele>121.96875</ele>
        <time>2021-07-11T09:27:51Z</time>
      </trkpt>
      <trkpt lat="43.23953" lon="6.18233">
        <ele>121.4921875</ele>
        <time>2021-07-11T09:27:52Z</time>
      </trkpt>
      <trkpt lat="43.23952" lon="6.1823">
        <ele>121.1015625</ele>
        <time>2021-07-11T09:27:53Z</time>
      </trkpt>
      <trkpt lat="43.23951" lon="6.18227">
        <ele>120.75</ele>
        <time>2021-07-11T09:27:54Z</time>
      </trkpt>
      <trkpt lat="43.23949" lon="6.18223">
        <ele>120.3359375</ele>
        <time>2021-07-11T09:27:55Z</time>
      </trkpt>
      <trkpt lat="43.23948" lon="6.18219">
        <ele>119.765625</ele>
        <time>2021-07-11T09:27:56Z</time>
      </trkpt>
      <trkpt lat="43.23948" lon="6.18216">
        <ele>119.35546875</ele>
        <time>2021-07-11T09:27:57Z</time>
      </trkpt>
      <trkpt lat="43.23945" lon="6.18213">
        <ele>118.828125</ele>
        <time>2021-07-11T09:28:12Z</time>
      </trkpt>
      <trkpt lat="43.23943" lon="6.18208">
        <ele>118.1484375</ele>
        <time>2021-07-11T09:28:20Z</time>
      </trkpt>
      <trkpt lat="43.23943" lon="6.18204">
        <ele>117.5703125</ele>
        <time>2021-07-11T09:28:21Z</time>
      </trkpt>
      <trkpt lat="43.23942" lon="6.182">
        <ele>116.75</ele>
        <time>2021-07-11T09:28:22Z</time>
      </trkpt>
      <trkpt lat="43.23941" lon="6.18194">
        <ele>115.7421875</ele>
        <time>2021-07-11T09:28:23Z</time>
      </trkpt>
      <trkpt lat="43.23941" lon="6.18189">
        <ele>114.77734375</ele>
        <time>2021-07-11T09:28:24Z</time>
      </trkpt>
      <trkpt lat="43.23942" lon="6.18184">
        <ele>113.984375</ele>
        <time>2021-07-11T09:28:25Z</time>
      </trkpt>
      <trkpt lat="43.23944" lon="6.18181">
        <ele>113.3046875</ele>
        <time>2021-07-11T09:28:26Z</time>
      </trkpt>
      <trkpt lat="43.23947" lon="6.18177">
        <ele>112.7265625</ele>
        <time>2021-07-11T09:28:27Z</time>
      </trkpt>
      <trkpt lat="43.2395" lon="6.18169">
        <ele>111.41015625</ele>
        <time>2021-07-11T09:28:29Z</time>
      </trkpt>
      <trkpt lat="43.23953" lon="6.18159">
        <ele>109.7265625</ele>
        <time>2021-07-11T09:28:31Z</time>
      </trkpt>
      <trkpt lat="43.23953" lon="6.18154">
        <ele>108.9375</ele>
        <time>2021-07-11T09:28:32Z</time>
      </trkpt>
      <trkpt lat="43.23951" lon="6.18147">
        <ele>108.40625</ele>
        <time>2021-07-11T09:28:33Z</time>
      </trkpt>
      <trkpt lat="43.2395" lon="6.18139">
        <ele>107.984375</ele>
        <time>2021-07-11T09:28:34Z</time>
      </trkpt>
      <trkpt lat="43.2395" lon="6.18131">
        <ele>107.38671875</ele>
        <time>2021-07-11T09:28:35Z</time>
      </trkpt>
      <trkpt lat="43.23951" lon="6.18123">
        <ele>106.68359375</ele>
        <time>2021-07-11T09:28:36Z</time>
      </trkpt>
      <trkpt lat="43.23952" lon="6.18115">
        <ele>105.9921875</ele>
        <time>2021-07-11T09:28:37Z</time>
      </trkpt>
      <trkpt lat="43.23955" lon="6.18101">
        <ele>104.73046875</ele>
        <time>2021-07-11T09:28:39Z</time>
      </trkpt>
      <trkpt lat="43.23954" lon="6.18087">
        <ele>104.11328125</ele>
        <time>2021-07-11T09:28:41Z</time>
      </trkpt>
      <trkpt lat="43.23953" lon="6.1808">
        <ele>103.9765625</ele>
        <time>2021-07-11T09:28:42Z</time>
      </trkpt>
      <trkpt lat="43.23951" lon="6.18073">
        <ele>103.93359375</ele>
        <time>2021-07-11T09:28:43Z</time>
      </trkpt>
      <trkpt lat="43.23935" lon="6.18004">
        <ele>101.859375</ele>
        <time>2021-07-11T09:28:52Z</time>
      </trkpt>
      <trkpt lat="43.23929" lon="6.17989">
        <ele>101.33984375</ele>
        <time>2021-07-11T09:28:54Z</time>
      </trkpt>
      <trkpt lat="43.23922" lon="6.17974">
        <ele>100.265625</ele>
        <time>2021-07-11T09:28:56Z</time>
      </trkpt>
      <trkpt lat="43.23919" lon="6.17967">
        <ele>99.58984375</ele>
        <time>2021-07-11T09:28:57Z</time>
      </trkpt>
      <trkpt lat="43.23916" lon="6.1796">
        <ele>98.8046875</ele>
        <time>2021-07-11T09:28:58Z</time>
      </trkpt>
      <trkpt lat="43.23912" lon="6.17953">
        <ele>97.9453125</ele>
        <time>2021-07-11T09:28:59Z</time>
      </trkpt>
      <trkpt lat="43.23909" lon="6.17949">
        <ele>97.20703125</ele>
        <time>2021-07-11T09:29:00Z</time>
      </trkpt>
      <trkpt lat="43.23904" lon="6.17946">
        <ele>96.69140625</ele>
        <time>2021-07-11T09:29:01Z</time>
      </trkpt>
      <trkpt lat="43.239" lon="6.17943">
        <ele>96.22265625</ele>
        <time>2021-07-11T09:29:02Z</time>
      </trkpt>
      <trkpt lat="43.23896" lon="6.17938">
        <ele>95.71875</ele>
        <time>2021-07-11T09:29:03Z</time>
      </trkpt>
      <trkpt lat="43.23893" lon="6.17932">
        <ele>95.15625</ele>
        <time>2021-07-11T09:29:04Z</time>
      </trkpt>
      <trkpt lat="43.23891" lon="6.17925">
        <ele>94.1015625</ele>
        <time>2021-07-11T09:29:05Z</time>
      </trkpt>
      <trkpt lat="43.23889" lon="6.17918">
        <ele>93.0546875</ele>
        <time>2021-07-11T09:29:06Z</time>
      </trkpt>
      <trkpt lat="43.23887" lon="6.17913">
        <ele>92.15625</ele>
        <time>2021-07-11T09:29:07Z</time>
      </trkpt>
      <trkpt lat="43.23885" lon="6.17908">
        <ele>91.26953125</ele>
        <time>2021-07-11T09:29:08Z</time>
      </trkpt>
      <trkpt lat="43.23883" lon="6.17903">
        <ele>90.54296875</ele>
        <time>2021-07-11T09:29:09Z</time>
      </trkpt>
      <trkpt lat="43.23882" lon="6.179">
        <ele>90.1015625</ele>
        <time>2021-07-11T09:29:10Z</time>
      </trkpt>
      <trkpt lat="43.23882" lon="6.17898">
        <ele>89.84765625</ele>
        <time>2021-07-11T09:29:11Z</time>
      </trkpt>
      <trkpt lat="43.2388" lon="6.17894">
        <ele>89.38671875</ele>
        <time>2021-07-11T09:29:24Z</time>
      </trkpt>
      <trkpt lat="43.23876" lon="6.17888">
        <ele>88.64453125</ele>
        <time>2021-07-11T09:29:56Z</time>
      </trkpt>
      <trkpt lat="43.23877" lon="6.17891">
        <ele>88.984375</ele>
        <time>2021-07-11T09:30:21Z</time>
      </trkpt>
      <trkpt lat="43.23879" lon="6.17895">
        <ele>89.42578125</ele>
        <time>2021-07-11T09:30:53Z</time>
      </trkpt>
      <trkpt lat="43.2388" lon="6.17897">
        <ele>89.61328125</ele>
        <time>2021-07-11T09:31:34Z</time>
      </trkpt>
      <trkpt lat="43.2388" lon="6.17898">
        <ele>89.69921875</ele>
        <time>2021-07-11T09:32:00Z</time>
      </trkpt>
      <trkpt lat="43.23878" lon="6.17897">
        <ele>89.52734375</ele>
        <time>2021-07-11T09:32:08Z</time>
      </trkpt>
      <trkpt lat="43.23877" lon="6.17897">
        <ele>89.4296875</ele>
        <time>2021-07-11T09:32:09Z</time>
      </trkpt>
      <trkpt lat="43.23875" lon="6.17896">
        <ele>89.23046875</ele>
        <time>2021-07-11T09:32:10Z</time>
      </trkpt>
      <trkpt lat="43.23873" lon="6.17893">
        <ele>88.91796875</ele>
        <time>2021-07-11T09:32:11Z</time>
      </trkpt>
      <trkpt lat="43.23873" lon="6.17889">
        <ele>88.5546875</ele>
        <time>2021-07-11T09:32:12Z</time>
      </trkpt>
      <trkpt lat="43.23873" lon="6.17886">
        <ele>88.27734375</ele>
        <time>2021-07-11T09:32:13Z</time>
      </trkpt>
      <trkpt lat="43.23875" lon="6.17883">
        <ele>88.1796875</ele>
        <time>2021-07-11T09:32:14Z</time>
      </trkpt>
      <trkpt lat="43.23878" lon="6.17882">
        <ele>88.2265625</ele>
        <time>2021-07-11T09:32:15Z</time>
      </trkpt>
      <trkpt lat="43.23881" lon="6.17882">
        <ele>88.375</ele>
        <time>2021-07-11T09:32:16Z</time>
      </trkpt>
      <trkpt lat="43.2389" lon="6.17882">
        <ele>88.7421875</ele>
        <time>2021-07-11T09:32:18Z</time>
      </trkpt>
      <trkpt lat="43.23896" lon="6.17879">
        <ele>88.6171875</ele>
        <time>2021-07-11T09:32:19Z</time>
      </trkpt>
      <trkpt lat="43.23902" lon="6.17875">
        <ele>88.15625</ele>
        <time>2021-07-11T09:32:20Z</time>
      </trkpt>
      <trkpt lat="43.23907" lon="6.17869">
        <ele>87.55078125</ele>
        <time>2021-07-11T09:32:21Z</time>
      </trkpt>
      <trkpt lat="43.23913" lon="6.17863">
        <ele>86.81640625</ele>
        <time>2021-07-11T09:32:22Z</time>
      </trkpt>
      <trkpt lat="43.23918" lon="6.17856">
        <ele>86.11328125</ele>
        <time>2021-07-11T09:32:23Z</time>
      </trkpt>
      <trkpt lat="43.23923" lon="6.17849">
        <ele>85.3203125</ele>
        <time>2021-07-11T09:32:24Z</time>
      </trkpt>
      <trkpt lat="43.23931" lon="6.17837">
        <ele>83.91015625</ele>
        <time>2021-07-11T09:32:26Z</time>
      </trkpt>
      <trkpt lat="43.23935" lon="6.17832">
        <ele>83.53515625</ele>
        <time>2021-07-11T09:32:27Z</time>
      </trkpt>
      <trkpt lat="43.23939" lon="6.17829">
        <ele>83.328125</ele>
        <time>2021-07-11T09:32:28Z</time>
      </trkpt>
      <trkpt lat="43.23943" lon="6.17827">
        <ele>83.24609375</ele>
        <time>2021-07-11T09:32:29Z</time>
      </trkpt>
      <trkpt lat="43.23948" lon="6.17824">
        <ele>83.19921875</ele>
        <time>2021-07-11T09:32:30Z</time>
      </trkpt>
      <trkpt lat="43.23951" lon="6.17822">
        <ele>83.20703125</ele>
        <time>2021-07-11T09:32:31Z</time>
      </trkpt>
      <trkpt lat="43.23994" lon="6.17783">
        <ele>85.359375</ele>
        <time>2021-07-11T09:32:45Z</time>
      </trkpt>
      <trkpt lat="43.24024" lon="6.17772">
        <ele>87.1875</ele>
        <time>2021-07-11T09:32:56Z</time>
      </trkpt>
      <trkpt lat="43.24039" lon="6.17767">
        <ele>88.09375</ele>
        <time>2021-07-11T09:33:02Z</time>
      </trkpt>
      <trkpt lat="43.2404" lon="6.17765">
        <ele>88.21875</ele>
        <time>2021-07-11T09:33:03Z</time>
      </trkpt>
      <trkpt lat="43.2404" lon="6.17762">
        <ele>88.29296875</ele>
        <time>2021-07-11T09:33:04Z</time>
      </trkpt>
      <trkpt lat="43.2404" lon="6.17759">
        <ele>88.28125</ele>
        <time>2021-07-11T09:33:05Z</time>
      </trkpt>
      <trkpt lat="43.24039" lon="6.17756">
        <ele>88.23828125</ele>
        <time>2021-07-11T09:33:06Z</time>
      </trkpt>
      <trkpt lat="43.24037" lon="6.17753">
        <ele>88.1796875</ele>
        <time>2021-07-11T09:33:07Z</time>
      </trkpt>
      <trkpt lat="43.24035" lon="6.17749">
        <ele>88.10546875</ele>
        <time>2021-07-11T09:33:08Z</time>
      </trkpt>
      <trkpt lat="43.24011" lon="6.17692">
        <ele>88.7734375</ele>
        <time>2021-07-11T09:33:22Z</time>
      </trkpt>
      <trkpt lat="43.24005" lon="6.17665">
        <ele>89.55078125</ele>
        <time>2021-07-11T09:33:27Z</time>
      </trkpt>
      <trkpt lat="43.24004" lon="6.17659">
        <ele>89.734375</ele>
        <time>2021-07-11T09:33:28Z</time>
      </trkpt>
      <trkpt lat="43.24004" lon="6.17636">
        <ele>89.96875</ele>
        <time>2021-07-11T09:33:32Z</time>
      </trkpt>
      <trkpt lat="43.24006" lon="6.17618">
        <ele>90.26171875</ele>
        <time>2021-07-11T09:33:35Z</time>
      </trkpt>
      <trkpt lat="43.24027" lon="6.17525">
        <ele>91.37890625</ele>
        <time>2021-07-11T09:33:51Z</time>
      </trkpt>
      <trkpt lat="43.24046" lon="6.17446">
        <ele>88.6171875</ele>
        <time>2021-07-11T09:34:05Z</time>
      </trkpt>
      <trkpt lat="43.24046" lon="6.17439">
        <ele>88.35546875</ele>
        <time>2021-07-11T09:34:06Z</time>
      </trkpt>
      <trkpt lat="43.24045" lon="6.17431">
        <ele>88.07421875</ele>
        <time>2021-07-11T09:34:07Z</time>
      </trkpt>
      <trkpt lat="43.24044" lon="6.17423">
        <ele>87.78515625</ele>
        <time>2021-07-11T09:34:08Z</time>
      </trkpt>
      <trkpt lat="43.24043" lon="6.17415">
        <ele>87.484375</ele>
        <time>2021-07-11T09:34:09Z</time>
      </trkpt>
      <trkpt lat="43.24025" lon="6.17329">
        <ele>83.38671875</ele>
        <time>2021-07-11T09:34:18Z</time>
      </trkpt>
      <trkpt lat="43.24014" lon="6.17278">
        <ele>80.90625</ele>
        <time>2021-07-11T09:34:23Z</time>
      </trkpt>
      <trkpt lat="43.23995" lon="6.17157">
        <ele>78.14453125</ele>
        <time>2021-07-11T09:34:36Z</time>
      </trkpt>
      <trkpt lat="43.23995" lon="6.17148">
        <ele>77.88671875</ele>
        <time>2021-07-11T09:34:37Z</time>
      </trkpt>
      <trkpt lat="43.23995" lon="6.17139">
        <ele>77.5</ele>
        <time>2021-07-11T09:34:38Z</time>
      </trkpt>
      <trkpt lat="43.23998" lon="6.17051">
        <ele>75.1484375</ele>
        <time>2021-07-11T09:34:47Z</time>
      </trkpt>
      <trkpt lat="43.23998" lon="6.17019">
        <ele>74.55078125</ele>
        <time>2021-07-11T09:34:50Z</time>
      </trkpt>
      <trkpt lat="43.24001" lon="6.16977">
        <ele>72.9140625</ele>
        <time>2021-07-11T09:34:54Z</time>
      </trkpt>
      <trkpt lat="43.24003" lon="6.16957">
        <ele>72.078125</ele>
        <time>2021-07-11T09:34:57Z</time>
      </trkpt>
      <trkpt lat="43.24003" lon="6.16947">
        <ele>71.67578125</ele>
        <time>2021-07-11T09:35:00Z</time>
      </trkpt>
      <trkpt lat="43.24005" lon="6.16946">
        <ele>71.57421875</ele>
        <time>2021-07-11T09:35:01Z</time>
      </trkpt>
      <trkpt lat="43.24008" lon="6.16947">
        <ele>71.5859375</ele>
        <time>2021-07-11T09:35:02Z</time>
      </trkpt>
      <trkpt lat="43.2401" lon="6.16949">
        <ele>71.6328125</ele>
        <time>2021-07-11T09:35:03Z</time>
      </trkpt>
      <trkpt lat="43.24018" lon="6.16956">
        <ele>71.921875</ele>
        <time>2021-07-11T09:35:13Z</time>
      </trkpt>
      <trkpt lat="43.24061" lon="6.1696">
        <ele>71.1328125</ele>
        <time>2021-07-11T09:35:26Z</time>
      </trkpt>
      <trkpt lat="43.24066" lon="6.1696">
        <ele>71.3125</ele>
        <time>2021-07-11T09:35:27Z</time>
      </trkpt>
      <trkpt lat="43.24082" lon="6.16962">
        <ele>71.984375</ele>
        <time>2021-07-11T09:35:30Z</time>
      </trkpt>
      <trkpt lat="43.24088" lon="6.16965">
        <ele>72.26953125</ele>
        <time>2021-07-11T09:35:31Z</time>
      </trkpt>
      <trkpt lat="43.24092" lon="6.16969">
        <ele>72.41796875</ele>
        <time>2021-07-11T09:35:32Z</time>
      </trkpt>
      <trkpt lat="43.24096" lon="6.16974">
        <ele>72.60546875</ele>
        <time>2021-07-11T09:35:33Z</time>
      </trkpt>
      <trkpt lat="43.24099" lon="6.1698">
        <ele>72.8125</ele>
        <time>2021-07-11T09:35:34Z</time>
      </trkpt>
      <trkpt lat="43.24101" lon="6.16986">
        <ele>73.07421875</ele>
        <time>2021-07-11T09:35:35Z</time>
      </trkpt>
      <trkpt lat="43.24104" lon="6.16992">
        <ele>73.5078125</ele>
        <time>2021-07-11T09:35:36Z</time>
      </trkpt>
      <trkpt lat="43.24107" lon="6.16997">
        <ele>73.86328125</ele>
        <time>2021-07-11T09:35:37Z</time>
      </trkpt>
      <trkpt lat="43.2411" lon="6.17">
        <ele>74.07421875</ele>
        <time>2021-07-11T09:35:38Z</time>
      </trkpt>
      <trkpt lat="43.24115" lon="6.17002">
        <ele>74.19921875</ele>
        <time>2021-07-11T09:35:39Z</time>
      </trkpt>
      <trkpt lat="43.2412" lon="6.17003">
        <ele>74.28515625</ele>
        <time>2021-07-11T09:35:40Z</time>
      </trkpt>
      <trkpt lat="43.24125" lon="6.17004">
        <ele>74.34765625</ele>
        <time>2021-07-11T09:35:41Z</time>
      </trkpt>
      <trkpt lat="43.24181" lon="6.17013">
        <ele>74.66796875</ele>
        <time>2021-07-11T09:35:53Z</time>
      </trkpt>
      <trkpt lat="43.24185" lon="6.17015">
        <ele>74.56640625</ele>
        <time>2021-07-11T09:35:54Z</time>
      </trkpt>
      <trkpt lat="43.24189" lon="6.17015">
        <ele>74.421875</ele>
        <time>2021-07-11T09:35:55Z</time>
      </trkpt>
      <trkpt lat="43.24194" lon="6.17015">
        <ele>74.24609375</ele>
        <time>2021-07-11T09:35:56Z</time>
      </trkpt>
      <trkpt lat="43.24199" lon="6.17014">
        <ele>74.05078125</ele>
        <time>2021-07-11T09:35:57Z</time>
      </trkpt>
      <trkpt lat="43.24215" lon="6.17012">
        <ele>73.9765625</ele>
        <time>2021-07-11T09:36:00Z</time>
      </trkpt>
      <trkpt lat="43.24235" lon="6.17014">
        <ele>74.375</ele>
        <time>2021-07-11T09:36:04Z</time>
      </trkpt>
      <trkpt lat="43.24313" lon="6.17034">
        <ele>76.51171875</ele>
        <time>2021-07-11T09:36:19Z</time>
      </trkpt>
      <trkpt lat="43.24333" lon="6.17036">
        <ele>76.65234375</ele>
        <time>2021-07-11T09:36:23Z</time>
      </trkpt>
      <trkpt lat="43.24339" lon="6.17036">
        <ele>76.6484375</ele>
        <time>2021-07-11T09:36:24Z</time>
      </trkpt>
      <trkpt lat="43.24422" lon="6.17052">
        <ele>76.39453125</ele>
        <time>2021-07-11T09:36:39Z</time>
      </trkpt>
      <trkpt lat="43.245" lon="6.17084">
        <ele>77.0703125</ele>
        <time>2021-07-11T09:36:53Z</time>
      </trkpt>
      <trkpt lat="43.24585" lon="6.1711">
        <ele>77.48046875</ele>
        <time>2021-07-11T09:37:08Z</time>
      </trkpt>
      <trkpt lat="43.24665" lon="6.17132">
        <ele>77.44921875</ele>
        <time>2021-07-11T09:37:23Z</time>
      </trkpt>
      <trkpt lat="43.24725" lon="6.17153">
        <ele>77</ele>
        <time>2021-07-11T09:37:35Z</time>
      </trkpt>
      <trkpt lat="43.24742" lon="6.17152">
        <ele>77</ele>
        <time>2021-07-11T09:37:42Z</time>
      </trkpt>
      <trkpt lat="43.24743" lon="6.1715">
        <ele>76.9375</ele>
        <time>2021-07-11T09:37:43Z</time>
      </trkpt>
      <trkpt lat="43.24742" lon="6.17148">
        <ele>76.85546875</ele>
        <time>2021-07-11T09:37:44Z</time>
      </trkpt>
      <trkpt lat="43.2474" lon="6.17146">
        <ele>76.80859375</ele>
        <time>2021-07-11T09:37:45Z</time>
      </trkpt>
      <trkpt lat="43.24737" lon="6.17147">
        <ele>76.83203125</ele>
        <time>2021-07-11T09:37:46Z</time>
      </trkpt>
      <trkpt lat="43.24735" lon="6.1715">
        <ele>76.93359375</ele>
        <time>2021-07-11T09:37:47Z</time>
      </trkpt>
      <trkpt lat="43.24735" lon="6.17154">
        <ele>77</ele>
        <time>2021-07-11T09:37:48Z</time>
      </trkpt>
      <trkpt lat="43.24735" lon="6.17156">
        <ele>77</ele>
        <time>2021-07-11T09:37:49Z</time>
      </trkpt>
      <trkpt lat="43.24737" lon="6.17162">
        <ele>77</ele>
        <time>2021-07-11T09:37:52Z</time>
      </trkpt>
      <trkpt lat="43.24739" lon="6.17162">
        <ele>77</ele>
        <time>2021-07-11T09:37:53Z</time>
      </trkpt>
      <trkpt lat="43.2474" lon="6.1716">
        <ele>77</ele>
        <time>2021-07-11T09:37:54Z</time>
      </trkpt>
      <trkpt lat="43.2474" lon="6.17156">
        <ele>77</ele>
        <time>2021-07-11T09:38:06Z</time>
      </trkpt>
      <trkpt lat="43.24739" lon="6.17155">
        <ele>77</ele>
        <time>2021-07-11T09:38:33Z</time>
      </trkpt>
      <trkpt lat="43.24738" lon="6.17151">
        <ele>76.97265625</ele>
        <time>2021-07-11T09:39:07Z</time>
      </trkpt>
      <trkpt lat="43.2474" lon="6.17107">
        <ele>75.37890625</ele>
        <time>2021-07-11T09:39:16Z</time>
      </trkpt>
      <trkpt lat="43.2474" lon="6.17101">
        <ele>75.15625</ele>
        <time>2021-07-11T09:39:17Z</time>
      </trkpt>
      <trkpt lat="43.2474" lon="6.17094">
        <ele>74.9609375</ele>
        <time>2021-07-11T09:39:18Z</time>
      </trkpt>
      <trkpt lat="43.2474" lon="6.17088">
        <ele>74.85546875</ele>
        <time>2021-07-11T09:39:19Z</time>
      </trkpt>
      <trkpt lat="43.24738" lon="6.17082">
        <ele>74.79296875</ele>
        <time>2021-07-11T09:39:20Z</time>
      </trkpt>
      <trkpt lat="43.24734" lon="6.17078">
        <ele>74.80078125</ele>
        <time>2021-07-11T09:39:21Z</time>
      </trkpt>
      <trkpt lat="43.2473" lon="6.17073">
        <ele>74.88671875</ele>
        <time>2021-07-11T09:39:22Z</time>
      </trkpt>
      <trkpt lat="43.24725" lon="6.17069">
        <ele>75</ele>
        <time>2021-07-11T09:39:23Z</time>
      </trkpt>
      <trkpt lat="43.24719" lon="6.17065">
        <ele>74.8984375</ele>
        <time>2021-07-11T09:39:24Z</time>
      </trkpt>
      <trkpt lat="43.24714" lon="6.17059">
        <ele>74.81640625</ele>
        <time>2021-07-11T09:39:25Z</time>
      </trkpt>
      <trkpt lat="43.24709" lon="6.17053">
        <ele>74.7890625</ele>
        <time>2021-07-11T09:39:26Z</time>
      </trkpt>
      <trkpt lat="43.24705" lon="6.17047">
        <ele>74.82421875</ele>
        <time>2021-07-11T09:39:27Z</time>
      </trkpt>
      <trkpt lat="43.24696" lon="6.17034">
        <ele>74.79296875</ele>
        <time>2021-07-11T09:39:29Z</time>
      </trkpt>
      <trkpt lat="43.24669" lon="6.17006">
        <ele>74.76171875</ele>
        <time>2021-07-11T09:39:35Z</time>
      </trkpt>
      <trkpt lat="43.24655" lon="6.16995">
        <ele>74.359375</ele>
        <time>2021-07-11T09:39:38Z</time>
      </trkpt>
      <trkpt lat="43.24643" lon="6.16983">
        <ele>73.91015625</ele>
        <time>2021-07-11T09:39:41Z</time>
      </trkpt>
      <trkpt lat="43.24641" lon="6.16977">
        <ele>73.69921875</ele>
        <time>2021-07-11T09:39:42Z</time>
      </trkpt>
      <trkpt lat="43.24641" lon="6.16969">
        <ele>73.42578125</ele>
        <time>2021-07-11T09:39:43Z</time>
      </trkpt>
      <trkpt lat="43.24644" lon="6.16962">
        <ele>73.20703125</ele>
        <time>2021-07-11T09:39:44Z</time>
      </trkpt>
      <trkpt lat="43.24648" lon="6.16956">
        <ele>73.16796875</ele>
        <time>2021-07-11T09:39:45Z</time>
      </trkpt>
      <trkpt lat="43.24652" lon="6.16952">
        <ele>73.25</ele>
        <time>2021-07-11T09:39:46Z</time>
      </trkpt>
      <trkpt lat="43.24656" lon="6.16947">
        <ele>73.2890625</ele>
        <time>2021-07-11T09:39:47Z</time>
      </trkpt>
      <trkpt lat="43.24669" lon="6.1693">
        <ele>73</ele>
        <time>2021-07-11T09:39:50Z</time>
      </trkpt>
      <trkpt lat="43.24673" lon="6.16924">
        <ele>73.08203125</ele>
        <time>2021-07-11T09:39:51Z</time>
      </trkpt>
      <trkpt lat="43.24732" lon="6.16837">
        <ele>74.6953125</ele>
        <time>2021-07-11T09:40:07Z</time>
      </trkpt>
      <trkpt lat="43.24764" lon="6.16789">
        <ele>77.8515625</ele>
        <time>2021-07-11T09:40:16Z</time>
      </trkpt>
      <trkpt lat="43.24768" lon="6.16784">
        <ele>78.38671875</ele>
        <time>2021-07-11T09:40:17Z</time>
      </trkpt>
      <trkpt lat="43.24777" lon="6.1677">
        <ele>80.06640625</ele>
        <time>2021-07-11T09:40:20Z</time>
      </trkpt>
      <trkpt lat="43.24779" lon="6.16765">
        <ele>80.5703125</ele>
        <time>2021-07-11T09:40:21Z</time>
      </trkpt>
      <trkpt lat="43.24779" lon="6.1676">
        <ele>80.83203125</ele>
        <time>2021-07-11T09:40:22Z</time>
      </trkpt>
      <trkpt lat="43.24778" lon="6.16755">
        <ele>80.90625</ele>
        <time>2021-07-11T09:40:23Z</time>
      </trkpt>
      <trkpt lat="43.24777" lon="6.1675">
        <ele>80.9296875</ele>
        <time>2021-07-11T09:40:24Z</time>
      </trkpt>
      <trkpt lat="43.24775" lon="6.16746">
        <ele>80.8828125</ele>
        <time>2021-07-11T09:40:25Z</time>
      </trkpt>
      <trkpt lat="43.24772" lon="6.16741">
        <ele>80.765625</ele>
        <time>2021-07-11T09:40:26Z</time>
      </trkpt>
      <trkpt lat="43.24769" lon="6.16737">
        <ele>80.62890625</ele>
        <time>2021-07-11T09:40:27Z</time>
      </trkpt>
      <trkpt lat="43.24763" lon="6.16727">
        <ele>80.47265625</ele>
        <time>2021-07-11T09:40:29Z</time>
      </trkpt>
      <trkpt lat="43.24729" lon="6.16675">
        <ele>79.45703125</ele>
        <time>2021-07-11T09:40:43Z</time>
      </trkpt>
      <trkpt lat="43.2472" lon="6.16662">
        <ele>79.41796875</ele>
        <time>2021-07-11T09:40:46Z</time>
      </trkpt>
      <trkpt lat="43.24717" lon="6.16659">
        <ele>79.43359375</ele>
        <time>2021-07-11T09:40:47Z</time>
      </trkpt>
      <trkpt lat="43.24714" lon="6.16655">
        <ele>79.47265625</ele>
        <time>2021-07-11T09:40:48Z</time>
      </trkpt>
      <trkpt lat="43.24704" lon="6.16632">
        <ele>79.94140625</ele>
        <time>2021-07-11T09:40:53Z</time>
      </trkpt>
      <trkpt lat="43.24702" lon="6.16626">
        <ele>80.0703125</ele>
        <time>2021-07-11T09:40:54Z</time>
      </trkpt>
      <trkpt lat="43.24693" lon="6.16607">
        <ele>80.43359375</ele>
        <time>2021-07-11T09:40:57Z</time>
      </trkpt>
      <trkpt lat="43.24682" lon="6.16589">
        <ele>80.5546875</ele>
        <time>2021-07-11T09:41:00Z</time>
      </trkpt>
      <trkpt lat="43.24677" lon="6.16584">
        <ele>80.5625</ele>
        <time>2021-07-11T09:41:01Z</time>
      </trkpt>
      <trkpt lat="43.24672" lon="6.1658">
        <ele>80.6171875</ele>
        <time>2021-07-11T09:41:02Z</time>
      </trkpt>
      <trkpt lat="43.24666" lon="6.16576">
        <ele>80.9375</ele>
        <time>2021-07-11T09:41:03Z</time>
      </trkpt>
      <trkpt lat="43.24661" lon="6.16572">
        <ele>81.2578125</ele>
        <time>2021-07-11T09:41:04Z</time>
      </trkpt>
      <trkpt lat="43.24657" lon="6.16568">
        <ele>81.53515625</ele>
        <time>2021-07-11T09:41:05Z</time>
      </trkpt>
      <trkpt lat="43.24653" lon="6.16563">
        <ele>81.8359375</ele>
        <time>2021-07-11T09:41:06Z</time>
      </trkpt>
      <trkpt lat="43.24649" lon="6.16558">
        <ele>82.140625</ele>
        <time>2021-07-11T09:41:07Z</time>
      </trkpt>
      <trkpt lat="43.24621" lon="6.16506">
        <ele>84.8359375</ele>
        <time>2021-07-11T09:41:17Z</time>
      </trkpt>
      <trkpt lat="43.24601" lon="6.16464">
        <ele>85.3828125</ele>
        <time>2021-07-11T09:41:23Z</time>
      </trkpt>
      <trkpt lat="43.24567" lon="6.16327">
        <ele>83.07421875</ele>
        <time>2021-07-11T09:41:37Z</time>
      </trkpt>
      <trkpt lat="43.24539" lon="6.16196">
        <ele>79.8515625</ele>
        <time>2021-07-11T09:41:49Z</time>
      </trkpt>
      <trkpt lat="43.24533" lon="6.16173">
        <ele>78.796875</ele>
        <time>2021-07-11T09:41:51Z</time>
      </trkpt>
      <trkpt lat="43.24529" lon="6.16162">
        <ele>78.21484375</ele>
        <time>2021-07-11T09:41:52Z</time>
      </trkpt>
      <trkpt lat="43.24517" lon="6.16131">
        <ele>77.09765625</ele>
        <time>2021-07-11T09:41:55Z</time>
      </trkpt>
      <trkpt lat="43.24514" lon="6.1612">
        <ele>77.0625</ele>
        <time>2021-07-11T09:41:56Z</time>
      </trkpt>
      <trkpt lat="43.24512" lon="6.16109">
        <ele>77.16015625</ele>
        <time>2021-07-11T09:41:57Z</time>
      </trkpt>
      <trkpt lat="43.24506" lon="6.16081">
        <ele>77.62890625</ele>
        <time>2021-07-11T09:42:00Z</time>
      </trkpt>
      <trkpt lat="43.24503" lon="6.16074">
        <ele>77.8203125</ele>
        <time>2021-07-11T09:42:01Z</time>
      </trkpt>
      <trkpt lat="43.245" lon="6.16068">
        <ele>78.09375</ele>
        <time>2021-07-11T09:42:02Z</time>
      </trkpt>
      <trkpt lat="43.24496" lon="6.16062">
        <ele>78.51171875</ele>
        <time>2021-07-11T09:42:03Z</time>
      </trkpt>
      <trkpt lat="43.24491" lon="6.16056">
        <ele>78.9296875</ele>
        <time>2021-07-11T09:42:04Z</time>
      </trkpt>
      <trkpt lat="43.24432" lon="6.15956">
        <ele>82</ele>
        <time>2021-07-11T09:42:19Z</time>
      </trkpt>
      <trkpt lat="43.24428" lon="6.15949">
        <ele>82</ele>
        <time>2021-07-11T09:42:20Z</time>
      </trkpt>
      <trkpt lat="43.24419" lon="6.15936">
        <ele>81.921875</ele>
        <time>2021-07-11T09:42:22Z</time>
      </trkpt>
      <trkpt lat="43.24368" lon="6.15841">
        <ele>79.0859375</ele>
        <time>2021-07-11T09:42:36Z</time>
      </trkpt>
      <trkpt lat="43.24364" lon="6.15835">
        <ele>78.96875</ele>
        <time>2021-07-11T09:42:37Z</time>
      </trkpt>
      <trkpt lat="43.2434" lon="6.15792">
        <ele>78.1015625</ele>
        <time>2021-07-11T09:42:45Z</time>
      </trkpt>
      <trkpt lat="43.24276" lon="6.15696">
        <ele>77.46484375</ele>
        <time>2021-07-11T09:43:04Z</time>
      </trkpt>
      <trkpt lat="43.24221" lon="6.15614">
        <ele>74.7890625</ele>
        <time>2021-07-11T09:43:19Z</time>
      </trkpt>
      <trkpt lat="43.24215" lon="6.15609">
        <ele>74.609375</ele>
        <time>2021-07-11T09:43:20Z</time>
      </trkpt>
      <trkpt lat="43.2421" lon="6.15606">
        <ele>74.4140625</ele>
        <time>2021-07-11T09:43:21Z</time>
      </trkpt>
      <trkpt lat="43.24205" lon="6.15603">
        <ele>74.2109375</ele>
        <time>2021-07-11T09:43:22Z</time>
      </trkpt>
      <trkpt lat="43.24198" lon="6.15601">
        <ele>73.97265625</ele>
        <time>2021-07-11T09:43:23Z</time>
      </trkpt>
      <trkpt lat="43.24191" lon="6.156">
        <ele>73.4453125</ele>
        <time>2021-07-11T09:43:24Z</time>
      </trkpt>
      <trkpt lat="43.24138" lon="6.15589">
        <ele>69.4609375</ele>
        <time>2021-07-11T09:43:30Z</time>
      </trkpt>
      <trkpt lat="43.24108" lon="6.15585">
        <ele>66.59375</ele>
        <time>2021-07-11T09:43:33Z</time>
      </trkpt>
      <trkpt lat="43.24099" lon="6.15581">
        <ele>66.16015625</ele>
        <time>2021-07-11T09:43:34Z</time>
      </trkpt>
      <trkpt lat="43.24091" lon="6.15573">
        <ele>66</ele>
        <time>2021-07-11T09:43:35Z</time>
      </trkpt>
      <trkpt lat="43.24085" lon="6.15563">
        <ele>65.91015625</ele>
        <time>2021-07-11T09:43:36Z</time>
      </trkpt>
      <trkpt lat="43.24081" lon="6.15552">
        <ele>65.765625</ele>
        <time>2021-07-11T09:43:37Z</time>
      </trkpt>
      <trkpt lat="43.24078" lon="6.1554">
        <ele>65.6796875</ele>
        <time>2021-07-11T09:43:38Z</time>
      </trkpt>
      <trkpt lat="43.24051" lon="6.1548">
        <ele>64.66796875</ele>
        <time>2021-07-11T09:43:44Z</time>
      </trkpt>
      <trkpt lat="43.24045" lon="6.15472">
        <ele>64.453125</ele>
        <time>2021-07-11T09:43:45Z</time>
      </trkpt>
      <trkpt lat="43.2398" lon="6.15373">
        <ele>61.31640625</ele>
        <time>2021-07-11T09:43:58Z</time>
      </trkpt>
      <trkpt lat="43.23909" lon="6.15234">
        <ele>61</ele>
        <time>2021-07-11T09:44:16Z</time>
      </trkpt>
      <trkpt lat="43.23879" lon="6.15101">
        <ele>60</ele>
        <time>2021-07-11T09:44:31Z</time>
      </trkpt>
      <trkpt lat="43.23875" lon="6.15066">
        <ele>60.04296875</ele>
        <time>2021-07-11T09:44:35Z</time>
      </trkpt>
      <trkpt lat="43.23875" lon="6.15059">
        <ele>60.13671875</ele>
        <time>2021-07-11T09:44:36Z</time>
      </trkpt>
      <trkpt lat="43.23876" lon="6.15053">
        <ele>60.2265625</ele>
        <time>2021-07-11T09:44:37Z</time>
      </trkpt>
      <trkpt lat="43.23876" lon="6.15048">
        <ele>60.2890625</ele>
        <time>2021-07-11T09:44:38Z</time>
      </trkpt>
      <trkpt lat="43.23876" lon="6.15045">
        <ele>60.34375</ele>
        <time>2021-07-11T09:44:39Z</time>
      </trkpt>
      <trkpt lat="43.23877" lon="6.15041">
        <ele>60.42578125</ele>
        <time>2021-07-11T09:44:40Z</time>
      </trkpt>
      <trkpt lat="43.23877" lon="6.15037">
        <ele>60.515625</ele>
        <time>2021-07-11T09:44:41Z</time>
      </trkpt>
      <trkpt lat="43.23875" lon="6.15033">
        <ele>60.546875</ele>
        <time>2021-07-11T09:44:42Z</time>
      </trkpt>
      <trkpt lat="43.23871" lon="6.15031">
        <ele>60.51171875</ele>
        <time>2021-07-11T09:44:43Z</time>
      </trkpt>
      <trkpt lat="43.23867" lon="6.15031">
        <ele>60.44140625</ele>
        <time>2021-07-11T09:44:44Z</time>
      </trkpt>
      <trkpt lat="43.23863" lon="6.1503">
        <ele>60.3984375</ele>
        <time>2021-07-11T09:44:45Z</time>
      </trkpt>
      <trkpt lat="43.23858" lon="6.15028">
        <ele>60.36328125</ele>
        <time>2021-07-11T09:44:46Z</time>
      </trkpt>
      <trkpt lat="43.23778" lon="6.1499">
        <ele>60</ele>
        <time>2021-07-11T09:44:59Z</time>
      </trkpt>
      <trkpt lat="43.23761" lon="6.14979">
        <ele>60</ele>
        <time>2021-07-11T09:45:02Z</time>
      </trkpt>
      <trkpt lat="43.23758" lon="6.14972">
        <ele>60</ele>
        <time>2021-07-11T09:45:03Z</time>
      </trkpt>
      <trkpt lat="43.23756" lon="6.14963">
        <ele>60</ele>
        <time>2021-07-11T09:45:04Z</time>
      </trkpt>
      <trkpt lat="43.23754" lon="6.14954">
        <ele>60</ele>
        <time>2021-07-11T09:45:05Z</time>
      </trkpt>
      <trkpt lat="43.23751" lon="6.14945">
        <ele>60</ele>
        <time>2021-07-11T09:45:06Z</time>
      </trkpt>
      <trkpt lat="43.23737" lon="6.14885">
        <ele>60</ele>
        <time>2021-07-11T09:45:13Z</time>
      </trkpt>
      <trkpt lat="43.23735" lon="6.14877">
        <ele>60</ele>
        <time>2021-07-11T09:45:14Z</time>
      </trkpt>
      <trkpt lat="43.23734" lon="6.14867">
        <ele>60</ele>
        <time>2021-07-11T09:45:15Z</time>
      </trkpt>
      <trkpt lat="43.23734" lon="6.14858">
        <ele>60</ele>
        <time>2021-07-11T09:45:16Z</time>
      </trkpt>
      <trkpt lat="43.23734" lon="6.14848">
        <ele>60</ele>
        <time>2021-07-11T09:45:17Z</time>
      </trkpt>
      <trkpt lat="43.23747" lon="6.14698">
        <ele>61</ele>
        <time>2021-07-11T09:45:34Z</time>
      </trkpt>
      <trkpt lat="43.23748" lon="6.14691">
        <ele>61</ele>
        <time>2021-07-11T09:45:35Z</time>
      </trkpt>
      <trkpt lat="43.23749" lon="6.14684">
        <ele>61</ele>
        <time>2021-07-11T09:45:36Z</time>
      </trkpt>
      <trkpt lat="43.2375" lon="6.14678">
        <ele>61</ele>
        <time>2021-07-11T09:45:37Z</time>
      </trkpt>
      <trkpt lat="43.23751" lon="6.14672">
        <ele>61</ele>
        <time>2021-07-11T09:45:38Z</time>
      </trkpt>
      <trkpt lat="43.23754" lon="6.1466">
        <ele>61</ele>
        <time>2021-07-11T09:45:40Z</time>
      </trkpt>
      <trkpt lat="43.23756" lon="6.14624">
        <ele>61.00390625</ele>
        <time>2021-07-11T09:45:46Z</time>
      </trkpt>
      <trkpt lat="43.23757" lon="6.14619">
        <ele>61.01953125</ele>
        <time>2021-07-11T09:45:47Z</time>
      </trkpt>
      <trkpt lat="43.23757" lon="6.14563">
        <ele>62</ele>
        <time>2021-07-11T09:45:59Z</time>
      </trkpt>
      <trkpt lat="43.23757" lon="6.14558">
        <ele>62</ele>
        <time>2021-07-11T09:46:00Z</time>
      </trkpt>
      <trkpt lat="43.23757" lon="6.14552">
        <ele>62</ele>
        <time>2021-07-11T09:46:01Z</time>
      </trkpt>
      <trkpt lat="43.23757" lon="6.14547">
        <ele>62</ele>
        <time>2021-07-11T09:46:02Z</time>
      </trkpt>
      <trkpt lat="43.23757" lon="6.14542">
        <ele>62</ele>
        <time>2021-07-11T09:46:03Z</time>
      </trkpt>
      <trkpt lat="43.23752" lon="6.14442">
        <ele>62</ele>
        <time>2021-07-11T09:46:17Z</time>
      </trkpt>
      <trkpt lat="43.23749" lon="6.14323">
        <ele>62</ele>
        <time>2021-07-11T09:46:32Z</time>
      </trkpt>
      <trkpt lat="43.23748" lon="6.14307">
        <ele>61.51171875</ele>
        <time>2021-07-11T09:46:34Z</time>
      </trkpt>
      <trkpt lat="43.23737" lon="6.14185">
        <ele>61</ele>
        <time>2021-07-11T09:46:49Z</time>
      </trkpt>
      <trkpt lat="43.23732" lon="6.14152">
        <ele>61.1796875</ele>
        <time>2021-07-11T09:46:53Z</time>
      </trkpt>
      <trkpt lat="43.23717" lon="6.14038">
        <ele>61</ele>
        <time>2021-07-11T09:47:06Z</time>
      </trkpt>
      <trkpt lat="43.23698" lon="6.13909">
        <ele>59.1640625</ele>
        <time>2021-07-11T09:47:22Z</time>
      </trkpt>
      <trkpt lat="43.23683" lon="6.13836">
        <ele>59</ele>
        <time>2021-07-11T09:47:31Z</time>
      </trkpt>
      <trkpt lat="43.23682" lon="6.13828">
        <ele>59</ele>
        <time>2021-07-11T09:47:32Z</time>
      </trkpt>
      <trkpt lat="43.23682" lon="6.1382">
        <ele>59</ele>
        <time>2021-07-11T09:47:33Z</time>
      </trkpt>
      <trkpt lat="43.23683" lon="6.13813">
        <ele>59</ele>
        <time>2021-07-11T09:47:34Z</time>
      </trkpt>
      <trkpt lat="43.23685" lon="6.13806">
        <ele>59</ele>
        <time>2021-07-11T09:47:35Z</time>
      </trkpt>
      <trkpt lat="43.2369" lon="6.138">
        <ele>59</ele>
        <time>2021-07-11T09:47:36Z</time>
      </trkpt>
      <trkpt lat="43.23696" lon="6.13797">
        <ele>59</ele>
        <time>2021-07-11T09:47:37Z</time>
      </trkpt>
      <trkpt lat="43.23702" lon="6.13795">
        <ele>59</ele>
        <time>2021-07-11T09:47:38Z</time>
      </trkpt>
      <trkpt lat="43.23708" lon="6.13793">
        <ele>59</ele>
        <time>2021-07-11T09:47:39Z</time>
      </trkpt>
      <trkpt lat="43.23798" lon="6.13746">
        <ele>60</ele>
        <time>2021-07-11T09:47:56Z</time>
      </trkpt>
      <trkpt lat="43.2382" lon="6.13737">
        <ele>60</ele>
        <time>2021-07-11T09:48:00Z</time>
      </trkpt>
      <trkpt lat="43.23825" lon="6.13734">
        <ele>60</ele>
        <time>2021-07-11T09:48:01Z</time>
      </trkpt>
      <trkpt lat="43.23918" lon="6.13659">
        <ele>61.71484375</ele>
        <time>2021-07-11T09:48:20Z</time>
      </trkpt>
      <trkpt lat="43.23971" lon="6.13617">
        <ele>62</ele>
        <time>2021-07-11T09:48:33Z</time>
      </trkpt>
      <trkpt lat="43.24002" lon="6.13597">
        <ele>62.92578125</ele>
        <time>2021-07-11T09:48:41Z</time>
      </trkpt>
      <trkpt lat="43.24005" lon="6.13601">
        <ele>62.890625</ele>
        <time>2021-07-11T09:48:42Z</time>
      </trkpt>
      <trkpt lat="43.24007" lon="6.13608">
        <ele>62.68359375</ele>
        <time>2021-07-11T09:48:43Z</time>
      </trkpt>
      <trkpt lat="43.24029" lon="6.13716">
        <ele>62</ele>
        <time>2021-07-11T09:48:58Z</time>
      </trkpt>
      <trkpt lat="43.24031" lon="6.13723">
        <ele>62</ele>
        <time>2021-07-11T09:48:59Z</time>
      </trkpt>
      <trkpt lat="43.24034" lon="6.13729">
        <ele>62</ele>
        <time>2021-07-11T09:49:00Z</time>
      </trkpt>
      <trkpt lat="43.24037" lon="6.13735">
        <ele>62</ele>
        <time>2021-07-11T09:49:01Z</time>
      </trkpt>
      <trkpt lat="43.24041" lon="6.1374">
        <ele>62</ele>
        <time>2021-07-11T09:49:02Z</time>
      </trkpt>
      <trkpt lat="43.24046" lon="6.13745">
        <ele>62</ele>
        <time>2021-07-11T09:49:03Z</time>
      </trkpt>
      <trkpt lat="43.2405" lon="6.13749">
        <ele>62</ele>
        <time>2021-07-11T09:49:04Z</time>
      </trkpt>
      <trkpt lat="43.24055" lon="6.13752">
        <ele>62</ele>
        <time>2021-07-11T09:49:05Z</time>
      </trkpt>
      <trkpt lat="43.2406" lon="6.13755">
        <ele>62</ele>
        <time>2021-07-11T09:49:06Z</time>
      </trkpt>
      <trkpt lat="43.24079" lon="6.13765">
        <ele>62.70703125</ele>
        <time>2021-07-11T09:49:10Z</time>
      </trkpt>
      <trkpt lat="43.24164" lon="6.13798">
        <ele>63</ele>
        <time>2021-07-11T09:49:26Z</time>
      </trkpt>
      <trkpt lat="43.24208" lon="6.13812">
        <ele>63.3359375</ele>
        <time>2021-07-11T09:49:35Z</time>
      </trkpt>
      <trkpt lat="43.24213" lon="6.13815">
        <ele>63.51171875</ele>
        <time>2021-07-11T09:49:36Z</time>
      </trkpt>
      <trkpt lat="43.24218" lon="6.13819">
        <ele>63.68359375</ele>
        <time>2021-07-11T09:49:37Z</time>
      </trkpt>
      <trkpt lat="43.24222" lon="6.13823">
        <ele>63.86328125</ele>
        <time>2021-07-11T09:49:38Z</time>
      </trkpt>
      <trkpt lat="43.24226" lon="6.13829">
        <ele>63.98828125</ele>
        <time>2021-07-11T09:49:39Z</time>
      </trkpt>
      <trkpt lat="43.24229" lon="6.13835">
        <ele>64</ele>
        <time>2021-07-11T09:49:40Z</time>
      </trkpt>
      <trkpt lat="43.24232" lon="6.13842">
        <ele>64</ele>
        <time>2021-07-11T09:49:41Z</time>
      </trkpt>
      <trkpt lat="43.24234" lon="6.13849">
        <ele>64</ele>
        <time>2021-07-11T09:49:42Z</time>
      </trkpt>
      <trkpt lat="43.24236" lon="6.13856">
        <ele>64</ele>
        <time>2021-07-11T09:49:43Z</time>
      </trkpt>
      <trkpt lat="43.2424" lon="6.13861">
        <ele>64</ele>
        <time>2021-07-11T09:49:44Z</time>
      </trkpt>
      <trkpt lat="43.24245" lon="6.13866">
        <ele>64</ele>
        <time>2021-07-11T09:49:45Z</time>
      </trkpt>
      <trkpt lat="43.2425" lon="6.13869">
        <ele>64</ele>
        <time>2021-07-11T09:49:46Z</time>
      </trkpt>
      <trkpt lat="43.24347" lon="6.13915">
        <ele>65</ele>
        <time>2021-07-11T09:50:05Z</time>
      </trkpt>
      <trkpt lat="43.24403" lon="6.13941">
        <ele>65</ele>
        <time>2021-07-11T09:50:16Z</time>
      </trkpt>
      <trkpt lat="43.24423" lon="6.1395">
        <ele>65</ele>
        <time>2021-07-11T09:50:20Z</time>
      </trkpt>
      <trkpt lat="43.24486" lon="6.13995">
        <ele>67</ele>
        <time>2021-07-11T09:50:34Z</time>
      </trkpt>
      <trkpt lat="43.24522" lon="6.13983">
        <ele>67</ele>
        <time>2021-07-11T09:50:42Z</time>
      </trkpt>
      <trkpt lat="43.2454" lon="6.13938">
        <ele>67.28515625</ele>
        <time>2021-07-11T09:50:49Z</time>
      </trkpt>
      <trkpt lat="43.24541" lon="6.13931">
        <ele>67.33203125</ele>
        <time>2021-07-11T09:50:50Z</time>
      </trkpt>
      <trkpt lat="43.24544" lon="6.13907">
        <ele>67.453125</ele>
        <time>2021-07-11T09:50:53Z</time>
      </trkpt>
      <trkpt lat="43.24577" lon="6.13783">
        <ele>68</ele>
        <time>2021-07-11T09:51:10Z</time>
      </trkpt>
      <trkpt lat="43.2462" lon="6.13631">
        <ele>69.1640625</ele>
        <time>2021-07-11T09:51:30Z</time>
      </trkpt>
      <trkpt lat="43.24639" lon="6.1356">
        <ele>69</ele>
        <time>2021-07-11T09:51:39Z</time>
      </trkpt>
      <trkpt lat="43.24669" lon="6.1345">
        <ele>70</ele>
        <time>2021-07-11T09:51:54Z</time>
      </trkpt>
      <trkpt lat="43.24671" lon="6.13443">
        <ele>70.0390625</ele>
        <time>2021-07-11T09:51:55Z</time>
      </trkpt>
      <trkpt lat="43.24711" lon="6.13299">
        <ele>72.09765625</ele>
        <time>2021-07-11T09:52:14Z</time>
      </trkpt>
      <trkpt lat="43.24739" lon="6.13185">
        <ele>72.48046875</ele>
        <time>2021-07-11T09:52:30Z</time>
      </trkpt>
      <trkpt lat="43.2475" lon="6.13136">
        <ele>72.953125</ele>
        <time>2021-07-11T09:52:40Z</time>
      </trkpt>
      <trkpt lat="43.24754" lon="6.13124">
        <ele>73</ele>
        <time>2021-07-11T09:52:42Z</time>
      </trkpt>
      <trkpt lat="43.24758" lon="6.13119">
        <ele>73</ele>
        <time>2021-07-11T09:52:43Z</time>
      </trkpt>
      <trkpt lat="43.24762" lon="6.13116">
        <ele>73</ele>
        <time>2021-07-11T09:52:44Z</time>
      </trkpt>
      <trkpt lat="43.24766" lon="6.13114">
        <ele>73</ele>
        <time>2021-07-11T09:52:45Z</time>
      </trkpt>
      <trkpt lat="43.24771" lon="6.13114">
        <ele>73</ele>
        <time>2021-07-11T09:52:46Z</time>
      </trkpt>
      <trkpt lat="43.24776" lon="6.13115">
        <ele>73</ele>
        <time>2021-07-11T09:52:47Z</time>
      </trkpt>
      <trkpt lat="43.24781" lon="6.13116">
        <ele>73</ele>
        <time>2021-07-11T09:52:48Z</time>
      </trkpt>
      <trkpt lat="43.24786" lon="6.13118">
        <ele>73</ele>
        <time>2021-07-11T09:52:49Z</time>
      </trkpt>
      <trkpt lat="43.24815" lon="6.13124">
        <ele>73</ele>
        <time>2021-07-11T09:52:55Z</time>
      </trkpt>
      <trkpt lat="43.2482" lon="6.13122">
        <ele>73</ele>
        <time>2021-07-11T09:52:56Z</time>
      </trkpt>
      <trkpt lat="43.24903" lon="6.13081">
        <ele>74.234375</ele>
        <time>2021-07-11T09:53:14Z</time>
      </trkpt>
      <trkpt lat="43.24926" lon="6.13067">
        <ele>75.1953125</ele>
        <time>2021-07-11T09:53:19Z</time>
      </trkpt>
      <trkpt lat="43.2493" lon="6.13063">
        <ele>75.34375</ele>
        <time>2021-07-11T09:53:20Z</time>
      </trkpt>
      <trkpt lat="43.24982" lon="6.13013">
        <ele>75.7890625</ele>
        <time>2021-07-11T09:53:33Z</time>
      </trkpt>
      <trkpt lat="43.25016" lon="6.12979">
        <ele>76.44921875</ele>
        <time>2021-07-11T09:53:42Z</time>
      </trkpt>
      <trkpt lat="43.25021" lon="6.12977">
        <ele>76.6171875</ele>
        <time>2021-07-11T09:53:43Z</time>
      </trkpt>
      <trkpt lat="43.25026" lon="6.12977">
        <ele>76.80078125</ele>
        <time>2021-07-11T09:53:44Z</time>
      </trkpt>
      <trkpt lat="43.25031" lon="6.12981">
        <ele>76.96484375</ele>
        <time>2021-07-11T09:53:45Z</time>
      </trkpt>
      <trkpt lat="43.25033" lon="6.12987">
        <ele>77.0703125</ele>
        <time>2021-07-11T09:53:46Z</time>
      </trkpt>
      <trkpt lat="43.25034" lon="6.12994">
        <ele>76.90234375</ele>
        <time>2021-07-11T09:53:47Z</time>
      </trkpt>
      <trkpt lat="43.25034" lon="6.13">
        <ele>76.67578125</ele>
        <time>2021-07-11T09:53:48Z</time>
      </trkpt>
      <trkpt lat="43.25034" lon="6.13007">
        <ele>76.41796875</ele>
        <time>2021-07-11T09:53:49Z</time>
      </trkpt>
      <trkpt lat="43.25033" lon="6.13014">
        <ele>76.13671875</ele>
        <time>2021-07-11T09:53:50Z</time>
      </trkpt>
      <trkpt lat="43.25032" lon="6.13021">
        <ele>76.25390625</ele>
        <time>2021-07-11T09:53:51Z</time>
      </trkpt>
      <trkpt lat="43.25029" lon="6.13124">
        <ele>77.85546875</ele>
        <time>2021-07-11T09:54:06Z</time>
      </trkpt>
      <trkpt lat="43.2503" lon="6.1313">
        <ele>78.08984375</ele>
        <time>2021-07-11T09:54:07Z</time>
      </trkpt>
      <trkpt lat="43.25032" lon="6.13136">
        <ele>78.34765625</ele>
        <time>2021-07-11T09:54:08Z</time>
      </trkpt>
      <trkpt lat="43.25035" lon="6.1314">
        <ele>78.61328125</ele>
        <time>2021-07-11T09:54:09Z</time>
      </trkpt>
      <trkpt lat="43.25038" lon="6.13144">
        <ele>78.875</ele>
        <time>2021-07-11T09:54:10Z</time>
      </trkpt>
      <trkpt lat="43.25042" lon="6.13147">
        <ele>79.12109375</ele>
        <time>2021-07-11T09:54:11Z</time>
      </trkpt>
      <trkpt lat="43.25047" lon="6.13149">
        <ele>79.37109375</ele>
        <time>2021-07-11T09:54:12Z</time>
      </trkpt>
      <trkpt lat="43.25052" lon="6.13151">
        <ele>79.6015625</ele>
        <time>2021-07-11T09:54:13Z</time>
      </trkpt>
      <trkpt lat="43.25057" lon="6.13152">
        <ele>79.8359375</ele>
        <time>2021-07-11T09:54:14Z</time>
      </trkpt>
      <trkpt lat="43.25126" lon="6.13169">
        <ele>82.41796875</ele>
        <time>2021-07-11T09:54:29Z</time>
      </trkpt>
      <trkpt lat="43.25163" lon="6.13172">
        <ele>83.73046875</ele>
        <time>2021-07-11T09:54:36Z</time>
      </trkpt>
      <trkpt lat="43.25187" lon="6.13167">
        <ele>84.59375</ele>
        <time>2021-07-11T09:54:41Z</time>
      </trkpt>
      <trkpt lat="43.25224" lon="6.13152">
        <ele>86.78125</ele>
        <time>2021-07-11T09:54:48Z</time>
      </trkpt>
      <trkpt lat="43.25286" lon="6.13125">
        <ele>89.3515625</ele>
        <time>2021-07-11T09:54:59Z</time>
      </trkpt>
      <trkpt lat="43.25331" lon="6.13106">
        <ele>92.5703125</ele>
        <time>2021-07-11T09:55:07Z</time>
      </trkpt>
      <trkpt lat="43.25336" lon="6.13103">
        <ele>92.93359375</ele>
        <time>2021-07-11T09:55:08Z</time>
      </trkpt>
      <trkpt lat="43.25341" lon="6.13098">
        <ele>93.29296875</ele>
        <time>2021-07-11T09:55:09Z</time>
      </trkpt>
      <trkpt lat="43.25345" lon="6.13093">
        <ele>93.6015625</ele>
        <time>2021-07-11T09:55:10Z</time>
      </trkpt>
      <trkpt lat="43.25349" lon="6.13086">
        <ele>93.88671875</ele>
        <time>2021-07-11T09:55:11Z</time>
      </trkpt>
      <trkpt lat="43.25405" lon="6.13001">
        <ele>98.16796875</ele>
        <time>2021-07-11T09:55:26Z</time>
      </trkpt>
      <trkpt lat="43.25415" lon="6.12985">
        <ele>98.62890625</ele>
        <time>2021-07-11T09:55:29Z</time>
      </trkpt>
      <trkpt lat="43.25418" lon="6.1298">
        <ele>98.8046875</ele>
        <time>2021-07-11T09:55:30Z</time>
      </trkpt>
      <trkpt lat="43.2542" lon="6.12974">
        <ele>98.96484375</ele>
        <time>2021-07-11T09:55:31Z</time>
      </trkpt>
      <trkpt lat="43.25422" lon="6.1296">
        <ele>99.25</ele>
        <time>2021-07-11T09:55:33Z</time>
      </trkpt>
      <trkpt lat="43.25446" lon="6.12858">
        <ele>96.5703125</ele>
        <time>2021-07-11T09:55:46Z</time>
      </trkpt>
      <trkpt lat="43.25457" lon="6.12836">
        <ele>96.0625</ele>
        <time>2021-07-11T09:55:50Z</time>
      </trkpt>
      <trkpt lat="43.25473" lon="6.1282">
        <ele>95.828125</ele>
        <time>2021-07-11T09:55:54Z</time>
      </trkpt>
      <trkpt lat="43.25544" lon="6.12774">
        <ele>96.1015625</ele>
        <time>2021-07-11T09:56:09Z</time>
      </trkpt>
      <trkpt lat="43.25634" lon="6.12722">
        <ele>96.52734375</ele>
        <time>2021-07-11T09:56:27Z</time>
      </trkpt>
      <trkpt lat="43.25667" lon="6.12702">
        <ele>96.34375</ele>
        <time>2021-07-11T09:56:33Z</time>
      </trkpt>
      <trkpt lat="43.25672" lon="6.12698">
        <ele>96.22265625</ele>
        <time>2021-07-11T09:56:34Z</time>
      </trkpt>
      <trkpt lat="43.25677" lon="6.12693">
        <ele>95.9921875</ele>
        <time>2021-07-11T09:56:35Z</time>
      </trkpt>
      <trkpt lat="43.2568" lon="6.12686">
        <ele>95.6484375</ele>
        <time>2021-07-11T09:56:36Z</time>
      </trkpt>
      <trkpt lat="43.25683" lon="6.12679">
        <ele>95.42578125</ele>
        <time>2021-07-11T09:56:37Z</time>
      </trkpt>
      <trkpt lat="43.25686" lon="6.12672">
        <ele>95.35546875</ele>
        <time>2021-07-11T09:56:38Z</time>
      </trkpt>
      <trkpt lat="43.25688" lon="6.12664">
        <ele>95.22265625</ele>
        <time>2021-07-11T09:56:39Z</time>
      </trkpt>
      <trkpt lat="43.2569" lon="6.12656">
        <ele>95.04296875</ele>
        <time>2021-07-11T09:56:40Z</time>
      </trkpt>
      <trkpt lat="43.25691" lon="6.12648">
        <ele>94.94921875</ele>
        <time>2021-07-11T09:56:41Z</time>
      </trkpt>
      <trkpt lat="43.25695" lon="6.12633">
        <ele>94.921875</ele>
        <time>2021-07-11T09:56:43Z</time>
      </trkpt>
      <trkpt lat="43.25698" lon="6.12626">
        <ele>94.95703125</ele>
        <time>2021-07-11T09:56:44Z</time>
      </trkpt>
      <trkpt lat="43.25701" lon="6.12618">
        <ele>94.734375</ele>
        <time>2021-07-11T09:56:45Z</time>
      </trkpt>
      <trkpt lat="43.25705" lon="6.12612">
        <ele>94.58984375</ele>
        <time>2021-07-11T09:56:46Z</time>
      </trkpt>
      <trkpt lat="43.25708" lon="6.12605">
        <ele>94.51953125</ele>
        <time>2021-07-11T09:56:47Z</time>
      </trkpt>
      <trkpt lat="43.2572" lon="6.12587">
        <ele>94.8125</ele>
        <time>2021-07-11T09:56:50Z</time>
      </trkpt>
      <trkpt lat="43.25725" lon="6.12582">
        <ele>94.96875</ele>
        <time>2021-07-11T09:56:51Z</time>
      </trkpt>
      <trkpt lat="43.25729" lon="6.12578">
        <ele>95.1328125</ele>
        <time>2021-07-11T09:56:52Z</time>
      </trkpt>
      <trkpt lat="43.25743" lon="6.12569">
        <ele>95.63671875</ele>
        <time>2021-07-11T09:56:55Z</time>
      </trkpt>
      <trkpt lat="43.25748" lon="6.12567">
        <ele>95.8203125</ele>
        <time>2021-07-11T09:56:56Z</time>
      </trkpt>
      <trkpt lat="43.25753" lon="6.12565">
        <ele>96.00390625</ele>
        <time>2021-07-11T09:56:57Z</time>
      </trkpt>
      <trkpt lat="43.25759" lon="6.12565">
        <ele>96.203125</ele>
        <time>2021-07-11T09:56:58Z</time>
      </trkpt>
      <trkpt lat="43.25765" lon="6.12565">
        <ele>96.4140625</ele>
        <time>2021-07-11T09:56:59Z</time>
      </trkpt>
      <trkpt lat="43.25771" lon="6.12566">
        <ele>96.62890625</ele>
        <time>2021-07-11T09:57:00Z</time>
      </trkpt>
      <trkpt lat="43.25777" lon="6.12566">
        <ele>96.84765625</ele>
        <time>2021-07-11T09:57:01Z</time>
      </trkpt>
      <trkpt lat="43.25817" lon="6.12572">
        <ele>98.265625</ele>
        <time>2021-07-11T09:57:08Z</time>
      </trkpt>
      <trkpt lat="43.25822" lon="6.12573">
        <ele>98.4453125</ele>
        <time>2021-07-11T09:57:09Z</time>
      </trkpt>
      <trkpt lat="43.25856" lon="6.12575">
        <ele>99</ele>
        <time>2021-07-11T09:57:15Z</time>
      </trkpt>
      <trkpt lat="43.25862" lon="6.12575">
        <ele>99</ele>
        <time>2021-07-11T09:57:16Z</time>
      </trkpt>
      <trkpt lat="43.25879" lon="6.12573">
        <ele>99.53515625</ele>
        <time>2021-07-11T09:57:19Z</time>
      </trkpt>
      <trkpt lat="43.25951" lon="6.12558">
        <ele>101.12890625</ele>
        <time>2021-07-11T09:57:33Z</time>
      </trkpt>
      <trkpt lat="43.26013" lon="6.1253">
        <ele>102.37109375</ele>
        <time>2021-07-11T09:57:45Z</time>
      </trkpt>
      <trkpt lat="43.26018" lon="6.12532">
        <ele>102.5390625</ele>
        <time>2021-07-11T09:57:46Z</time>
      </trkpt>
      <trkpt lat="43.26022" lon="6.12534">
        <ele>102.6953125</ele>
        <time>2021-07-11T09:57:47Z</time>
      </trkpt>
      <trkpt lat="43.26026" lon="6.12537">
        <ele>102.83203125</ele>
        <time>2021-07-11T09:57:48Z</time>
      </trkpt>
      <trkpt lat="43.26029" lon="6.12541">
        <ele>102.9375</ele>
        <time>2021-07-11T09:57:49Z</time>
      </trkpt>
      <trkpt lat="43.26031" lon="6.12546">
        <ele>103</ele>
        <time>2021-07-11T09:57:50Z</time>
      </trkpt>
      <trkpt lat="43.26033" lon="6.12551">
        <ele>103</ele>
        <time>2021-07-11T09:57:51Z</time>
      </trkpt>
      <trkpt lat="43.26064" lon="6.12629">
        <ele>103.203125</ele>
        <time>2021-07-11T09:58:06Z</time>
      </trkpt>
      <trkpt lat="43.26076" lon="6.12655">
        <ele>103.6171875</ele>
        <time>2021-07-11T09:58:11Z</time>
      </trkpt>
      <trkpt lat="43.2609" lon="6.12704">
        <ele>104</ele>
        <time>2021-07-11T09:58:20Z</time>
      </trkpt>
      <trkpt lat="43.26137" lon="6.12832">
        <ele>104</ele>
        <time>2021-07-11T09:58:41Z</time>
      </trkpt>
      <trkpt lat="43.26149" lon="6.1287">
        <ele>104</ele>
        <time>2021-07-11T09:58:47Z</time>
      </trkpt>
      <trkpt lat="43.26167" lon="6.12933">
        <ele>104.9140625</ele>
        <time>2021-07-11T09:58:57Z</time>
      </trkpt>
      <trkpt lat="43.26168" lon="6.1294">
        <ele>104.95703125</ele>
        <time>2021-07-11T09:58:58Z</time>
      </trkpt>
      <trkpt lat="43.26181" lon="6.12992">
        <ele>105.5</ele>
        <time>2021-07-11T09:59:07Z</time>
      </trkpt>
      <trkpt lat="43.26186" lon="6.13007">
        <ele>105.88671875</ele>
        <time>2021-07-11T09:59:10Z</time>
      </trkpt>
      <trkpt lat="43.26193" lon="6.13049">
        <ele>106.17578125</ele>
        <time>2021-07-11T09:59:21Z</time>
      </trkpt>
      <trkpt lat="43.26198" lon="6.13073">
        <ele>107</ele>
        <time>2021-07-11T09:59:33Z</time>
      </trkpt>
      <trkpt lat="43.26202" lon="6.13092">
        <ele>107</ele>
        <time>2021-07-11T09:59:36Z</time>
      </trkpt>
      <trkpt lat="43.26205" lon="6.13118">
        <ele>107</ele>
        <time>2021-07-11T09:59:40Z</time>
      </trkpt>
      <trkpt lat="43.26207" lon="6.1313">
        <ele>107.0390625</ele>
        <time>2021-07-11T09:59:42Z</time>
      </trkpt>
      <trkpt lat="43.26207" lon="6.13135">
        <ele>107.109375</ele>
        <time>2021-07-11T09:59:43Z</time>
      </trkpt>
      <trkpt lat="43.26207" lon="6.13141">
        <ele>107.1796875</ele>
        <time>2021-07-11T09:59:44Z</time>
      </trkpt>
      <trkpt lat="43.26206" lon="6.13197">
        <ele>107.68359375</ele>
        <time>2021-07-11T09:59:53Z</time>
      </trkpt>
      <trkpt lat="43.26206" lon="6.13204">
        <ele>107.84765625</ele>
        <time>2021-07-11T09:59:54Z</time>
      </trkpt>
      <trkpt lat="43.26204" lon="6.13217">
        <ele>108</ele>
        <time>2021-07-11T09:59:56Z</time>
      </trkpt>
      <trkpt lat="43.26199" lon="6.13285">
        <ele>108.71875</ele>
        <time>2021-07-11T10:00:06Z</time>
      </trkpt>
      <trkpt lat="43.26201" lon="6.13291">
        <ele>108.93359375</ele>
        <time>2021-07-11T10:00:07Z</time>
      </trkpt>
      <trkpt lat="43.26203" lon="6.13296">
        <ele>109.02734375</ele>
        <time>2021-07-11T10:00:08Z</time>
      </trkpt>
      <trkpt lat="43.26207" lon="6.13301">
        <ele>109.09375</ele>
        <time>2021-07-11T10:00:09Z</time>
      </trkpt>
      <trkpt lat="43.2621" lon="6.13305">
        <ele>109.19140625</ele>
        <time>2021-07-11T10:00:10Z</time>
      </trkpt>
      <trkpt lat="43.26213" lon="6.1331">
        <ele>109.34375</ele>
        <time>2021-07-11T10:00:11Z</time>
      </trkpt>
      <trkpt lat="43.26215" lon="6.13316">
        <ele>109.53515625</ele>
        <time>2021-07-11T10:00:12Z</time>
      </trkpt>
      <trkpt lat="43.26251" lon="6.13423">
        <ele>110</ele>
        <time>2021-07-11T10:00:28Z</time>
      </trkpt>
      <trkpt lat="43.2626" lon="6.13451">
        <ele>110</ele>
        <time>2021-07-11T10:00:32Z</time>
      </trkpt>
      <trkpt lat="43.26261" lon="6.13459">
        <ele>110</ele>
        <time>2021-07-11T10:00:33Z</time>
      </trkpt>
      <trkpt lat="43.26261" lon="6.13467">
        <ele>109.7421875</ele>
        <time>2021-07-11T10:00:34Z</time>
      </trkpt>
      <trkpt lat="43.26261" lon="6.13475">
        <ele>109.44921875</ele>
        <time>2021-07-11T10:00:35Z</time>
      </trkpt>
      <trkpt lat="43.26261" lon="6.13483">
        <ele>109.14453125</ele>
        <time>2021-07-11T10:00:36Z</time>
      </trkpt>
      <trkpt lat="43.26257" lon="6.13558">
        <ele>109</ele>
        <time>2021-07-11T10:00:45Z</time>
      </trkpt>
      <trkpt lat="43.26259" lon="6.13565">
        <ele>109</ele>
        <time>2021-07-11T10:00:46Z</time>
      </trkpt>
      <trkpt lat="43.26273" lon="6.13613">
        <ele>109.65234375</ele>
        <time>2021-07-11T10:00:53Z</time>
      </trkpt>
      <trkpt lat="43.26276" lon="6.13619">
        <ele>109.8046875</ele>
        <time>2021-07-11T10:00:54Z</time>
      </trkpt>
      <trkpt lat="43.26278" lon="6.13626">
        <ele>110</ele>
        <time>2021-07-11T10:00:55Z</time>
      </trkpt>
      <trkpt lat="43.26284" lon="6.13647">
        <ele>109.890625</ele>
        <time>2021-07-11T10:00:58Z</time>
      </trkpt>
      <trkpt lat="43.26286" lon="6.13654">
        <ele>109.79296875</ele>
        <time>2021-07-11T10:00:59Z</time>
      </trkpt>
      <trkpt lat="43.26317" lon="6.13741">
        <ele>109</ele>
        <time>2021-07-11T10:01:10Z</time>
      </trkpt>
      <trkpt lat="43.26353" lon="6.13863">
        <ele>110</ele>
        <time>2021-07-11T10:01:26Z</time>
      </trkpt>
      <trkpt lat="43.26358" lon="6.13878">
        <ele>110</ele>
        <time>2021-07-11T10:01:28Z</time>
      </trkpt>
      <trkpt lat="43.26396" lon="6.14008">
        <ele>110</ele>
        <time>2021-07-11T10:01:46Z</time>
      </trkpt>
      <trkpt lat="43.26402" lon="6.14029">
        <ele>110</ele>
        <time>2021-07-11T10:01:49Z</time>
      </trkpt>
      <trkpt lat="43.26433" lon="6.14136">
        <ele>110</ele>
        <time>2021-07-11T10:02:07Z</time>
      </trkpt>
      <trkpt lat="43.26449" lon="6.14156">
        <ele>110.13671875</ele>
        <time>2021-07-11T10:02:13Z</time>
      </trkpt>
      <trkpt lat="43.26452" lon="6.14154">
        <ele>110.16796875</ele>
        <time>2021-07-11T10:02:14Z</time>
      </trkpt>
      <trkpt lat="43.26453" lon="6.14151">
        <ele>110.18359375</ele>
        <time>2021-07-11T10:02:15Z</time>
      </trkpt>
      <trkpt lat="43.26474" lon="6.14118">
        <ele>110</ele>
        <time>2021-07-11T10:02:27Z</time>
      </trkpt>
      <trkpt lat="43.26525" lon="6.14086">
        <ele>111</ele>
        <time>2021-07-11T10:02:41Z</time>
      </trkpt>
      <trkpt lat="43.26594" lon="6.14043">
        <ele>113.27734375</ele>
        <time>2021-07-11T10:02:57Z</time>
      </trkpt>
      <trkpt lat="43.26637" lon="6.14025">
        <ele>115.640625</ele>
        <time>2021-07-11T10:03:06Z</time>
      </trkpt>
      <trkpt lat="43.26641" lon="6.14025">
        <ele>115.984375</ele>
        <time>2021-07-11T10:03:07Z</time>
      </trkpt>
      <trkpt lat="43.26679" lon="6.14036">
        <ele>116.359375</ele>
        <time>2021-07-11T10:03:15Z</time>
      </trkpt>
      <trkpt lat="43.26693" lon="6.14044">
        <ele>116.86328125</ele>
        <time>2021-07-11T10:03:18Z</time>
      </trkpt>
      <trkpt lat="43.26698" lon="6.14046">
        <ele>117.04296875</ele>
        <time>2021-07-11T10:03:19Z</time>
      </trkpt>
      <trkpt lat="43.26721" lon="6.14047">
        <ele>117.8671875</ele>
        <time>2021-07-11T10:03:24Z</time>
      </trkpt>
      <trkpt lat="43.26762" lon="6.14038">
        <ele>118.7578125</ele>
        <time>2021-07-11T10:03:33Z</time>
      </trkpt>
      <trkpt lat="43.26765" lon="6.14035">
        <ele>119.04296875</ele>
        <time>2021-07-11T10:03:34Z</time>
      </trkpt>
      <trkpt lat="43.26769" lon="6.14032">
        <ele>119.3359375</ele>
        <time>2021-07-11T10:03:35Z</time>
      </trkpt>
      <trkpt lat="43.26778" lon="6.14026">
        <ele>119.859375</ele>
        <time>2021-07-11T10:03:37Z</time>
      </trkpt>
      <trkpt lat="43.26782" lon="6.14025">
        <ele>120</ele>
        <time>2021-07-11T10:03:38Z</time>
      </trkpt>
      <trkpt lat="43.26787" lon="6.14026">
        <ele>120</ele>
        <time>2021-07-11T10:03:39Z</time>
      </trkpt>
      <trkpt lat="43.26791" lon="6.14029">
        <ele>120</ele>
        <time>2021-07-11T10:03:40Z</time>
      </trkpt>
      <trkpt lat="43.26795" lon="6.14032">
        <ele>120</ele>
        <time>2021-07-11T10:03:41Z</time>
      </trkpt>
      <trkpt lat="43.26799" lon="6.14035">
        <ele>120</ele>
        <time>2021-07-11T10:03:42Z</time>
      </trkpt>
      <trkpt lat="43.26814" lon="6.14048">
        <ele>120.16796875</ele>
        <time>2021-07-11T10:03:46Z</time>
      </trkpt>
      <trkpt lat="43.26819" lon="6.1405">
        <ele>120.265625</ele>
        <time>2021-07-11T10:03:47Z</time>
      </trkpt>
      <trkpt lat="43.26823" lon="6.14052">
        <ele>120.36328125</ele>
        <time>2021-07-11T10:03:48Z</time>
      </trkpt>
      <trkpt lat="43.26828" lon="6.14052">
        <ele>120.4609375</ele>
        <time>2021-07-11T10:03:49Z</time>
      </trkpt>
      <trkpt lat="43.26833" lon="6.14053">
        <ele>120.578125</ele>
        <time>2021-07-11T10:03:50Z</time>
      </trkpt>
      <trkpt lat="43.26838" lon="6.14052">
        <ele>120.6875</ele>
        <time>2021-07-11T10:03:51Z</time>
      </trkpt>
      <trkpt lat="43.26858" lon="6.14046">
        <ele>120.97265625</ele>
        <time>2021-07-11T10:03:55Z</time>
      </trkpt>
      <trkpt lat="43.26863" lon="6.14043">
        <ele>121</ele>
        <time>2021-07-11T10:03:56Z</time>
      </trkpt>
      <trkpt lat="43.26867" lon="6.1404">
        <ele>121</ele>
        <time>2021-07-11T10:03:57Z</time>
      </trkpt>
      <trkpt lat="43.26871" lon="6.14036">
        <ele>121</ele>
        <time>2021-07-11T10:03:58Z</time>
      </trkpt>
      <trkpt lat="43.26876" lon="6.14032">
        <ele>121</ele>
        <time>2021-07-11T10:03:59Z</time>
      </trkpt>
      <trkpt lat="43.26884" lon="6.14025">
        <ele>121</ele>
        <time>2021-07-11T10:04:01Z</time>
      </trkpt>
      <trkpt lat="43.26896" lon="6.14013">
        <ele>121</ele>
        <time>2021-07-11T10:04:04Z</time>
      </trkpt>
      <trkpt lat="43.26916" lon="6.1399">
        <ele>121</ele>
        <time>2021-07-11T10:04:09Z</time>
      </trkpt>
      <trkpt lat="43.26921" lon="6.13987">
        <ele>121.05859375</ele>
        <time>2021-07-11T10:04:10Z</time>
      </trkpt>
      <trkpt lat="43.26973" lon="6.13951">
        <ele>123.87890625</ele>
        <time>2021-07-11T10:04:22Z</time>
      </trkpt>
      <trkpt lat="43.26998" lon="6.13932">
        <ele>124.84375</ele>
        <time>2021-07-11T10:04:28Z</time>
      </trkpt>
      <trkpt lat="43.27003" lon="6.13931">
        <ele>125.02734375</ele>
        <time>2021-07-11T10:04:29Z</time>
      </trkpt>
      <trkpt lat="43.27009" lon="6.13931">
        <ele>125.21875</ele>
        <time>2021-07-11T10:04:30Z</time>
      </trkpt>
      <trkpt lat="43.27044" lon="6.13935">
        <ele>126.9765625</ele>
        <time>2021-07-11T10:04:37Z</time>
      </trkpt>
      <trkpt lat="43.27049" lon="6.13936">
        <ele>127.36328125</ele>
        <time>2021-07-11T10:04:38Z</time>
      </trkpt>
      <trkpt lat="43.27054" lon="6.13939">
        <ele>127.7265625</ele>
        <time>2021-07-11T10:04:39Z</time>
      </trkpt>
      <trkpt lat="43.27084" lon="6.13953">
        <ele>128.93359375</ele>
        <time>2021-07-11T10:04:45Z</time>
      </trkpt>
      <trkpt lat="43.27088" lon="6.13954">
        <ele>129.09765625</ele>
        <time>2021-07-11T10:04:46Z</time>
      </trkpt>
      <trkpt lat="43.27103" lon="6.13953">
        <ele>129.62109375</ele>
        <time>2021-07-11T10:04:49Z</time>
      </trkpt>
      <trkpt lat="43.27154" lon="6.13949">
        <ele>130</ele>
        <time>2021-07-11T10:04:59Z</time>
      </trkpt>
      <trkpt lat="43.27159" lon="6.13952">
        <ele>130</ele>
        <time>2021-07-11T10:05:00Z</time>
      </trkpt>
      <trkpt lat="43.27164" lon="6.13955">
        <ele>130</ele>
        <time>2021-07-11T10:05:01Z</time>
      </trkpt>
      <trkpt lat="43.27168" lon="6.1396">
        <ele>130</ele>
        <time>2021-07-11T10:05:02Z</time>
      </trkpt>
      <trkpt lat="43.27172" lon="6.13964">
        <ele>130.08984375</ele>
        <time>2021-07-11T10:05:03Z</time>
      </trkpt>
      <trkpt lat="43.27187" lon="6.13981">
        <ele>130.62890625</ele>
        <time>2021-07-11T10:05:07Z</time>
      </trkpt>
      <trkpt lat="43.27191" lon="6.13984">
        <ele>130.7890625</ele>
        <time>2021-07-11T10:05:08Z</time>
      </trkpt>
      <trkpt lat="43.27196" lon="6.13986">
        <ele>130.95703125</ele>
        <time>2021-07-11T10:05:09Z</time>
      </trkpt>
      <trkpt lat="43.272" lon="6.13987">
        <ele>131</ele>
        <time>2021-07-11T10:05:10Z</time>
      </trkpt>
      <trkpt lat="43.27205" lon="6.13988">
        <ele>131</ele>
        <time>2021-07-11T10:05:11Z</time>
      </trkpt>
      <trkpt lat="43.27211" lon="6.13988">
        <ele>131</ele>
        <time>2021-07-11T10:05:12Z</time>
      </trkpt>
      <trkpt lat="43.27216" lon="6.13987">
        <ele>131</ele>
        <time>2021-07-11T10:05:13Z</time>
      </trkpt>
      <trkpt lat="43.27221" lon="6.13985">
        <ele>131</ele>
        <time>2021-07-11T10:05:14Z</time>
      </trkpt>
      <trkpt lat="43.27226" lon="6.13982">
        <ele>131.0546875</ele>
        <time>2021-07-11T10:05:15Z</time>
      </trkpt>
      <trkpt lat="43.27255" lon="6.13963">
        <ele>132.18359375</ele>
        <time>2021-07-11T10:05:21Z</time>
      </trkpt>
      <trkpt lat="43.27259" lon="6.13959">
        <ele>132.48828125</ele>
        <time>2021-07-11T10:05:22Z</time>
      </trkpt>
      <trkpt lat="43.27319" lon="6.13921">
        <ele>135.40625</ele>
        <time>2021-07-11T10:05:36Z</time>
      </trkpt>
      <trkpt lat="43.27349" lon="6.13901">
        <ele>136.60546875</ele>
        <time>2021-07-11T10:05:43Z</time>
      </trkpt>
      <trkpt lat="43.27392" lon="6.13868">
        <ele>139.0390625</ele>
        <time>2021-07-11T10:05:54Z</time>
      </trkpt>
      <trkpt lat="43.27396" lon="6.13868">
        <ele>139.19140625</ele>
        <time>2021-07-11T10:05:55Z</time>
      </trkpt>
      <trkpt lat="43.27401" lon="6.13868">
        <ele>139.3515625</ele>
        <time>2021-07-11T10:05:56Z</time>
      </trkpt>
      <trkpt lat="43.27405" lon="6.13868">
        <ele>139.51171875</ele>
        <time>2021-07-11T10:05:57Z</time>
      </trkpt>
      <trkpt lat="43.2741" lon="6.13868">
        <ele>139.6796875</ele>
        <time>2021-07-11T10:05:58Z</time>
      </trkpt>
      <trkpt lat="43.27415" lon="6.13867">
        <ele>139.84765625</ele>
        <time>2021-07-11T10:05:59Z</time>
      </trkpt>
      <trkpt lat="43.27486" lon="6.13843">
        <ele>142.23828125</ele>
        <time>2021-07-11T10:06:13Z</time>
      </trkpt>
      <trkpt lat="43.27499" lon="6.13831">
        <ele>142.26171875</ele>
        <time>2021-07-11T10:06:16Z</time>
      </trkpt>
      <trkpt lat="43.27535" lon="6.13785">
        <ele>143.37890625</ele>
        <time>2021-07-11T10:06:26Z</time>
      </trkpt>
      <trkpt lat="43.27575" lon="6.13729">
        <ele>145.2109375</ele>
        <time>2021-07-11T10:06:39Z</time>
      </trkpt>
      <trkpt lat="43.27578" lon="6.13725">
        <ele>145.453125</ele>
        <time>2021-07-11T10:06:40Z</time>
      </trkpt>
      <trkpt lat="43.27581" lon="6.13721">
        <ele>145.71484375</ele>
        <time>2021-07-11T10:06:41Z</time>
      </trkpt>
      <trkpt lat="43.27593" lon="6.13712">
        <ele>146.5625</ele>
        <time>2021-07-11T10:06:44Z</time>
      </trkpt>
      <trkpt lat="43.27619" lon="6.13701">
        <ele>148.6484375</ele>
        <time>2021-07-11T10:06:50Z</time>
      </trkpt>
      <trkpt lat="43.27623" lon="6.13698">
        <ele>148.96875</ele>
        <time>2021-07-11T10:06:51Z</time>
      </trkpt>
      <trkpt lat="43.27695" lon="6.13669">
        <ele>150</ele>
        <time>2021-07-11T10:07:08Z</time>
      </trkpt>
      <trkpt lat="43.27732" lon="6.13664">
        <ele>150.67578125</ele>
        <time>2021-07-11T10:07:20Z</time>
      </trkpt>
      <trkpt lat="43.27774" lon="6.13663">
        <ele>152.109375</ele>
        <time>2021-07-11T10:07:31Z</time>
      </trkpt>
      <trkpt lat="43.27778" lon="6.13662">
        <ele>152.22265625</ele>
        <time>2021-07-11T10:07:32Z</time>
      </trkpt>
      <trkpt lat="43.27782" lon="6.1366">
        <ele>152.39453125</ele>
        <time>2021-07-11T10:07:33Z</time>
      </trkpt>
      <trkpt lat="43.27837" lon="6.13625">
        <ele>156.1953125</ele>
        <time>2021-07-11T10:07:47Z</time>
      </trkpt>
      <trkpt lat="43.27903" lon="6.1358">
        <ele>160.4375</ele>
        <time>2021-07-11T10:08:03Z</time>
      </trkpt>
      <trkpt lat="43.27943" lon="6.13557">
        <ele>161.87890625</ele>
        <time>2021-07-11T10:08:13Z</time>
      </trkpt>
      <trkpt lat="43.27959" lon="6.13548">
        <ele>162.09375</ele>
        <time>2021-07-11T10:08:17Z</time>
      </trkpt>
      <trkpt lat="43.27964" lon="6.13546">
        <ele>162.06640625</ele>
        <time>2021-07-11T10:08:18Z</time>
      </trkpt>
      <trkpt lat="43.27968" lon="6.13543">
        <ele>162.00390625</ele>
        <time>2021-07-11T10:08:19Z</time>
      </trkpt>
      <trkpt lat="43.27972" lon="6.1354">
        <ele>161.9921875</ele>
        <time>2021-07-11T10:08:20Z</time>
      </trkpt>
      <trkpt lat="43.27988" lon="6.13516">
        <ele>163.03515625</ele>
        <time>2021-07-11T10:08:26Z</time>
      </trkpt>
      <trkpt lat="43.27999" lon="6.13505">
        <ele>163.44140625</ele>
        <time>2021-07-11T10:08:29Z</time>
      </trkpt>
      <trkpt lat="43.28031" lon="6.13479">
        <ele>165.07421875</ele>
        <time>2021-07-11T10:08:36Z</time>
      </trkpt>
      <trkpt lat="43.28034" lon="6.13474">
        <ele>165.36328125</ele>
        <time>2021-07-11T10:08:37Z</time>
      </trkpt>
      <trkpt lat="43.28036" lon="6.13469">
        <ele>165.625</ele>
        <time>2021-07-11T10:08:38Z</time>
      </trkpt>
      <trkpt lat="43.28051" lon="6.13436">
        <ele>167.31640625</ele>
        <time>2021-07-11T10:08:44Z</time>
      </trkpt>
      <trkpt lat="43.28054" lon="6.13431">
        <ele>167.64453125</ele>
        <time>2021-07-11T10:08:45Z</time>
      </trkpt>
      <trkpt lat="43.28057" lon="6.13427">
        <ele>167.95703125</ele>
        <time>2021-07-11T10:08:46Z</time>
      </trkpt>
      <trkpt lat="43.2806" lon="6.13422">
        <ele>168.1796875</ele>
        <time>2021-07-11T10:08:47Z</time>
      </trkpt>
      <trkpt lat="43.28063" lon="6.13418">
        <ele>168.40625</ele>
        <time>2021-07-11T10:08:48Z</time>
      </trkpt>
      <trkpt lat="43.28084" lon="6.13383">
        <ele>169.9140625</ele>
        <time>2021-07-11T10:08:55Z</time>
      </trkpt>
      <trkpt lat="43.28086" lon="6.13378">
        <ele>170.03515625</ele>
        <time>2021-07-11T10:08:56Z</time>
      </trkpt>
      <trkpt lat="43.28088" lon="6.13372">
        <ele>170.10546875</ele>
        <time>2021-07-11T10:08:57Z</time>
      </trkpt>
      <trkpt lat="43.28091" lon="6.13367">
        <ele>170.19140625</ele>
        <time>2021-07-11T10:08:58Z</time>
      </trkpt>
      <trkpt lat="43.28093" lon="6.13362">
        <ele>170.29296875</ele>
        <time>2021-07-11T10:08:59Z</time>
      </trkpt>
      <trkpt lat="43.28109" lon="6.13341">
        <ele>170.86328125</ele>
        <time>2021-07-11T10:09:04Z</time>
      </trkpt>
      <trkpt lat="43.28157" lon="6.13303">
        <ele>171.36328125</ele>
        <time>2021-07-11T10:09:15Z</time>
      </trkpt>
      <trkpt lat="43.28171" lon="6.13298">
        <ele>171.3359375</ele>
        <time>2021-07-11T10:09:18Z</time>
      </trkpt>
      <trkpt lat="43.28181" lon="6.13295">
        <ele>171.9140625</ele>
        <time>2021-07-11T10:09:20Z</time>
      </trkpt>
      <trkpt lat="43.28224" lon="6.13278">
        <ele>175.01953125</ele>
        <time>2021-07-11T10:09:27Z</time>
      </trkpt>
      <trkpt lat="43.28231" lon="6.13275">
        <ele>175.5234375</ele>
        <time>2021-07-11T10:09:28Z</time>
      </trkpt>
      <trkpt lat="43.28269" lon="6.13255">
        <ele>177.85546875</ele>
        <time>2021-07-11T10:09:34Z</time>
      </trkpt>
      <trkpt lat="43.28273" lon="6.13254">
        <ele>178.09765625</ele>
        <time>2021-07-11T10:09:35Z</time>
      </trkpt>
      <trkpt lat="43.28278" lon="6.13254">
        <ele>178.296875</ele>
        <time>2021-07-11T10:09:36Z</time>
      </trkpt>
      <trkpt lat="43.28281" lon="6.13256">
        <ele>178.45703125</ele>
        <time>2021-07-11T10:09:37Z</time>
      </trkpt>
      <trkpt lat="43.28285" lon="6.13258">
        <ele>178.60546875</ele>
        <time>2021-07-11T10:09:38Z</time>
      </trkpt>
      <trkpt lat="43.28288" lon="6.13261">
        <ele>178.75390625</ele>
        <time>2021-07-11T10:09:39Z</time>
      </trkpt>
      <trkpt lat="43.28291" lon="6.13265">
        <ele>178.86328125</ele>
        <time>2021-07-11T10:09:40Z</time>
      </trkpt>
      <trkpt lat="43.28294" lon="6.13269">
        <ele>178.95703125</ele>
        <time>2021-07-11T10:09:41Z</time>
      </trkpt>
      <trkpt lat="43.28296" lon="6.13274">
        <ele>179.01171875</ele>
        <time>2021-07-11T10:09:42Z</time>
      </trkpt>
      <trkpt lat="43.28298" lon="6.13278">
        <ele>179.05078125</ele>
        <time>2021-07-11T10:09:43Z</time>
      </trkpt>
      <trkpt lat="43.28336" lon="6.13338">
        <ele>179.4375</ele>
        <time>2021-07-11T10:09:59Z</time>
      </trkpt>
      <trkpt lat="43.28382" lon="6.13399">
        <ele>179.7421875</ele>
        <time>2021-07-11T10:10:16Z</time>
      </trkpt>
      <trkpt lat="43.28384" lon="6.13404">
        <ele>179.78515625</ele>
        <time>2021-07-11T10:10:17Z</time>
      </trkpt>
      <trkpt lat="43.28426" lon="6.13466">
        <ele>179.06640625</ele>
        <time>2021-07-11T10:10:31Z</time>
      </trkpt>
      <trkpt lat="43.28462" lon="6.1354">
        <ele>178.0625</ele>
        <time>2021-07-11T10:10:45Z</time>
      </trkpt>
      <trkpt lat="43.28472" lon="6.13559">
        <ele>177.4140625</ele>
        <time>2021-07-11T10:10:49Z</time>
      </trkpt>
      <trkpt lat="43.28475" lon="6.13563">
        <ele>177.27734375</ele>
        <time>2021-07-11T10:10:50Z</time>
      </trkpt>
      <trkpt lat="43.28478" lon="6.13566">
        <ele>177.16015625</ele>
        <time>2021-07-11T10:10:51Z</time>
      </trkpt>
      <trkpt lat="43.2848" lon="6.13569">
        <ele>177.05859375</ele>
        <time>2021-07-11T10:10:52Z</time>
      </trkpt>
      <trkpt lat="43.28482" lon="6.13571">
        <ele>176.96875</ele>
        <time>2021-07-11T10:10:53Z</time>
      </trkpt>
      <trkpt lat="43.2849" lon="6.1358">
        <ele>176.65234375</ele>
        <time>2021-07-11T10:10:57Z</time>
      </trkpt>
      <trkpt lat="43.28491" lon="6.1358">
        <ele>176.6484375</ele>
        <time>2021-07-11T10:10:58Z</time>
      </trkpt>
      <trkpt lat="43.28492" lon="6.1358">
        <ele>176.6484375</ele>
        <time>2021-07-11T10:10:59Z</time>
      </trkpt>
      <trkpt lat="43.28495" lon="6.13581">
        <ele>176.609375</ele>
        <time>2021-07-11T10:11:00Z</time>
      </trkpt>
      <trkpt lat="43.28497" lon="6.13584">
        <ele>176.5078125</ele>
        <time>2021-07-11T10:11:01Z</time>
      </trkpt>
      <trkpt lat="43.28499" lon="6.13588">
        <ele>176.3671875</ele>
        <time>2021-07-11T10:11:02Z</time>
      </trkpt>
      <trkpt lat="43.28509" lon="6.13603">
        <ele>175.84375</ele>
        <time>2021-07-11T10:11:06Z</time>
      </trkpt>
      <trkpt lat="43.28513" lon="6.13603">
        <ele>175.8359375</ele>
        <time>2021-07-11T10:11:07Z</time>
      </trkpt>
      <trkpt lat="43.28517" lon="6.13601">
        <ele>175.890625</ele>
        <time>2021-07-11T10:11:08Z</time>
      </trkpt>
      <trkpt lat="43.28564" lon="6.1358">
        <ele>176.66796875</ele>
        <time>2021-07-11T10:11:20Z</time>
      </trkpt>
      <trkpt lat="43.28591" lon="6.13565">
        <ele>177.203125</ele>
        <time>2021-07-11T10:11:27Z</time>
      </trkpt>
      <trkpt lat="43.28589" lon="6.13557">
        <ele>177.484375</ele>
        <time>2021-07-11T10:11:31Z</time>
      </trkpt>
      <trkpt lat="43.28587" lon="6.13553">
        <ele>177.63671875</ele>
        <time>2021-07-11T10:11:33Z</time>
      </trkpt>
      <trkpt lat="43.28579" lon="6.13503">
        <ele>179.4296875</ele>
        <time>2021-07-11T10:11:43Z</time>
      </trkpt>
      <trkpt lat="43.2858" lon="6.13484">
        <ele>180</ele>
        <time>2021-07-11T10:11:46Z</time>
      </trkpt>
      <trkpt lat="43.28582" lon="6.13472">
        <ele>180</ele>
        <time>2021-07-11T10:11:48Z</time>
      </trkpt>
      <trkpt lat="43.28585" lon="6.13466">
        <ele>180</ele>
        <time>2021-07-11T10:11:49Z</time>
      </trkpt>
      <trkpt lat="43.28593" lon="6.1345">
        <ele>180.44140625</ele>
        <time>2021-07-11T10:11:52Z</time>
      </trkpt>
      <trkpt lat="43.2861" lon="6.13426">
        <ele>182.109375</ele>
        <time>2021-07-11T10:11:57Z</time>
      </trkpt>
      <trkpt lat="43.28615" lon="6.13416">
        <ele>182.56640625</ele>
        <time>2021-07-11T10:11:59Z</time>
      </trkpt>
      <trkpt lat="43.28619" lon="6.13411">
        <ele>182.734375</ele>
        <time>2021-07-11T10:12:00Z</time>
      </trkpt>
      <trkpt lat="43.28622" lon="6.13407">
        <ele>182.890625</ele>
        <time>2021-07-11T10:12:01Z</time>
      </trkpt>
      <trkpt lat="43.28666" lon="6.13347">
        <ele>187.0390625</ele>
        <time>2021-07-11T10:12:16Z</time>
      </trkpt>
      <trkpt lat="43.28677" lon="6.13342">
        <ele>187.23046875</ele>
        <time>2021-07-11T10:12:20Z</time>
      </trkpt>
      <trkpt lat="43.28679" lon="6.13338">
        <ele>187.3828125</ele>
        <time>2021-07-11T10:12:21Z</time>
      </trkpt>
      <trkpt lat="43.2868" lon="6.13334">
        <ele>187.53515625</ele>
        <time>2021-07-11T10:12:22Z</time>
      </trkpt>
      <trkpt lat="43.28682" lon="6.1333">
        <ele>187.6640625</ele>
        <time>2021-07-11T10:12:23Z</time>
      </trkpt>
      <trkpt lat="43.28684" lon="6.13327">
        <ele>187.7890625</ele>
        <time>2021-07-11T10:12:24Z</time>
      </trkpt>
      <trkpt lat="43.28695" lon="6.13303">
        <ele>188.63671875</ele>
        <time>2021-07-11T10:12:31Z</time>
      </trkpt>
      <trkpt lat="43.28698" lon="6.13301">
        <ele>188.72265625</ele>
        <time>2021-07-11T10:12:32Z</time>
      </trkpt>
      <trkpt lat="43.287" lon="6.13298">
        <ele>188.828125</ele>
        <time>2021-07-11T10:12:33Z</time>
      </trkpt>
      <trkpt lat="43.28719" lon="6.13258">
        <ele>191.51171875</ele>
        <time>2021-07-11T10:12:43Z</time>
      </trkpt>
      <trkpt lat="43.28718" lon="6.13255">
        <ele>191.703125</ele>
        <time>2021-07-11T10:12:44Z</time>
      </trkpt>
      <trkpt lat="43.28716" lon="6.13253">
        <ele>191.84765625</ele>
        <time>2021-07-11T10:12:45Z</time>
      </trkpt>
      <trkpt lat="43.28691" lon="6.13216">
        <ele>193.7890625</ele>
        <time>2021-07-11T10:12:57Z</time>
      </trkpt>
      <trkpt lat="43.28666" lon="6.13181">
        <ele>195.046875</ele>
        <time>2021-07-11T10:13:08Z</time>
      </trkpt>
      <trkpt lat="43.28662" lon="6.13182">
        <ele>195</ele>
        <time>2021-07-11T10:13:09Z</time>
      </trkpt>
      <trkpt lat="43.28659" lon="6.13185">
        <ele>194.8984375</ele>
        <time>2021-07-11T10:13:10Z</time>
      </trkpt>
      <trkpt lat="43.28636" lon="6.13209">
        <ele>193.8671875</ele>
        <time>2021-07-11T10:13:16Z</time>
      </trkpt>
      <trkpt lat="43.28633" lon="6.13213">
        <ele>193.53125</ele>
        <time>2021-07-11T10:13:17Z</time>
      </trkpt>
      <trkpt lat="43.2863" lon="6.13214">
        <ele>193.37890625</ele>
        <time>2021-07-11T10:13:18Z</time>
      </trkpt>
      <trkpt lat="43.28628" lon="6.13214">
        <ele>193.33984375</ele>
        <time>2021-07-11T10:13:19Z</time>
      </trkpt>
      <trkpt lat="43.28627" lon="6.13213">
        <ele>193.375</ele>
        <time>2021-07-11T10:13:31Z</time>
      </trkpt>
      <trkpt lat="43.28628" lon="6.13211">
        <ele>193.44140625</ele>
        <time>2021-07-11T10:13:50Z</time>
      </trkpt>
      <trkpt lat="43.28626" lon="6.13212">
        <ele>193.390625</ele>
        <time>2021-07-11T10:14:21Z</time>
      </trkpt>
      <trkpt lat="43.28626" lon="6.13212">
        <ele>193.375</ele>
        <time>2021-07-11T10:14:50Z</time>
      </trkpt>
    </trkseg>
  </trk>
</gpx>